<?xml version="1.0" encoding="UTF-8" standalone="no" ?>
<gpx xmlns="http://www.topografix.com/GPX/1/1" xmlns:xsi="http://www.w3.org/2001/XMLSchema-instance" xsi:schemaLocation="http://www.topografix.com/GPX/1/1 http://www.topografix.com/GPX/1/1/gpx.xsd" version="1.1" creator="VisuGPX - https://www.visugpx.com">
  <metadata>
    <name>109SG70-7428507-</name>
    <desc><![CDATA[
12-19]]></desc>
  </metadata>
  <trk>
    <name><![CDATA[109SG70-7428507-]]></name>
    <trkseg>
      <trkpt lat="46.69962" lon="-1.93364">
        <ele>4</ele>
        <time>2018-04-20T15:18:01Z</time>
      </trkpt>
      <trkpt lat="46.69962" lon="-1.93368">
        <ele>4</ele>
        <time>2018-04-20T15:19:01Z</time>
      </trkpt>
      <trkpt lat="46.69963" lon="-1.93373">
        <ele>4</ele>
        <time>2018-04-20T15:20:01Z</time>
      </trkpt>
      <trkpt lat="46.69963" lon="-1.93373">
        <ele>4</ele>
        <time>2018-04-20T15:21:01Z</time>
      </trkpt>
      <trkpt lat="46.69969" lon="-1.9337">
        <ele>4</ele>
        <time>2018-04-20T15:22:01Z</time>
      </trkpt>
      <trkpt lat="46.69973" lon="-1.93367">
        <ele>4</ele>
        <time>2018-04-20T15:23:01Z</time>
      </trkpt>
      <trkpt lat="46.69976" lon="-1.93367">
        <ele>4</ele>
        <time>2018-04-20T15:24:01Z</time>
      </trkpt>
      <trkpt lat="46.69978" lon="-1.93366">
        <ele>3</ele>
        <time>2018-04-20T15:25:01Z</time>
      </trkpt>
      <trkpt lat="46.69979" lon="-1.93366">
        <ele>3</ele>
        <time>2018-04-20T15:26:01Z</time>
      </trkpt>
      <trkpt lat="46.69982" lon="-1.93367">
        <ele>3</ele>
        <time>2018-04-20T15:27:01Z</time>
      </trkpt>
      <trkpt lat="46.69987" lon="-1.93369">
        <ele>3</ele>
        <time>2018-04-20T15:28:01Z</time>
      </trkpt>
      <trkpt lat="46.70002" lon="-1.93375">
        <ele>3</ele>
        <time>2018-04-20T15:29:01Z</time>
      </trkpt>
      <trkpt lat="46.70015" lon="-1.9338">
        <ele>3</ele>
        <time>2018-04-20T15:30:01Z</time>
      </trkpt>
      <trkpt lat="46.7002" lon="-1.93382">
        <ele>3</ele>
        <time>2018-04-20T15:31:01Z</time>
      </trkpt>
      <trkpt lat="46.70023" lon="-1.93384">
        <ele>3</ele>
        <time>2018-04-20T15:32:01Z</time>
      </trkpt>
      <trkpt lat="46.70025" lon="-1.93386">
        <ele>3</ele>
        <time>2018-04-20T15:33:01Z</time>
      </trkpt>
      <trkpt lat="46.70028" lon="-1.93388">
        <ele>3</ele>
        <time>2018-04-20T15:34:01Z</time>
      </trkpt>
      <trkpt lat="46.7003" lon="-1.93391">
        <ele>3</ele>
        <time>2018-04-20T15:35:01Z</time>
      </trkpt>
      <trkpt lat="46.70033" lon="-1.93394">
        <ele>2</ele>
        <time>2018-04-20T15:36:01Z</time>
      </trkpt>
      <trkpt lat="46.70036" lon="-1.93397">
        <ele>2</ele>
        <time>2018-04-20T15:37:01Z</time>
      </trkpt>
      <trkpt lat="46.70038" lon="-1.93398">
        <ele>2</ele>
        <time>2018-04-20T15:38:01Z</time>
      </trkpt>
      <trkpt lat="46.70041" lon="-1.934">
        <ele>2</ele>
        <time>2018-04-20T15:39:01Z</time>
      </trkpt>
      <trkpt lat="46.70043" lon="-1.93401">
        <ele>2</ele>
        <time>2018-04-20T15:40:01Z</time>
      </trkpt>
      <trkpt lat="46.70046" lon="-1.93402">
        <ele>2</ele>
        <time>2018-04-20T15:41:01Z</time>
      </trkpt>
      <trkpt lat="46.70052" lon="-1.93405">
        <ele>2</ele>
        <time>2018-04-20T15:42:01Z</time>
      </trkpt>
      <trkpt lat="46.70052" lon="-1.93404">
        <ele>2</ele>
        <time>2018-04-20T15:43:01Z</time>
      </trkpt>
      <trkpt lat="46.70052" lon="-1.93403">
        <ele>2</ele>
        <time>2018-04-20T15:44:01Z</time>
      </trkpt>
      <trkpt lat="46.70052" lon="-1.93402">
        <ele>2</ele>
        <time>2018-04-20T15:45:01Z</time>
      </trkpt>
      <trkpt lat="46.70052" lon="-1.93401">
        <ele>2</ele>
        <time>2018-04-20T15:46:01Z</time>
      </trkpt>
      <trkpt lat="46.70053" lon="-1.93401">
        <ele>2</ele>
        <time>2018-04-20T15:47:01Z</time>
      </trkpt>
      <trkpt lat="46.70053" lon="-1.934">
        <ele>2</ele>
        <time>2018-04-20T15:48:01Z</time>
      </trkpt>
      <trkpt lat="46.70053" lon="-1.93399">
        <ele>2</ele>
        <time>2018-04-20T15:49:01Z</time>
      </trkpt>
      <trkpt lat="46.70054" lon="-1.93399">
        <ele>2</ele>
        <time>2018-04-20T15:50:01Z</time>
      </trkpt>
      <trkpt lat="46.70054" lon="-1.93398">
        <ele>2</ele>
        <time>2018-04-20T15:51:01Z</time>
      </trkpt>
      <trkpt lat="46.70055" lon="-1.93398">
        <ele>2</ele>
        <time>2018-04-20T15:52:01Z</time>
      </trkpt>
      <trkpt lat="46.70056" lon="-1.93398">
        <ele>2</ele>
        <time>2018-04-20T15:53:01Z</time>
      </trkpt>
      <trkpt lat="46.70056" lon="-1.93397">
        <ele>2</ele>
        <time>2018-04-20T15:54:01Z</time>
      </trkpt>
      <trkpt lat="46.70057" lon="-1.93397">
        <ele>2</ele>
        <time>2018-04-20T15:55:01Z</time>
      </trkpt>
      <trkpt lat="46.70058" lon="-1.93397">
        <ele>2</ele>
        <time>2018-04-20T15:56:01Z</time>
      </trkpt>
      <trkpt lat="46.70059" lon="-1.93398">
        <ele>2</ele>
        <time>2018-04-20T15:57:01Z</time>
      </trkpt>
      <trkpt lat="46.7006" lon="-1.93398">
        <ele>2</ele>
        <time>2018-04-20T15:58:01Z</time>
      </trkpt>
      <trkpt lat="46.7006" lon="-1.93399">
        <ele>2</ele>
        <time>2018-04-20T15:59:01Z</time>
      </trkpt>
      <trkpt lat="46.70061" lon="-1.93399">
        <ele>2</ele>
        <time>2018-04-20T16:00:01Z</time>
      </trkpt>
      <trkpt lat="46.70061" lon="-1.934">
        <ele>2</ele>
        <time>2018-04-20T16:01:01Z</time>
      </trkpt>
      <trkpt lat="46.70061" lon="-1.93401">
        <ele>2</ele>
        <time>2018-04-20T16:02:01Z</time>
      </trkpt>
      <trkpt lat="46.70062" lon="-1.93401">
        <ele>2</ele>
        <time>2018-04-20T16:03:01Z</time>
      </trkpt>
      <trkpt lat="46.70062" lon="-1.93402">
        <ele>2</ele>
        <time>2018-04-20T16:04:01Z</time>
      </trkpt>
      <trkpt lat="46.70062" lon="-1.93403">
        <ele>2</ele>
        <time>2018-04-20T16:05:01Z</time>
      </trkpt>
      <trkpt lat="46.70062" lon="-1.93404">
        <ele>2</ele>
        <time>2018-04-20T16:06:01Z</time>
      </trkpt>
      <trkpt lat="46.70062" lon="-1.93405">
        <ele>2</ele>
        <time>2018-04-20T16:07:01Z</time>
      </trkpt>
      <trkpt lat="46.70083" lon="-1.93405">
        <ele>2</ele>
        <time>2018-04-20T16:08:01Z</time>
      </trkpt>
      <trkpt lat="46.70093" lon="-1.934">
        <ele>2</ele>
        <time>2018-04-20T16:09:01Z</time>
      </trkpt>
      <trkpt lat="46.70098" lon="-1.93397">
        <ele>2</ele>
        <time>2018-04-20T16:10:01Z</time>
      </trkpt>
      <trkpt lat="46.70102" lon="-1.93395">
        <ele>2</ele>
        <time>2018-04-20T16:11:01Z</time>
      </trkpt>
      <trkpt lat="46.70107" lon="-1.93391">
        <ele>2</ele>
        <time>2018-04-20T16:12:01Z</time>
      </trkpt>
      <trkpt lat="46.70111" lon="-1.93388">
        <ele>2</ele>
        <time>2018-04-20T16:13:01Z</time>
      </trkpt>
      <trkpt lat="46.70114" lon="-1.93384">
        <ele>2</ele>
        <time>2018-04-20T16:14:01Z</time>
      </trkpt>
      <trkpt lat="46.70114" lon="-1.93384">
        <ele>2</ele>
        <time>2018-04-20T16:15:01Z</time>
      </trkpt>
      <trkpt lat="46.70115" lon="-1.93383">
        <ele>2</ele>
        <time>2018-04-20T16:16:01Z</time>
      </trkpt>
      <trkpt lat="46.70115" lon="-1.93382">
        <ele>2</ele>
        <time>2018-04-20T16:17:01Z</time>
      </trkpt>
      <trkpt lat="46.70115" lon="-1.93381">
        <ele>2</ele>
        <time>2018-04-20T16:18:01Z</time>
      </trkpt>
      <trkpt lat="46.70116" lon="-1.9338">
        <ele>2</ele>
        <time>2018-04-20T16:19:01Z</time>
      </trkpt>
      <trkpt lat="46.70116" lon="-1.93378">
        <ele>2</ele>
        <time>2018-04-20T16:20:01Z</time>
      </trkpt>
      <trkpt lat="46.70116" lon="-1.93377">
        <ele>2</ele>
        <time>2018-04-20T16:21:01Z</time>
      </trkpt>
      <trkpt lat="46.70117" lon="-1.93376">
        <ele>2</ele>
        <time>2018-04-20T16:22:01Z</time>
      </trkpt>
      <trkpt lat="46.70117" lon="-1.93375">
        <ele>2</ele>
        <time>2018-04-20T16:23:01Z</time>
      </trkpt>
      <trkpt lat="46.70118" lon="-1.93374">
        <ele>1</ele>
        <time>2018-04-20T16:24:01Z</time>
      </trkpt>
      <trkpt lat="46.70119" lon="-1.93373">
        <ele>1</ele>
        <time>2018-04-20T16:25:01Z</time>
      </trkpt>
      <trkpt lat="46.70119" lon="-1.93372">
        <ele>1</ele>
        <time>2018-04-20T16:26:01Z</time>
      </trkpt>
      <trkpt lat="46.7012" lon="-1.93372">
        <ele>1</ele>
        <time>2018-04-20T16:27:01Z</time>
      </trkpt>
      <trkpt lat="46.70121" lon="-1.93371">
        <ele>1</ele>
        <time>2018-04-20T16:28:01Z</time>
      </trkpt>
      <trkpt lat="46.70122" lon="-1.9337">
        <ele>1</ele>
        <time>2018-04-20T16:29:01Z</time>
      </trkpt>
      <trkpt lat="46.70123" lon="-1.93369">
        <ele>1</ele>
        <time>2018-04-20T16:30:01Z</time>
      </trkpt>
      <trkpt lat="46.70124" lon="-1.93369">
        <ele>1</ele>
        <time>2018-04-20T16:31:01Z</time>
      </trkpt>
      <trkpt lat="46.70125" lon="-1.93368">
        <ele>2</ele>
        <time>2018-04-20T16:32:01Z</time>
      </trkpt>
      <trkpt lat="46.70126" lon="-1.93368">
        <ele>2</ele>
        <time>2018-04-20T16:33:01Z</time>
      </trkpt>
      <trkpt lat="46.70127" lon="-1.93368">
        <ele>2</ele>
        <time>2018-04-20T16:34:01Z</time>
      </trkpt>
      <trkpt lat="46.70128" lon="-1.93368">
        <ele>2</ele>
        <time>2018-04-20T16:35:01Z</time>
      </trkpt>
      <trkpt lat="46.70129" lon="-1.93368">
        <ele>2</ele>
        <time>2018-04-20T16:36:01Z</time>
      </trkpt>
      <trkpt lat="46.7013" lon="-1.93368">
        <ele>2</ele>
        <time>2018-04-20T16:37:01Z</time>
      </trkpt>
      <trkpt lat="46.70131" lon="-1.93369">
        <ele>2</ele>
        <time>2018-04-20T16:38:01Z</time>
      </trkpt>
      <trkpt lat="46.70132" lon="-1.93369">
        <ele>2</ele>
        <time>2018-04-20T16:39:01Z</time>
      </trkpt>
      <trkpt lat="46.70132" lon="-1.9337">
        <ele>2</ele>
        <time>2018-04-20T16:40:01Z</time>
      </trkpt>
      <trkpt lat="46.70133" lon="-1.9337">
        <ele>2</ele>
        <time>2018-04-20T16:41:01Z</time>
      </trkpt>
      <trkpt lat="46.70134" lon="-1.93371">
        <ele>2</ele>
        <time>2018-04-20T16:42:01Z</time>
      </trkpt>
      <trkpt lat="46.70135" lon="-1.93372">
        <ele>2</ele>
        <time>2018-04-20T16:43:01Z</time>
      </trkpt>
      <trkpt lat="46.70136" lon="-1.93373">
        <ele>2</ele>
        <time>2018-04-20T16:44:01Z</time>
      </trkpt>
      <trkpt lat="46.70136" lon="-1.93374">
        <ele>2</ele>
        <time>2018-04-20T16:45:01Z</time>
      </trkpt>
      <trkpt lat="46.70137" lon="-1.93374">
        <ele>2</ele>
        <time>2018-04-20T16:46:01Z</time>
      </trkpt>
      <trkpt lat="46.70137" lon="-1.93375">
        <ele>1</ele>
        <time>2018-04-20T16:47:01Z</time>
      </trkpt>
      <trkpt lat="46.70138" lon="-1.93376">
        <ele>1</ele>
        <time>2018-04-20T16:48:01Z</time>
      </trkpt>
      <trkpt lat="46.70138" lon="-1.93377">
        <ele>1</ele>
        <time>2018-04-20T16:49:01Z</time>
      </trkpt>
      <trkpt lat="46.70138" lon="-1.93378">
        <ele>1</ele>
        <time>2018-04-20T16:50:01Z</time>
      </trkpt>
      <trkpt lat="46.70139" lon="-1.93379">
        <ele>1</ele>
        <time>2018-04-20T16:51:01Z</time>
      </trkpt>
      <trkpt lat="46.70139" lon="-1.93381">
        <ele>1</ele>
        <time>2018-04-20T16:52:01Z</time>
      </trkpt>
      <trkpt lat="46.7014" lon="-1.93382">
        <ele>1</ele>
        <time>2018-04-20T16:53:01Z</time>
      </trkpt>
      <trkpt lat="46.7014" lon="-1.93384">
        <ele>1</ele>
        <time>2018-04-20T16:54:01Z</time>
      </trkpt>
      <trkpt lat="46.70141" lon="-1.93386">
        <ele>1</ele>
        <time>2018-04-20T16:55:01Z</time>
      </trkpt>
      <trkpt lat="46.70141" lon="-1.93388">
        <ele>1</ele>
        <time>2018-04-20T16:56:01Z</time>
      </trkpt>
      <trkpt lat="46.70141" lon="-1.9339">
        <ele>1</ele>
        <time>2018-04-20T16:57:01Z</time>
      </trkpt>
      <trkpt lat="46.70141" lon="-1.93391">
        <ele>1</ele>
        <time>2018-04-20T16:58:01Z</time>
      </trkpt>
      <trkpt lat="46.70141" lon="-1.93393">
        <ele>1</ele>
        <time>2018-04-20T16:59:01Z</time>
      </trkpt>
      <trkpt lat="46.70141" lon="-1.93394">
        <ele>1</ele>
        <time>2018-04-20T17:00:01Z</time>
      </trkpt>
      <trkpt lat="46.70141" lon="-1.93395">
        <ele>1</ele>
        <time>2018-04-20T17:01:01Z</time>
      </trkpt>
      <trkpt lat="46.7014" lon="-1.93396">
        <ele>1</ele>
        <time>2018-04-20T17:02:01Z</time>
      </trkpt>
      <trkpt lat="46.7014" lon="-1.93397">
        <ele>1</ele>
        <time>2018-04-20T17:03:01Z</time>
      </trkpt>
      <trkpt lat="46.7014" lon="-1.93398">
        <ele>1</ele>
        <time>2018-04-20T17:04:01Z</time>
      </trkpt>
      <trkpt lat="46.70139" lon="-1.93399">
        <ele>1</ele>
        <time>2018-04-20T17:05:01Z</time>
      </trkpt>
      <trkpt lat="46.70139" lon="-1.93401">
        <ele>1</ele>
        <time>2018-04-20T17:06:01Z</time>
      </trkpt>
      <trkpt lat="46.70138" lon="-1.93408">
        <ele>1</ele>
        <time>2018-04-20T17:07:01Z</time>
      </trkpt>
      <trkpt lat="46.70138" lon="-1.93411">
        <ele>1</ele>
        <time>2018-04-20T17:08:01Z</time>
      </trkpt>
      <trkpt lat="46.70138" lon="-1.93415">
        <ele>1</ele>
        <time>2018-04-20T17:09:01Z</time>
      </trkpt>
      <trkpt lat="46.70138" lon="-1.93418">
        <ele>1</ele>
        <time>2018-04-20T17:10:01Z</time>
      </trkpt>
      <trkpt lat="46.70138" lon="-1.93423">
        <ele>1</ele>
        <time>2018-04-20T17:11:01Z</time>
      </trkpt>
      <trkpt lat="46.70139" lon="-1.93429">
        <ele>1</ele>
        <time>2018-04-20T17:12:01Z</time>
      </trkpt>
      <trkpt lat="46.70139" lon="-1.93431">
        <ele>1</ele>
        <time>2018-04-20T17:13:01Z</time>
      </trkpt>
      <trkpt lat="46.7014" lon="-1.93433">
        <ele>1</ele>
        <time>2018-04-20T17:14:01Z</time>
      </trkpt>
      <trkpt lat="46.7014" lon="-1.93435">
        <ele>1</ele>
        <time>2018-04-20T17:15:01Z</time>
      </trkpt>
      <trkpt lat="46.70141" lon="-1.93441">
        <ele>1</ele>
        <time>2018-04-20T17:16:01Z</time>
      </trkpt>
      <trkpt lat="46.70142" lon="-1.93448">
        <ele>1</ele>
        <time>2018-04-20T17:17:01Z</time>
      </trkpt>
      <trkpt lat="46.70144" lon="-1.93457">
        <ele>1</ele>
        <time>2018-04-20T17:18:01Z</time>
      </trkpt>
      <trkpt lat="46.70146" lon="-1.93464">
        <ele>1</ele>
        <time>2018-04-20T17:19:01Z</time>
      </trkpt>
      <trkpt lat="46.70151" lon="-1.93485">
        <ele>1</ele>
        <time>2018-04-20T17:20:01Z</time>
      </trkpt>
      <trkpt lat="46.70189" lon="-1.93655">
        <ele>1</ele>
        <time>2018-04-20T17:21:01Z</time>
      </trkpt>
      <trkpt lat="46.70196" lon="-1.93681">
        <ele>2</ele>
        <time>2018-04-20T17:22:01Z</time>
      </trkpt>
      <trkpt lat="46.702" lon="-1.93698">
        <ele>2</ele>
        <time>2018-04-20T17:23:01Z</time>
      </trkpt>
      <trkpt lat="46.70204" lon="-1.93714">
        <ele>2</ele>
        <time>2018-04-20T17:24:01Z</time>
      </trkpt>
      <trkpt lat="46.70208" lon="-1.93728">
        <ele>3</ele>
        <time>2018-04-20T17:25:01Z</time>
      </trkpt>
      <trkpt lat="46.70211" lon="-1.93742">
        <ele>3</ele>
        <time>2018-04-20T17:26:01Z</time>
      </trkpt>
      <trkpt lat="46.70214" lon="-1.93753">
        <ele>3</ele>
        <time>2018-04-20T17:27:01Z</time>
      </trkpt>
      <trkpt lat="46.70228" lon="-1.93802">
        <ele>4</ele>
        <time>2018-04-20T17:28:01Z</time>
      </trkpt>
      <trkpt lat="46.70229" lon="-1.93804">
        <ele>4</ele>
        <time>2018-04-20T17:29:01Z</time>
      </trkpt>
      <trkpt lat="46.70239" lon="-1.93837">
        <ele>4</ele>
        <time>2018-04-20T17:30:01Z</time>
      </trkpt>
      <trkpt lat="46.70243" lon="-1.93848">
        <ele>4</ele>
        <time>2018-04-20T17:31:01Z</time>
      </trkpt>
      <trkpt lat="46.70246" lon="-1.93857">
        <ele>3</ele>
        <time>2018-04-20T17:32:01Z</time>
      </trkpt>
      <trkpt lat="46.70248" lon="-1.93861">
        <ele>3</ele>
        <time>2018-04-20T17:33:01Z</time>
      </trkpt>
      <trkpt lat="46.70249" lon="-1.93864">
        <ele>3</ele>
        <time>2018-04-20T17:34:01Z</time>
      </trkpt>
      <trkpt lat="46.70252" lon="-1.9387">
        <ele>3</ele>
        <time>2018-04-20T17:35:01Z</time>
      </trkpt>
      <trkpt lat="46.70253" lon="-1.93874">
        <ele>3</ele>
        <time>2018-04-20T17:36:01Z</time>
      </trkpt>
      <trkpt lat="46.70255" lon="-1.93877">
        <ele>3</ele>
        <time>2018-04-20T17:37:01Z</time>
      </trkpt>
      <trkpt lat="46.70256" lon="-1.93879">
        <ele>3</ele>
        <time>2018-04-20T17:38:01Z</time>
      </trkpt>
      <trkpt lat="46.70257" lon="-1.93881">
        <ele>3</ele>
        <time>2018-04-20T17:39:01Z</time>
      </trkpt>
      <trkpt lat="46.70259" lon="-1.93884">
        <ele>3</ele>
        <time>2018-04-20T17:40:01Z</time>
      </trkpt>
      <trkpt lat="46.70259" lon="-1.93884">
        <ele>3</ele>
        <time>2018-04-20T17:41:01Z</time>
      </trkpt>
      <trkpt lat="46.70261" lon="-1.93884">
        <ele>3</ele>
        <time>2018-04-20T17:42:01Z</time>
      </trkpt>
      <trkpt lat="46.70262" lon="-1.93884">
        <ele>3</ele>
        <time>2018-04-20T17:43:01Z</time>
      </trkpt>
      <trkpt lat="46.70263" lon="-1.93884">
        <ele>3</ele>
        <time>2018-04-20T17:44:01Z</time>
      </trkpt>
      <trkpt lat="46.70264" lon="-1.93884">
        <ele>3</ele>
        <time>2018-04-20T17:45:01Z</time>
      </trkpt>
      <trkpt lat="46.70265" lon="-1.93885">
        <ele>3</ele>
        <time>2018-04-20T17:46:01Z</time>
      </trkpt>
      <trkpt lat="46.70266" lon="-1.93886">
        <ele>3</ele>
        <time>2018-04-20T17:47:01Z</time>
      </trkpt>
      <trkpt lat="46.70267" lon="-1.93886">
        <ele>3</ele>
        <time>2018-04-20T17:48:01Z</time>
      </trkpt>
      <trkpt lat="46.70268" lon="-1.93887">
        <ele>3</ele>
        <time>2018-04-20T17:49:01Z</time>
      </trkpt>
      <trkpt lat="46.70269" lon="-1.93888">
        <ele>3</ele>
        <time>2018-04-20T17:50:01Z</time>
      </trkpt>
      <trkpt lat="46.7027" lon="-1.93889">
        <ele>3</ele>
        <time>2018-04-20T17:51:01Z</time>
      </trkpt>
      <trkpt lat="46.70271" lon="-1.9389">
        <ele>3</ele>
        <time>2018-04-20T17:52:01Z</time>
      </trkpt>
      <trkpt lat="46.70271" lon="-1.93891">
        <ele>3</ele>
        <time>2018-04-20T17:53:01Z</time>
      </trkpt>
      <trkpt lat="46.70272" lon="-1.93893">
        <ele>3</ele>
        <time>2018-04-20T17:54:01Z</time>
      </trkpt>
      <trkpt lat="46.70273" lon="-1.93894">
        <ele>3</ele>
        <time>2018-04-20T17:55:01Z</time>
      </trkpt>
      <trkpt lat="46.70273" lon="-1.93895">
        <ele>3</ele>
        <time>2018-04-20T17:56:01Z</time>
      </trkpt>
      <trkpt lat="46.70274" lon="-1.93897">
        <ele>3</ele>
        <time>2018-04-20T17:57:01Z</time>
      </trkpt>
      <trkpt lat="46.70274" lon="-1.93898">
        <ele>3</ele>
        <time>2018-04-20T17:58:01Z</time>
      </trkpt>
      <trkpt lat="46.70275" lon="-1.939">
        <ele>3</ele>
        <time>2018-04-20T17:59:01Z</time>
      </trkpt>
      <trkpt lat="46.70275" lon="-1.93902">
        <ele>3</ele>
        <time>2018-04-20T18:00:01Z</time>
      </trkpt>
      <trkpt lat="46.70275" lon="-1.93903">
        <ele>3</ele>
        <time>2018-04-20T18:01:01Z</time>
      </trkpt>
      <trkpt lat="46.70275" lon="-1.93905">
        <ele>3</ele>
        <time>2018-04-20T18:02:01Z</time>
      </trkpt>
      <trkpt lat="46.70275" lon="-1.93906">
        <ele>3</ele>
        <time>2018-04-20T18:03:01Z</time>
      </trkpt>
      <trkpt lat="46.70275" lon="-1.93909">
        <ele>2</ele>
        <time>2018-04-20T18:04:01Z</time>
      </trkpt>
      <trkpt lat="46.70275" lon="-1.9391">
        <ele>2</ele>
        <time>2018-04-20T18:05:01Z</time>
      </trkpt>
      <trkpt lat="46.70275" lon="-1.93911">
        <ele>2</ele>
        <time>2018-04-20T18:06:01Z</time>
      </trkpt>
      <trkpt lat="46.70275" lon="-1.93912">
        <ele>2</ele>
        <time>2018-04-20T18:07:01Z</time>
      </trkpt>
      <trkpt lat="46.70275" lon="-1.93913">
        <ele>2</ele>
        <time>2018-04-20T18:08:01Z</time>
      </trkpt>
      <trkpt lat="46.70275" lon="-1.93914">
        <ele>2</ele>
        <time>2018-04-20T18:09:01Z</time>
      </trkpt>
      <trkpt lat="46.70275" lon="-1.93915">
        <ele>2</ele>
        <time>2018-04-20T18:10:01Z</time>
      </trkpt>
      <trkpt lat="46.70275" lon="-1.93916">
        <ele>2</ele>
        <time>2018-04-20T18:11:01Z</time>
      </trkpt>
      <trkpt lat="46.7028" lon="-1.93929">
        <ele>2</ele>
        <time>2018-04-20T18:12:01Z</time>
      </trkpt>
      <trkpt lat="46.70285" lon="-1.9394">
        <ele>3</ele>
        <time>2018-04-20T18:13:01Z</time>
      </trkpt>
      <trkpt lat="46.70289" lon="-1.93949">
        <ele>3</ele>
        <time>2018-04-20T18:14:01Z</time>
      </trkpt>
      <trkpt lat="46.70293" lon="-1.93957">
        <ele>3</ele>
        <time>2018-04-20T18:15:01Z</time>
      </trkpt>
      <trkpt lat="46.70299" lon="-1.93967">
        <ele>3</ele>
        <time>2018-04-20T18:16:01Z</time>
      </trkpt>
      <trkpt lat="46.70302" lon="-1.93973">
        <ele>3</ele>
        <time>2018-04-20T18:17:01Z</time>
      </trkpt>
      <trkpt lat="46.70307" lon="-1.93981">
        <ele>3</ele>
        <time>2018-04-20T18:18:01Z</time>
      </trkpt>
      <trkpt lat="46.70313" lon="-1.93991">
        <ele>3</ele>
        <time>2018-04-20T18:19:01Z</time>
      </trkpt>
      <trkpt lat="46.70321" lon="-1.94004">
        <ele>3</ele>
        <time>2018-04-20T18:20:01Z</time>
      </trkpt>
      <trkpt lat="46.70327" lon="-1.94013">
        <ele>3</ele>
        <time>2018-04-20T18:21:01Z</time>
      </trkpt>
      <trkpt lat="46.70331" lon="-1.9402">
        <ele>3</ele>
        <time>2018-04-20T18:22:01Z</time>
      </trkpt>
      <trkpt lat="46.70338" lon="-1.94029">
        <ele>3</ele>
        <time>2018-04-20T18:23:01Z</time>
      </trkpt>
      <trkpt lat="46.70345" lon="-1.94039">
        <ele>3</ele>
        <time>2018-04-20T18:24:01Z</time>
      </trkpt>
      <trkpt lat="46.70349" lon="-1.94044">
        <ele>4</ele>
        <time>2018-04-20T18:25:01Z</time>
      </trkpt>
      <trkpt lat="46.70353" lon="-1.9405">
        <ele>4</ele>
        <time>2018-04-20T18:26:01Z</time>
      </trkpt>
      <trkpt lat="46.70357" lon="-1.94055">
        <ele>4</ele>
        <time>2018-04-20T18:27:01Z</time>
      </trkpt>
      <trkpt lat="46.70361" lon="-1.9406">
        <ele>4</ele>
        <time>2018-04-20T18:28:01Z</time>
      </trkpt>
      <trkpt lat="46.70369" lon="-1.9407">
        <ele>4</ele>
        <time>2018-04-20T18:29:01Z</time>
      </trkpt>
      <trkpt lat="46.70374" lon="-1.94079">
        <ele>4</ele>
        <time>2018-04-20T18:30:01Z</time>
      </trkpt>
      <trkpt lat="46.7038" lon="-1.94085">
        <ele>4</ele>
        <time>2018-04-20T18:31:01Z</time>
      </trkpt>
      <trkpt lat="46.70382" lon="-1.94087">
        <ele>4</ele>
        <time>2018-04-20T18:32:01Z</time>
      </trkpt>
      <trkpt lat="46.70384" lon="-1.9409">
        <ele>4</ele>
        <time>2018-04-20T18:33:01Z</time>
      </trkpt>
      <trkpt lat="46.70387" lon="-1.94093">
        <ele>4</ele>
        <time>2018-04-20T18:34:01Z</time>
      </trkpt>
      <trkpt lat="46.7039" lon="-1.94095">
        <ele>4</ele>
        <time>2018-04-20T18:35:01Z</time>
      </trkpt>
      <trkpt lat="46.70393" lon="-1.94098">
        <ele>4</ele>
        <time>2018-04-20T18:36:01Z</time>
      </trkpt>
      <trkpt lat="46.70396" lon="-1.94101">
        <ele>4</ele>
        <time>2018-04-20T18:37:01Z</time>
      </trkpt>
      <trkpt lat="46.70405" lon="-1.94109">
        <ele>4</ele>
        <time>2018-04-20T18:38:01Z</time>
      </trkpt>
      <trkpt lat="46.70411" lon="-1.94114">
        <ele>5</ele>
        <time>2018-04-20T18:39:01Z</time>
      </trkpt>
      <trkpt lat="46.70416" lon="-1.94119">
        <ele>5</ele>
        <time>2018-04-20T18:40:01Z</time>
      </trkpt>
      <trkpt lat="46.70423" lon="-1.94124">
        <ele>5</ele>
        <time>2018-04-20T18:41:01Z</time>
      </trkpt>
      <trkpt lat="46.70428" lon="-1.94128">
        <ele>5</ele>
        <time>2018-04-20T18:42:01Z</time>
      </trkpt>
      <trkpt lat="46.70434" lon="-1.94132">
        <ele>5</ele>
        <time>2018-04-20T18:43:01Z</time>
      </trkpt>
      <trkpt lat="46.7044" lon="-1.94137">
        <ele>5</ele>
        <time>2018-04-20T18:44:01Z</time>
      </trkpt>
      <trkpt lat="46.70447" lon="-1.94142">
        <ele>5</ele>
        <time>2018-04-20T18:45:01Z</time>
      </trkpt>
      <trkpt lat="46.70452" lon="-1.94145">
        <ele>5</ele>
        <time>2018-04-20T18:46:01Z</time>
      </trkpt>
      <trkpt lat="46.70458" lon="-1.94149">
        <ele>5</ele>
        <time>2018-04-20T18:47:01Z</time>
      </trkpt>
      <trkpt lat="46.70467" lon="-1.94154">
        <ele>5</ele>
        <time>2018-04-20T18:48:01Z</time>
      </trkpt>
      <trkpt lat="46.70476" lon="-1.94159">
        <ele>4</ele>
        <time>2018-04-20T18:49:01Z</time>
      </trkpt>
      <trkpt lat="46.70481" lon="-1.94162">
        <ele>4</ele>
        <time>2018-04-20T18:50:01Z</time>
      </trkpt>
      <trkpt lat="46.70485" lon="-1.94164">
        <ele>4</ele>
        <time>2018-04-20T18:51:01Z</time>
      </trkpt>
      <trkpt lat="46.70489" lon="-1.94166">
        <ele>4</ele>
        <time>2018-04-20T18:52:01Z</time>
      </trkpt>
      <trkpt lat="46.70494" lon="-1.94169">
        <ele>4</ele>
        <time>2018-04-20T18:53:01Z</time>
      </trkpt>
      <trkpt lat="46.705" lon="-1.94171">
        <ele>4</ele>
        <time>2018-04-20T18:54:01Z</time>
      </trkpt>
      <trkpt lat="46.70506" lon="-1.94174">
        <ele>4</ele>
        <time>2018-04-20T18:55:01Z</time>
      </trkpt>
      <trkpt lat="46.70515" lon="-1.94178">
        <ele>4</ele>
        <time>2018-04-20T18:56:01Z</time>
      </trkpt>
      <trkpt lat="46.70522" lon="-1.94181">
        <ele>4</ele>
        <time>2018-04-20T18:57:01Z</time>
      </trkpt>
      <trkpt lat="46.70528" lon="-1.94183">
        <ele>4</ele>
        <time>2018-04-20T18:58:01Z</time>
      </trkpt>
      <trkpt lat="46.70534" lon="-1.94185">
        <ele>4</ele>
        <time>2018-04-20T18:59:01Z</time>
      </trkpt>
      <trkpt lat="46.70539" lon="-1.94187">
        <ele>4</ele>
        <time>2018-04-20T19:00:01Z</time>
      </trkpt>
      <trkpt lat="46.70544" lon="-1.94189">
        <ele>4</ele>
        <time>2018-04-20T19:01:01Z</time>
      </trkpt>
      <trkpt lat="46.70549" lon="-1.9419">
        <ele>4</ele>
        <time>2018-04-20T19:02:01Z</time>
      </trkpt>
      <trkpt lat="46.70555" lon="-1.94192">
        <ele>4</ele>
        <time>2018-04-20T19:03:01Z</time>
      </trkpt>
      <trkpt lat="46.70562" lon="-1.94194">
        <ele>4</ele>
        <time>2018-04-20T19:04:01Z</time>
      </trkpt>
      <trkpt lat="46.70568" lon="-1.94196">
        <ele>5</ele>
        <time>2018-04-20T19:05:01Z</time>
      </trkpt>
      <trkpt lat="46.70577" lon="-1.94199">
        <ele>5</ele>
        <time>2018-04-20T19:06:01Z</time>
      </trkpt>
      <trkpt lat="46.70588" lon="-1.94201">
        <ele>5</ele>
        <time>2018-04-20T19:07:01Z</time>
      </trkpt>
      <trkpt lat="46.70598" lon="-1.94204">
        <ele>5</ele>
        <time>2018-04-20T19:08:01Z</time>
      </trkpt>
      <trkpt lat="46.70607" lon="-1.94205">
        <ele>5</ele>
        <time>2018-04-20T19:09:01Z</time>
      </trkpt>
      <trkpt lat="46.70617" lon="-1.94208">
        <ele>5</ele>
        <time>2018-04-20T19:10:01Z</time>
      </trkpt>
      <trkpt lat="46.70624" lon="-1.94209">
        <ele>5</ele>
        <time>2018-04-20T19:11:01Z</time>
      </trkpt>
      <trkpt lat="46.70629" lon="-1.9421">
        <ele>5</ele>
        <time>2018-04-20T19:12:01Z</time>
      </trkpt>
      <trkpt lat="46.70635" lon="-1.94211">
        <ele>5</ele>
        <time>2018-04-20T19:13:01Z</time>
      </trkpt>
      <trkpt lat="46.70641" lon="-1.94212">
        <ele>5</ele>
        <time>2018-04-20T19:14:01Z</time>
      </trkpt>
      <trkpt lat="46.70649" lon="-1.94213">
        <ele>6</ele>
        <time>2018-04-20T19:15:01Z</time>
      </trkpt>
      <trkpt lat="46.7066" lon="-1.94214">
        <ele>6</ele>
        <time>2018-04-20T19:16:01Z</time>
      </trkpt>
      <trkpt lat="46.70677" lon="-1.94212">
        <ele>6</ele>
        <time>2018-04-20T19:17:01Z</time>
      </trkpt>
      <trkpt lat="46.7069" lon="-1.94211">
        <ele>6</ele>
        <time>2018-04-20T19:18:01Z</time>
      </trkpt>
      <trkpt lat="46.70691" lon="-1.94211">
        <ele>6</ele>
        <time>2018-04-20T19:19:01Z</time>
      </trkpt>
      <trkpt lat="46.70691" lon="-1.9421">
        <ele>6</ele>
        <time>2018-04-20T19:20:01Z</time>
      </trkpt>
      <trkpt lat="46.70692" lon="-1.9421">
        <ele>6</ele>
        <time>2018-04-20T19:21:01Z</time>
      </trkpt>
      <trkpt lat="46.70692" lon="-1.94209">
        <ele>6</ele>
        <time>2018-04-20T19:22:01Z</time>
      </trkpt>
      <trkpt lat="46.70693" lon="-1.94209">
        <ele>6</ele>
        <time>2018-04-20T19:23:01Z</time>
      </trkpt>
      <trkpt lat="46.70693" lon="-1.94208">
        <ele>6</ele>
        <time>2018-04-20T19:24:01Z</time>
      </trkpt>
      <trkpt lat="46.70694" lon="-1.94208">
        <ele>6</ele>
        <time>2018-04-20T19:25:01Z</time>
      </trkpt>
      <trkpt lat="46.70695" lon="-1.94208">
        <ele>6</ele>
        <time>2018-04-20T19:26:01Z</time>
      </trkpt>
      <trkpt lat="46.70696" lon="-1.94208">
        <ele>6</ele>
        <time>2018-04-20T19:27:01Z</time>
      </trkpt>
      <trkpt lat="46.70696" lon="-1.94207">
        <ele>6</ele>
        <time>2018-04-20T19:28:01Z</time>
      </trkpt>
      <trkpt lat="46.70697" lon="-1.94207">
        <ele>6</ele>
        <time>2018-04-20T19:29:01Z</time>
      </trkpt>
      <trkpt lat="46.70698" lon="-1.94208">
        <ele>6</ele>
        <time>2018-04-20T19:30:01Z</time>
      </trkpt>
      <trkpt lat="46.70699" lon="-1.94208">
        <ele>6</ele>
        <time>2018-04-20T19:31:01Z</time>
      </trkpt>
      <trkpt lat="46.707" lon="-1.94208">
        <ele>6</ele>
        <time>2018-04-20T19:32:01Z</time>
      </trkpt>
      <trkpt lat="46.70701" lon="-1.94209">
        <ele>6</ele>
        <time>2018-04-20T19:33:01Z</time>
      </trkpt>
      <trkpt lat="46.70702" lon="-1.94209">
        <ele>6</ele>
        <time>2018-04-20T19:34:01Z</time>
      </trkpt>
      <trkpt lat="46.70702" lon="-1.9421">
        <ele>6</ele>
        <time>2018-04-20T19:35:01Z</time>
      </trkpt>
      <trkpt lat="46.70703" lon="-1.9421">
        <ele>6</ele>
        <time>2018-04-20T19:36:01Z</time>
      </trkpt>
      <trkpt lat="46.70703" lon="-1.94211">
        <ele>6</ele>
        <time>2018-04-20T19:37:01Z</time>
      </trkpt>
      <trkpt lat="46.70704" lon="-1.94211">
        <ele>6</ele>
        <time>2018-04-20T19:38:01Z</time>
      </trkpt>
      <trkpt lat="46.70704" lon="-1.94212">
        <ele>6</ele>
        <time>2018-04-20T19:39:01Z</time>
      </trkpt>
      <trkpt lat="46.70717" lon="-1.94216">
        <ele>6</ele>
        <time>2018-04-20T19:40:01Z</time>
      </trkpt>
      <trkpt lat="46.70726" lon="-1.94219">
        <ele>6</ele>
        <time>2018-04-20T19:41:01Z</time>
      </trkpt>
      <trkpt lat="46.70732" lon="-1.94219">
        <ele>6</ele>
        <time>2018-04-20T19:42:01Z</time>
      </trkpt>
      <trkpt lat="46.70737" lon="-1.94219">
        <ele>6</ele>
        <time>2018-04-20T19:43:01Z</time>
      </trkpt>
      <trkpt lat="46.70742" lon="-1.94219">
        <ele>6</ele>
        <time>2018-04-20T19:44:01Z</time>
      </trkpt>
      <trkpt lat="46.70747" lon="-1.94219">
        <ele>6</ele>
        <time>2018-04-20T19:45:01Z</time>
      </trkpt>
      <trkpt lat="46.70753" lon="-1.94219">
        <ele>6</ele>
        <time>2018-04-20T19:46:01Z</time>
      </trkpt>
      <trkpt lat="46.70758" lon="-1.94219">
        <ele>6</ele>
        <time>2018-04-20T19:47:01Z</time>
      </trkpt>
      <trkpt lat="46.70763" lon="-1.94218">
        <ele>6</ele>
        <time>2018-04-20T19:48:01Z</time>
      </trkpt>
      <trkpt lat="46.70767" lon="-1.94218">
        <ele>6</ele>
        <time>2018-04-20T19:49:01Z</time>
      </trkpt>
      <trkpt lat="46.70775" lon="-1.94218">
        <ele>6</ele>
        <time>2018-04-20T19:50:01Z</time>
      </trkpt>
      <trkpt lat="46.70783" lon="-1.94217">
        <ele>6</ele>
        <time>2018-04-20T19:51:01Z</time>
      </trkpt>
      <trkpt lat="46.70799" lon="-1.94216">
        <ele>5</ele>
        <time>2018-04-20T19:52:01Z</time>
      </trkpt>
      <trkpt lat="46.70812" lon="-1.94214">
        <ele>5</ele>
        <time>2018-04-20T19:53:01Z</time>
      </trkpt>
      <trkpt lat="46.70823" lon="-1.94213">
        <ele>5</ele>
        <time>2018-04-20T19:54:01Z</time>
      </trkpt>
      <trkpt lat="46.70834" lon="-1.94212">
        <ele>5</ele>
        <time>2018-04-20T19:55:01Z</time>
      </trkpt>
      <trkpt lat="46.70847" lon="-1.94211">
        <ele>5</ele>
        <time>2018-04-20T19:56:01Z</time>
      </trkpt>
      <trkpt lat="46.70857" lon="-1.94209">
        <ele>5</ele>
        <time>2018-04-20T19:57:01Z</time>
      </trkpt>
      <trkpt lat="46.70869" lon="-1.94208">
        <ele>5</ele>
        <time>2018-04-20T19:58:01Z</time>
      </trkpt>
      <trkpt lat="46.70887" lon="-1.94205">
        <ele>4</ele>
        <time>2018-04-20T19:59:01Z</time>
      </trkpt>
      <trkpt lat="46.7093" lon="-1.94197">
        <ele>4</ele>
        <time>2018-04-20T20:00:01Z</time>
      </trkpt>
      <trkpt lat="46.7097" lon="-1.94189">
        <ele>3</ele>
        <time>2018-04-20T20:01:01Z</time>
      </trkpt>
      <trkpt lat="46.70987" lon="-1.94186">
        <ele>2</ele>
        <time>2018-04-20T20:02:01Z</time>
      </trkpt>
      <trkpt lat="46.71004" lon="-1.94182">
        <ele>2</ele>
        <time>2018-04-20T20:03:01Z</time>
      </trkpt>
      <trkpt lat="46.71093" lon="-1.94162">
        <ele>1</ele>
        <time>2018-04-20T20:04:01Z</time>
      </trkpt>
      <trkpt lat="46.71263" lon="-1.94122">
        <ele>2</ele>
        <time>2018-04-20T20:05:01Z</time>
      </trkpt>
      <trkpt lat="46.71344" lon="-1.94103">
        <ele>4</ele>
        <time>2018-04-20T20:06:01Z</time>
      </trkpt>
      <trkpt lat="46.71362" lon="-1.94099">
        <ele>4</ele>
        <time>2018-04-20T20:07:01Z</time>
      </trkpt>
      <trkpt lat="46.71736" lon="-1.94013">
        <ele>2</ele>
        <time>2018-04-20T20:08:01Z</time>
      </trkpt>
      <trkpt lat="46.71743" lon="-1.94011">
        <ele>2</ele>
        <time>2018-04-20T20:09:01Z</time>
      </trkpt>
      <trkpt lat="46.71775" lon="-1.94">
        <ele>1</ele>
        <time>2018-04-20T20:10:01Z</time>
      </trkpt>
      <trkpt lat="46.71778" lon="-1.93999">
        <ele>1</ele>
        <time>2018-04-20T20:11:01Z</time>
      </trkpt>
      <trkpt lat="46.71781" lon="-1.93998">
        <ele>1</ele>
        <time>2018-04-20T20:12:01Z</time>
      </trkpt>
      <trkpt lat="46.71783" lon="-1.93997">
        <ele>1</ele>
        <time>2018-04-20T20:13:01Z</time>
      </trkpt>
      <trkpt lat="46.71785" lon="-1.93995">
        <ele>1</ele>
        <time>2018-04-20T20:14:01Z</time>
      </trkpt>
      <trkpt lat="46.71788" lon="-1.93994">
        <ele>1</ele>
        <time>2018-04-20T20:15:01Z</time>
      </trkpt>
      <trkpt lat="46.7179" lon="-1.93993">
        <ele>1</ele>
        <time>2018-04-20T20:16:01Z</time>
      </trkpt>
      <trkpt lat="46.71792" lon="-1.93991">
        <ele>1</ele>
        <time>2018-04-20T20:17:01Z</time>
      </trkpt>
      <trkpt lat="46.71794" lon="-1.93989">
        <ele>1</ele>
        <time>2018-04-20T20:18:01Z</time>
      </trkpt>
      <trkpt lat="46.71799" lon="-1.93985">
        <ele>1</ele>
        <time>2018-04-20T20:19:01Z</time>
      </trkpt>
      <trkpt lat="46.71799" lon="-1.93984">
        <ele>1</ele>
        <time>2018-04-20T20:20:01Z</time>
      </trkpt>
      <trkpt lat="46.718" lon="-1.93983">
        <ele>1</ele>
        <time>2018-04-20T20:21:01Z</time>
      </trkpt>
      <trkpt lat="46.718" lon="-1.93982">
        <ele>1</ele>
        <time>2018-04-20T20:22:01Z</time>
      </trkpt>
      <trkpt lat="46.718" lon="-1.93981">
        <ele>1</ele>
        <time>2018-04-20T20:23:01Z</time>
      </trkpt>
      <trkpt lat="46.71801" lon="-1.93981">
        <ele>1</ele>
        <time>2018-04-20T20:24:01Z</time>
      </trkpt>
      <trkpt lat="46.71801" lon="-1.9398">
        <ele>1</ele>
        <time>2018-04-20T20:25:01Z</time>
      </trkpt>
      <trkpt lat="46.71802" lon="-1.93979">
        <ele>1</ele>
        <time>2018-04-20T20:26:01Z</time>
      </trkpt>
      <trkpt lat="46.71802" lon="-1.93978">
        <ele>1</ele>
        <time>2018-04-20T20:27:01Z</time>
      </trkpt>
      <trkpt lat="46.71804" lon="-1.93977">
        <ele>1</ele>
        <time>2018-04-20T20:28:01Z</time>
      </trkpt>
      <trkpt lat="46.71805" lon="-1.93977">
        <ele>1</ele>
        <time>2018-04-20T20:29:01Z</time>
      </trkpt>
      <trkpt lat="46.71806" lon="-1.93976">
        <ele>1</ele>
        <time>2018-04-20T20:30:01Z</time>
      </trkpt>
      <trkpt lat="46.71807" lon="-1.93976">
        <ele>1</ele>
        <time>2018-04-20T20:31:01Z</time>
      </trkpt>
      <trkpt lat="46.71808" lon="-1.93975">
        <ele>1</ele>
        <time>2018-04-20T20:32:01Z</time>
      </trkpt>
      <trkpt lat="46.71809" lon="-1.93975">
        <ele>1</ele>
        <time>2018-04-20T20:33:01Z</time>
      </trkpt>
      <trkpt lat="46.7181" lon="-1.93975">
        <ele>1</ele>
        <time>2018-04-20T20:34:01Z</time>
      </trkpt>
      <trkpt lat="46.71812" lon="-1.93975">
        <ele>1</ele>
        <time>2018-04-20T20:35:01Z</time>
      </trkpt>
      <trkpt lat="46.71813" lon="-1.93975">
        <ele>1</ele>
        <time>2018-04-20T20:36:01Z</time>
      </trkpt>
      <trkpt lat="46.71814" lon="-1.93975">
        <ele>1</ele>
        <time>2018-04-20T20:37:01Z</time>
      </trkpt>
      <trkpt lat="46.71815" lon="-1.93975">
        <ele>1</ele>
        <time>2018-04-20T20:38:01Z</time>
      </trkpt>
      <trkpt lat="46.71815" lon="-1.93976">
        <ele>1</ele>
        <time>2018-04-20T20:39:01Z</time>
      </trkpt>
      <trkpt lat="46.71816" lon="-1.93976">
        <ele>1</ele>
        <time>2018-04-20T20:40:01Z</time>
      </trkpt>
      <trkpt lat="46.71817" lon="-1.93976">
        <ele>1</ele>
        <time>2018-04-20T20:41:01Z</time>
      </trkpt>
      <trkpt lat="46.71818" lon="-1.93977">
        <ele>1</ele>
        <time>2018-04-20T20:42:01Z</time>
      </trkpt>
      <trkpt lat="46.71819" lon="-1.93978">
        <ele>1</ele>
        <time>2018-04-20T20:43:01Z</time>
      </trkpt>
      <trkpt lat="46.71819" lon="-1.93979">
        <ele>1</ele>
        <time>2018-04-20T20:44:01Z</time>
      </trkpt>
      <trkpt lat="46.7182" lon="-1.9398">
        <ele>1</ele>
        <time>2018-04-20T20:45:01Z</time>
      </trkpt>
      <trkpt lat="46.71821" lon="-1.93981">
        <ele>1</ele>
        <time>2018-04-20T20:46:01Z</time>
      </trkpt>
      <trkpt lat="46.71821" lon="-1.93982">
        <ele>1</ele>
        <time>2018-04-20T20:47:01Z</time>
      </trkpt>
      <trkpt lat="46.71822" lon="-1.93983">
        <ele>1</ele>
        <time>2018-04-20T20:48:01Z</time>
      </trkpt>
      <trkpt lat="46.71829" lon="-1.93984">
        <ele>1</ele>
        <time>2018-04-20T20:49:01Z</time>
      </trkpt>
      <trkpt lat="46.71832" lon="-1.93984">
        <ele>1</ele>
        <time>2018-04-20T20:50:01Z</time>
      </trkpt>
      <trkpt lat="46.71835" lon="-1.93984">
        <ele>1</ele>
        <time>2018-04-20T20:51:01Z</time>
      </trkpt>
      <trkpt lat="46.71838" lon="-1.93984">
        <ele>1</ele>
        <time>2018-04-20T20:52:01Z</time>
      </trkpt>
      <trkpt lat="46.7184" lon="-1.93984">
        <ele>1</ele>
        <time>2018-04-20T20:53:01Z</time>
      </trkpt>
      <trkpt lat="46.71843" lon="-1.93984">
        <ele>1</ele>
        <time>2018-04-20T20:54:01Z</time>
      </trkpt>
      <trkpt lat="46.71845" lon="-1.93984">
        <ele>1</ele>
        <time>2018-04-20T20:55:01Z</time>
      </trkpt>
      <trkpt lat="46.71876" lon="-1.9398">
        <ele>1</ele>
        <time>2018-04-20T20:56:01Z</time>
      </trkpt>
      <trkpt lat="46.71884" lon="-1.93978">
        <ele>1</ele>
        <time>2018-04-20T20:57:01Z</time>
      </trkpt>
      <trkpt lat="46.71946" lon="-1.93964">
        <ele>1</ele>
        <time>2018-04-20T20:58:01Z</time>
      </trkpt>
      <trkpt lat="46.71967" lon="-1.93959">
        <ele>2</ele>
        <time>2018-04-20T20:59:01Z</time>
      </trkpt>
      <trkpt lat="46.71981" lon="-1.93957">
        <ele>2</ele>
        <time>2018-04-20T21:00:01Z</time>
      </trkpt>
      <trkpt lat="46.71994" lon="-1.93954">
        <ele>2</ele>
        <time>2018-04-20T21:01:01Z</time>
      </trkpt>
      <trkpt lat="46.72012" lon="-1.93952">
        <ele>2</ele>
        <time>2018-04-20T21:02:01Z</time>
      </trkpt>
      <trkpt lat="46.72021" lon="-1.93951">
        <ele>2</ele>
        <time>2018-04-20T21:03:01Z</time>
      </trkpt>
      <trkpt lat="46.72029" lon="-1.93951">
        <ele>2</ele>
        <time>2018-04-20T21:04:01Z</time>
      </trkpt>
      <trkpt lat="46.72036" lon="-1.9395">
        <ele>2</ele>
        <time>2018-04-20T21:05:01Z</time>
      </trkpt>
      <trkpt lat="46.72043" lon="-1.9395">
        <ele>2</ele>
        <time>2018-04-20T21:06:01Z</time>
      </trkpt>
      <trkpt lat="46.72049" lon="-1.93951">
        <ele>2</ele>
        <time>2018-04-20T21:07:01Z</time>
      </trkpt>
      <trkpt lat="46.72054" lon="-1.93951">
        <ele>2</ele>
        <time>2018-04-20T21:08:01Z</time>
      </trkpt>
      <trkpt lat="46.72062" lon="-1.93951">
        <ele>2</ele>
        <time>2018-04-20T21:09:01Z</time>
      </trkpt>
      <trkpt lat="46.7207" lon="-1.93952">
        <ele>2</ele>
        <time>2018-04-20T21:10:01Z</time>
      </trkpt>
      <trkpt lat="46.7208" lon="-1.93953">
        <ele>2</ele>
        <time>2018-04-20T21:11:01Z</time>
      </trkpt>
      <trkpt lat="46.72086" lon="-1.93954">
        <ele>2</ele>
        <time>2018-04-20T21:12:01Z</time>
      </trkpt>
      <trkpt lat="46.72094" lon="-1.93955">
        <ele>2</ele>
        <time>2018-04-20T21:13:01Z</time>
      </trkpt>
      <trkpt lat="46.72106" lon="-1.93957">
        <ele>2</ele>
        <time>2018-04-20T21:14:01Z</time>
      </trkpt>
      <trkpt lat="46.72117" lon="-1.93959">
        <ele>2</ele>
        <time>2018-04-20T21:15:01Z</time>
      </trkpt>
      <trkpt lat="46.72129" lon="-1.93963">
        <ele>2</ele>
        <time>2018-04-20T21:16:01Z</time>
      </trkpt>
      <trkpt lat="46.72139" lon="-1.93966">
        <ele>2</ele>
        <time>2018-04-20T21:17:01Z</time>
      </trkpt>
      <trkpt lat="46.72149" lon="-1.93969">
        <ele>2</ele>
        <time>2018-04-20T21:18:01Z</time>
      </trkpt>
      <trkpt lat="46.72158" lon="-1.93972">
        <ele>2</ele>
        <time>2018-04-20T21:19:01Z</time>
      </trkpt>
      <trkpt lat="46.72167" lon="-1.93976">
        <ele>2</ele>
        <time>2018-04-20T21:20:01Z</time>
      </trkpt>
      <trkpt lat="46.72174" lon="-1.93979">
        <ele>2</ele>
        <time>2018-04-20T21:21:01Z</time>
      </trkpt>
      <trkpt lat="46.72178" lon="-1.93981">
        <ele>2</ele>
        <time>2018-04-20T21:22:01Z</time>
      </trkpt>
      <trkpt lat="46.72183" lon="-1.93983">
        <ele>2</ele>
        <time>2018-04-20T21:23:01Z</time>
      </trkpt>
      <trkpt lat="46.72187" lon="-1.93985">
        <ele>2</ele>
        <time>2018-04-20T21:24:01Z</time>
      </trkpt>
      <trkpt lat="46.72191" lon="-1.93987">
        <ele>2</ele>
        <time>2018-04-20T21:25:01Z</time>
      </trkpt>
      <trkpt lat="46.72195" lon="-1.9399">
        <ele>2</ele>
        <time>2018-04-20T21:26:01Z</time>
      </trkpt>
      <trkpt lat="46.72201" lon="-1.93993">
        <ele>2</ele>
        <time>2018-04-20T21:27:01Z</time>
      </trkpt>
      <trkpt lat="46.72208" lon="-1.93997">
        <ele>2</ele>
        <time>2018-04-20T21:28:01Z</time>
      </trkpt>
      <trkpt lat="46.72214" lon="-1.94">
        <ele>1</ele>
        <time>2018-04-20T21:29:01Z</time>
      </trkpt>
      <trkpt lat="46.72222" lon="-1.94005">
        <ele>1</ele>
        <time>2018-04-20T21:30:01Z</time>
      </trkpt>
      <trkpt lat="46.72228" lon="-1.94009">
        <ele>1</ele>
        <time>2018-04-20T21:31:01Z</time>
      </trkpt>
      <trkpt lat="46.72235" lon="-1.94014">
        <ele>1</ele>
        <time>2018-04-20T21:32:01Z</time>
      </trkpt>
      <trkpt lat="46.72241" lon="-1.94019">
        <ele>2</ele>
        <time>2018-04-20T21:33:01Z</time>
      </trkpt>
      <trkpt lat="46.72248" lon="-1.94024">
        <ele>2</ele>
        <time>2018-04-20T21:34:01Z</time>
      </trkpt>
      <trkpt lat="46.72254" lon="-1.94029">
        <ele>2</ele>
        <time>2018-04-20T21:35:01Z</time>
      </trkpt>
      <trkpt lat="46.72262" lon="-1.94035">
        <ele>2</ele>
        <time>2018-04-20T21:36:01Z</time>
      </trkpt>
      <trkpt lat="46.72271" lon="-1.94043">
        <ele>2</ele>
        <time>2018-04-20T21:37:01Z</time>
      </trkpt>
      <trkpt lat="46.72278" lon="-1.94048">
        <ele>2</ele>
        <time>2018-04-20T21:38:01Z</time>
      </trkpt>
      <trkpt lat="46.72291" lon="-1.94061">
        <ele>3</ele>
        <time>2018-04-20T21:39:01Z</time>
      </trkpt>
      <trkpt lat="46.723" lon="-1.94069">
        <ele>3</ele>
        <time>2018-04-20T21:40:01Z</time>
      </trkpt>
      <trkpt lat="46.72306" lon="-1.94075">
        <ele>3</ele>
        <time>2018-04-20T21:41:01Z</time>
      </trkpt>
      <trkpt lat="46.72313" lon="-1.94083">
        <ele>4</ele>
        <time>2018-04-20T21:42:01Z</time>
      </trkpt>
      <trkpt lat="46.72321" lon="-1.94092">
        <ele>4</ele>
        <time>2018-04-20T21:43:01Z</time>
      </trkpt>
      <trkpt lat="46.72327" lon="-1.94099">
        <ele>4</ele>
        <time>2018-04-20T21:44:01Z</time>
      </trkpt>
      <trkpt lat="46.72334" lon="-1.94107">
        <ele>4</ele>
        <time>2018-04-20T21:45:01Z</time>
      </trkpt>
      <trkpt lat="46.72342" lon="-1.94117">
        <ele>4</ele>
        <time>2018-04-20T21:46:01Z</time>
      </trkpt>
      <trkpt lat="46.72346" lon="-1.94123">
        <ele>4</ele>
        <time>2018-04-20T21:47:01Z</time>
      </trkpt>
      <trkpt lat="46.7235" lon="-1.94128">
        <ele>4</ele>
        <time>2018-04-20T21:48:01Z</time>
      </trkpt>
      <trkpt lat="46.72354" lon="-1.94133">
        <ele>4</ele>
        <time>2018-04-20T21:49:01Z</time>
      </trkpt>
      <trkpt lat="46.72357" lon="-1.94138">
        <ele>4</ele>
        <time>2018-04-20T21:50:01Z</time>
      </trkpt>
      <trkpt lat="46.72362" lon="-1.94142">
        <ele>4</ele>
        <time>2018-04-20T21:51:01Z</time>
      </trkpt>
      <trkpt lat="46.72368" lon="-1.94152">
        <ele>4</ele>
        <time>2018-04-20T21:52:01Z</time>
      </trkpt>
      <trkpt lat="46.72373" lon="-1.94159">
        <ele>3</ele>
        <time>2018-04-20T21:53:01Z</time>
      </trkpt>
      <trkpt lat="46.72379" lon="-1.94169">
        <ele>3</ele>
        <time>2018-04-20T21:54:01Z</time>
      </trkpt>
      <trkpt lat="46.72386" lon="-1.9418">
        <ele>3</ele>
        <time>2018-04-20T21:55:01Z</time>
      </trkpt>
      <trkpt lat="46.72393" lon="-1.9419">
        <ele>3</ele>
        <time>2018-04-20T21:56:01Z</time>
      </trkpt>
      <trkpt lat="46.72401" lon="-1.94205">
        <ele>3</ele>
        <time>2018-04-20T21:57:01Z</time>
      </trkpt>
      <trkpt lat="46.7241" lon="-1.9422">
        <ele>3</ele>
        <time>2018-04-20T21:58:01Z</time>
      </trkpt>
      <trkpt lat="46.72424" lon="-1.94243">
        <ele>4</ele>
        <time>2018-04-20T21:59:01Z</time>
      </trkpt>
      <trkpt lat="46.72442" lon="-1.94276">
        <ele>4</ele>
        <time>2018-04-20T22:00:01Z</time>
      </trkpt>
      <trkpt lat="46.72468" lon="-1.94322">
        <ele>4</ele>
        <time>2018-04-20T22:01:01Z</time>
      </trkpt>
      <trkpt lat="46.72468" lon="-1.94322">
        <ele>4</ele>
        <time>2018-04-20T22:02:01Z</time>
      </trkpt>
      <trkpt lat="46.72487" lon="-1.94312">
        <ele>4</ele>
        <time>2018-04-20T22:03:01Z</time>
      </trkpt>
      <trkpt lat="46.72489" lon="-1.94311">
        <ele>4</ele>
        <time>2018-04-20T22:04:01Z</time>
      </trkpt>
      <trkpt lat="46.72493" lon="-1.94311">
        <ele>4</ele>
        <time>2018-04-20T22:05:01Z</time>
      </trkpt>
      <trkpt lat="46.72496" lon="-1.94311">
        <ele>4</ele>
        <time>2018-04-20T22:06:01Z</time>
      </trkpt>
      <trkpt lat="46.72501" lon="-1.94308">
        <ele>4</ele>
        <time>2018-04-20T22:07:01Z</time>
      </trkpt>
      <trkpt lat="46.72505" lon="-1.94305">
        <ele>4</ele>
        <time>2018-04-20T22:08:01Z</time>
      </trkpt>
      <trkpt lat="46.72508" lon="-1.94302">
        <ele>4</ele>
        <time>2018-04-20T22:09:01Z</time>
      </trkpt>
      <trkpt lat="46.72511" lon="-1.943">
        <ele>4</ele>
        <time>2018-04-20T22:10:01Z</time>
      </trkpt>
      <trkpt lat="46.72516" lon="-1.94294">
        <ele>4</ele>
        <time>2018-04-20T22:11:01Z</time>
      </trkpt>
      <trkpt lat="46.7252" lon="-1.94289">
        <ele>4</ele>
        <time>2018-04-20T22:12:01Z</time>
      </trkpt>
      <trkpt lat="46.72523" lon="-1.94283">
        <ele>4</ele>
        <time>2018-04-20T22:13:01Z</time>
      </trkpt>
      <trkpt lat="46.72526" lon="-1.94279">
        <ele>4</ele>
        <time>2018-04-20T22:14:01Z</time>
      </trkpt>
      <trkpt lat="46.72535" lon="-1.94259">
        <ele>4</ele>
        <time>2018-04-20T22:15:01Z</time>
      </trkpt>
      <trkpt lat="46.72558" lon="-1.942">
        <ele>3</ele>
        <time>2018-04-20T22:16:01Z</time>
      </trkpt>
      <trkpt lat="46.72576" lon="-1.94156">
        <ele>3</ele>
        <time>2018-04-20T22:17:01Z</time>
      </trkpt>
      <trkpt lat="46.72592" lon="-1.94115">
        <ele>3</ele>
        <time>2018-04-20T22:18:01Z</time>
      </trkpt>
      <trkpt lat="46.72604" lon="-1.94088">
        <ele>3</ele>
        <time>2018-04-20T22:19:01Z</time>
      </trkpt>
      <trkpt lat="46.72614" lon="-1.94064">
        <ele>3</ele>
        <time>2018-04-20T22:20:01Z</time>
      </trkpt>
      <trkpt lat="46.7263" lon="-1.94032">
        <ele>4</ele>
        <time>2018-04-20T22:21:01Z</time>
      </trkpt>
      <trkpt lat="46.72638" lon="-1.94014">
        <ele>4</ele>
        <time>2018-04-20T22:22:01Z</time>
      </trkpt>
      <trkpt lat="46.72646" lon="-1.93999">
        <ele>4</ele>
        <time>2018-04-20T22:23:01Z</time>
      </trkpt>
      <trkpt lat="46.72659" lon="-1.93978">
        <ele>4</ele>
        <time>2018-04-20T22:24:01Z</time>
      </trkpt>
      <trkpt lat="46.72665" lon="-1.9397">
        <ele>4</ele>
        <time>2018-04-20T22:25:01Z</time>
      </trkpt>
      <trkpt lat="46.72675" lon="-1.9396">
        <ele>4</ele>
        <time>2018-04-20T22:26:01Z</time>
      </trkpt>
      <trkpt lat="46.72693" lon="-1.93944">
        <ele>4</ele>
        <time>2018-04-20T22:27:01Z</time>
      </trkpt>
      <trkpt lat="46.72728" lon="-1.93918">
        <ele>4</ele>
        <time>2018-04-20T22:28:01Z</time>
      </trkpt>
      <trkpt lat="46.72764" lon="-1.93888">
        <ele>3</ele>
        <time>2018-04-20T22:29:01Z</time>
      </trkpt>
      <trkpt lat="46.72788" lon="-1.93868">
        <ele>3</ele>
        <time>2018-04-20T22:30:01Z</time>
      </trkpt>
      <trkpt lat="46.72813" lon="-1.93847">
        <ele>3</ele>
        <time>2018-04-20T22:31:01Z</time>
      </trkpt>
      <trkpt lat="46.72837" lon="-1.93824">
        <ele>3</ele>
        <time>2018-04-20T22:32:01Z</time>
      </trkpt>
      <trkpt lat="46.72848" lon="-1.93812">
        <ele>2</ele>
        <time>2018-04-20T22:33:01Z</time>
      </trkpt>
      <trkpt lat="46.72861" lon="-1.93798">
        <ele>2</ele>
        <time>2018-04-20T22:34:01Z</time>
      </trkpt>
      <trkpt lat="46.72875" lon="-1.93779">
        <ele>2</ele>
        <time>2018-04-20T22:35:01Z</time>
      </trkpt>
      <trkpt lat="46.72905" lon="-1.93732">
        <ele>1</ele>
        <time>2018-04-20T22:36:01Z</time>
      </trkpt>
      <trkpt lat="46.7291" lon="-1.93724">
        <ele>1</ele>
        <time>2018-04-20T22:37:01Z</time>
      </trkpt>
      <trkpt lat="46.72928" lon="-1.93697">
        <ele>1</ele>
        <time>2018-04-20T22:38:01Z</time>
      </trkpt>
      <trkpt lat="46.72932" lon="-1.93689">
        <ele>1</ele>
        <time>2018-04-20T22:39:01Z</time>
      </trkpt>
      <trkpt lat="46.72951" lon="-1.9366">
        <ele>1</ele>
        <time>2018-04-20T22:40:01Z</time>
      </trkpt>
      <trkpt lat="46.72961" lon="-1.93643">
        <ele>1</ele>
        <time>2018-04-20T22:41:01Z</time>
      </trkpt>
      <trkpt lat="46.72967" lon="-1.93631">
        <ele>1</ele>
        <time>2018-04-20T22:42:01Z</time>
      </trkpt>
      <trkpt lat="46.72973" lon="-1.9362">
        <ele>1</ele>
        <time>2018-04-20T22:43:01Z</time>
      </trkpt>
      <trkpt lat="46.72976" lon="-1.93612">
        <ele>1</ele>
        <time>2018-04-20T22:44:01Z</time>
      </trkpt>
      <trkpt lat="46.72981" lon="-1.93597">
        <ele>2</ele>
        <time>2018-04-20T22:45:01Z</time>
      </trkpt>
      <trkpt lat="46.72986" lon="-1.93582">
        <ele>2</ele>
        <time>2018-04-20T22:46:01Z</time>
      </trkpt>
      <trkpt lat="46.72987" lon="-1.93576">
        <ele>2</ele>
        <time>2018-04-20T22:47:01Z</time>
      </trkpt>
      <trkpt lat="46.72991" lon="-1.9356">
        <ele>1</ele>
        <time>2018-04-20T22:48:01Z</time>
      </trkpt>
      <trkpt lat="46.72997" lon="-1.93533">
        <ele>1</ele>
        <time>2018-04-20T22:49:01Z</time>
      </trkpt>
      <trkpt lat="46.73002" lon="-1.93484">
        <ele>2.5</ele>
        <time>2018-04-20T22:50:01Z</time>
      </trkpt>
      <trkpt lat="46.73007" lon="-1.93413">
        <ele>1</ele>
        <time>2018-04-20T22:51:01Z</time>
      </trkpt>
      <trkpt lat="46.73012" lon="-1.93352">
        <ele>2</ele>
        <time>2018-04-20T22:52:01Z</time>
      </trkpt>
      <trkpt lat="46.73013" lon="-1.93326">
        <ele>3</ele>
        <time>2018-04-20T22:53:01Z</time>
      </trkpt>
      <trkpt lat="46.73013" lon="-1.93306">
        <ele>3</ele>
        <time>2018-04-20T22:54:01Z</time>
      </trkpt>
      <trkpt lat="46.73012" lon="-1.9329">
        <ele>3</ele>
        <time>2018-04-20T22:55:01Z</time>
      </trkpt>
      <trkpt lat="46.73011" lon="-1.93282">
        <ele>4</ele>
        <time>2018-04-20T22:56:01Z</time>
      </trkpt>
      <trkpt lat="46.73009" lon="-1.93253">
        <ele>4</ele>
        <time>2018-04-20T22:57:01Z</time>
      </trkpt>
      <trkpt lat="46.73009" lon="-1.93242">
        <ele>4</ele>
        <time>2018-04-20T22:58:01Z</time>
      </trkpt>
      <trkpt lat="46.73008" lon="-1.93236">
        <ele>4</ele>
        <time>2018-04-20T22:59:01Z</time>
      </trkpt>
      <trkpt lat="46.73005" lon="-1.93202">
        <ele>3</ele>
        <time>2018-04-20T23:00:01Z</time>
      </trkpt>
      <trkpt lat="46.72999" lon="-1.93142">
        <ele>2</ele>
        <time>2018-04-20T23:01:01Z</time>
      </trkpt>
      <trkpt lat="46.72992" lon="-1.93073">
        <ele>2</ele>
        <time>2018-04-20T23:02:01Z</time>
      </trkpt>
      <trkpt lat="46.72991" lon="-1.93061">
        <ele>2</ele>
        <time>2018-04-20T23:03:01Z</time>
      </trkpt>
      <trkpt lat="46.72988" lon="-1.93017">
        <ele>3</ele>
        <time>2018-04-20T23:04:01Z</time>
      </trkpt>
      <trkpt lat="46.72986" lon="-1.92984">
        <ele>4</ele>
        <time>2018-04-20T23:05:01Z</time>
      </trkpt>
      <trkpt lat="46.72987" lon="-1.92966">
        <ele>4</ele>
        <time>2018-04-20T23:06:01Z</time>
      </trkpt>
      <trkpt lat="46.72988" lon="-1.9295">
        <ele>3</ele>
        <time>2018-04-20T23:07:01Z</time>
      </trkpt>
      <trkpt lat="46.72991" lon="-1.92935">
        <ele>3</ele>
        <time>2018-04-20T23:08:01Z</time>
      </trkpt>
      <trkpt lat="46.72995" lon="-1.92922">
        <ele>3</ele>
        <time>2018-04-20T23:09:01Z</time>
      </trkpt>
      <trkpt lat="46.73003" lon="-1.92906">
        <ele>3</ele>
        <time>2018-04-20T23:10:01Z</time>
      </trkpt>
      <trkpt lat="46.73013" lon="-1.92891">
        <ele>4</ele>
        <time>2018-04-20T23:11:01Z</time>
      </trkpt>
      <trkpt lat="46.7302" lon="-1.92882">
        <ele>4</ele>
        <time>2018-04-20T23:12:01Z</time>
      </trkpt>
      <trkpt lat="46.7303" lon="-1.92875">
        <ele>5</ele>
        <time>2018-04-20T23:13:01Z</time>
      </trkpt>
      <trkpt lat="46.73039" lon="-1.92872">
        <ele>5</ele>
        <time>2018-04-20T23:14:01Z</time>
      </trkpt>
      <trkpt lat="46.73048" lon="-1.92868">
        <ele>5</ele>
        <time>2018-04-20T23:15:01Z</time>
      </trkpt>
      <trkpt lat="46.73062" lon="-1.92865">
        <ele>5</ele>
        <time>2018-04-20T23:16:01Z</time>
      </trkpt>
      <trkpt lat="46.73087" lon="-1.92863">
        <ele>6</ele>
        <time>2018-04-20T23:17:01Z</time>
      </trkpt>
      <trkpt lat="46.73108" lon="-1.92861">
        <ele>6</ele>
        <time>2018-04-20T23:18:01Z</time>
      </trkpt>
      <trkpt lat="46.73108" lon="-1.92861">
        <ele>6</ele>
        <time>2018-04-20T23:19:01Z</time>
      </trkpt>
      <trkpt lat="46.73113" lon="-1.92851">
        <ele>6</ele>
        <time>2018-04-20T23:20:01Z</time>
      </trkpt>
      <trkpt lat="46.7312" lon="-1.9284">
        <ele>7</ele>
        <time>2018-04-20T23:21:01Z</time>
      </trkpt>
      <trkpt lat="46.73138" lon="-1.92824">
        <ele>7</ele>
        <time>2018-04-20T23:22:01Z</time>
      </trkpt>
      <trkpt lat="46.73156" lon="-1.92807">
        <ele>7</ele>
        <time>2018-04-20T23:23:01Z</time>
      </trkpt>
      <trkpt lat="46.73191" lon="-1.92776">
        <ele>8</ele>
        <time>2018-04-20T23:24:01Z</time>
      </trkpt>
      <trkpt lat="46.73214" lon="-1.92753">
        <ele>8</ele>
        <time>2018-04-20T23:25:01Z</time>
      </trkpt>
      <trkpt lat="46.73238" lon="-1.92725">
        <ele>8</ele>
        <time>2018-04-20T23:26:01Z</time>
      </trkpt>
      <trkpt lat="46.73277" lon="-1.92674">
        <ele>9</ele>
        <time>2018-04-20T23:27:01Z</time>
      </trkpt>
      <trkpt lat="46.73317" lon="-1.9262">
        <ele>9</ele>
        <time>2018-04-20T23:28:01Z</time>
      </trkpt>
      <trkpt lat="46.73362" lon="-1.92559">
        <ele>9</ele>
        <time>2018-04-20T23:29:01Z</time>
      </trkpt>
      <trkpt lat="46.73384" lon="-1.92531">
        <ele>9</ele>
        <time>2018-04-20T23:30:01Z</time>
      </trkpt>
      <trkpt lat="46.734" lon="-1.92511">
        <ele>9</ele>
        <time>2018-04-20T23:31:01Z</time>
      </trkpt>
      <trkpt lat="46.73407" lon="-1.92503">
        <ele>9</ele>
        <time>2018-04-20T23:32:01Z</time>
      </trkpt>
      <trkpt lat="46.73416" lon="-1.92492">
        <ele>9</ele>
        <time>2018-04-20T23:33:01Z</time>
      </trkpt>
      <trkpt lat="46.73425" lon="-1.92479">
        <ele>9</ele>
        <time>2018-04-20T23:34:01Z</time>
      </trkpt>
      <trkpt lat="46.73441" lon="-1.92457">
        <ele>10</ele>
        <time>2018-04-20T23:35:01Z</time>
      </trkpt>
      <trkpt lat="46.73469" lon="-1.92417">
        <ele>10</ele>
        <time>2018-04-20T23:36:01Z</time>
      </trkpt>
      <trkpt lat="46.73473" lon="-1.92412">
        <ele>10</ele>
        <time>2018-04-20T23:37:01Z</time>
      </trkpt>
      <trkpt lat="46.73494" lon="-1.92381">
        <ele>10</ele>
        <time>2018-04-20T23:38:01Z</time>
      </trkpt>
      <trkpt lat="46.73535" lon="-1.92326">
        <ele>10</ele>
        <time>2018-04-20T23:39:01Z</time>
      </trkpt>
      <trkpt lat="46.73545" lon="-1.92313">
        <ele>9</ele>
        <time>2018-04-20T23:40:01Z</time>
      </trkpt>
      <trkpt lat="46.73578" lon="-1.92269">
        <ele>9</ele>
        <time>2018-04-20T23:41:01Z</time>
      </trkpt>
      <trkpt lat="46.73602" lon="-1.92237">
        <ele>9</ele>
        <time>2018-04-20T23:42:01Z</time>
      </trkpt>
      <trkpt lat="46.73621" lon="-1.92211">
        <ele>9</ele>
        <time>2018-04-20T23:43:01Z</time>
      </trkpt>
      <trkpt lat="46.73635" lon="-1.92191">
        <ele>9</ele>
        <time>2018-04-20T23:44:01Z</time>
      </trkpt>
      <trkpt lat="46.73646" lon="-1.92175">
        <ele>9</ele>
        <time>2018-04-20T23:45:01Z</time>
      </trkpt>
      <trkpt lat="46.73659" lon="-1.92154">
        <ele>9</ele>
        <time>2018-04-20T23:46:01Z</time>
      </trkpt>
      <trkpt lat="46.73671" lon="-1.92133">
        <ele>8</ele>
        <time>2018-04-20T23:47:01Z</time>
      </trkpt>
      <trkpt lat="46.7369" lon="-1.92099">
        <ele>7</ele>
        <time>2018-04-20T23:48:01Z</time>
      </trkpt>
      <trkpt lat="46.73727" lon="-1.92027">
        <ele>6</ele>
        <time>2018-04-20T23:49:01Z</time>
      </trkpt>
      <trkpt lat="46.73756" lon="-1.91966">
        <ele>6</ele>
        <time>2018-04-20T23:50:01Z</time>
      </trkpt>
      <trkpt lat="46.73777" lon="-1.91924">
        <ele>5</ele>
        <time>2018-04-20T23:51:01Z</time>
      </trkpt>
      <trkpt lat="46.73782" lon="-1.91913">
        <ele>5</ele>
        <time>2018-04-20T23:52:01Z</time>
      </trkpt>
      <trkpt lat="46.73787" lon="-1.91904">
        <ele>5</ele>
        <time>2018-04-20T23:53:01Z</time>
      </trkpt>
      <trkpt lat="46.73793" lon="-1.91895">
        <ele>5</ele>
        <time>2018-04-20T23:54:01Z</time>
      </trkpt>
      <trkpt lat="46.738" lon="-1.91886">
        <ele>5</ele>
        <time>2018-04-20T23:55:01Z</time>
      </trkpt>
      <trkpt lat="46.73813" lon="-1.91873">
        <ele>5</ele>
        <time>2018-04-20T23:56:01Z</time>
      </trkpt>
      <trkpt lat="46.73863" lon="-1.91828">
        <ele>4</ele>
        <time>2018-04-20T23:57:01Z</time>
      </trkpt>
      <trkpt lat="46.73918" lon="-1.91773">
        <ele>4</ele>
        <time>2018-04-20T23:58:01Z</time>
      </trkpt>
      <trkpt lat="46.73929" lon="-1.91762">
        <ele>4</ele>
        <time>2018-04-20T23:59:01Z</time>
      </trkpt>
      <trkpt lat="46.73946" lon="-1.91744">
        <ele>4</ele>
        <time>2018-04-21T00:00:01Z</time>
      </trkpt>
      <trkpt lat="46.73954" lon="-1.91736">
        <ele>5</ele>
        <time>2018-04-21T00:01:01Z</time>
      </trkpt>
      <trkpt lat="46.73966" lon="-1.91725">
        <ele>5</ele>
        <time>2018-04-21T00:02:01Z</time>
      </trkpt>
      <trkpt lat="46.73966" lon="-1.91725">
        <ele>5</ele>
        <time>2018-04-21T00:03:01Z</time>
      </trkpt>
      <trkpt lat="46.73994" lon="-1.91701">
        <ele>5</ele>
        <time>2018-04-21T00:04:01Z</time>
      </trkpt>
      <trkpt lat="46.74036" lon="-1.91667">
        <ele>6</ele>
        <time>2018-04-21T00:05:01Z</time>
      </trkpt>
      <trkpt lat="46.74089" lon="-1.91626">
        <ele>5</ele>
        <time>2018-04-21T00:06:01Z</time>
      </trkpt>
      <trkpt lat="46.74117" lon="-1.91604">
        <ele>5</ele>
        <time>2018-04-21T00:07:01Z</time>
      </trkpt>
      <trkpt lat="46.74143" lon="-1.91582">
        <ele>5</ele>
        <time>2018-04-21T00:08:01Z</time>
      </trkpt>
      <trkpt lat="46.74156" lon="-1.9157">
        <ele>5</ele>
        <time>2018-04-21T00:09:01Z</time>
      </trkpt>
      <trkpt lat="46.74172" lon="-1.91555">
        <ele>5</ele>
        <time>2018-04-21T00:10:01Z</time>
      </trkpt>
      <trkpt lat="46.74174" lon="-1.91553">
        <ele>5</ele>
        <time>2018-04-21T00:11:01Z</time>
      </trkpt>
      <trkpt lat="46.74192" lon="-1.91535">
        <ele>5</ele>
        <time>2018-04-21T00:12:01Z</time>
      </trkpt>
      <trkpt lat="46.74235" lon="-1.91492">
        <ele>5</ele>
        <time>2018-04-21T00:13:01Z</time>
      </trkpt>
      <trkpt lat="46.74245" lon="-1.91482">
        <ele>5</ele>
        <time>2018-04-21T00:14:01Z</time>
      </trkpt>
      <trkpt lat="46.74283" lon="-1.91443">
        <ele>4</ele>
        <time>2018-04-21T00:15:01Z</time>
      </trkpt>
      <trkpt lat="46.74292" lon="-1.91432">
        <ele>4</ele>
        <time>2018-04-21T00:16:01Z</time>
      </trkpt>
      <trkpt lat="46.74294" lon="-1.91432">
        <ele>4</ele>
        <time>2018-04-21T00:17:01Z</time>
      </trkpt>
      <trkpt lat="46.74297" lon="-1.91431">
        <ele>4</ele>
        <time>2018-04-21T00:18:01Z</time>
      </trkpt>
      <trkpt lat="46.74311" lon="-1.91431">
        <ele>4</ele>
        <time>2018-04-21T00:19:01Z</time>
      </trkpt>
      <trkpt lat="46.74311" lon="-1.91431">
        <ele>4</ele>
        <time>2018-04-21T00:20:01Z</time>
      </trkpt>
      <trkpt lat="46.74317" lon="-1.91418">
        <ele>4</ele>
        <time>2018-04-21T00:21:01Z</time>
      </trkpt>
      <trkpt lat="46.74324" lon="-1.91402">
        <ele>4</ele>
        <time>2018-04-21T00:22:01Z</time>
      </trkpt>
      <trkpt lat="46.74333" lon="-1.91384">
        <ele>4</ele>
        <time>2018-04-21T00:23:01Z</time>
      </trkpt>
      <trkpt lat="46.74344" lon="-1.9136">
        <ele>4</ele>
        <time>2018-04-21T00:24:01Z</time>
      </trkpt>
      <trkpt lat="46.74351" lon="-1.91346">
        <ele>4</ele>
        <time>2018-04-21T00:25:01Z</time>
      </trkpt>
      <trkpt lat="46.74358" lon="-1.91334">
        <ele>4</ele>
        <time>2018-04-21T00:26:01Z</time>
      </trkpt>
      <trkpt lat="46.74367" lon="-1.91321">
        <ele>4</ele>
        <time>2018-04-21T00:27:01Z</time>
      </trkpt>
      <trkpt lat="46.74375" lon="-1.91309">
        <ele>3</ele>
        <time>2018-04-21T00:28:01Z</time>
      </trkpt>
      <trkpt lat="46.74385" lon="-1.91297">
        <ele>3</ele>
        <time>2018-04-21T00:29:01Z</time>
      </trkpt>
      <trkpt lat="46.74388" lon="-1.91293">
        <ele>3</ele>
        <time>2018-04-21T00:30:01Z</time>
      </trkpt>
      <trkpt lat="46.74418" lon="-1.91257">
        <ele>3</ele>
        <time>2018-04-21T00:31:01Z</time>
      </trkpt>
      <trkpt lat="46.74469" lon="-1.91194">
        <ele>4</ele>
        <time>2018-04-21T00:32:01Z</time>
      </trkpt>
      <trkpt lat="46.74477" lon="-1.91184">
        <ele>4</ele>
        <time>2018-04-21T00:33:01Z</time>
      </trkpt>
      <trkpt lat="46.74534" lon="-1.91117">
        <ele>3</ele>
        <time>2018-04-21T00:34:01Z</time>
      </trkpt>
      <trkpt lat="46.74563" lon="-1.91079">
        <ele>3</ele>
        <time>2018-04-21T00:35:01Z</time>
      </trkpt>
      <trkpt lat="46.74569" lon="-1.91072">
        <ele>2</ele>
        <time>2018-04-21T00:36:01Z</time>
      </trkpt>
      <trkpt lat="46.74573" lon="-1.91066">
        <ele>2</ele>
        <time>2018-04-21T00:37:01Z</time>
      </trkpt>
      <trkpt lat="46.74576" lon="-1.9106">
        <ele>2</ele>
        <time>2018-04-21T00:38:01Z</time>
      </trkpt>
      <trkpt lat="46.74584" lon="-1.91045">
        <ele>2</ele>
        <time>2018-04-21T00:39:01Z</time>
      </trkpt>
      <trkpt lat="46.74581" lon="-1.91042">
        <ele>3</ele>
        <time>2018-04-21T00:40:01Z</time>
      </trkpt>
      <trkpt lat="46.7458" lon="-1.91039">
        <ele>3</ele>
        <time>2018-04-21T00:41:01Z</time>
      </trkpt>
      <trkpt lat="46.74579" lon="-1.91036">
        <ele>3</ele>
        <time>2018-04-21T00:42:01Z</time>
      </trkpt>
      <trkpt lat="46.74579" lon="-1.91033">
        <ele>3</ele>
        <time>2018-04-21T00:43:01Z</time>
      </trkpt>
      <trkpt lat="46.7458" lon="-1.9103">
        <ele>3</ele>
        <time>2018-04-21T00:44:01Z</time>
      </trkpt>
      <trkpt lat="46.74583" lon="-1.91026">
        <ele>3</ele>
        <time>2018-04-21T00:45:01Z</time>
      </trkpt>
      <trkpt lat="46.74586" lon="-1.91024">
        <ele>3</ele>
        <time>2018-04-21T00:46:01Z</time>
      </trkpt>
      <trkpt lat="46.74589" lon="-1.91025">
        <ele>3</ele>
        <time>2018-04-21T00:47:01Z</time>
      </trkpt>
      <trkpt lat="46.74591" lon="-1.91026">
        <ele>3</ele>
        <time>2018-04-21T00:48:01Z</time>
      </trkpt>
      <trkpt lat="46.74596" lon="-1.91019">
        <ele>3</ele>
        <time>2018-04-21T00:49:01Z</time>
      </trkpt>
      <trkpt lat="46.74597" lon="-1.91017">
        <ele>3</ele>
        <time>2018-04-21T00:50:01Z</time>
      </trkpt>
      <trkpt lat="46.74598" lon="-1.91015">
        <ele>3</ele>
        <time>2018-04-21T00:51:01Z</time>
      </trkpt>
      <trkpt lat="46.746" lon="-1.91009">
        <ele>3</ele>
        <time>2018-04-21T00:52:01Z</time>
      </trkpt>
      <trkpt lat="46.74602" lon="-1.91001">
        <ele>3</ele>
        <time>2018-04-21T00:53:01Z</time>
      </trkpt>
      <trkpt lat="46.74603" lon="-1.9099">
        <ele>3</ele>
        <time>2018-04-21T00:54:01Z</time>
      </trkpt>
      <trkpt lat="46.74603" lon="-1.9098">
        <ele>3</ele>
        <time>2018-04-21T00:55:01Z</time>
      </trkpt>
      <trkpt lat="46.74602" lon="-1.9097">
        <ele>3</ele>
        <time>2018-04-21T00:56:01Z</time>
      </trkpt>
      <trkpt lat="46.74599" lon="-1.9096">
        <ele>3</ele>
        <time>2018-04-21T00:57:01Z</time>
      </trkpt>
      <trkpt lat="46.74594" lon="-1.90947">
        <ele>3</ele>
        <time>2018-04-21T00:58:01Z</time>
      </trkpt>
      <trkpt lat="46.74591" lon="-1.9094">
        <ele>3</ele>
        <time>2018-04-21T00:59:01Z</time>
      </trkpt>
      <trkpt lat="46.74581" lon="-1.90912">
        <ele>3</ele>
        <time>2018-04-21T01:00:01Z</time>
      </trkpt>
      <trkpt lat="46.7458" lon="-1.90911">
        <ele>3</ele>
        <time>2018-04-21T01:01:01Z</time>
      </trkpt>
      <trkpt lat="46.74576" lon="-1.90901">
        <ele>3</ele>
        <time>2018-04-21T01:02:01Z</time>
      </trkpt>
      <trkpt lat="46.74572" lon="-1.90893">
        <ele>4</ele>
        <time>2018-04-21T01:03:01Z</time>
      </trkpt>
      <trkpt lat="46.74566" lon="-1.9088">
        <ele>4</ele>
        <time>2018-04-21T01:04:01Z</time>
      </trkpt>
      <trkpt lat="46.74566" lon="-1.9088">
        <ele>4</ele>
        <time>2018-04-21T01:05:01Z</time>
      </trkpt>
      <trkpt lat="46.74564" lon="-1.90876">
        <ele>4</ele>
        <time>2018-04-21T01:06:01Z</time>
      </trkpt>
      <trkpt lat="46.74554" lon="-1.90862">
        <ele>4</ele>
        <time>2018-04-21T01:07:01Z</time>
      </trkpt>
      <trkpt lat="46.74534" lon="-1.90836">
        <ele>5</ele>
        <time>2018-04-21T01:08:01Z</time>
      </trkpt>
      <trkpt lat="46.74528" lon="-1.90828">
        <ele>5</ele>
        <time>2018-04-21T01:09:01Z</time>
      </trkpt>
      <trkpt lat="46.74523" lon="-1.90822">
        <ele>5</ele>
        <time>2018-04-21T01:10:01Z</time>
      </trkpt>
      <trkpt lat="46.74511" lon="-1.90805">
        <ele>5</ele>
        <time>2018-04-21T01:11:01Z</time>
      </trkpt>
      <trkpt lat="46.74508" lon="-1.90798">
        <ele>5</ele>
        <time>2018-04-21T01:12:01Z</time>
      </trkpt>
      <trkpt lat="46.74503" lon="-1.90787">
        <ele>5</ele>
        <time>2018-04-21T01:13:01Z</time>
      </trkpt>
      <trkpt lat="46.74496" lon="-1.90771">
        <ele>5</ele>
        <time>2018-04-21T01:14:01Z</time>
      </trkpt>
      <trkpt lat="46.74491" lon="-1.90757">
        <ele>5</ele>
        <time>2018-04-21T01:15:01Z</time>
      </trkpt>
      <trkpt lat="46.74487" lon="-1.90744">
        <ele>5</ele>
        <time>2018-04-21T01:16:01Z</time>
      </trkpt>
      <trkpt lat="46.74486" lon="-1.90734">
        <ele>5</ele>
        <time>2018-04-21T01:17:01Z</time>
      </trkpt>
      <trkpt lat="46.74485" lon="-1.90722">
        <ele>5</ele>
        <time>2018-04-21T01:18:01Z</time>
      </trkpt>
      <trkpt lat="46.74486" lon="-1.90716">
        <ele>5</ele>
        <time>2018-04-21T01:19:01Z</time>
      </trkpt>
      <trkpt lat="46.74487" lon="-1.90711">
        <ele>5</ele>
        <time>2018-04-21T01:20:01Z</time>
      </trkpt>
      <trkpt lat="46.74489" lon="-1.90704">
        <ele>5</ele>
        <time>2018-04-21T01:21:01Z</time>
      </trkpt>
      <trkpt lat="46.74493" lon="-1.90698">
        <ele>4</ele>
        <time>2018-04-21T01:22:01Z</time>
      </trkpt>
      <trkpt lat="46.74497" lon="-1.9069">
        <ele>4</ele>
        <time>2018-04-21T01:23:01Z</time>
      </trkpt>
      <trkpt lat="46.74502" lon="-1.90684">
        <ele>4</ele>
        <time>2018-04-21T01:24:01Z</time>
      </trkpt>
      <trkpt lat="46.74506" lon="-1.90678">
        <ele>4</ele>
        <time>2018-04-21T01:25:01Z</time>
      </trkpt>
      <trkpt lat="46.74512" lon="-1.90668">
        <ele>4</ele>
        <time>2018-04-21T01:26:01Z</time>
      </trkpt>
      <trkpt lat="46.74519" lon="-1.90656">
        <ele>4</ele>
        <time>2018-04-21T01:27:01Z</time>
      </trkpt>
      <trkpt lat="46.74519" lon="-1.90656">
        <ele>4</ele>
        <time>2018-04-21T01:28:01Z</time>
      </trkpt>
      <trkpt lat="46.74523" lon="-1.90646">
        <ele>4</ele>
        <time>2018-04-21T01:29:01Z</time>
      </trkpt>
      <trkpt lat="46.74529" lon="-1.90639">
        <ele>4</ele>
        <time>2018-04-21T01:30:01Z</time>
      </trkpt>
      <trkpt lat="46.74538" lon="-1.90629">
        <ele>4</ele>
        <time>2018-04-21T01:31:01Z</time>
      </trkpt>
      <trkpt lat="46.74549" lon="-1.90627">
        <ele>3</ele>
        <time>2018-04-21T01:32:01Z</time>
      </trkpt>
      <trkpt lat="46.74552" lon="-1.90625">
        <ele>3</ele>
        <time>2018-04-21T01:33:01Z</time>
      </trkpt>
      <trkpt lat="46.74567" lon="-1.90615">
        <ele>3</ele>
        <time>2018-04-21T01:34:01Z</time>
      </trkpt>
      <trkpt lat="46.74573" lon="-1.9061">
        <ele>3</ele>
        <time>2018-04-21T01:35:01Z</time>
      </trkpt>
      <trkpt lat="46.74591" lon="-1.90595">
        <ele>2</ele>
        <time>2018-04-21T01:36:01Z</time>
      </trkpt>
      <trkpt lat="46.74603" lon="-1.90586">
        <ele>2</ele>
        <time>2018-04-21T01:37:01Z</time>
      </trkpt>
      <trkpt lat="46.74612" lon="-1.90578">
        <ele>2</ele>
        <time>2018-04-21T01:38:01Z</time>
      </trkpt>
      <trkpt lat="46.74618" lon="-1.90573">
        <ele>2</ele>
        <time>2018-04-21T01:39:01Z</time>
      </trkpt>
      <trkpt lat="46.74672" lon="-1.90525">
        <ele>3</ele>
        <time>2018-04-21T01:40:01Z</time>
      </trkpt>
      <trkpt lat="46.74727" lon="-1.90479">
        <ele>4</ele>
        <time>2018-04-21T01:41:01Z</time>
      </trkpt>
      <trkpt lat="46.7473" lon="-1.90477">
        <ele>4</ele>
        <time>2018-04-21T01:42:01Z</time>
      </trkpt>
      <trkpt lat="46.74758" lon="-1.90455">
        <ele>4</ele>
        <time>2018-04-21T01:43:01Z</time>
      </trkpt>
      <trkpt lat="46.74812" lon="-1.90415">
        <ele>4</ele>
        <time>2018-04-21T01:44:01Z</time>
      </trkpt>
      <trkpt lat="46.74824" lon="-1.90396">
        <ele>4</ele>
        <time>2018-04-21T01:45:01Z</time>
      </trkpt>
      <trkpt lat="46.74826" lon="-1.90393">
        <ele>4</ele>
        <time>2018-04-21T01:46:01Z</time>
      </trkpt>
      <trkpt lat="46.74827" lon="-1.9039">
        <ele>4</ele>
        <time>2018-04-21T01:47:01Z</time>
      </trkpt>
      <trkpt lat="46.74828" lon="-1.90387">
        <ele>4</ele>
        <time>2018-04-21T01:48:01Z</time>
      </trkpt>
      <trkpt lat="46.74833" lon="-1.90376">
        <ele>4</ele>
        <time>2018-04-21T01:49:01Z</time>
      </trkpt>
      <trkpt lat="46.74837" lon="-1.90359">
        <ele>5</ele>
        <time>2018-04-21T01:50:01Z</time>
      </trkpt>
      <trkpt lat="46.74841" lon="-1.9034">
        <ele>5</ele>
        <time>2018-04-21T01:51:01Z</time>
      </trkpt>
      <trkpt lat="46.74845" lon="-1.90331">
        <ele>5</ele>
        <time>2018-04-21T01:52:01Z</time>
      </trkpt>
      <trkpt lat="46.74846" lon="-1.90329">
        <ele>5</ele>
        <time>2018-04-21T01:53:01Z</time>
      </trkpt>
      <trkpt lat="46.74849" lon="-1.90315">
        <ele>5</ele>
        <time>2018-04-21T01:54:01Z</time>
      </trkpt>
      <trkpt lat="46.74851" lon="-1.90299">
        <ele>5</ele>
        <time>2018-04-21T01:55:01Z</time>
      </trkpt>
      <trkpt lat="46.74852" lon="-1.90282">
        <ele>5</ele>
        <time>2018-04-21T01:56:01Z</time>
      </trkpt>
      <trkpt lat="46.74853" lon="-1.90275">
        <ele>6</ele>
        <time>2018-04-21T01:57:01Z</time>
      </trkpt>
      <trkpt lat="46.74853" lon="-1.90266">
        <ele>6</ele>
        <time>2018-04-21T01:58:01Z</time>
      </trkpt>
      <trkpt lat="46.74855" lon="-1.90247">
        <ele>6</ele>
        <time>2018-04-21T01:59:01Z</time>
      </trkpt>
      <trkpt lat="46.74855" lon="-1.90226">
        <ele>6</ele>
        <time>2018-04-21T02:00:01Z</time>
      </trkpt>
      <trkpt lat="46.74856" lon="-1.90215">
        <ele>6</ele>
        <time>2018-04-21T02:01:01Z</time>
      </trkpt>
      <trkpt lat="46.74857" lon="-1.90195">
        <ele>6</ele>
        <time>2018-04-21T02:02:01Z</time>
      </trkpt>
      <trkpt lat="46.74857" lon="-1.90183">
        <ele>6</ele>
        <time>2018-04-21T02:03:01Z</time>
      </trkpt>
      <trkpt lat="46.74857" lon="-1.9018">
        <ele>6</ele>
        <time>2018-04-21T02:04:01Z</time>
      </trkpt>
      <trkpt lat="46.74857" lon="-1.90159">
        <ele>6</ele>
        <time>2018-04-21T02:05:01Z</time>
      </trkpt>
      <trkpt lat="46.74856" lon="-1.90129">
        <ele>6</ele>
        <time>2018-04-21T02:06:01Z</time>
      </trkpt>
      <trkpt lat="46.74852" lon="-1.90014">
        <ele>6</ele>
        <time>2018-04-21T02:07:01Z</time>
      </trkpt>
      <trkpt lat="46.7485" lon="-1.89954">
        <ele>6</ele>
        <time>2018-04-21T02:08:01Z</time>
      </trkpt>
      <trkpt lat="46.74849" lon="-1.89943">
        <ele>6</ele>
        <time>2018-04-21T02:09:01Z</time>
      </trkpt>
      <trkpt lat="46.7485" lon="-1.89908">
        <ele>6</ele>
        <time>2018-04-21T02:10:01Z</time>
      </trkpt>
      <trkpt lat="46.7485" lon="-1.8988">
        <ele>6</ele>
        <time>2018-04-21T02:11:01Z</time>
      </trkpt>
      <trkpt lat="46.74849" lon="-1.89871">
        <ele>6</ele>
        <time>2018-04-21T02:12:01Z</time>
      </trkpt>
      <trkpt lat="46.74848" lon="-1.89861">
        <ele>6</ele>
        <time>2018-04-21T02:13:01Z</time>
      </trkpt>
      <trkpt lat="46.74848" lon="-1.89855">
        <ele>7</ele>
        <time>2018-04-21T02:14:01Z</time>
      </trkpt>
      <trkpt lat="46.74845" lon="-1.89818">
        <ele>7</ele>
        <time>2018-04-21T02:15:01Z</time>
      </trkpt>
      <trkpt lat="46.74844" lon="-1.89797">
        <ele>7</ele>
        <time>2018-04-21T02:16:01Z</time>
      </trkpt>
      <trkpt lat="46.74844" lon="-1.89793">
        <ele>7</ele>
        <time>2018-04-21T02:17:01Z</time>
      </trkpt>
      <trkpt lat="46.74844" lon="-1.89789">
        <ele>7</ele>
        <time>2018-04-21T02:18:01Z</time>
      </trkpt>
      <trkpt lat="46.74845" lon="-1.89778">
        <ele>7</ele>
        <time>2018-04-21T02:19:01Z</time>
      </trkpt>
      <trkpt lat="46.74844" lon="-1.89745">
        <ele>7</ele>
        <time>2018-04-21T02:20:01Z</time>
      </trkpt>
      <trkpt lat="46.74843" lon="-1.89721">
        <ele>8</ele>
        <time>2018-04-21T02:21:01Z</time>
      </trkpt>
      <trkpt lat="46.74843" lon="-1.89717">
        <ele>8</ele>
        <time>2018-04-21T02:22:01Z</time>
      </trkpt>
      <trkpt lat="46.74843" lon="-1.8971">
        <ele>8</ele>
        <time>2018-04-21T02:23:01Z</time>
      </trkpt>
      <trkpt lat="46.74843" lon="-1.89689">
        <ele>8</ele>
        <time>2018-04-21T02:24:01Z</time>
      </trkpt>
      <trkpt lat="46.74843" lon="-1.89675">
        <ele>9</ele>
        <time>2018-04-21T02:25:01Z</time>
      </trkpt>
      <trkpt lat="46.74843" lon="-1.89647">
        <ele>9</ele>
        <time>2018-04-21T02:26:01Z</time>
      </trkpt>
      <trkpt lat="46.74842" lon="-1.89634">
        <ele>9</ele>
        <time>2018-04-21T02:27:01Z</time>
      </trkpt>
      <trkpt lat="46.74842" lon="-1.89606">
        <ele>8</ele>
        <time>2018-04-21T02:28:01Z</time>
      </trkpt>
      <trkpt lat="46.74842" lon="-1.89571">
        <ele>8</ele>
        <time>2018-04-21T02:29:01Z</time>
      </trkpt>
      <trkpt lat="46.74842" lon="-1.8955">
        <ele>8</ele>
        <time>2018-04-21T02:30:01Z</time>
      </trkpt>
      <trkpt lat="46.74843" lon="-1.89509">
        <ele>8</ele>
        <time>2018-04-21T02:31:01Z</time>
      </trkpt>
      <trkpt lat="46.74843" lon="-1.895">
        <ele>8</ele>
        <time>2018-04-21T02:32:01Z</time>
      </trkpt>
      <trkpt lat="46.74843" lon="-1.89466">
        <ele>8</ele>
        <time>2018-04-21T02:33:01Z</time>
      </trkpt>
      <trkpt lat="46.74843" lon="-1.89447">
        <ele>8</ele>
        <time>2018-04-21T02:34:01Z</time>
      </trkpt>
      <trkpt lat="46.74843" lon="-1.89423">
        <ele>8</ele>
        <time>2018-04-21T02:35:01Z</time>
      </trkpt>
      <trkpt lat="46.74843" lon="-1.89411">
        <ele>8</ele>
        <time>2018-04-21T02:36:01Z</time>
      </trkpt>
      <trkpt lat="46.74842" lon="-1.89383">
        <ele>8</ele>
        <time>2018-04-21T02:37:01Z</time>
      </trkpt>
      <trkpt lat="46.74842" lon="-1.89372">
        <ele>8</ele>
        <time>2018-04-21T02:38:01Z</time>
      </trkpt>
      <trkpt lat="46.74842" lon="-1.89365">
        <ele>8</ele>
        <time>2018-04-21T02:39:01Z</time>
      </trkpt>
      <trkpt lat="46.74842" lon="-1.89349">
        <ele>8</ele>
        <time>2018-04-21T02:40:01Z</time>
      </trkpt>
      <trkpt lat="46.74841" lon="-1.89332">
        <ele>8</ele>
        <time>2018-04-21T02:41:01Z</time>
      </trkpt>
      <trkpt lat="46.7484" lon="-1.89315">
        <ele>8</ele>
        <time>2018-04-21T02:42:01Z</time>
      </trkpt>
      <trkpt lat="46.74838" lon="-1.89279">
        <ele>9</ele>
        <time>2018-04-21T02:43:01Z</time>
      </trkpt>
      <trkpt lat="46.74834" lon="-1.89221">
        <ele>10</ele>
        <time>2018-04-21T02:44:01Z</time>
      </trkpt>
      <trkpt lat="46.74831" lon="-1.89174">
        <ele>11</ele>
        <time>2018-04-21T02:45:01Z</time>
      </trkpt>
      <trkpt lat="46.74828" lon="-1.8912">
        <ele>11</ele>
        <time>2018-04-21T02:46:01Z</time>
      </trkpt>
      <trkpt lat="46.74826" lon="-1.89092">
        <ele>11</ele>
        <time>2018-04-21T02:47:01Z</time>
      </trkpt>
      <trkpt lat="46.74825" lon="-1.89073">
        <ele>11</ele>
        <time>2018-04-21T02:48:01Z</time>
      </trkpt>
      <trkpt lat="46.74825" lon="-1.89055">
        <ele>11</ele>
        <time>2018-04-21T02:49:01Z</time>
      </trkpt>
      <trkpt lat="46.74824" lon="-1.8904">
        <ele>11</ele>
        <time>2018-04-21T02:50:01Z</time>
      </trkpt>
      <trkpt lat="46.74824" lon="-1.89025">
        <ele>11</ele>
        <time>2018-04-21T02:51:01Z</time>
      </trkpt>
      <trkpt lat="46.74824" lon="-1.89008">
        <ele>11</ele>
        <time>2018-04-21T02:52:01Z</time>
      </trkpt>
      <trkpt lat="46.74825" lon="-1.88973">
        <ele>11</ele>
        <time>2018-04-21T02:53:01Z</time>
      </trkpt>
      <trkpt lat="46.74826" lon="-1.88934">
        <ele>12</ele>
        <time>2018-04-21T02:54:01Z</time>
      </trkpt>
      <trkpt lat="46.74826" lon="-1.88892">
        <ele>12</ele>
        <time>2018-04-21T02:55:01Z</time>
      </trkpt>
      <trkpt lat="46.74827" lon="-1.88854">
        <ele>12</ele>
        <time>2018-04-21T02:56:01Z</time>
      </trkpt>
      <trkpt lat="46.74829" lon="-1.88817">
        <ele>12</ele>
        <time>2018-04-21T02:57:01Z</time>
      </trkpt>
      <trkpt lat="46.7483" lon="-1.8879">
        <ele>12</ele>
        <time>2018-04-21T02:58:01Z</time>
      </trkpt>
      <trkpt lat="46.74832" lon="-1.8877">
        <ele>12</ele>
        <time>2018-04-21T02:59:01Z</time>
      </trkpt>
      <trkpt lat="46.74834" lon="-1.88748">
        <ele>12</ele>
        <time>2018-04-21T03:00:01Z</time>
      </trkpt>
      <trkpt lat="46.74839" lon="-1.88686">
        <ele>12</ele>
        <time>2018-04-21T03:01:01Z</time>
      </trkpt>
      <trkpt lat="46.74846" lon="-1.88622">
        <ele>12</ele>
        <time>2018-04-21T03:02:01Z</time>
      </trkpt>
      <trkpt lat="46.7485" lon="-1.88595">
        <ele>11</ele>
        <time>2018-04-21T03:03:01Z</time>
      </trkpt>
      <trkpt lat="46.74853" lon="-1.88575">
        <ele>11</ele>
        <time>2018-04-21T03:04:01Z</time>
      </trkpt>
      <trkpt lat="46.74856" lon="-1.88561">
        <ele>12</ele>
        <time>2018-04-21T03:05:01Z</time>
      </trkpt>
      <trkpt lat="46.7486" lon="-1.88545">
        <ele>12</ele>
        <time>2018-04-21T03:06:01Z</time>
      </trkpt>
      <trkpt lat="46.74881" lon="-1.88465">
        <ele>12</ele>
        <time>2018-04-21T03:07:01Z</time>
      </trkpt>
      <trkpt lat="46.74883" lon="-1.88454">
        <ele>11</ele>
        <time>2018-04-21T03:08:01Z</time>
      </trkpt>
      <trkpt lat="46.74896" lon="-1.88406">
        <ele>11</ele>
        <time>2018-04-21T03:09:01Z</time>
      </trkpt>
      <trkpt lat="46.74914" lon="-1.88342">
        <ele>13</ele>
        <time>2018-04-21T03:10:01Z</time>
      </trkpt>
      <trkpt lat="46.74925" lon="-1.883">
        <ele>13</ele>
        <time>2018-04-21T03:11:01Z</time>
      </trkpt>
      <trkpt lat="46.74934" lon="-1.88272">
        <ele>13</ele>
        <time>2018-04-21T03:12:01Z</time>
      </trkpt>
      <trkpt lat="46.74938" lon="-1.88258">
        <ele>13</ele>
        <time>2018-04-21T03:13:01Z</time>
      </trkpt>
      <trkpt lat="46.74943" lon="-1.88246">
        <ele>12</ele>
        <time>2018-04-21T03:14:01Z</time>
      </trkpt>
      <trkpt lat="46.74948" lon="-1.88233">
        <ele>12</ele>
        <time>2018-04-21T03:15:01Z</time>
      </trkpt>
      <trkpt lat="46.74954" lon="-1.88221">
        <ele>11</ele>
        <time>2018-04-21T03:16:01Z</time>
      </trkpt>
      <trkpt lat="46.7496" lon="-1.88208">
        <ele>11</ele>
        <time>2018-04-21T03:17:01Z</time>
      </trkpt>
      <trkpt lat="46.74967" lon="-1.88193">
        <ele>10</ele>
        <time>2018-04-21T03:18:01Z</time>
      </trkpt>
      <trkpt lat="46.74976" lon="-1.88179">
        <ele>10</ele>
        <time>2018-04-21T03:19:01Z</time>
      </trkpt>
      <trkpt lat="46.7499" lon="-1.88159">
        <ele>9</ele>
        <time>2018-04-21T03:20:01Z</time>
      </trkpt>
      <trkpt lat="46.75019" lon="-1.88119">
        <ele>9</ele>
        <time>2018-04-21T03:21:01Z</time>
      </trkpt>
      <trkpt lat="46.75026" lon="-1.8811">
        <ele>9</ele>
        <time>2018-04-21T03:22:01Z</time>
      </trkpt>
      <trkpt lat="46.75039" lon="-1.88095">
        <ele>9</ele>
        <time>2018-04-21T03:23:01Z</time>
      </trkpt>
      <trkpt lat="46.75058" lon="-1.8807">
        <ele>9</ele>
        <time>2018-04-21T03:24:01Z</time>
      </trkpt>
      <trkpt lat="46.75083" lon="-1.88037">
        <ele>9</ele>
        <time>2018-04-21T03:25:01Z</time>
      </trkpt>
      <trkpt lat="46.75098" lon="-1.88016">
        <ele>10</ele>
        <time>2018-04-21T03:26:01Z</time>
      </trkpt>
      <trkpt lat="46.75106" lon="-1.88003">
        <ele>10</ele>
        <time>2018-04-21T03:27:01Z</time>
      </trkpt>
      <trkpt lat="46.75111" lon="-1.87992">
        <ele>10</ele>
        <time>2018-04-21T03:28:01Z</time>
      </trkpt>
      <trkpt lat="46.75114" lon="-1.87984">
        <ele>11</ele>
        <time>2018-04-21T03:29:01Z</time>
      </trkpt>
      <trkpt lat="46.75118" lon="-1.87973">
        <ele>11</ele>
        <time>2018-04-21T03:30:01Z</time>
      </trkpt>
      <trkpt lat="46.75123" lon="-1.87957">
        <ele>11</ele>
        <time>2018-04-21T03:31:01Z</time>
      </trkpt>
      <trkpt lat="46.75126" lon="-1.87941">
        <ele>12</ele>
        <time>2018-04-21T03:32:01Z</time>
      </trkpt>
      <trkpt lat="46.75129" lon="-1.87925">
        <ele>12</ele>
        <time>2018-04-21T03:33:01Z</time>
      </trkpt>
      <trkpt lat="46.75131" lon="-1.87908">
        <ele>12</ele>
        <time>2018-04-21T03:34:01Z</time>
      </trkpt>
      <trkpt lat="46.75134" lon="-1.87889">
        <ele>12</ele>
        <time>2018-04-21T03:35:01Z</time>
      </trkpt>
      <trkpt lat="46.75136" lon="-1.87871">
        <ele>11</ele>
        <time>2018-04-21T03:36:01Z</time>
      </trkpt>
      <trkpt lat="46.75138" lon="-1.87851">
        <ele>11</ele>
        <time>2018-04-21T03:37:01Z</time>
      </trkpt>
      <trkpt lat="46.7514" lon="-1.87824">
        <ele>11</ele>
        <time>2018-04-21T03:38:01Z</time>
      </trkpt>
      <trkpt lat="46.75142" lon="-1.87797">
        <ele>11</ele>
        <time>2018-04-21T03:39:01Z</time>
      </trkpt>
      <trkpt lat="46.75144" lon="-1.87765">
        <ele>11</ele>
        <time>2018-04-21T03:40:01Z</time>
      </trkpt>
      <trkpt lat="46.75145" lon="-1.87742">
        <ele>11</ele>
        <time>2018-04-21T03:41:01Z</time>
      </trkpt>
      <trkpt lat="46.75147" lon="-1.87715">
        <ele>11</ele>
        <time>2018-04-21T03:42:01Z</time>
      </trkpt>
      <trkpt lat="46.75149" lon="-1.8768">
        <ele>11</ele>
        <time>2018-04-21T03:43:01Z</time>
      </trkpt>
      <trkpt lat="46.75149" lon="-1.87652">
        <ele>12</ele>
        <time>2018-04-21T03:44:01Z</time>
      </trkpt>
      <trkpt lat="46.7515" lon="-1.87634">
        <ele>12</ele>
        <time>2018-04-21T03:45:01Z</time>
      </trkpt>
      <trkpt lat="46.7515" lon="-1.87615">
        <ele>12</ele>
        <time>2018-04-21T03:46:01Z</time>
      </trkpt>
      <trkpt lat="46.75149" lon="-1.87581">
        <ele>12</ele>
        <time>2018-04-21T03:47:01Z</time>
      </trkpt>
      <trkpt lat="46.75149" lon="-1.87548">
        <ele>13</ele>
        <time>2018-04-21T03:48:01Z</time>
      </trkpt>
      <trkpt lat="46.75148" lon="-1.87517">
        <ele>13</ele>
        <time>2018-04-21T03:49:01Z</time>
      </trkpt>
      <trkpt lat="46.75146" lon="-1.8748">
        <ele>13</ele>
        <time>2018-04-21T03:50:01Z</time>
      </trkpt>
      <trkpt lat="46.75144" lon="-1.8744">
        <ele>13</ele>
        <time>2018-04-21T03:51:01Z</time>
      </trkpt>
      <trkpt lat="46.7514" lon="-1.87388">
        <ele>13</ele>
        <time>2018-04-21T03:52:01Z</time>
      </trkpt>
      <trkpt lat="46.75135" lon="-1.87327">
        <ele>13</ele>
        <time>2018-04-21T03:53:01Z</time>
      </trkpt>
      <trkpt lat="46.75132" lon="-1.87295">
        <ele>14</ele>
        <time>2018-04-21T03:54:01Z</time>
      </trkpt>
      <trkpt lat="46.75132" lon="-1.87281">
        <ele>14</ele>
        <time>2018-04-21T03:55:01Z</time>
      </trkpt>
      <trkpt lat="46.75131" lon="-1.87259">
        <ele>15</ele>
        <time>2018-04-21T03:56:01Z</time>
      </trkpt>
      <trkpt lat="46.75132" lon="-1.87241">
        <ele>15</ele>
        <time>2018-04-21T03:57:01Z</time>
      </trkpt>
      <trkpt lat="46.75133" lon="-1.87222">
        <ele>15</ele>
        <time>2018-04-21T03:58:01Z</time>
      </trkpt>
      <trkpt lat="46.75134" lon="-1.87212">
        <ele>16</ele>
        <time>2018-04-21T03:59:01Z</time>
      </trkpt>
      <trkpt lat="46.75136" lon="-1.87195">
        <ele>16</ele>
        <time>2018-04-21T04:00:01Z</time>
      </trkpt>
      <trkpt lat="46.75138" lon="-1.8718">
        <ele>16</ele>
        <time>2018-04-21T04:01:01Z</time>
      </trkpt>
      <trkpt lat="46.75142" lon="-1.87159">
        <ele>17</ele>
        <time>2018-04-21T04:02:01Z</time>
      </trkpt>
      <trkpt lat="46.75142" lon="-1.87151">
        <ele>17</ele>
        <time>2018-04-21T04:03:01Z</time>
      </trkpt>
      <trkpt lat="46.75143" lon="-1.87144">
        <ele>17</ele>
        <time>2018-04-21T04:04:01Z</time>
      </trkpt>
      <trkpt lat="46.75145" lon="-1.87131">
        <ele>17</ele>
        <time>2018-04-21T04:05:01Z</time>
      </trkpt>
      <trkpt lat="46.75147" lon="-1.87119">
        <ele>17</ele>
        <time>2018-04-21T04:06:01Z</time>
      </trkpt>
      <trkpt lat="46.75148" lon="-1.87108">
        <ele>17</ele>
        <time>2018-04-21T04:07:01Z</time>
      </trkpt>
      <trkpt lat="46.75148" lon="-1.87097">
        <ele>16</ele>
        <time>2018-04-21T04:08:01Z</time>
      </trkpt>
      <trkpt lat="46.75149" lon="-1.87086">
        <ele>16</ele>
        <time>2018-04-21T04:09:01Z</time>
      </trkpt>
      <trkpt lat="46.75148" lon="-1.87078">
        <ele>16</ele>
        <time>2018-04-21T04:10:01Z</time>
      </trkpt>
      <trkpt lat="46.75148" lon="-1.87072">
        <ele>16</ele>
        <time>2018-04-21T04:11:01Z</time>
      </trkpt>
      <trkpt lat="46.75147" lon="-1.87059">
        <ele>16</ele>
        <time>2018-04-21T04:12:01Z</time>
      </trkpt>
      <trkpt lat="46.75147" lon="-1.87059">
        <ele>16</ele>
        <time>2018-04-21T04:13:01Z</time>
      </trkpt>
      <trkpt lat="46.75144" lon="-1.87055">
        <ele>16</ele>
        <time>2018-04-21T04:14:01Z</time>
      </trkpt>
      <trkpt lat="46.75142" lon="-1.8705">
        <ele>16</ele>
        <time>2018-04-21T04:15:01Z</time>
      </trkpt>
      <trkpt lat="46.7514" lon="-1.87045">
        <ele>16</ele>
        <time>2018-04-21T04:16:01Z</time>
      </trkpt>
      <trkpt lat="46.75139" lon="-1.8704">
        <ele>16</ele>
        <time>2018-04-21T04:17:01Z</time>
      </trkpt>
      <trkpt lat="46.75139" lon="-1.87036">
        <ele>16</ele>
        <time>2018-04-21T04:18:01Z</time>
      </trkpt>
      <trkpt lat="46.7514" lon="-1.87028">
        <ele>16</ele>
        <time>2018-04-21T04:19:01Z</time>
      </trkpt>
      <trkpt lat="46.75143" lon="-1.87019">
        <ele>16</ele>
        <time>2018-04-21T04:20:01Z</time>
      </trkpt>
      <trkpt lat="46.75147" lon="-1.87011">
        <ele>16</ele>
        <time>2018-04-21T04:21:01Z</time>
      </trkpt>
      <trkpt lat="46.75149" lon="-1.8701">
        <ele>16</ele>
        <time>2018-04-21T04:22:01Z</time>
      </trkpt>
      <trkpt lat="46.75151" lon="-1.87007">
        <ele>16</ele>
        <time>2018-04-21T04:23:01Z</time>
      </trkpt>
      <trkpt lat="46.75153" lon="-1.87006">
        <ele>16</ele>
        <time>2018-04-21T04:24:01Z</time>
      </trkpt>
      <trkpt lat="46.75156" lon="-1.87005">
        <ele>16</ele>
        <time>2018-04-21T04:25:01Z</time>
      </trkpt>
      <trkpt lat="46.75159" lon="-1.87005">
        <ele>17</ele>
        <time>2018-04-21T04:26:01Z</time>
      </trkpt>
      <trkpt lat="46.75161" lon="-1.87006">
        <ele>17</ele>
        <time>2018-04-21T04:27:01Z</time>
      </trkpt>
      <trkpt lat="46.75164" lon="-1.87007">
        <ele>17</ele>
        <time>2018-04-21T04:28:01Z</time>
      </trkpt>
      <trkpt lat="46.75173" lon="-1.86993">
        <ele>17</ele>
        <time>2018-04-21T04:29:01Z</time>
      </trkpt>
      <trkpt lat="46.75179" lon="-1.86983">
        <ele>17</ele>
        <time>2018-04-21T04:30:01Z</time>
      </trkpt>
      <trkpt lat="46.75185" lon="-1.8697">
        <ele>17</ele>
        <time>2018-04-21T04:31:01Z</time>
      </trkpt>
      <trkpt lat="46.75193" lon="-1.86941">
        <ele>17</ele>
        <time>2018-04-21T04:32:01Z</time>
      </trkpt>
      <trkpt lat="46.75204" lon="-1.86904">
        <ele>18</ele>
        <time>2018-04-21T04:33:01Z</time>
      </trkpt>
      <trkpt lat="46.75217" lon="-1.86859">
        <ele>18</ele>
        <time>2018-04-21T04:34:01Z</time>
      </trkpt>
      <trkpt lat="46.75225" lon="-1.86832">
        <ele>18</ele>
        <time>2018-04-21T04:35:01Z</time>
      </trkpt>
      <trkpt lat="46.75233" lon="-1.86808">
        <ele>18</ele>
        <time>2018-04-21T04:36:01Z</time>
      </trkpt>
      <trkpt lat="46.75236" lon="-1.868">
        <ele>17</ele>
        <time>2018-04-21T04:37:01Z</time>
      </trkpt>
      <trkpt lat="46.75246" lon="-1.86771">
        <ele>17</ele>
        <time>2018-04-21T04:38:01Z</time>
      </trkpt>
      <trkpt lat="46.75252" lon="-1.86754">
        <ele>17</ele>
        <time>2018-04-21T04:39:01Z</time>
      </trkpt>
      <trkpt lat="46.75264" lon="-1.86722">
        <ele>17</ele>
        <time>2018-04-21T04:40:01Z</time>
      </trkpt>
      <trkpt lat="46.7528" lon="-1.86682">
        <ele>18</ele>
        <time>2018-04-21T04:41:01Z</time>
      </trkpt>
      <trkpt lat="46.75292" lon="-1.8665">
        <ele>18</ele>
        <time>2018-04-21T04:42:01Z</time>
      </trkpt>
      <trkpt lat="46.753" lon="-1.86632">
        <ele>18</ele>
        <time>2018-04-21T04:43:01Z</time>
      </trkpt>
      <trkpt lat="46.75308" lon="-1.86612">
        <ele>18</ele>
        <time>2018-04-21T04:44:01Z</time>
      </trkpt>
      <trkpt lat="46.7531" lon="-1.86608">
        <ele>18</ele>
        <time>2018-04-21T04:45:01Z</time>
      </trkpt>
      <trkpt lat="46.75316" lon="-1.86596">
        <ele>18</ele>
        <time>2018-04-21T04:46:01Z</time>
      </trkpt>
      <trkpt lat="46.75321" lon="-1.86586">
        <ele>18</ele>
        <time>2018-04-21T04:47:01Z</time>
      </trkpt>
      <trkpt lat="46.75327" lon="-1.86575">
        <ele>18</ele>
        <time>2018-04-21T04:48:01Z</time>
      </trkpt>
      <trkpt lat="46.75333" lon="-1.86564">
        <ele>18</ele>
        <time>2018-04-21T04:49:01Z</time>
      </trkpt>
      <trkpt lat="46.75335" lon="-1.8656">
        <ele>18</ele>
        <time>2018-04-21T04:50:01Z</time>
      </trkpt>
      <trkpt lat="46.75345" lon="-1.86543">
        <ele>18</ele>
        <time>2018-04-21T04:51:01Z</time>
      </trkpt>
      <trkpt lat="46.7536" lon="-1.86518">
        <ele>18</ele>
        <time>2018-04-21T04:52:01Z</time>
      </trkpt>
      <trkpt lat="46.75372" lon="-1.86496">
        <ele>18</ele>
        <time>2018-04-21T04:53:01Z</time>
      </trkpt>
      <trkpt lat="46.75386" lon="-1.86469">
        <ele>18</ele>
        <time>2018-04-21T04:54:01Z</time>
      </trkpt>
      <trkpt lat="46.75396" lon="-1.86449">
        <ele>17</ele>
        <time>2018-04-21T04:55:01Z</time>
      </trkpt>
      <trkpt lat="46.75407" lon="-1.86422">
        <ele>16</ele>
        <time>2018-04-21T04:56:01Z</time>
      </trkpt>
      <trkpt lat="46.75417" lon="-1.86395">
        <ele>16</ele>
        <time>2018-04-21T04:57:01Z</time>
      </trkpt>
      <trkpt lat="46.75424" lon="-1.86374">
        <ele>17</ele>
        <time>2018-04-21T04:58:01Z</time>
      </trkpt>
      <trkpt lat="46.75429" lon="-1.8636">
        <ele>17</ele>
        <time>2018-04-21T04:59:01Z</time>
      </trkpt>
      <trkpt lat="46.75432" lon="-1.86348">
        <ele>17</ele>
        <time>2018-04-21T05:00:01Z</time>
      </trkpt>
      <trkpt lat="46.75436" lon="-1.86334">
        <ele>17</ele>
        <time>2018-04-21T05:01:01Z</time>
      </trkpt>
      <trkpt lat="46.75438" lon="-1.86321">
        <ele>17</ele>
        <time>2018-04-21T05:02:01Z</time>
      </trkpt>
      <trkpt lat="46.75441" lon="-1.86306">
        <ele>17</ele>
        <time>2018-04-21T05:03:01Z</time>
      </trkpt>
      <trkpt lat="46.75443" lon="-1.8629">
        <ele>17</ele>
        <time>2018-04-21T05:04:01Z</time>
      </trkpt>
      <trkpt lat="46.75446" lon="-1.86272">
        <ele>17</ele>
        <time>2018-04-21T05:05:01Z</time>
      </trkpt>
      <trkpt lat="46.75452" lon="-1.8623">
        <ele>17</ele>
        <time>2018-04-21T05:06:01Z</time>
      </trkpt>
      <trkpt lat="46.75452" lon="-1.86222">
        <ele>17</ele>
        <time>2018-04-21T05:07:01Z</time>
      </trkpt>
      <trkpt lat="46.75452" lon="-1.86221">
        <ele>17</ele>
        <time>2018-04-21T05:08:01Z</time>
      </trkpt>
      <trkpt lat="46.75456" lon="-1.86188">
        <ele>17</ele>
        <time>2018-04-21T05:09:01Z</time>
      </trkpt>
      <trkpt lat="46.75464" lon="-1.8613">
        <ele>17</ele>
        <time>2018-04-21T05:10:01Z</time>
      </trkpt>
      <trkpt lat="46.75474" lon="-1.86059">
        <ele>17</ele>
        <time>2018-04-21T05:11:01Z</time>
      </trkpt>
      <trkpt lat="46.75482" lon="-1.86004">
        <ele>17</ele>
        <time>2018-04-21T05:12:01Z</time>
      </trkpt>
      <trkpt lat="46.75486" lon="-1.85986">
        <ele>18</ele>
        <time>2018-04-21T05:13:01Z</time>
      </trkpt>
      <trkpt lat="46.7549" lon="-1.85969">
        <ele>18</ele>
        <time>2018-04-21T05:14:01Z</time>
      </trkpt>
      <trkpt lat="46.75493" lon="-1.85957">
        <ele>18</ele>
        <time>2018-04-21T05:15:01Z</time>
      </trkpt>
      <trkpt lat="46.75495" lon="-1.8595">
        <ele>18</ele>
        <time>2018-04-21T05:16:01Z</time>
      </trkpt>
      <trkpt lat="46.75499" lon="-1.8593">
        <ele>18</ele>
        <time>2018-04-21T05:17:01Z</time>
      </trkpt>
      <trkpt lat="46.75506" lon="-1.85905">
        <ele>18</ele>
        <time>2018-04-21T05:18:01Z</time>
      </trkpt>
      <trkpt lat="46.75512" lon="-1.85881">
        <ele>19</ele>
        <time>2018-04-21T05:19:01Z</time>
      </trkpt>
      <trkpt lat="46.7552" lon="-1.85851">
        <ele>20</ele>
        <time>2018-04-21T05:20:01Z</time>
      </trkpt>
      <trkpt lat="46.75523" lon="-1.85839">
        <ele>20</ele>
        <time>2018-04-21T05:21:01Z</time>
      </trkpt>
      <trkpt lat="46.75531" lon="-1.85811">
        <ele>20</ele>
        <time>2018-04-21T05:22:01Z</time>
      </trkpt>
      <trkpt lat="46.75534" lon="-1.858">
        <ele>20</ele>
        <time>2018-04-21T05:23:01Z</time>
      </trkpt>
      <trkpt lat="46.75537" lon="-1.85788">
        <ele>19</ele>
        <time>2018-04-21T05:24:01Z</time>
      </trkpt>
      <trkpt lat="46.75545" lon="-1.85759">
        <ele>19</ele>
        <time>2018-04-21T05:25:01Z</time>
      </trkpt>
      <trkpt lat="46.75558" lon="-1.85712">
        <ele>19</ele>
        <time>2018-04-21T05:26:01Z</time>
      </trkpt>
      <trkpt lat="46.75568" lon="-1.85675">
        <ele>20</ele>
        <time>2018-04-21T05:27:01Z</time>
      </trkpt>
      <trkpt lat="46.75574" lon="-1.85653">
        <ele>20</ele>
        <time>2018-04-21T05:28:01Z</time>
      </trkpt>
      <trkpt lat="46.75581" lon="-1.85631">
        <ele>20</ele>
        <time>2018-04-21T05:29:01Z</time>
      </trkpt>
      <trkpt lat="46.75588" lon="-1.8561">
        <ele>21</ele>
        <time>2018-04-21T05:30:01Z</time>
      </trkpt>
      <trkpt lat="46.75594" lon="-1.85592">
        <ele>21</ele>
        <time>2018-04-21T05:31:01Z</time>
      </trkpt>
      <trkpt lat="46.756" lon="-1.85575">
        <ele>21</ele>
        <time>2018-04-21T05:32:01Z</time>
      </trkpt>
      <trkpt lat="46.75606" lon="-1.85556">
        <ele>21</ele>
        <time>2018-04-21T05:33:01Z</time>
      </trkpt>
      <trkpt lat="46.75615" lon="-1.85532">
        <ele>20</ele>
        <time>2018-04-21T05:34:01Z</time>
      </trkpt>
      <trkpt lat="46.75616" lon="-1.85529">
        <ele>20</ele>
        <time>2018-04-21T05:35:01Z</time>
      </trkpt>
      <trkpt lat="46.75624" lon="-1.85508">
        <ele>20</ele>
        <time>2018-04-21T05:36:01Z</time>
      </trkpt>
      <trkpt lat="46.75636" lon="-1.85478">
        <ele>20</ele>
        <time>2018-04-21T05:37:01Z</time>
      </trkpt>
      <trkpt lat="46.75654" lon="-1.85434">
        <ele>19</ele>
        <time>2018-04-21T05:38:01Z</time>
      </trkpt>
      <trkpt lat="46.75691" lon="-1.85347">
        <ele>21</ele>
        <time>2018-04-21T05:39:01Z</time>
      </trkpt>
      <trkpt lat="46.75711" lon="-1.85301">
        <ele>22</ele>
        <time>2018-04-21T05:40:01Z</time>
      </trkpt>
      <trkpt lat="46.75722" lon="-1.85275">
        <ele>21</ele>
        <time>2018-04-21T05:41:01Z</time>
      </trkpt>
      <trkpt lat="46.75734" lon="-1.85247">
        <ele>21</ele>
        <time>2018-04-21T05:42:01Z</time>
      </trkpt>
      <trkpt lat="46.7575" lon="-1.85209">
        <ele>21</ele>
        <time>2018-04-21T05:43:01Z</time>
      </trkpt>
      <trkpt lat="46.75767" lon="-1.8517">
        <ele>21</ele>
        <time>2018-04-21T05:44:01Z</time>
      </trkpt>
      <trkpt lat="46.75796" lon="-1.85103">
        <ele>21</ele>
        <time>2018-04-21T05:45:01Z</time>
      </trkpt>
      <trkpt lat="46.75811" lon="-1.85067">
        <ele>22</ele>
        <time>2018-04-21T05:46:01Z</time>
      </trkpt>
      <trkpt lat="46.75832" lon="-1.85019">
        <ele>21</ele>
        <time>2018-04-21T05:47:01Z</time>
      </trkpt>
      <trkpt lat="46.75832" lon="-1.85018">
        <ele>21</ele>
        <time>2018-04-21T05:48:01Z</time>
      </trkpt>
      <trkpt lat="46.75834" lon="-1.85013">
        <ele>21</ele>
        <time>2018-04-21T05:49:01Z</time>
      </trkpt>
      <trkpt lat="46.75851" lon="-1.84975">
        <ele>21</ele>
        <time>2018-04-21T05:50:01Z</time>
      </trkpt>
      <trkpt lat="46.75863" lon="-1.84948">
        <ele>20</ele>
        <time>2018-04-21T05:51:01Z</time>
      </trkpt>
      <trkpt lat="46.75872" lon="-1.84931">
        <ele>20</ele>
        <time>2018-04-21T05:52:01Z</time>
      </trkpt>
      <trkpt lat="46.75881" lon="-1.84913">
        <ele>21</ele>
        <time>2018-04-21T05:53:01Z</time>
      </trkpt>
      <trkpt lat="46.75891" lon="-1.84898">
        <ele>21</ele>
        <time>2018-04-21T05:54:01Z</time>
      </trkpt>
      <trkpt lat="46.75898" lon="-1.84887">
        <ele>21</ele>
        <time>2018-04-21T05:55:01Z</time>
      </trkpt>
      <trkpt lat="46.75899" lon="-1.84886">
        <ele>21</ele>
        <time>2018-04-21T05:56:01Z</time>
      </trkpt>
      <trkpt lat="46.75905" lon="-1.84877">
        <ele>21</ele>
        <time>2018-04-21T05:57:01Z</time>
      </trkpt>
      <trkpt lat="46.75914" lon="-1.84864">
        <ele>21</ele>
        <time>2018-04-21T05:58:01Z</time>
      </trkpt>
      <trkpt lat="46.75929" lon="-1.84845">
        <ele>21</ele>
        <time>2018-04-21T05:59:01Z</time>
      </trkpt>
      <trkpt lat="46.75935" lon="-1.84837">
        <ele>21</ele>
        <time>2018-04-21T06:00:01Z</time>
      </trkpt>
      <trkpt lat="46.75963" lon="-1.84797">
        <ele>20</ele>
        <time>2018-04-21T06:01:01Z</time>
      </trkpt>
      <trkpt lat="46.75982" lon="-1.84772">
        <ele>20</ele>
        <time>2018-04-21T06:02:01Z</time>
      </trkpt>
      <trkpt lat="46.75993" lon="-1.84756">
        <ele>20</ele>
        <time>2018-04-21T06:03:01Z</time>
      </trkpt>
      <trkpt lat="46.76011" lon="-1.8473">
        <ele>20</ele>
        <time>2018-04-21T06:04:01Z</time>
      </trkpt>
      <trkpt lat="46.76013" lon="-1.84726">
        <ele>20</ele>
        <time>2018-04-21T06:05:01Z</time>
      </trkpt>
      <trkpt lat="46.76021" lon="-1.84714">
        <ele>20</ele>
        <time>2018-04-21T06:06:01Z</time>
      </trkpt>
      <trkpt lat="46.76022" lon="-1.84712">
        <ele>20</ele>
        <time>2018-04-21T06:07:01Z</time>
      </trkpt>
      <trkpt lat="46.76029" lon="-1.847">
        <ele>20</ele>
        <time>2018-04-21T06:08:01Z</time>
      </trkpt>
      <trkpt lat="46.76031" lon="-1.84695">
        <ele>20</ele>
        <time>2018-04-21T06:09:01Z</time>
      </trkpt>
      <trkpt lat="46.76032" lon="-1.84693">
        <ele>20</ele>
        <time>2018-04-21T06:10:01Z</time>
      </trkpt>
      <trkpt lat="46.76033" lon="-1.8469">
        <ele>20</ele>
        <time>2018-04-21T06:11:01Z</time>
      </trkpt>
      <trkpt lat="46.76036" lon="-1.84683">
        <ele>20</ele>
        <time>2018-04-21T06:12:01Z</time>
      </trkpt>
      <trkpt lat="46.76038" lon="-1.84676">
        <ele>20</ele>
        <time>2018-04-21T06:13:01Z</time>
      </trkpt>
      <trkpt lat="46.7604" lon="-1.84672">
        <ele>20</ele>
        <time>2018-04-21T06:14:01Z</time>
      </trkpt>
      <trkpt lat="46.76044" lon="-1.84658">
        <ele>21</ele>
        <time>2018-04-21T06:15:01Z</time>
      </trkpt>
      <trkpt lat="46.76047" lon="-1.84646">
        <ele>21</ele>
        <time>2018-04-21T06:16:01Z</time>
      </trkpt>
      <trkpt lat="46.76049" lon="-1.84639">
        <ele>21</ele>
        <time>2018-04-21T06:17:01Z</time>
      </trkpt>
      <trkpt lat="46.7605" lon="-1.84633">
        <ele>21</ele>
        <time>2018-04-21T06:18:01Z</time>
      </trkpt>
      <trkpt lat="46.76052" lon="-1.84626">
        <ele>21</ele>
        <time>2018-04-21T06:19:01Z</time>
      </trkpt>
      <trkpt lat="46.76054" lon="-1.84612">
        <ele>21</ele>
        <time>2018-04-21T06:20:01Z</time>
      </trkpt>
      <trkpt lat="46.76061" lon="-1.84565">
        <ele>21</ele>
        <time>2018-04-21T06:21:01Z</time>
      </trkpt>
      <trkpt lat="46.76067" lon="-1.84521">
        <ele>20</ele>
        <time>2018-04-21T06:22:01Z</time>
      </trkpt>
      <trkpt lat="46.76068" lon="-1.84511">
        <ele>20</ele>
        <time>2018-04-21T06:23:01Z</time>
      </trkpt>
      <trkpt lat="46.7607" lon="-1.84493">
        <ele>20</ele>
        <time>2018-04-21T06:24:01Z</time>
      </trkpt>
      <trkpt lat="46.76072" lon="-1.84459">
        <ele>21</ele>
        <time>2018-04-21T06:25:01Z</time>
      </trkpt>
      <trkpt lat="46.76074" lon="-1.84436">
        <ele>21</ele>
        <time>2018-04-21T06:26:01Z</time>
      </trkpt>
      <trkpt lat="46.76075" lon="-1.84426">
        <ele>21</ele>
        <time>2018-04-21T06:27:01Z</time>
      </trkpt>
      <trkpt lat="46.76075" lon="-1.8442">
        <ele>21</ele>
        <time>2018-04-21T06:28:01Z</time>
      </trkpt>
      <trkpt lat="46.76075" lon="-1.84402">
        <ele>21</ele>
        <time>2018-04-21T06:29:01Z</time>
      </trkpt>
      <trkpt lat="46.76075" lon="-1.84382">
        <ele>21</ele>
        <time>2018-04-21T06:30:01Z</time>
      </trkpt>
      <trkpt lat="46.76075" lon="-1.84368">
        <ele>21</ele>
        <time>2018-04-21T06:31:01Z</time>
      </trkpt>
      <trkpt lat="46.76073" lon="-1.84343">
        <ele>21</ele>
        <time>2018-04-21T06:32:01Z</time>
      </trkpt>
      <trkpt lat="46.7607" lon="-1.84322">
        <ele>21</ele>
        <time>2018-04-21T06:33:01Z</time>
      </trkpt>
      <trkpt lat="46.76069" lon="-1.84301">
        <ele>21</ele>
        <time>2018-04-21T06:34:01Z</time>
      </trkpt>
      <trkpt lat="46.76068" lon="-1.84286">
        <ele>21</ele>
        <time>2018-04-21T06:35:01Z</time>
      </trkpt>
      <trkpt lat="46.76067" lon="-1.84269">
        <ele>21</ele>
        <time>2018-04-21T06:36:01Z</time>
      </trkpt>
      <trkpt lat="46.76066" lon="-1.84253">
        <ele>22</ele>
        <time>2018-04-21T06:37:01Z</time>
      </trkpt>
      <trkpt lat="46.76065" lon="-1.84236">
        <ele>22</ele>
        <time>2018-04-21T06:38:01Z</time>
      </trkpt>
      <trkpt lat="46.76064" lon="-1.84217">
        <ele>22</ele>
        <time>2018-04-21T06:39:01Z</time>
      </trkpt>
      <trkpt lat="46.76061" lon="-1.84195">
        <ele>22</ele>
        <time>2018-04-21T06:40:01Z</time>
      </trkpt>
      <trkpt lat="46.76058" lon="-1.84162">
        <ele>22</ele>
        <time>2018-04-21T06:41:01Z</time>
      </trkpt>
      <trkpt lat="46.76052" lon="-1.84108">
        <ele>21</ele>
        <time>2018-04-21T06:42:01Z</time>
      </trkpt>
      <trkpt lat="46.76049" lon="-1.84081">
        <ele>21</ele>
        <time>2018-04-21T06:43:01Z</time>
      </trkpt>
      <trkpt lat="46.76049" lon="-1.84068">
        <ele>21</ele>
        <time>2018-04-21T06:44:01Z</time>
      </trkpt>
      <trkpt lat="46.76048" lon="-1.84041">
        <ele>21</ele>
        <time>2018-04-21T06:45:01Z</time>
      </trkpt>
      <trkpt lat="46.76047" lon="-1.84017">
        <ele>21</ele>
        <time>2018-04-21T06:46:01Z</time>
      </trkpt>
      <trkpt lat="46.76046" lon="-1.83993">
        <ele>21</ele>
        <time>2018-04-21T06:47:01Z</time>
      </trkpt>
      <trkpt lat="46.76046" lon="-1.83973">
        <ele>21</ele>
        <time>2018-04-21T06:48:01Z</time>
      </trkpt>
      <trkpt lat="46.76047" lon="-1.83948">
        <ele>21</ele>
        <time>2018-04-21T06:49:01Z</time>
      </trkpt>
      <trkpt lat="46.76049" lon="-1.83928">
        <ele>21</ele>
        <time>2018-04-21T06:50:01Z</time>
      </trkpt>
      <trkpt lat="46.76049" lon="-1.83922">
        <ele>21</ele>
        <time>2018-04-21T06:51:01Z</time>
      </trkpt>
      <trkpt lat="46.76052" lon="-1.83903">
        <ele>21</ele>
        <time>2018-04-21T06:52:01Z</time>
      </trkpt>
      <trkpt lat="46.76054" lon="-1.83896">
        <ele>21</ele>
        <time>2018-04-21T06:53:01Z</time>
      </trkpt>
      <trkpt lat="46.76056" lon="-1.83892">
        <ele>21</ele>
        <time>2018-04-21T06:54:01Z</time>
      </trkpt>
      <trkpt lat="46.76075" lon="-1.8386">
        <ele>21</ele>
        <time>2018-04-21T06:55:01Z</time>
      </trkpt>
      <trkpt lat="46.76084" lon="-1.83843">
        <ele>21</ele>
        <time>2018-04-21T06:56:01Z</time>
      </trkpt>
      <trkpt lat="46.761" lon="-1.83814">
        <ele>21</ele>
        <time>2018-04-21T06:57:01Z</time>
      </trkpt>
      <trkpt lat="46.76119" lon="-1.8378">
        <ele>20</ele>
        <time>2018-04-21T06:58:01Z</time>
      </trkpt>
      <trkpt lat="46.76125" lon="-1.8377">
        <ele>20</ele>
        <time>2018-04-21T06:59:01Z</time>
      </trkpt>
      <trkpt lat="46.76129" lon="-1.83765">
        <ele>20</ele>
        <time>2018-04-21T07:00:01Z</time>
      </trkpt>
      <trkpt lat="46.76134" lon="-1.8376">
        <ele>20</ele>
        <time>2018-04-21T07:01:01Z</time>
      </trkpt>
      <trkpt lat="46.76139" lon="-1.83755">
        <ele>20</ele>
        <time>2018-04-21T07:02:01Z</time>
      </trkpt>
      <trkpt lat="46.76147" lon="-1.8375">
        <ele>20</ele>
        <time>2018-04-21T07:03:01Z</time>
      </trkpt>
      <trkpt lat="46.76168" lon="-1.83736">
        <ele>20</ele>
        <time>2018-04-21T07:04:01Z</time>
      </trkpt>
      <trkpt lat="46.76176" lon="-1.8373">
        <ele>20</ele>
        <time>2018-04-21T07:05:01Z</time>
      </trkpt>
      <trkpt lat="46.76182" lon="-1.83724">
        <ele>20</ele>
        <time>2018-04-21T07:06:01Z</time>
      </trkpt>
      <trkpt lat="46.76186" lon="-1.83718">
        <ele>19</ele>
        <time>2018-04-21T07:07:01Z</time>
      </trkpt>
      <trkpt lat="46.76191" lon="-1.8371">
        <ele>19</ele>
        <time>2018-04-21T07:08:01Z</time>
      </trkpt>
      <trkpt lat="46.76195" lon="-1.83703">
        <ele>19</ele>
        <time>2018-04-21T07:09:01Z</time>
      </trkpt>
      <trkpt lat="46.762" lon="-1.83696">
        <ele>19</ele>
        <time>2018-04-21T07:10:01Z</time>
      </trkpt>
      <trkpt lat="46.76207" lon="-1.83687">
        <ele>19</ele>
        <time>2018-04-21T07:11:01Z</time>
      </trkpt>
      <trkpt lat="46.7621" lon="-1.83684">
        <ele>19</ele>
        <time>2018-04-21T07:12:01Z</time>
      </trkpt>
      <trkpt lat="46.76212" lon="-1.83682">
        <ele>19</ele>
        <time>2018-04-21T07:13:01Z</time>
      </trkpt>
      <trkpt lat="46.76218" lon="-1.83677">
        <ele>19</ele>
        <time>2018-04-21T07:14:01Z</time>
      </trkpt>
      <trkpt lat="46.76226" lon="-1.83672">
        <ele>19</ele>
        <time>2018-04-21T07:15:01Z</time>
      </trkpt>
      <trkpt lat="46.76234" lon="-1.83668">
        <ele>19</ele>
        <time>2018-04-21T07:16:01Z</time>
      </trkpt>
      <trkpt lat="46.7624" lon="-1.83666">
        <ele>19</ele>
        <time>2018-04-21T07:17:01Z</time>
      </trkpt>
      <trkpt lat="46.76247" lon="-1.83667">
        <ele>19</ele>
        <time>2018-04-21T07:18:01Z</time>
      </trkpt>
      <trkpt lat="46.76251" lon="-1.83668">
        <ele>19</ele>
        <time>2018-04-21T07:19:01Z</time>
      </trkpt>
      <trkpt lat="46.7626" lon="-1.83671">
        <ele>19</ele>
        <time>2018-04-21T07:20:01Z</time>
      </trkpt>
      <trkpt lat="46.76263" lon="-1.83671">
        <ele>19</ele>
        <time>2018-04-21T07:21:01Z</time>
      </trkpt>
      <trkpt lat="46.7627" lon="-1.83671">
        <ele>19</ele>
        <time>2018-04-21T07:22:01Z</time>
      </trkpt>
      <trkpt lat="46.76279" lon="-1.8367">
        <ele>19</ele>
        <time>2018-04-21T07:23:01Z</time>
      </trkpt>
      <trkpt lat="46.76292" lon="-1.83667">
        <ele>19</ele>
        <time>2018-04-21T07:24:01Z</time>
      </trkpt>
      <trkpt lat="46.76305" lon="-1.83662">
        <ele>19</ele>
        <time>2018-04-21T07:25:01Z</time>
      </trkpt>
      <trkpt lat="46.76316" lon="-1.83658">
        <ele>19</ele>
        <time>2018-04-21T07:26:01Z</time>
      </trkpt>
      <trkpt lat="46.76327" lon="-1.83652">
        <ele>19</ele>
        <time>2018-04-21T07:27:01Z</time>
      </trkpt>
      <trkpt lat="46.76338" lon="-1.83644">
        <ele>19</ele>
        <time>2018-04-21T07:28:01Z</time>
      </trkpt>
      <trkpt lat="46.76348" lon="-1.83636">
        <ele>19</ele>
        <time>2018-04-21T07:29:01Z</time>
      </trkpt>
      <trkpt lat="46.76356" lon="-1.8363">
        <ele>18</ele>
        <time>2018-04-21T07:30:01Z</time>
      </trkpt>
      <trkpt lat="46.76366" lon="-1.83622">
        <ele>18</ele>
        <time>2018-04-21T07:31:01Z</time>
      </trkpt>
      <trkpt lat="46.7638" lon="-1.83613">
        <ele>18</ele>
        <time>2018-04-21T07:32:01Z</time>
      </trkpt>
      <trkpt lat="46.76395" lon="-1.83603">
        <ele>18</ele>
        <time>2018-04-21T07:33:01Z</time>
      </trkpt>
      <trkpt lat="46.7642" lon="-1.83588">
        <ele>18</ele>
        <time>2018-04-21T07:34:01Z</time>
      </trkpt>
      <trkpt lat="46.76438" lon="-1.83577">
        <ele>18</ele>
        <time>2018-04-21T07:35:01Z</time>
      </trkpt>
      <trkpt lat="46.7645" lon="-1.8357">
        <ele>17</ele>
        <time>2018-04-21T07:36:01Z</time>
      </trkpt>
      <trkpt lat="46.76458" lon="-1.83565">
        <ele>17</ele>
        <time>2018-04-21T07:37:01Z</time>
      </trkpt>
      <trkpt lat="46.76475" lon="-1.83556">
        <ele>17</ele>
        <time>2018-04-21T07:38:01Z</time>
      </trkpt>
      <trkpt lat="46.76482" lon="-1.83552">
        <ele>16</ele>
        <time>2018-04-21T07:39:01Z</time>
      </trkpt>
      <trkpt lat="46.76521" lon="-1.8353">
        <ele>16</ele>
        <time>2018-04-21T07:40:01Z</time>
      </trkpt>
      <trkpt lat="46.76564" lon="-1.83504">
        <ele>17</ele>
        <time>2018-04-21T07:41:01Z</time>
      </trkpt>
      <trkpt lat="46.76595" lon="-1.83484">
        <ele>17</ele>
        <time>2018-04-21T07:42:01Z</time>
      </trkpt>
      <trkpt lat="46.76611" lon="-1.83473">
        <ele>18</ele>
        <time>2018-04-21T07:43:01Z</time>
      </trkpt>
      <trkpt lat="46.76625" lon="-1.83462">
        <ele>18</ele>
        <time>2018-04-21T07:44:01Z</time>
      </trkpt>
      <trkpt lat="46.76636" lon="-1.83452">
        <ele>18</ele>
        <time>2018-04-21T07:45:01Z</time>
      </trkpt>
      <trkpt lat="46.76644" lon="-1.83445">
        <ele>19</ele>
        <time>2018-04-21T07:46:01Z</time>
      </trkpt>
      <trkpt lat="46.76653" lon="-1.83436">
        <ele>19</ele>
        <time>2018-04-21T07:47:01Z</time>
      </trkpt>
      <trkpt lat="46.76662" lon="-1.83427">
        <ele>19</ele>
        <time>2018-04-21T07:48:01Z</time>
      </trkpt>
      <trkpt lat="46.7667" lon="-1.83418">
        <ele>19</ele>
        <time>2018-04-21T07:49:01Z</time>
      </trkpt>
      <trkpt lat="46.76677" lon="-1.8341">
        <ele>19</ele>
        <time>2018-04-21T07:50:01Z</time>
      </trkpt>
      <trkpt lat="46.76689" lon="-1.83393">
        <ele>19</ele>
        <time>2018-04-21T07:51:01Z</time>
      </trkpt>
      <trkpt lat="46.76697" lon="-1.83383">
        <ele>19</ele>
        <time>2018-04-21T07:52:01Z</time>
      </trkpt>
      <trkpt lat="46.76704" lon="-1.83374">
        <ele>19</ele>
        <time>2018-04-21T07:53:01Z</time>
      </trkpt>
      <trkpt lat="46.76707" lon="-1.83368">
        <ele>19</ele>
        <time>2018-04-21T07:54:01Z</time>
      </trkpt>
      <trkpt lat="46.76715" lon="-1.83354">
        <ele>19</ele>
        <time>2018-04-21T07:55:01Z</time>
      </trkpt>
      <trkpt lat="46.76723" lon="-1.83342">
        <ele>19</ele>
        <time>2018-04-21T07:56:01Z</time>
      </trkpt>
      <trkpt lat="46.76738" lon="-1.83315">
        <ele>19</ele>
        <time>2018-04-21T07:57:01Z</time>
      </trkpt>
      <trkpt lat="46.76753" lon="-1.83287">
        <ele>19</ele>
        <time>2018-04-21T07:58:01Z</time>
      </trkpt>
      <trkpt lat="46.76761" lon="-1.83269">
        <ele>19</ele>
        <time>2018-04-21T07:59:01Z</time>
      </trkpt>
      <trkpt lat="46.76766" lon="-1.8326">
        <ele>19</ele>
        <time>2018-04-21T08:00:01Z</time>
      </trkpt>
      <trkpt lat="46.76777" lon="-1.83239">
        <ele>19</ele>
        <time>2018-04-21T08:01:01Z</time>
      </trkpt>
      <trkpt lat="46.76784" lon="-1.83221">
        <ele>19</ele>
        <time>2018-04-21T08:02:01Z</time>
      </trkpt>
      <trkpt lat="46.76787" lon="-1.83216">
        <ele>19</ele>
        <time>2018-04-21T08:03:01Z</time>
      </trkpt>
      <trkpt lat="46.76792" lon="-1.83201">
        <ele>19</ele>
        <time>2018-04-21T08:04:01Z</time>
      </trkpt>
      <trkpt lat="46.76797" lon="-1.83181">
        <ele>19</ele>
        <time>2018-04-21T08:05:01Z</time>
      </trkpt>
      <trkpt lat="46.76802" lon="-1.83166">
        <ele>19</ele>
        <time>2018-04-21T08:06:01Z</time>
      </trkpt>
      <trkpt lat="46.76813" lon="-1.83135">
        <ele>18</ele>
        <time>2018-04-21T08:07:01Z</time>
      </trkpt>
      <trkpt lat="46.76818" lon="-1.83118">
        <ele>18</ele>
        <time>2018-04-21T08:08:01Z</time>
      </trkpt>
      <trkpt lat="46.76824" lon="-1.83101">
        <ele>17</ele>
        <time>2018-04-21T08:09:01Z</time>
      </trkpt>
      <trkpt lat="46.76831" lon="-1.83082">
        <ele>17</ele>
        <time>2018-04-21T08:10:01Z</time>
      </trkpt>
      <trkpt lat="46.76838" lon="-1.83065">
        <ele>17</ele>
        <time>2018-04-21T08:11:01Z</time>
      </trkpt>
      <trkpt lat="46.76846" lon="-1.83047">
        <ele>18</ele>
        <time>2018-04-21T08:12:01Z</time>
      </trkpt>
      <trkpt lat="46.76857" lon="-1.83027">
        <ele>18</ele>
        <time>2018-04-21T08:13:01Z</time>
      </trkpt>
      <trkpt lat="46.76867" lon="-1.83007">
        <ele>19</ele>
        <time>2018-04-21T08:14:01Z</time>
      </trkpt>
      <trkpt lat="46.7688" lon="-1.82984">
        <ele>20</ele>
        <time>2018-04-21T08:15:01Z</time>
      </trkpt>
      <trkpt lat="46.7688" lon="-1.82984">
        <ele>20</ele>
        <time>2018-04-21T08:16:01Z</time>
      </trkpt>
      <trkpt lat="46.76856" lon="-1.82965">
        <ele>19</ele>
        <time>2018-04-21T08:17:01Z</time>
      </trkpt>
      <trkpt lat="46.76831" lon="-1.82946">
        <ele>18</ele>
        <time>2018-04-21T08:18:01Z</time>
      </trkpt>
      <trkpt lat="46.76824" lon="-1.8294">
        <ele>18</ele>
        <time>2018-04-21T08:19:01Z</time>
      </trkpt>
      <trkpt lat="46.76821" lon="-1.82937">
        <ele>18</ele>
        <time>2018-04-21T08:20:01Z</time>
      </trkpt>
      <trkpt lat="46.76814" lon="-1.82932">
        <ele>18</ele>
        <time>2018-04-21T08:21:01Z</time>
      </trkpt>
      <trkpt lat="46.76807" lon="-1.82924">
        <ele>18</ele>
        <time>2018-04-21T08:22:01Z</time>
      </trkpt>
      <trkpt lat="46.76799" lon="-1.82915">
        <ele>18</ele>
        <time>2018-04-21T08:23:01Z</time>
      </trkpt>
      <trkpt lat="46.76791" lon="-1.82906">
        <ele>18</ele>
        <time>2018-04-21T08:24:01Z</time>
      </trkpt>
      <trkpt lat="46.76784" lon="-1.82898">
        <ele>18</ele>
        <time>2018-04-21T08:25:01Z</time>
      </trkpt>
      <trkpt lat="46.76776" lon="-1.82887">
        <ele>18</ele>
        <time>2018-04-21T08:26:01Z</time>
      </trkpt>
      <trkpt lat="46.76769" lon="-1.82877">
        <ele>19</ele>
        <time>2018-04-21T08:27:01Z</time>
      </trkpt>
      <trkpt lat="46.76763" lon="-1.82868">
        <ele>19</ele>
        <time>2018-04-21T08:28:01Z</time>
      </trkpt>
      <trkpt lat="46.76758" lon="-1.82858">
        <ele>19</ele>
        <time>2018-04-21T08:29:01Z</time>
      </trkpt>
      <trkpt lat="46.76751" lon="-1.82845">
        <ele>19</ele>
        <time>2018-04-21T08:30:01Z</time>
      </trkpt>
      <trkpt lat="46.76741" lon="-1.82822">
        <ele>19</ele>
        <time>2018-04-21T08:31:01Z</time>
      </trkpt>
      <trkpt lat="46.76727" lon="-1.8279">
        <ele>18</ele>
        <time>2018-04-21T08:32:01Z</time>
      </trkpt>
      <trkpt lat="46.76714" lon="-1.8276">
        <ele>18</ele>
        <time>2018-04-21T08:33:01Z</time>
      </trkpt>
      <trkpt lat="46.76704" lon="-1.82738">
        <ele>17</ele>
        <time>2018-04-21T08:34:01Z</time>
      </trkpt>
      <trkpt lat="46.76699" lon="-1.82724">
        <ele>17</ele>
        <time>2018-04-21T08:35:01Z</time>
      </trkpt>
      <trkpt lat="46.76694" lon="-1.82713">
        <ele>17</ele>
        <time>2018-04-21T08:36:01Z</time>
      </trkpt>
      <trkpt lat="46.76692" lon="-1.82703">
        <ele>17</ele>
        <time>2018-04-21T08:37:01Z</time>
      </trkpt>
      <trkpt lat="46.76688" lon="-1.82689">
        <ele>17</ele>
        <time>2018-04-21T08:38:01Z</time>
      </trkpt>
      <trkpt lat="46.76683" lon="-1.82666">
        <ele>17</ele>
        <time>2018-04-21T08:39:01Z</time>
      </trkpt>
      <trkpt lat="46.76679" lon="-1.82648">
        <ele>17</ele>
        <time>2018-04-21T08:40:01Z</time>
      </trkpt>
      <trkpt lat="46.76673" lon="-1.82609">
        <ele>17</ele>
        <time>2018-04-21T08:41:01Z</time>
      </trkpt>
      <trkpt lat="46.76669" lon="-1.82585">
        <ele>17</ele>
        <time>2018-04-21T08:42:01Z</time>
      </trkpt>
      <trkpt lat="46.76666" lon="-1.82566">
        <ele>17</ele>
        <time>2018-04-21T08:43:01Z</time>
      </trkpt>
      <trkpt lat="46.76661" lon="-1.82545">
        <ele>17</ele>
        <time>2018-04-21T08:44:01Z</time>
      </trkpt>
      <trkpt lat="46.76656" lon="-1.8253">
        <ele>17</ele>
        <time>2018-04-21T08:45:01Z</time>
      </trkpt>
      <trkpt lat="46.76652" lon="-1.82516">
        <ele>17</ele>
        <time>2018-04-21T08:46:01Z</time>
      </trkpt>
      <trkpt lat="46.76645" lon="-1.82502">
        <ele>16</ele>
        <time>2018-04-21T08:47:01Z</time>
      </trkpt>
      <trkpt lat="46.76638" lon="-1.82487">
        <ele>17</ele>
        <time>2018-04-21T08:48:01Z</time>
      </trkpt>
      <trkpt lat="46.76621" lon="-1.82458">
        <ele>17</ele>
        <time>2018-04-21T08:49:01Z</time>
      </trkpt>
      <trkpt lat="46.76596" lon="-1.82418">
        <ele>17</ele>
        <time>2018-04-21T08:50:01Z</time>
      </trkpt>
      <trkpt lat="46.76579" lon="-1.82388">
        <ele>17</ele>
        <time>2018-04-21T08:51:01Z</time>
      </trkpt>
      <trkpt lat="46.7657" lon="-1.82369">
        <ele>17</ele>
        <time>2018-04-21T08:52:01Z</time>
      </trkpt>
      <trkpt lat="46.76565" lon="-1.82358">
        <ele>17</ele>
        <time>2018-04-21T08:53:01Z</time>
      </trkpt>
      <trkpt lat="46.76561" lon="-1.8235">
        <ele>17</ele>
        <time>2018-04-21T08:54:01Z</time>
      </trkpt>
      <trkpt lat="46.76561" lon="-1.82349">
        <ele>17</ele>
        <time>2018-04-21T08:55:01Z</time>
      </trkpt>
      <trkpt lat="46.76558" lon="-1.82338">
        <ele>17</ele>
        <time>2018-04-21T08:56:01Z</time>
      </trkpt>
      <trkpt lat="46.76556" lon="-1.82325">
        <ele>17</ele>
        <time>2018-04-21T08:57:01Z</time>
      </trkpt>
      <trkpt lat="46.76555" lon="-1.82311">
        <ele>17</ele>
        <time>2018-04-21T08:58:01Z</time>
      </trkpt>
      <trkpt lat="46.76553" lon="-1.82282">
        <ele>17</ele>
        <time>2018-04-21T08:59:01Z</time>
      </trkpt>
      <trkpt lat="46.76551" lon="-1.82255">
        <ele>17</ele>
        <time>2018-04-21T09:00:01Z</time>
      </trkpt>
      <trkpt lat="46.76546" lon="-1.82166">
        <ele>18</ele>
        <time>2018-04-21T09:01:01Z</time>
      </trkpt>
      <trkpt lat="46.76544" lon="-1.82133">
        <ele>18</ele>
        <time>2018-04-21T09:02:01Z</time>
      </trkpt>
      <trkpt lat="46.76541" lon="-1.82087">
        <ele>18</ele>
        <time>2018-04-21T09:03:01Z</time>
      </trkpt>
      <trkpt lat="46.76541" lon="-1.82067">
        <ele>18</ele>
        <time>2018-04-21T09:04:01Z</time>
      </trkpt>
      <trkpt lat="46.76543" lon="-1.82051">
        <ele>18</ele>
        <time>2018-04-21T09:05:01Z</time>
      </trkpt>
      <trkpt lat="46.76545" lon="-1.82037">
        <ele>17</ele>
        <time>2018-04-21T09:06:01Z</time>
      </trkpt>
      <trkpt lat="46.76549" lon="-1.82023">
        <ele>17</ele>
        <time>2018-04-21T09:07:01Z</time>
      </trkpt>
      <trkpt lat="46.76553" lon="-1.8201">
        <ele>17</ele>
        <time>2018-04-21T09:08:01Z</time>
      </trkpt>
      <trkpt lat="46.76557" lon="-1.81999">
        <ele>17</ele>
        <time>2018-04-21T09:09:01Z</time>
      </trkpt>
      <trkpt lat="46.76563" lon="-1.81987">
        <ele>17</ele>
        <time>2018-04-21T09:10:01Z</time>
      </trkpt>
      <trkpt lat="46.76572" lon="-1.81972">
        <ele>18</ele>
        <time>2018-04-21T09:11:01Z</time>
      </trkpt>
      <trkpt lat="46.76596" lon="-1.81943">
        <ele>19</ele>
        <time>2018-04-21T09:12:01Z</time>
      </trkpt>
      <trkpt lat="46.76638" lon="-1.8189">
        <ele>22</ele>
        <time>2018-04-21T09:13:01Z</time>
      </trkpt>
      <trkpt lat="46.76685" lon="-1.8183">
        <ele>25</ele>
        <time>2018-04-21T09:14:01Z</time>
      </trkpt>
      <trkpt lat="46.7673" lon="-1.81773">
        <ele>28</ele>
        <time>2018-04-21T09:15:01Z</time>
      </trkpt>
      <trkpt lat="46.76768" lon="-1.81726">
        <ele>30</ele>
        <time>2018-04-21T09:16:01Z</time>
      </trkpt>
      <trkpt lat="46.76805" lon="-1.81679">
        <ele>33</ele>
        <time>2018-04-21T09:17:01Z</time>
      </trkpt>
      <trkpt lat="46.76826" lon="-1.81652">
        <ele>34</ele>
        <time>2018-04-21T09:18:01Z</time>
      </trkpt>
      <trkpt lat="46.76837" lon="-1.81636">
        <ele>34</ele>
        <time>2018-04-21T09:19:01Z</time>
      </trkpt>
      <trkpt lat="46.76846" lon="-1.81617">
        <ele>35</ele>
        <time>2018-04-21T09:20:01Z</time>
      </trkpt>
      <trkpt lat="46.76854" lon="-1.816">
        <ele>35</ele>
        <time>2018-04-21T09:21:01Z</time>
      </trkpt>
      <trkpt lat="46.76864" lon="-1.81578">
        <ele>36</ele>
        <time>2018-04-21T09:22:01Z</time>
      </trkpt>
      <trkpt lat="46.76873" lon="-1.81549">
        <ele>37</ele>
        <time>2018-04-21T09:23:01Z</time>
      </trkpt>
      <trkpt lat="46.76881" lon="-1.81521">
        <ele>38</ele>
        <time>2018-04-21T09:24:01Z</time>
      </trkpt>
      <trkpt lat="46.76887" lon="-1.81484">
        <ele>38</ele>
        <time>2018-04-21T09:25:01Z</time>
      </trkpt>
      <trkpt lat="46.76894" lon="-1.81436">
        <ele>38</ele>
        <time>2018-04-21T09:26:01Z</time>
      </trkpt>
      <trkpt lat="46.76899" lon="-1.81398">
        <ele>39</ele>
        <time>2018-04-21T09:27:01Z</time>
      </trkpt>
      <trkpt lat="46.76908" lon="-1.8134">
        <ele>40</ele>
        <time>2018-04-21T09:28:01Z</time>
      </trkpt>
      <trkpt lat="46.76917" lon="-1.81283">
        <ele>41</ele>
        <time>2018-04-21T09:29:01Z</time>
      </trkpt>
      <trkpt lat="46.76924" lon="-1.81233">
        <ele>42</ele>
        <time>2018-04-21T09:30:01Z</time>
      </trkpt>
      <trkpt lat="46.76928" lon="-1.81204">
        <ele>43</ele>
        <time>2018-04-21T09:31:01Z</time>
      </trkpt>
      <trkpt lat="46.76932" lon="-1.81175">
        <ele>43</ele>
        <time>2018-04-21T09:32:01Z</time>
      </trkpt>
      <trkpt lat="46.76933" lon="-1.81162">
        <ele>43</ele>
        <time>2018-04-21T09:33:01Z</time>
      </trkpt>
      <trkpt lat="46.76936" lon="-1.81139">
        <ele>43</ele>
        <time>2018-04-21T09:34:01Z</time>
      </trkpt>
      <trkpt lat="46.76938" lon="-1.81121">
        <ele>43</ele>
        <time>2018-04-21T09:35:01Z</time>
      </trkpt>
      <trkpt lat="46.76939" lon="-1.81095">
        <ele>42</ele>
        <time>2018-04-21T09:36:01Z</time>
      </trkpt>
      <trkpt lat="46.76941" lon="-1.81066">
        <ele>42</ele>
        <time>2018-04-21T09:37:01Z</time>
      </trkpt>
      <trkpt lat="46.76944" lon="-1.81016">
        <ele>42</ele>
        <time>2018-04-21T09:38:01Z</time>
      </trkpt>
      <trkpt lat="46.76947" lon="-1.80957">
        <ele>41</ele>
        <time>2018-04-21T09:39:01Z</time>
      </trkpt>
      <trkpt lat="46.76949" lon="-1.80917">
        <ele>41</ele>
        <time>2018-04-21T09:40:01Z</time>
      </trkpt>
      <trkpt lat="46.7695" lon="-1.80898">
        <ele>41</ele>
        <time>2018-04-21T09:41:01Z</time>
      </trkpt>
      <trkpt lat="46.76952" lon="-1.80868">
        <ele>41</ele>
        <time>2018-04-21T09:42:01Z</time>
      </trkpt>
      <trkpt lat="46.76952" lon="-1.80838">
        <ele>42</ele>
        <time>2018-04-21T09:43:01Z</time>
      </trkpt>
      <trkpt lat="46.76952" lon="-1.80816">
        <ele>42</ele>
        <time>2018-04-21T09:44:01Z</time>
      </trkpt>
      <trkpt lat="46.76952" lon="-1.80797">
        <ele>42</ele>
        <time>2018-04-21T09:45:01Z</time>
      </trkpt>
      <trkpt lat="46.76951" lon="-1.8078">
        <ele>42</ele>
        <time>2018-04-21T09:46:01Z</time>
      </trkpt>
      <trkpt lat="46.7695" lon="-1.80771">
        <ele>42</ele>
        <time>2018-04-21T09:47:01Z</time>
      </trkpt>
      <trkpt lat="46.76948" lon="-1.80753">
        <ele>42</ele>
        <time>2018-04-21T09:48:01Z</time>
      </trkpt>
      <trkpt lat="46.76944" lon="-1.80723">
        <ele>42</ele>
        <time>2018-04-21T09:49:01Z</time>
      </trkpt>
      <trkpt lat="46.76939" lon="-1.80697">
        <ele>41</ele>
        <time>2018-04-21T09:50:01Z</time>
      </trkpt>
      <trkpt lat="46.76928" lon="-1.80639">
        <ele>41</ele>
        <time>2018-04-21T09:51:01Z</time>
      </trkpt>
      <trkpt lat="46.76925" lon="-1.80619">
        <ele>40</ele>
        <time>2018-04-21T09:52:01Z</time>
      </trkpt>
      <trkpt lat="46.7692" lon="-1.80593">
        <ele>40</ele>
        <time>2018-04-21T09:53:01Z</time>
      </trkpt>
      <trkpt lat="46.76915" lon="-1.80568">
        <ele>40</ele>
        <time>2018-04-21T09:54:01Z</time>
      </trkpt>
      <trkpt lat="46.76912" lon="-1.80556">
        <ele>41</ele>
        <time>2018-04-21T09:55:01Z</time>
      </trkpt>
      <trkpt lat="46.76908" lon="-1.8054">
        <ele>41</ele>
        <time>2018-04-21T09:56:01Z</time>
      </trkpt>
      <trkpt lat="46.76903" lon="-1.80527">
        <ele>42</ele>
        <time>2018-04-21T09:57:01Z</time>
      </trkpt>
      <trkpt lat="46.76899" lon="-1.80517">
        <ele>42</ele>
        <time>2018-04-21T09:58:01Z</time>
      </trkpt>
      <trkpt lat="46.76895" lon="-1.80508">
        <ele>42</ele>
        <time>2018-04-21T09:59:01Z</time>
      </trkpt>
      <trkpt lat="46.76876" lon="-1.80476">
        <ele>43</ele>
        <time>2018-04-21T10:00:01Z</time>
      </trkpt>
      <trkpt lat="46.76846" lon="-1.80429">
        <ele>44</ele>
        <time>2018-04-21T10:01:01Z</time>
      </trkpt>
      <trkpt lat="46.76836" lon="-1.80414">
        <ele>45</ele>
        <time>2018-04-21T10:02:01Z</time>
      </trkpt>
      <trkpt lat="46.76809" lon="-1.80371">
        <ele>44</ele>
        <time>2018-04-21T10:03:01Z</time>
      </trkpt>
      <trkpt lat="46.76791" lon="-1.8034">
        <ele>44</ele>
        <time>2018-04-21T10:04:01Z</time>
      </trkpt>
      <trkpt lat="46.7678" lon="-1.80318">
        <ele>44</ele>
        <time>2018-04-21T10:05:01Z</time>
      </trkpt>
      <trkpt lat="46.76775" lon="-1.80307">
        <ele>44</ele>
        <time>2018-04-21T10:06:01Z</time>
      </trkpt>
      <trkpt lat="46.76769" lon="-1.80289">
        <ele>45</ele>
        <time>2018-04-21T10:07:01Z</time>
      </trkpt>
      <trkpt lat="46.76765" lon="-1.80274">
        <ele>45</ele>
        <time>2018-04-21T10:08:01Z</time>
      </trkpt>
      <trkpt lat="46.76763" lon="-1.80264">
        <ele>45</ele>
        <time>2018-04-21T10:09:01Z</time>
      </trkpt>
      <trkpt lat="46.76762" lon="-1.80251">
        <ele>46</ele>
        <time>2018-04-21T10:10:01Z</time>
      </trkpt>
      <trkpt lat="46.7676" lon="-1.80236">
        <ele>46</ele>
        <time>2018-04-21T10:11:01Z</time>
      </trkpt>
      <trkpt lat="46.7676" lon="-1.80199">
        <ele>46</ele>
        <time>2018-04-21T10:12:01Z</time>
      </trkpt>
      <trkpt lat="46.76762" lon="-1.80113">
        <ele>46</ele>
        <time>2018-04-21T10:13:01Z</time>
      </trkpt>
      <trkpt lat="46.76762" lon="-1.80082">
        <ele>46</ele>
        <time>2018-04-21T10:14:01Z</time>
      </trkpt>
      <trkpt lat="46.76763" lon="-1.80004">
        <ele>45</ele>
        <time>2018-04-21T10:15:01Z</time>
      </trkpt>
      <trkpt lat="46.76763" lon="-1.79983">
        <ele>45</ele>
        <time>2018-04-21T10:16:01Z</time>
      </trkpt>
      <trkpt lat="46.76764" lon="-1.79968">
        <ele>45</ele>
        <time>2018-04-21T10:17:01Z</time>
      </trkpt>
      <trkpt lat="46.76765" lon="-1.79951">
        <ele>45</ele>
        <time>2018-04-21T10:18:01Z</time>
      </trkpt>
      <trkpt lat="46.76766" lon="-1.79937">
        <ele>44</ele>
        <time>2018-04-21T10:19:01Z</time>
      </trkpt>
      <trkpt lat="46.76767" lon="-1.7992">
        <ele>44</ele>
        <time>2018-04-21T10:20:01Z</time>
      </trkpt>
      <trkpt lat="46.76772" lon="-1.79876">
        <ele>45</ele>
        <time>2018-04-21T10:21:01Z</time>
      </trkpt>
      <trkpt lat="46.76782" lon="-1.79789">
        <ele>46</ele>
        <time>2018-04-21T10:22:01Z</time>
      </trkpt>
      <trkpt lat="46.76784" lon="-1.79768">
        <ele>46</ele>
        <time>2018-04-21T10:23:01Z</time>
      </trkpt>
      <trkpt lat="46.7679" lon="-1.79712">
        <ele>47</ele>
        <time>2018-04-21T10:24:01Z</time>
      </trkpt>
      <trkpt lat="46.76796" lon="-1.79658">
        <ele>47</ele>
        <time>2018-04-21T10:25:01Z</time>
      </trkpt>
      <trkpt lat="46.76801" lon="-1.79619">
        <ele>48</ele>
        <time>2018-04-21T10:26:01Z</time>
      </trkpt>
      <trkpt lat="46.76803" lon="-1.79599">
        <ele>48</ele>
        <time>2018-04-21T10:27:01Z</time>
      </trkpt>
      <trkpt lat="46.76806" lon="-1.79583">
        <ele>48</ele>
        <time>2018-04-21T10:28:01Z</time>
      </trkpt>
      <trkpt lat="46.76809" lon="-1.79569">
        <ele>48</ele>
        <time>2018-04-21T10:29:01Z</time>
      </trkpt>
      <trkpt lat="46.76813" lon="-1.79556">
        <ele>48</ele>
        <time>2018-04-21T10:30:01Z</time>
      </trkpt>
      <trkpt lat="46.76818" lon="-1.79542">
        <ele>49</ele>
        <time>2018-04-21T10:31:01Z</time>
      </trkpt>
      <trkpt lat="46.76823" lon="-1.79529">
        <ele>49</ele>
        <time>2018-04-21T10:32:01Z</time>
      </trkpt>
      <trkpt lat="46.76857" lon="-1.79454">
        <ele>49</ele>
        <time>2018-04-21T10:33:01Z</time>
      </trkpt>
      <trkpt lat="46.76868" lon="-1.79427">
        <ele>49</ele>
        <time>2018-04-21T10:34:01Z</time>
      </trkpt>
      <trkpt lat="46.7688" lon="-1.794">
        <ele>50</ele>
        <time>2018-04-21T10:35:01Z</time>
      </trkpt>
      <trkpt lat="46.76896" lon="-1.79363">
        <ele>50</ele>
        <time>2018-04-21T10:36:01Z</time>
      </trkpt>
      <trkpt lat="46.7692" lon="-1.79305">
        <ele>52</ele>
        <time>2018-04-21T10:37:01Z</time>
      </trkpt>
      <trkpt lat="46.76946" lon="-1.79245">
        <ele>53</ele>
        <time>2018-04-21T10:38:01Z</time>
      </trkpt>
      <trkpt lat="46.76962" lon="-1.79204">
        <ele>52</ele>
        <time>2018-04-21T10:39:01Z</time>
      </trkpt>
      <trkpt lat="46.76965" lon="-1.79196">
        <ele>52</ele>
        <time>2018-04-21T10:40:01Z</time>
      </trkpt>
      <trkpt lat="46.76968" lon="-1.79183">
        <ele>52</ele>
        <time>2018-04-21T10:41:01Z</time>
      </trkpt>
      <trkpt lat="46.76972" lon="-1.79166">
        <ele>52</ele>
        <time>2018-04-21T10:42:01Z</time>
      </trkpt>
      <trkpt lat="46.76978" lon="-1.79146">
        <ele>52</ele>
        <time>2018-04-21T10:43:01Z</time>
      </trkpt>
      <trkpt lat="46.76981" lon="-1.79129">
        <ele>52</ele>
        <time>2018-04-21T10:44:01Z</time>
      </trkpt>
      <trkpt lat="46.76986" lon="-1.79106">
        <ele>52</ele>
        <time>2018-04-21T10:45:01Z</time>
      </trkpt>
      <trkpt lat="46.7699" lon="-1.79087">
        <ele>52</ele>
        <time>2018-04-21T10:46:01Z</time>
      </trkpt>
      <trkpt lat="46.76996" lon="-1.79055">
        <ele>52</ele>
        <time>2018-04-21T10:47:01Z</time>
      </trkpt>
      <trkpt lat="46.77002" lon="-1.79024">
        <ele>53</ele>
        <time>2018-04-21T10:48:01Z</time>
      </trkpt>
      <trkpt lat="46.77009" lon="-1.78991">
        <ele>53</ele>
        <time>2018-04-21T10:49:01Z</time>
      </trkpt>
      <trkpt lat="46.77009" lon="-1.78988">
        <ele>53</ele>
        <time>2018-04-21T10:50:01Z</time>
      </trkpt>
      <trkpt lat="46.77019" lon="-1.78939">
        <ele>52</ele>
        <time>2018-04-21T10:51:01Z</time>
      </trkpt>
      <trkpt lat="46.77026" lon="-1.78906">
        <ele>52</ele>
        <time>2018-04-21T10:52:01Z</time>
      </trkpt>
      <trkpt lat="46.77033" lon="-1.78869">
        <ele>51</ele>
        <time>2018-04-21T10:53:01Z</time>
      </trkpt>
      <trkpt lat="46.77043" lon="-1.7882">
        <ele>51</ele>
        <time>2018-04-21T10:54:01Z</time>
      </trkpt>
      <trkpt lat="46.77059" lon="-1.78738">
        <ele>52</ele>
        <time>2018-04-21T10:55:01Z</time>
      </trkpt>
      <trkpt lat="46.7707" lon="-1.78684">
        <ele>52</ele>
        <time>2018-04-21T10:56:01Z</time>
      </trkpt>
      <trkpt lat="46.77081" lon="-1.78624">
        <ele>52</ele>
        <time>2018-04-21T10:57:01Z</time>
      </trkpt>
      <trkpt lat="46.77093" lon="-1.78567">
        <ele>52</ele>
        <time>2018-04-21T10:58:01Z</time>
      </trkpt>
      <trkpt lat="46.771" lon="-1.78527">
        <ele>53</ele>
        <time>2018-04-21T10:59:01Z</time>
      </trkpt>
      <trkpt lat="46.77106" lon="-1.785">
        <ele>53</ele>
        <time>2018-04-21T11:00:01Z</time>
      </trkpt>
      <trkpt lat="46.77109" lon="-1.78483">
        <ele>53</ele>
        <time>2018-04-21T11:01:01Z</time>
      </trkpt>
      <trkpt lat="46.77111" lon="-1.78462">
        <ele>53</ele>
        <time>2018-04-21T11:02:01Z</time>
      </trkpt>
      <trkpt lat="46.77114" lon="-1.78433">
        <ele>54</ele>
        <time>2018-04-21T11:03:01Z</time>
      </trkpt>
      <trkpt lat="46.77115" lon="-1.7842">
        <ele>54</ele>
        <time>2018-04-21T11:04:01Z</time>
      </trkpt>
      <trkpt lat="46.77117" lon="-1.78396">
        <ele>53</ele>
        <time>2018-04-21T11:05:01Z</time>
      </trkpt>
      <trkpt lat="46.77121" lon="-1.78352">
        <ele>52</ele>
        <time>2018-04-21T11:06:01Z</time>
      </trkpt>
      <trkpt lat="46.77127" lon="-1.78292">
        <ele>52</ele>
        <time>2018-04-21T11:07:01Z</time>
      </trkpt>
      <trkpt lat="46.77132" lon="-1.78246">
        <ele>51</ele>
        <time>2018-04-21T11:08:01Z</time>
      </trkpt>
      <trkpt lat="46.77136" lon="-1.78202">
        <ele>52</ele>
        <time>2018-04-21T11:09:01Z</time>
      </trkpt>
      <trkpt lat="46.77139" lon="-1.7818">
        <ele>52</ele>
        <time>2018-04-21T11:10:01Z</time>
      </trkpt>
      <trkpt lat="46.77145" lon="-1.78146">
        <ele>52</ele>
        <time>2018-04-21T11:11:01Z</time>
      </trkpt>
      <trkpt lat="46.77153" lon="-1.781">
        <ele>53</ele>
        <time>2018-04-21T11:12:01Z</time>
      </trkpt>
      <trkpt lat="46.77163" lon="-1.78044">
        <ele>52</ele>
        <time>2018-04-21T11:13:01Z</time>
      </trkpt>
      <trkpt lat="46.77175" lon="-1.77979">
        <ele>52</ele>
        <time>2018-04-21T11:14:01Z</time>
      </trkpt>
      <trkpt lat="46.77184" lon="-1.77931">
        <ele>52</ele>
        <time>2018-04-21T11:15:01Z</time>
      </trkpt>
      <trkpt lat="46.77189" lon="-1.779">
        <ele>52</ele>
        <time>2018-04-21T11:16:01Z</time>
      </trkpt>
      <trkpt lat="46.77195" lon="-1.77866">
        <ele>52</ele>
        <time>2018-04-21T11:17:01Z</time>
      </trkpt>
      <trkpt lat="46.772" lon="-1.77827">
        <ele>52</ele>
        <time>2018-04-21T11:18:01Z</time>
      </trkpt>
      <trkpt lat="46.77204" lon="-1.77804">
        <ele>52</ele>
        <time>2018-04-21T11:19:01Z</time>
      </trkpt>
      <trkpt lat="46.77207" lon="-1.77775">
        <ele>51</ele>
        <time>2018-04-21T11:20:01Z</time>
      </trkpt>
      <trkpt lat="46.77213" lon="-1.7772">
        <ele>51</ele>
        <time>2018-04-21T11:21:01Z</time>
      </trkpt>
      <trkpt lat="46.77213" lon="-1.77717">
        <ele>51</ele>
        <time>2018-04-21T11:22:01Z</time>
      </trkpt>
      <trkpt lat="46.77218" lon="-1.77677">
        <ele>50</ele>
        <time>2018-04-21T11:23:01Z</time>
      </trkpt>
      <trkpt lat="46.77219" lon="-1.77662">
        <ele>50</ele>
        <time>2018-04-21T11:24:01Z</time>
      </trkpt>
      <trkpt lat="46.77225" lon="-1.77615">
        <ele>51</ele>
        <time>2018-04-21T11:25:01Z</time>
      </trkpt>
      <trkpt lat="46.77229" lon="-1.7758">
        <ele>52</ele>
        <time>2018-04-21T11:26:01Z</time>
      </trkpt>
      <trkpt lat="46.77233" lon="-1.77556">
        <ele>52</ele>
        <time>2018-04-21T11:27:01Z</time>
      </trkpt>
      <trkpt lat="46.77237" lon="-1.77534">
        <ele>52</ele>
        <time>2018-04-21T11:28:01Z</time>
      </trkpt>
      <trkpt lat="46.7724" lon="-1.77522">
        <ele>51</ele>
        <time>2018-04-21T11:29:01Z</time>
      </trkpt>
      <trkpt lat="46.77243" lon="-1.77511">
        <ele>51</ele>
        <time>2018-04-21T11:30:01Z</time>
      </trkpt>
      <trkpt lat="46.77246" lon="-1.77501">
        <ele>51</ele>
        <time>2018-04-21T11:31:01Z</time>
      </trkpt>
      <trkpt lat="46.7725" lon="-1.77491">
        <ele>51</ele>
        <time>2018-04-21T11:32:01Z</time>
      </trkpt>
      <trkpt lat="46.77255" lon="-1.7748">
        <ele>51</ele>
        <time>2018-04-21T11:33:01Z</time>
      </trkpt>
      <trkpt lat="46.77259" lon="-1.77471">
        <ele>51</ele>
        <time>2018-04-21T11:34:01Z</time>
      </trkpt>
      <trkpt lat="46.77263" lon="-1.77462">
        <ele>51</ele>
        <time>2018-04-21T11:35:01Z</time>
      </trkpt>
      <trkpt lat="46.77282" lon="-1.77428">
        <ele>50</ele>
        <time>2018-04-21T11:36:01Z</time>
      </trkpt>
      <trkpt lat="46.77301" lon="-1.77393">
        <ele>50</ele>
        <time>2018-04-21T11:37:01Z</time>
      </trkpt>
      <trkpt lat="46.77331" lon="-1.77337">
        <ele>50</ele>
        <time>2018-04-21T11:38:01Z</time>
      </trkpt>
      <trkpt lat="46.7736" lon="-1.77283">
        <ele>51</ele>
        <time>2018-04-21T11:39:01Z</time>
      </trkpt>
      <trkpt lat="46.77389" lon="-1.77229">
        <ele>51</ele>
        <time>2018-04-21T11:40:01Z</time>
      </trkpt>
      <trkpt lat="46.77427" lon="-1.77158">
        <ele>51</ele>
        <time>2018-04-21T11:41:01Z</time>
      </trkpt>
      <trkpt lat="46.77469" lon="-1.77081">
        <ele>52</ele>
        <time>2018-04-21T11:42:01Z</time>
      </trkpt>
      <trkpt lat="46.77511" lon="-1.77001">
        <ele>53</ele>
        <time>2018-04-21T11:43:01Z</time>
      </trkpt>
      <trkpt lat="46.77554" lon="-1.76921">
        <ele>53</ele>
        <time>2018-04-21T11:44:01Z</time>
      </trkpt>
      <trkpt lat="46.77592" lon="-1.76851">
        <ele>53</ele>
        <time>2018-04-21T11:45:01Z</time>
      </trkpt>
      <trkpt lat="46.77597" lon="-1.76842">
        <ele>53</ele>
        <time>2018-04-21T11:46:01Z</time>
      </trkpt>
      <trkpt lat="46.77617" lon="-1.76807">
        <ele>53</ele>
        <time>2018-04-21T11:47:01Z</time>
      </trkpt>
      <trkpt lat="46.77642" lon="-1.7676">
        <ele>53</ele>
        <time>2018-04-21T11:48:01Z</time>
      </trkpt>
      <trkpt lat="46.77646" lon="-1.76753">
        <ele>53</ele>
        <time>2018-04-21T11:49:01Z</time>
      </trkpt>
      <trkpt lat="46.77646" lon="-1.76744">
        <ele>53</ele>
        <time>2018-04-21T11:50:01Z</time>
      </trkpt>
      <trkpt lat="46.77649" lon="-1.76732">
        <ele>53</ele>
        <time>2018-04-21T11:51:01Z</time>
      </trkpt>
      <trkpt lat="46.77653" lon="-1.76716">
        <ele>53</ele>
        <time>2018-04-21T11:52:01Z</time>
      </trkpt>
      <trkpt lat="46.77653" lon="-1.76716">
        <ele>53</ele>
        <time>2018-04-21T11:53:01Z</time>
      </trkpt>
      <trkpt lat="46.77626" lon="-1.7671">
        <ele>53</ele>
        <time>2018-04-21T11:54:01Z</time>
      </trkpt>
      <trkpt lat="46.77605" lon="-1.76705">
        <ele>52</ele>
        <time>2018-04-21T11:55:01Z</time>
      </trkpt>
      <trkpt lat="46.77563" lon="-1.76695">
        <ele>52</ele>
        <time>2018-04-21T11:56:01Z</time>
      </trkpt>
      <trkpt lat="46.77517" lon="-1.76685">
        <ele>54</ele>
        <time>2018-04-21T11:57:01Z</time>
      </trkpt>
      <trkpt lat="46.77516" lon="-1.76685">
        <ele>54</ele>
        <time>2018-04-21T11:58:01Z</time>
      </trkpt>
      <trkpt lat="46.77473" lon="-1.76674">
        <ele>54</ele>
        <time>2018-04-21T11:59:01Z</time>
      </trkpt>
      <trkpt lat="46.77448" lon="-1.76667">
        <ele>55</ele>
        <time>2018-04-21T12:00:01Z</time>
      </trkpt>
      <trkpt lat="46.77432" lon="-1.76663">
        <ele>55</ele>
        <time>2018-04-21T12:01:01Z</time>
      </trkpt>
      <trkpt lat="46.77411" lon="-1.76656">
        <ele>55</ele>
        <time>2018-04-21T12:02:01Z</time>
      </trkpt>
      <trkpt lat="46.774" lon="-1.76653">
        <ele>55</ele>
        <time>2018-04-21T12:03:01Z</time>
      </trkpt>
      <trkpt lat="46.7738" lon="-1.76645">
        <ele>55</ele>
        <time>2018-04-21T12:04:01Z</time>
      </trkpt>
      <trkpt lat="46.77342" lon="-1.76629">
        <ele>54</ele>
        <time>2018-04-21T12:05:01Z</time>
      </trkpt>
      <trkpt lat="46.7729" lon="-1.76605">
        <ele>55</ele>
        <time>2018-04-21T12:06:01Z</time>
      </trkpt>
      <trkpt lat="46.7723" lon="-1.76577">
        <ele>55</ele>
        <time>2018-04-21T12:07:01Z</time>
      </trkpt>
      <trkpt lat="46.77155" lon="-1.76543">
        <ele>57</ele>
        <time>2018-04-21T12:08:01Z</time>
      </trkpt>
      <trkpt lat="46.77073" lon="-1.76505">
        <ele>57</ele>
        <time>2018-04-21T12:09:01Z</time>
      </trkpt>
      <trkpt lat="46.77023" lon="-1.76482">
        <ele>55</ele>
        <time>2018-04-21T12:10:01Z</time>
      </trkpt>
      <trkpt lat="46.76985" lon="-1.76464">
        <ele>55</ele>
        <time>2018-04-21T12:11:01Z</time>
      </trkpt>
      <trkpt lat="46.76965" lon="-1.76455">
        <ele>55</ele>
        <time>2018-04-21T12:12:01Z</time>
      </trkpt>
      <trkpt lat="46.76946" lon="-1.76446">
        <ele>56</ele>
        <time>2018-04-21T12:13:01Z</time>
      </trkpt>
      <trkpt lat="46.76916" lon="-1.76432">
        <ele>56</ele>
        <time>2018-04-21T12:14:01Z</time>
      </trkpt>
      <trkpt lat="46.76898" lon="-1.76424">
        <ele>56</ele>
        <time>2018-04-21T12:15:01Z</time>
      </trkpt>
      <trkpt lat="46.76883" lon="-1.76416">
        <ele>56</ele>
        <time>2018-04-21T12:16:01Z</time>
      </trkpt>
      <trkpt lat="46.76863" lon="-1.76406">
        <ele>56</ele>
        <time>2018-04-21T12:17:01Z</time>
      </trkpt>
      <trkpt lat="46.76847" lon="-1.76396">
        <ele>56</ele>
        <time>2018-04-21T12:18:01Z</time>
      </trkpt>
      <trkpt lat="46.76834" lon="-1.76388">
        <ele>56</ele>
        <time>2018-04-21T12:19:01Z</time>
      </trkpt>
      <trkpt lat="46.76818" lon="-1.76377">
        <ele>56</ele>
        <time>2018-04-21T12:20:01Z</time>
      </trkpt>
      <trkpt lat="46.7681" lon="-1.76371">
        <ele>56</ele>
        <time>2018-04-21T12:21:01Z</time>
      </trkpt>
      <trkpt lat="46.768" lon="-1.76363">
        <ele>56</ele>
        <time>2018-04-21T12:22:01Z</time>
      </trkpt>
      <trkpt lat="46.76762" lon="-1.76331">
        <ele>57</ele>
        <time>2018-04-21T12:23:01Z</time>
      </trkpt>
      <trkpt lat="46.76751" lon="-1.76319">
        <ele>56</ele>
        <time>2018-04-21T12:24:01Z</time>
      </trkpt>
      <trkpt lat="46.76744" lon="-1.76311">
        <ele>56</ele>
        <time>2018-04-21T12:25:01Z</time>
      </trkpt>
      <trkpt lat="46.76735" lon="-1.76299">
        <ele>56</ele>
        <time>2018-04-21T12:26:01Z</time>
      </trkpt>
      <trkpt lat="46.76727" lon="-1.76287">
        <ele>55</ele>
        <time>2018-04-21T12:27:01Z</time>
      </trkpt>
      <trkpt lat="46.76721" lon="-1.76277">
        <ele>55</ele>
        <time>2018-04-21T12:28:01Z</time>
      </trkpt>
      <trkpt lat="46.76714" lon="-1.76264">
        <ele>55</ele>
        <time>2018-04-21T12:29:01Z</time>
      </trkpt>
      <trkpt lat="46.76705" lon="-1.76244">
        <ele>55</ele>
        <time>2018-04-21T12:30:01Z</time>
      </trkpt>
      <trkpt lat="46.76686" lon="-1.76202">
        <ele>55</ele>
        <time>2018-04-21T12:31:01Z</time>
      </trkpt>
      <trkpt lat="46.7667" lon="-1.76164">
        <ele>55</ele>
        <time>2018-04-21T12:32:01Z</time>
      </trkpt>
      <trkpt lat="46.76632" lon="-1.76078">
        <ele>53</ele>
        <time>2018-04-21T12:33:01Z</time>
      </trkpt>
      <trkpt lat="46.76599" lon="-1.76004">
        <ele>52</ele>
        <time>2018-04-21T12:34:01Z</time>
      </trkpt>
      <trkpt lat="46.76583" lon="-1.75965">
        <ele>52</ele>
        <time>2018-04-21T12:35:01Z</time>
      </trkpt>
      <trkpt lat="46.76534" lon="-1.75852">
        <ele>50</ele>
        <time>2018-04-21T12:36:01Z</time>
      </trkpt>
      <trkpt lat="46.76506" lon="-1.7579">
        <ele>51</ele>
        <time>2018-04-21T12:37:01Z</time>
      </trkpt>
      <trkpt lat="46.7648" lon="-1.75732">
        <ele>52</ele>
        <time>2018-04-21T12:38:01Z</time>
      </trkpt>
      <trkpt lat="46.76466" lon="-1.75703">
        <ele>51</ele>
        <time>2018-04-21T12:39:01Z</time>
      </trkpt>
      <trkpt lat="46.76461" lon="-1.75693">
        <ele>51</ele>
        <time>2018-04-21T12:40:01Z</time>
      </trkpt>
      <trkpt lat="46.76456" lon="-1.75683">
        <ele>51</ele>
        <time>2018-04-21T12:41:01Z</time>
      </trkpt>
      <trkpt lat="46.76451" lon="-1.75674">
        <ele>51</ele>
        <time>2018-04-21T12:42:01Z</time>
      </trkpt>
      <trkpt lat="46.76445" lon="-1.75666">
        <ele>51</ele>
        <time>2018-04-21T12:43:01Z</time>
      </trkpt>
      <trkpt lat="46.76439" lon="-1.75658">
        <ele>51</ele>
        <time>2018-04-21T12:44:01Z</time>
      </trkpt>
      <trkpt lat="46.76433" lon="-1.75652">
        <ele>51</ele>
        <time>2018-04-21T12:45:01Z</time>
      </trkpt>
      <trkpt lat="46.76426" lon="-1.75646">
        <ele>51</ele>
        <time>2018-04-21T12:46:01Z</time>
      </trkpt>
      <trkpt lat="46.76414" lon="-1.75636">
        <ele>50</ele>
        <time>2018-04-21T12:47:01Z</time>
      </trkpt>
      <trkpt lat="46.76392" lon="-1.75623">
        <ele>49</ele>
        <time>2018-04-21T12:48:01Z</time>
      </trkpt>
      <trkpt lat="46.76355" lon="-1.75601">
        <ele>48</ele>
        <time>2018-04-21T12:49:01Z</time>
      </trkpt>
      <trkpt lat="46.76334" lon="-1.75589">
        <ele>47</ele>
        <time>2018-04-21T12:50:01Z</time>
      </trkpt>
      <trkpt lat="46.76319" lon="-1.75581">
        <ele>47</ele>
        <time>2018-04-21T12:51:01Z</time>
      </trkpt>
      <trkpt lat="46.76303" lon="-1.75574">
        <ele>46</ele>
        <time>2018-04-21T12:52:01Z</time>
      </trkpt>
      <trkpt lat="46.7629" lon="-1.7557">
        <ele>45</ele>
        <time>2018-04-21T12:53:01Z</time>
      </trkpt>
      <trkpt lat="46.76274" lon="-1.75565">
        <ele>45</ele>
        <time>2018-04-21T12:54:01Z</time>
      </trkpt>
      <trkpt lat="46.76259" lon="-1.7556">
        <ele>44</ele>
        <time>2018-04-21T12:55:01Z</time>
      </trkpt>
      <trkpt lat="46.76246" lon="-1.75553">
        <ele>44</ele>
        <time>2018-04-21T12:56:01Z</time>
      </trkpt>
      <trkpt lat="46.76238" lon="-1.75547">
        <ele>43</ele>
        <time>2018-04-21T12:57:01Z</time>
      </trkpt>
      <trkpt lat="46.7623" lon="-1.75539">
        <ele>43</ele>
        <time>2018-04-21T12:58:01Z</time>
      </trkpt>
      <trkpt lat="46.76224" lon="-1.75531">
        <ele>42</ele>
        <time>2018-04-21T12:59:01Z</time>
      </trkpt>
      <trkpt lat="46.76219" lon="-1.75524">
        <ele>42</ele>
        <time>2018-04-21T13:00:01Z</time>
      </trkpt>
      <trkpt lat="46.76214" lon="-1.75516">
        <ele>42</ele>
        <time>2018-04-21T13:01:01Z</time>
      </trkpt>
      <trkpt lat="46.76206" lon="-1.75504">
        <ele>41</ele>
        <time>2018-04-21T13:02:01Z</time>
      </trkpt>
      <trkpt lat="46.76198" lon="-1.7549">
        <ele>40</ele>
        <time>2018-04-21T13:03:01Z</time>
      </trkpt>
      <trkpt lat="46.76193" lon="-1.75482">
        <ele>39</ele>
        <time>2018-04-21T13:04:01Z</time>
      </trkpt>
      <trkpt lat="46.76188" lon="-1.75474">
        <ele>38</ele>
        <time>2018-04-21T13:05:01Z</time>
      </trkpt>
      <trkpt lat="46.76179" lon="-1.75464">
        <ele>37</ele>
        <time>2018-04-21T13:06:01Z</time>
      </trkpt>
      <trkpt lat="46.76171" lon="-1.75456">
        <ele>37</ele>
        <time>2018-04-21T13:07:01Z</time>
      </trkpt>
      <trkpt lat="46.76163" lon="-1.7545">
        <ele>36</ele>
        <time>2018-04-21T13:08:01Z</time>
      </trkpt>
      <trkpt lat="46.76158" lon="-1.75446">
        <ele>36</ele>
        <time>2018-04-21T13:09:01Z</time>
      </trkpt>
      <trkpt lat="46.76151" lon="-1.75442">
        <ele>36</ele>
        <time>2018-04-21T13:10:01Z</time>
      </trkpt>
      <trkpt lat="46.76143" lon="-1.75437">
        <ele>35</ele>
        <time>2018-04-21T13:11:01Z</time>
      </trkpt>
      <trkpt lat="46.76135" lon="-1.75434">
        <ele>35</ele>
        <time>2018-04-21T13:12:01Z</time>
      </trkpt>
      <trkpt lat="46.76123" lon="-1.7543">
        <ele>35</ele>
        <time>2018-04-21T13:13:01Z</time>
      </trkpt>
      <trkpt lat="46.76091" lon="-1.7542">
        <ele>35</ele>
        <time>2018-04-21T13:14:01Z</time>
      </trkpt>
      <trkpt lat="46.76066" lon="-1.75412">
        <ele>34</ele>
        <time>2018-04-21T13:15:01Z</time>
      </trkpt>
      <trkpt lat="46.76041" lon="-1.75405">
        <ele>32</ele>
        <time>2018-04-21T13:16:01Z</time>
      </trkpt>
      <trkpt lat="46.76033" lon="-1.75404">
        <ele>31</ele>
        <time>2018-04-21T13:17:01Z</time>
      </trkpt>
      <trkpt lat="46.76025" lon="-1.75404">
        <ele>31</ele>
        <time>2018-04-21T13:18:01Z</time>
      </trkpt>
      <trkpt lat="46.76017" lon="-1.75405">
        <ele>30</ele>
        <time>2018-04-21T13:19:01Z</time>
      </trkpt>
      <trkpt lat="46.76009" lon="-1.75408">
        <ele>30</ele>
        <time>2018-04-21T13:20:01Z</time>
      </trkpt>
      <trkpt lat="46.76006" lon="-1.75409">
        <ele>30</ele>
        <time>2018-04-21T13:21:01Z</time>
      </trkpt>
      <trkpt lat="46.76002" lon="-1.75412">
        <ele>30</ele>
        <time>2018-04-21T13:22:01Z</time>
      </trkpt>
      <trkpt lat="46.75997" lon="-1.75416">
        <ele>30</ele>
        <time>2018-04-21T13:23:01Z</time>
      </trkpt>
      <trkpt lat="46.75992" lon="-1.75421">
        <ele>29</ele>
        <time>2018-04-21T13:24:01Z</time>
      </trkpt>
      <trkpt lat="46.75988" lon="-1.75427">
        <ele>29</ele>
        <time>2018-04-21T13:25:01Z</time>
      </trkpt>
      <trkpt lat="46.75984" lon="-1.75434">
        <ele>28</ele>
        <time>2018-04-21T13:26:01Z</time>
      </trkpt>
      <trkpt lat="46.75981" lon="-1.75442">
        <ele>28</ele>
        <time>2018-04-21T13:27:01Z</time>
      </trkpt>
      <trkpt lat="46.75978" lon="-1.7545">
        <ele>28</ele>
        <time>2018-04-21T13:28:01Z</time>
      </trkpt>
      <trkpt lat="46.75977" lon="-1.75458">
        <ele>28</ele>
        <time>2018-04-21T13:29:01Z</time>
      </trkpt>
      <trkpt lat="46.75976" lon="-1.75465">
        <ele>28</ele>
        <time>2018-04-21T13:30:01Z</time>
      </trkpt>
      <trkpt lat="46.75975" lon="-1.75474">
        <ele>28</ele>
        <time>2018-04-21T13:31:01Z</time>
      </trkpt>
      <trkpt lat="46.75975" lon="-1.7549">
        <ele>28</ele>
        <time>2018-04-21T13:32:01Z</time>
      </trkpt>
      <trkpt lat="46.75974" lon="-1.75505">
        <ele>28</ele>
        <time>2018-04-21T13:33:01Z</time>
      </trkpt>
      <trkpt lat="46.75974" lon="-1.75512">
        <ele>29</ele>
        <time>2018-04-21T13:34:01Z</time>
      </trkpt>
      <trkpt lat="46.75972" lon="-1.7552">
        <ele>29</ele>
        <time>2018-04-21T13:35:01Z</time>
      </trkpt>
      <trkpt lat="46.7597" lon="-1.75527">
        <ele>29</ele>
        <time>2018-04-21T13:36:01Z</time>
      </trkpt>
      <trkpt lat="46.75967" lon="-1.75534">
        <ele>29</ele>
        <time>2018-04-21T13:37:01Z</time>
      </trkpt>
      <trkpt lat="46.75964" lon="-1.7554">
        <ele>29</ele>
        <time>2018-04-21T13:38:01Z</time>
      </trkpt>
      <trkpt lat="46.75959" lon="-1.75545">
        <ele>28</ele>
        <time>2018-04-21T13:39:01Z</time>
      </trkpt>
      <trkpt lat="46.7595" lon="-1.75552">
        <ele>27</ele>
        <time>2018-04-21T13:40:01Z</time>
      </trkpt>
      <trkpt lat="46.75946" lon="-1.75555">
        <ele>27</ele>
        <time>2018-04-21T13:41:01Z</time>
      </trkpt>
      <trkpt lat="46.75941" lon="-1.75556">
        <ele>26</ele>
        <time>2018-04-21T13:42:01Z</time>
      </trkpt>
      <trkpt lat="46.75936" lon="-1.75558">
        <ele>25</ele>
        <time>2018-04-21T13:43:01Z</time>
      </trkpt>
      <trkpt lat="46.75929" lon="-1.75559">
        <ele>24</ele>
        <time>2018-04-21T13:44:01Z</time>
      </trkpt>
      <trkpt lat="46.75923" lon="-1.75559">
        <ele>23</ele>
        <time>2018-04-21T13:45:01Z</time>
      </trkpt>
      <trkpt lat="46.75916" lon="-1.75558">
        <ele>22</ele>
        <time>2018-04-21T13:46:01Z</time>
      </trkpt>
      <trkpt lat="46.75911" lon="-1.75557">
        <ele>22</ele>
        <time>2018-04-21T13:47:01Z</time>
      </trkpt>
      <trkpt lat="46.75906" lon="-1.75555">
        <ele>22</ele>
        <time>2018-04-21T13:48:01Z</time>
      </trkpt>
      <trkpt lat="46.75901" lon="-1.75551">
        <ele>22</ele>
        <time>2018-04-21T13:49:01Z</time>
      </trkpt>
      <trkpt lat="46.75897" lon="-1.75548">
        <ele>22</ele>
        <time>2018-04-21T13:50:01Z</time>
      </trkpt>
      <trkpt lat="46.75894" lon="-1.75543">
        <ele>22</ele>
        <time>2018-04-21T13:51:01Z</time>
      </trkpt>
      <trkpt lat="46.7589" lon="-1.75538">
        <ele>22</ele>
        <time>2018-04-21T13:52:01Z</time>
      </trkpt>
      <trkpt lat="46.75888" lon="-1.75531">
        <ele>22</ele>
        <time>2018-04-21T13:53:01Z</time>
      </trkpt>
      <trkpt lat="46.75886" lon="-1.75523">
        <ele>21</ele>
        <time>2018-04-21T13:54:01Z</time>
      </trkpt>
      <trkpt lat="46.75884" lon="-1.75507">
        <ele>21</ele>
        <time>2018-04-21T13:55:01Z</time>
      </trkpt>
      <trkpt lat="46.75883" lon="-1.75496">
        <ele>21</ele>
        <time>2018-04-21T13:56:01Z</time>
      </trkpt>
      <trkpt lat="46.75882" lon="-1.75487">
        <ele>21</ele>
        <time>2018-04-21T13:57:01Z</time>
      </trkpt>
      <trkpt lat="46.75881" lon="-1.75469">
        <ele>22</ele>
        <time>2018-04-21T13:58:01Z</time>
      </trkpt>
      <trkpt lat="46.75876" lon="-1.75389">
        <ele>23</ele>
        <time>2018-04-21T13:59:01Z</time>
      </trkpt>
      <trkpt lat="46.75875" lon="-1.75376">
        <ele>24</ele>
        <time>2018-04-21T14:00:01Z</time>
      </trkpt>
      <trkpt lat="46.75872" lon="-1.75359">
        <ele>24</ele>
        <time>2018-04-21T14:01:01Z</time>
      </trkpt>
      <trkpt lat="46.7587" lon="-1.75351">
        <ele>24</ele>
        <time>2018-04-21T14:02:01Z</time>
      </trkpt>
      <trkpt lat="46.75867" lon="-1.75344">
        <ele>24</ele>
        <time>2018-04-21T14:03:01Z</time>
      </trkpt>
      <trkpt lat="46.75864" lon="-1.7534">
        <ele>24</ele>
        <time>2018-04-21T14:04:01Z</time>
      </trkpt>
      <trkpt lat="46.7586" lon="-1.75335">
        <ele>25</ele>
        <time>2018-04-21T14:05:01Z</time>
      </trkpt>
      <trkpt lat="46.75855" lon="-1.75329">
        <ele>25</ele>
        <time>2018-04-21T14:06:01Z</time>
      </trkpt>
      <trkpt lat="46.75849" lon="-1.75326">
        <ele>26</ele>
        <time>2018-04-21T14:07:01Z</time>
      </trkpt>
      <trkpt lat="46.75842" lon="-1.75323">
        <ele>27</ele>
        <time>2018-04-21T14:08:01Z</time>
      </trkpt>
      <trkpt lat="46.75829" lon="-1.75318">
        <ele>28</ele>
        <time>2018-04-21T14:09:01Z</time>
      </trkpt>
      <trkpt lat="46.75812" lon="-1.75313">
        <ele>29</ele>
        <time>2018-04-21T14:10:01Z</time>
      </trkpt>
      <trkpt lat="46.75787" lon="-1.75307">
        <ele>31</ele>
        <time>2018-04-21T14:11:01Z</time>
      </trkpt>
      <trkpt lat="46.75766" lon="-1.75303">
        <ele>33</ele>
        <time>2018-04-21T14:12:01Z</time>
      </trkpt>
      <trkpt lat="46.75733" lon="-1.75293">
        <ele>35</ele>
        <time>2018-04-21T14:13:01Z</time>
      </trkpt>
      <trkpt lat="46.75724" lon="-1.75289">
        <ele>36</ele>
        <time>2018-04-21T14:14:01Z</time>
      </trkpt>
      <trkpt lat="46.75715" lon="-1.75284">
        <ele>37</ele>
        <time>2018-04-21T14:15:01Z</time>
      </trkpt>
      <trkpt lat="46.75707" lon="-1.75279">
        <ele>37</ele>
        <time>2018-04-21T14:16:01Z</time>
      </trkpt>
      <trkpt lat="46.757" lon="-1.75273">
        <ele>38</ele>
        <time>2018-04-21T14:17:01Z</time>
      </trkpt>
      <trkpt lat="46.75693" lon="-1.75267">
        <ele>39</ele>
        <time>2018-04-21T14:18:01Z</time>
      </trkpt>
      <trkpt lat="46.75686" lon="-1.7526">
        <ele>40</ele>
        <time>2018-04-21T14:19:01Z</time>
      </trkpt>
      <trkpt lat="46.75675" lon="-1.75248">
        <ele>41</ele>
        <time>2018-04-21T14:20:01Z</time>
      </trkpt>
      <trkpt lat="46.75658" lon="-1.75227">
        <ele>42</ele>
        <time>2018-04-21T14:21:01Z</time>
      </trkpt>
      <trkpt lat="46.75645" lon="-1.75206">
        <ele>43</ele>
        <time>2018-04-21T14:22:01Z</time>
      </trkpt>
      <trkpt lat="46.75631" lon="-1.75183">
        <ele>44</ele>
        <time>2018-04-21T14:23:01Z</time>
      </trkpt>
      <trkpt lat="46.75618" lon="-1.7516">
        <ele>44</ele>
        <time>2018-04-21T14:24:01Z</time>
      </trkpt>
      <trkpt lat="46.75601" lon="-1.75126">
        <ele>46</ele>
        <time>2018-04-21T14:25:01Z</time>
      </trkpt>
      <trkpt lat="46.75589" lon="-1.75098">
        <ele>47</ele>
        <time>2018-04-21T14:26:01Z</time>
      </trkpt>
      <trkpt lat="46.75567" lon="-1.7505">
        <ele>47</ele>
        <time>2018-04-21T14:27:01Z</time>
      </trkpt>
      <trkpt lat="46.75535" lon="-1.74979">
        <ele>48</ele>
        <time>2018-04-21T14:28:01Z</time>
      </trkpt>
      <trkpt lat="46.75519" lon="-1.74944">
        <ele>48</ele>
        <time>2018-04-21T14:29:01Z</time>
      </trkpt>
      <trkpt lat="46.75496" lon="-1.74893">
        <ele>48</ele>
        <time>2018-04-21T14:30:01Z</time>
      </trkpt>
      <trkpt lat="46.75485" lon="-1.7487">
        <ele>48</ele>
        <time>2018-04-21T14:31:01Z</time>
      </trkpt>
      <trkpt lat="46.75475" lon="-1.74847">
        <ele>48</ele>
        <time>2018-04-21T14:32:01Z</time>
      </trkpt>
      <trkpt lat="46.75455" lon="-1.74802">
        <ele>48</ele>
        <time>2018-04-21T14:33:01Z</time>
      </trkpt>
      <trkpt lat="46.75443" lon="-1.74769">
        <ele>48</ele>
        <time>2018-04-21T14:34:01Z</time>
      </trkpt>
      <trkpt lat="46.75436" lon="-1.74747">
        <ele>48</ele>
        <time>2018-04-21T14:35:01Z</time>
      </trkpt>
      <trkpt lat="46.75429" lon="-1.74721">
        <ele>48</ele>
        <time>2018-04-21T14:36:01Z</time>
      </trkpt>
      <trkpt lat="46.75426" lon="-1.74706">
        <ele>48</ele>
        <time>2018-04-21T14:37:01Z</time>
      </trkpt>
      <trkpt lat="46.75423" lon="-1.74693">
        <ele>47</ele>
        <time>2018-04-21T14:38:01Z</time>
      </trkpt>
      <trkpt lat="46.75419" lon="-1.74671">
        <ele>47</ele>
        <time>2018-04-21T14:39:01Z</time>
      </trkpt>
      <trkpt lat="46.75413" lon="-1.74627">
        <ele>47</ele>
        <time>2018-04-21T14:40:01Z</time>
      </trkpt>
      <trkpt lat="46.75409" lon="-1.74588">
        <ele>47</ele>
        <time>2018-04-21T14:41:01Z</time>
      </trkpt>
      <trkpt lat="46.75405" lon="-1.7454">
        <ele>47</ele>
        <time>2018-04-21T14:42:01Z</time>
      </trkpt>
      <trkpt lat="46.754" lon="-1.7448">
        <ele>48</ele>
        <time>2018-04-21T14:43:01Z</time>
      </trkpt>
      <trkpt lat="46.75398" lon="-1.7444">
        <ele>48</ele>
        <time>2018-04-21T14:44:01Z</time>
      </trkpt>
      <trkpt lat="46.75396" lon="-1.74398">
        <ele>49</ele>
        <time>2018-04-21T14:45:01Z</time>
      </trkpt>
      <trkpt lat="46.75397" lon="-1.74371">
        <ele>49</ele>
        <time>2018-04-21T14:46:01Z</time>
      </trkpt>
      <trkpt lat="46.75398" lon="-1.74335">
        <ele>49</ele>
        <time>2018-04-21T14:47:01Z</time>
      </trkpt>
      <trkpt lat="46.75402" lon="-1.7423">
        <ele>47</ele>
        <time>2018-04-21T14:48:01Z</time>
      </trkpt>
      <trkpt lat="46.75403" lon="-1.74216">
        <ele>47</ele>
        <time>2018-04-21T14:49:01Z</time>
      </trkpt>
      <trkpt lat="46.75405" lon="-1.74199">
        <ele>47</ele>
        <time>2018-04-21T14:50:01Z</time>
      </trkpt>
      <trkpt lat="46.75406" lon="-1.74183">
        <ele>47</ele>
        <time>2018-04-21T14:51:01Z</time>
      </trkpt>
      <trkpt lat="46.75409" lon="-1.74165">
        <ele>47</ele>
        <time>2018-04-21T14:52:01Z</time>
      </trkpt>
      <trkpt lat="46.75413" lon="-1.7414">
        <ele>47</ele>
        <time>2018-04-21T14:53:01Z</time>
      </trkpt>
      <trkpt lat="46.75416" lon="-1.74127">
        <ele>47</ele>
        <time>2018-04-21T14:54:01Z</time>
      </trkpt>
      <trkpt lat="46.75419" lon="-1.74114">
        <ele>47</ele>
        <time>2018-04-21T14:55:01Z</time>
      </trkpt>
      <trkpt lat="46.75426" lon="-1.74088">
        <ele>47</ele>
        <time>2018-04-21T14:56:01Z</time>
      </trkpt>
      <trkpt lat="46.75429" lon="-1.74078">
        <ele>48</ele>
        <time>2018-04-21T14:57:01Z</time>
      </trkpt>
      <trkpt lat="46.75439" lon="-1.74041">
        <ele>49</ele>
        <time>2018-04-21T14:58:01Z</time>
      </trkpt>
      <trkpt lat="46.75444" lon="-1.74021">
        <ele>49</ele>
        <time>2018-04-21T14:59:01Z</time>
      </trkpt>
      <trkpt lat="46.7545" lon="-1.73997">
        <ele>50</ele>
        <time>2018-04-21T15:00:01Z</time>
      </trkpt>
      <trkpt lat="46.75452" lon="-1.73986">
        <ele>50</ele>
        <time>2018-04-21T15:01:01Z</time>
      </trkpt>
      <trkpt lat="46.75453" lon="-1.73976">
        <ele>50</ele>
        <time>2018-04-21T15:02:01Z</time>
      </trkpt>
      <trkpt lat="46.75453" lon="-1.73966">
        <ele>51</ele>
        <time>2018-04-21T15:03:01Z</time>
      </trkpt>
      <trkpt lat="46.75452" lon="-1.73955">
        <ele>51</ele>
        <time>2018-04-21T15:04:01Z</time>
      </trkpt>
      <trkpt lat="46.75451" lon="-1.73946">
        <ele>51</ele>
        <time>2018-04-21T15:05:01Z</time>
      </trkpt>
      <trkpt lat="46.75449" lon="-1.73937">
        <ele>51</ele>
        <time>2018-04-21T15:06:01Z</time>
      </trkpt>
      <trkpt lat="46.75447" lon="-1.7393">
        <ele>51</ele>
        <time>2018-04-21T15:07:01Z</time>
      </trkpt>
      <trkpt lat="46.75444" lon="-1.73921">
        <ele>51</ele>
        <time>2018-04-21T15:08:01Z</time>
      </trkpt>
      <trkpt lat="46.75441" lon="-1.73914">
        <ele>51</ele>
        <time>2018-04-21T15:09:01Z</time>
      </trkpt>
      <trkpt lat="46.75437" lon="-1.73906">
        <ele>51</ele>
        <time>2018-04-21T15:10:01Z</time>
      </trkpt>
      <trkpt lat="46.75432" lon="-1.73897">
        <ele>51</ele>
        <time>2018-04-21T15:11:01Z</time>
      </trkpt>
      <trkpt lat="46.75427" lon="-1.7389">
        <ele>51</ele>
        <time>2018-04-21T15:12:01Z</time>
      </trkpt>
      <trkpt lat="46.75422" lon="-1.73885">
        <ele>51</ele>
        <time>2018-04-21T15:13:01Z</time>
      </trkpt>
      <trkpt lat="46.75417" lon="-1.73881">
        <ele>51</ele>
        <time>2018-04-21T15:14:01Z</time>
      </trkpt>
      <trkpt lat="46.75412" lon="-1.73876">
        <ele>51</ele>
        <time>2018-04-21T15:15:01Z</time>
      </trkpt>
      <trkpt lat="46.75403" lon="-1.73874">
        <ele>51</ele>
        <time>2018-04-21T15:16:01Z</time>
      </trkpt>
      <trkpt lat="46.7539" lon="-1.73874">
        <ele>51</ele>
        <time>2018-04-21T15:17:01Z</time>
      </trkpt>
      <trkpt lat="46.75372" lon="-1.73879">
        <ele>51</ele>
        <time>2018-04-21T15:18:01Z</time>
      </trkpt>
      <trkpt lat="46.75363" lon="-1.73882">
        <ele>51</ele>
        <time>2018-04-21T15:19:01Z</time>
      </trkpt>
      <trkpt lat="46.75331" lon="-1.73893">
        <ele>50</ele>
        <time>2018-04-21T15:20:01Z</time>
      </trkpt>
      <trkpt lat="46.75299" lon="-1.73904">
        <ele>49</ele>
        <time>2018-04-21T15:21:01Z</time>
      </trkpt>
      <trkpt lat="46.75274" lon="-1.73913">
        <ele>48</ele>
        <time>2018-04-21T15:22:01Z</time>
      </trkpt>
      <trkpt lat="46.75263" lon="-1.73915">
        <ele>47</ele>
        <time>2018-04-21T15:23:01Z</time>
      </trkpt>
      <trkpt lat="46.75258" lon="-1.73915">
        <ele>47</ele>
        <time>2018-04-21T15:24:01Z</time>
      </trkpt>
      <trkpt lat="46.75253" lon="-1.73914">
        <ele>47</ele>
        <time>2018-04-21T15:25:01Z</time>
      </trkpt>
      <trkpt lat="46.75248" lon="-1.73913">
        <ele>47</ele>
        <time>2018-04-21T15:26:01Z</time>
      </trkpt>
      <trkpt lat="46.75244" lon="-1.73911">
        <ele>47</ele>
        <time>2018-04-21T15:27:01Z</time>
      </trkpt>
      <trkpt lat="46.75235" lon="-1.73904">
        <ele>47</ele>
        <time>2018-04-21T15:28:01Z</time>
      </trkpt>
      <trkpt lat="46.75224" lon="-1.73894">
        <ele>47</ele>
        <time>2018-04-21T15:29:01Z</time>
      </trkpt>
      <trkpt lat="46.75211" lon="-1.73882">
        <ele>46</ele>
        <time>2018-04-21T15:30:01Z</time>
      </trkpt>
      <trkpt lat="46.75211" lon="-1.73882">
        <ele>46</ele>
        <time>2018-04-21T15:31:01Z</time>
      </trkpt>
      <trkpt lat="46.75216" lon="-1.73867">
        <ele>47</ele>
        <time>2018-04-21T15:32:01Z</time>
      </trkpt>
      <trkpt lat="46.75226" lon="-1.73846">
        <ele>47</ele>
        <time>2018-04-21T15:33:01Z</time>
      </trkpt>
      <trkpt lat="46.75243" lon="-1.7381">
        <ele>48</ele>
        <time>2018-04-21T15:34:01Z</time>
      </trkpt>
      <trkpt lat="46.75247" lon="-1.738">
        <ele>49</ele>
        <time>2018-04-21T15:35:01Z</time>
      </trkpt>
      <trkpt lat="46.75259" lon="-1.73776">
        <ele>50</ele>
        <time>2018-04-21T15:36:01Z</time>
      </trkpt>
      <trkpt lat="46.75268" lon="-1.73759">
        <ele>50</ele>
        <time>2018-04-21T15:37:01Z</time>
      </trkpt>
      <trkpt lat="46.75271" lon="-1.73754">
        <ele>50</ele>
        <time>2018-04-21T15:38:01Z</time>
      </trkpt>
      <trkpt lat="46.75276" lon="-1.73746">
        <ele>50</ele>
        <time>2018-04-21T15:39:01Z</time>
      </trkpt>
      <trkpt lat="46.75285" lon="-1.73733">
        <ele>51</ele>
        <time>2018-04-21T15:40:01Z</time>
      </trkpt>
      <trkpt lat="46.75292" lon="-1.73721">
        <ele>51</ele>
        <time>2018-04-21T15:41:01Z</time>
      </trkpt>
      <trkpt lat="46.75301" lon="-1.73709">
        <ele>51</ele>
        <time>2018-04-21T15:42:01Z</time>
      </trkpt>
      <trkpt lat="46.75305" lon="-1.73703">
        <ele>51</ele>
        <time>2018-04-21T15:43:01Z</time>
      </trkpt>
      <trkpt lat="46.75309" lon="-1.73698">
        <ele>51</ele>
        <time>2018-04-21T15:44:01Z</time>
      </trkpt>
      <trkpt lat="46.75319" lon="-1.73686">
        <ele>52</ele>
        <time>2018-04-21T15:45:01Z</time>
      </trkpt>
      <trkpt lat="46.75329" lon="-1.73675">
        <ele>52</ele>
        <time>2018-04-21T15:46:01Z</time>
      </trkpt>
      <trkpt lat="46.75344" lon="-1.73658">
        <ele>52</ele>
        <time>2018-04-21T15:47:01Z</time>
      </trkpt>
      <trkpt lat="46.7539" lon="-1.73612">
        <ele>53</ele>
        <time>2018-04-21T15:48:01Z</time>
      </trkpt>
      <trkpt lat="46.7541" lon="-1.73592">
        <ele>53</ele>
        <time>2018-04-21T15:49:01Z</time>
      </trkpt>
      <trkpt lat="46.75442" lon="-1.73561">
        <ele>54</ele>
        <time>2018-04-21T15:50:01Z</time>
      </trkpt>
      <trkpt lat="46.75452" lon="-1.7355">
        <ele>54</ele>
        <time>2018-04-21T15:51:01Z</time>
      </trkpt>
      <trkpt lat="46.75488" lon="-1.73511">
        <ele>56</ele>
        <time>2018-04-21T15:52:01Z</time>
      </trkpt>
      <trkpt lat="46.75511" lon="-1.73485">
        <ele>56</ele>
        <time>2018-04-21T15:53:01Z</time>
      </trkpt>
      <trkpt lat="46.75518" lon="-1.73476">
        <ele>56</ele>
        <time>2018-04-21T15:54:01Z</time>
      </trkpt>
      <trkpt lat="46.75524" lon="-1.73468">
        <ele>56</ele>
        <time>2018-04-21T15:55:01Z</time>
      </trkpt>
      <trkpt lat="46.75529" lon="-1.73461">
        <ele>56</ele>
        <time>2018-04-21T15:56:01Z</time>
      </trkpt>
      <trkpt lat="46.75534" lon="-1.73455">
        <ele>56</ele>
        <time>2018-04-21T15:57:01Z</time>
      </trkpt>
      <trkpt lat="46.75538" lon="-1.73448">
        <ele>56</ele>
        <time>2018-04-21T15:58:01Z</time>
      </trkpt>
      <trkpt lat="46.75541" lon="-1.73445">
        <ele>56</ele>
        <time>2018-04-21T15:59:01Z</time>
      </trkpt>
      <trkpt lat="46.75544" lon="-1.73439">
        <ele>56</ele>
        <time>2018-04-21T16:00:01Z</time>
      </trkpt>
      <trkpt lat="46.75553" lon="-1.73423">
        <ele>56</ele>
        <time>2018-04-21T16:01:01Z</time>
      </trkpt>
      <trkpt lat="46.75555" lon="-1.73418">
        <ele>56</ele>
        <time>2018-04-21T16:02:01Z</time>
      </trkpt>
      <trkpt lat="46.75557" lon="-1.73412">
        <ele>56</ele>
        <time>2018-04-21T16:03:01Z</time>
      </trkpt>
      <trkpt lat="46.7556" lon="-1.73403">
        <ele>56</ele>
        <time>2018-04-21T16:04:01Z</time>
      </trkpt>
      <trkpt lat="46.75564" lon="-1.7339">
        <ele>56</ele>
        <time>2018-04-21T16:05:01Z</time>
      </trkpt>
      <trkpt lat="46.75567" lon="-1.73377">
        <ele>56</ele>
        <time>2018-04-21T16:06:01Z</time>
      </trkpt>
      <trkpt lat="46.75575" lon="-1.73341">
        <ele>57</ele>
        <time>2018-04-21T16:07:01Z</time>
      </trkpt>
      <trkpt lat="46.75589" lon="-1.73274">
        <ele>56</ele>
        <time>2018-04-21T16:08:01Z</time>
      </trkpt>
      <trkpt lat="46.75598" lon="-1.73226">
        <ele>55</ele>
        <time>2018-04-21T16:09:01Z</time>
      </trkpt>
      <trkpt lat="46.75608" lon="-1.73181">
        <ele>54</ele>
        <time>2018-04-21T16:10:01Z</time>
      </trkpt>
      <trkpt lat="46.75612" lon="-1.73156">
        <ele>54</ele>
        <time>2018-04-21T16:11:01Z</time>
      </trkpt>
      <trkpt lat="46.75617" lon="-1.73128">
        <ele>54</ele>
        <time>2018-04-21T16:12:01Z</time>
      </trkpt>
      <trkpt lat="46.75616" lon="-1.7312">
        <ele>54</ele>
        <time>2018-04-21T16:13:01Z</time>
      </trkpt>
      <trkpt lat="46.75618" lon="-1.73089">
        <ele>53</ele>
        <time>2018-04-21T16:14:01Z</time>
      </trkpt>
      <trkpt lat="46.75616" lon="-1.73087">
        <ele>53</ele>
        <time>2018-04-21T16:15:01Z</time>
      </trkpt>
      <trkpt lat="46.75615" lon="-1.73085">
        <ele>53</ele>
        <time>2018-04-21T16:16:01Z</time>
      </trkpt>
      <trkpt lat="46.75614" lon="-1.73083">
        <ele>53</ele>
        <time>2018-04-21T16:17:01Z</time>
      </trkpt>
      <trkpt lat="46.75614" lon="-1.73082">
        <ele>53</ele>
        <time>2018-04-21T16:18:01Z</time>
      </trkpt>
      <trkpt lat="46.75614" lon="-1.73081">
        <ele>53</ele>
        <time>2018-04-21T16:19:01Z</time>
      </trkpt>
      <trkpt lat="46.75613" lon="-1.73078">
        <ele>53</ele>
        <time>2018-04-21T16:20:01Z</time>
      </trkpt>
      <trkpt lat="46.75613" lon="-1.73075">
        <ele>53</ele>
        <time>2018-04-21T16:21:01Z</time>
      </trkpt>
      <trkpt lat="46.75614" lon="-1.73071">
        <ele>53</ele>
        <time>2018-04-21T16:22:01Z</time>
      </trkpt>
      <trkpt lat="46.75615" lon="-1.73066">
        <ele>53</ele>
        <time>2018-04-21T16:23:01Z</time>
      </trkpt>
      <trkpt lat="46.75619" lon="-1.73049">
        <ele>54</ele>
        <time>2018-04-21T16:24:01Z</time>
      </trkpt>
      <trkpt lat="46.75623" lon="-1.73038">
        <ele>54</ele>
        <time>2018-04-21T16:25:01Z</time>
      </trkpt>
      <trkpt lat="46.75623" lon="-1.72992">
        <ele>55</ele>
        <time>2018-04-21T16:26:01Z</time>
      </trkpt>
      <trkpt lat="46.75623" lon="-1.72916">
        <ele>55</ele>
        <time>2018-04-21T16:27:01Z</time>
      </trkpt>
      <trkpt lat="46.75623" lon="-1.72887">
        <ele>55</ele>
        <time>2018-04-21T16:28:01Z</time>
      </trkpt>
      <trkpt lat="46.75624" lon="-1.7287">
        <ele>56</ele>
        <time>2018-04-21T16:29:01Z</time>
      </trkpt>
      <trkpt lat="46.75624" lon="-1.72845">
        <ele>56</ele>
        <time>2018-04-21T16:30:01Z</time>
      </trkpt>
      <trkpt lat="46.75625" lon="-1.72834">
        <ele>56</ele>
        <time>2018-04-21T16:31:01Z</time>
      </trkpt>
      <trkpt lat="46.75626" lon="-1.7282">
        <ele>57</ele>
        <time>2018-04-21T16:32:01Z</time>
      </trkpt>
      <trkpt lat="46.75626" lon="-1.72809">
        <ele>57</ele>
        <time>2018-04-21T16:33:01Z</time>
      </trkpt>
      <trkpt lat="46.75627" lon="-1.72797">
        <ele>57</ele>
        <time>2018-04-21T16:34:01Z</time>
      </trkpt>
      <trkpt lat="46.75628" lon="-1.72787">
        <ele>57</ele>
        <time>2018-04-21T16:35:01Z</time>
      </trkpt>
      <trkpt lat="46.75633" lon="-1.72721">
        <ele>58</ele>
        <time>2018-04-21T16:36:01Z</time>
      </trkpt>
      <trkpt lat="46.75638" lon="-1.72663">
        <ele>57</ele>
        <time>2018-04-21T16:37:01Z</time>
      </trkpt>
      <trkpt lat="46.75643" lon="-1.72615">
        <ele>56</ele>
        <time>2018-04-21T16:38:01Z</time>
      </trkpt>
      <trkpt lat="46.7565" lon="-1.72542">
        <ele>56</ele>
        <time>2018-04-21T16:39:01Z</time>
      </trkpt>
      <trkpt lat="46.75656" lon="-1.72493">
        <ele>56</ele>
        <time>2018-04-21T16:40:01Z</time>
      </trkpt>
      <trkpt lat="46.75657" lon="-1.72476">
        <ele>56</ele>
        <time>2018-04-21T16:41:01Z</time>
      </trkpt>
      <trkpt lat="46.75662" lon="-1.72434">
        <ele>56</ele>
        <time>2018-04-21T16:42:01Z</time>
      </trkpt>
      <trkpt lat="46.75661" lon="-1.72416">
        <ele>56</ele>
        <time>2018-04-21T16:43:01Z</time>
      </trkpt>
      <trkpt lat="46.75662" lon="-1.72342">
        <ele>56</ele>
        <time>2018-04-21T16:44:01Z</time>
      </trkpt>
      <trkpt lat="46.7566" lon="-1.72271">
        <ele>56</ele>
        <time>2018-04-21T16:45:01Z</time>
      </trkpt>
      <trkpt lat="46.7566" lon="-1.72244">
        <ele>56</ele>
        <time>2018-04-21T16:46:01Z</time>
      </trkpt>
      <trkpt lat="46.75657" lon="-1.72178">
        <ele>58</ele>
        <time>2018-04-21T16:47:01Z</time>
      </trkpt>
      <trkpt lat="46.75657" lon="-1.72169">
        <ele>58</ele>
        <time>2018-04-21T16:48:01Z</time>
      </trkpt>
      <trkpt lat="46.75651" lon="-1.72101">
        <ele>57</ele>
        <time>2018-04-21T16:49:01Z</time>
      </trkpt>
      <trkpt lat="46.75645" lon="-1.7204">
        <ele>57</ele>
        <time>2018-04-21T16:50:01Z</time>
      </trkpt>
      <trkpt lat="46.75646" lon="-1.72036">
        <ele>57</ele>
        <time>2018-04-21T16:51:01Z</time>
      </trkpt>
      <trkpt lat="46.75633" lon="-1.71906">
        <ele>56</ele>
        <time>2018-04-21T16:52:01Z</time>
      </trkpt>
      <trkpt lat="46.75633" lon="-1.71883">
        <ele>56</ele>
        <time>2018-04-21T16:53:01Z</time>
      </trkpt>
      <trkpt lat="46.75632" lon="-1.71874">
        <ele>56</ele>
        <time>2018-04-21T16:54:01Z</time>
      </trkpt>
      <trkpt lat="46.75632" lon="-1.71858">
        <ele>56</ele>
        <time>2018-04-21T16:55:01Z</time>
      </trkpt>
      <trkpt lat="46.75631" lon="-1.71831">
        <ele>56</ele>
        <time>2018-04-21T16:56:01Z</time>
      </trkpt>
      <trkpt lat="46.75631" lon="-1.71802">
        <ele>56</ele>
        <time>2018-04-21T16:57:01Z</time>
      </trkpt>
      <trkpt lat="46.75631" lon="-1.71789">
        <ele>57</ele>
        <time>2018-04-21T16:58:01Z</time>
      </trkpt>
      <trkpt lat="46.75631" lon="-1.7178">
        <ele>57</ele>
        <time>2018-04-21T16:59:01Z</time>
      </trkpt>
      <trkpt lat="46.75631" lon="-1.71767">
        <ele>57</ele>
        <time>2018-04-21T17:00:01Z</time>
      </trkpt>
      <trkpt lat="46.75632" lon="-1.71751">
        <ele>57</ele>
        <time>2018-04-21T17:01:01Z</time>
      </trkpt>
      <trkpt lat="46.75632" lon="-1.71736">
        <ele>57</ele>
        <time>2018-04-21T17:02:01Z</time>
      </trkpt>
      <trkpt lat="46.75632" lon="-1.71721">
        <ele>57</ele>
        <time>2018-04-21T17:03:01Z</time>
      </trkpt>
      <trkpt lat="46.75633" lon="-1.71706">
        <ele>57</ele>
        <time>2018-04-21T17:04:01Z</time>
      </trkpt>
      <trkpt lat="46.75633" lon="-1.71695">
        <ele>57</ele>
        <time>2018-04-21T17:05:01Z</time>
      </trkpt>
      <trkpt lat="46.75634" lon="-1.7168">
        <ele>57</ele>
        <time>2018-04-21T17:06:01Z</time>
      </trkpt>
      <trkpt lat="46.75635" lon="-1.71651">
        <ele>57</ele>
        <time>2018-04-21T17:07:01Z</time>
      </trkpt>
      <trkpt lat="46.75637" lon="-1.71635">
        <ele>57</ele>
        <time>2018-04-21T17:08:01Z</time>
      </trkpt>
      <trkpt lat="46.75639" lon="-1.71584">
        <ele>57</ele>
        <time>2018-04-21T17:09:01Z</time>
      </trkpt>
      <trkpt lat="46.75645" lon="-1.71506">
        <ele>58</ele>
        <time>2018-04-21T17:10:01Z</time>
      </trkpt>
      <trkpt lat="46.75645" lon="-1.71503">
        <ele>58</ele>
        <time>2018-04-21T17:11:01Z</time>
      </trkpt>
      <trkpt lat="46.75649" lon="-1.71449">
        <ele>59</ele>
        <time>2018-04-21T17:12:01Z</time>
      </trkpt>
      <trkpt lat="46.75656" lon="-1.71346">
        <ele>60</ele>
        <time>2018-04-21T17:13:01Z</time>
      </trkpt>
      <trkpt lat="46.75658" lon="-1.71296">
        <ele>60</ele>
        <time>2018-04-21T17:14:01Z</time>
      </trkpt>
      <trkpt lat="46.75659" lon="-1.7126">
        <ele>60</ele>
        <time>2018-04-21T17:15:01Z</time>
      </trkpt>
      <trkpt lat="46.75659" lon="-1.71235">
        <ele>60</ele>
        <time>2018-04-21T17:16:01Z</time>
      </trkpt>
      <trkpt lat="46.7566" lon="-1.71217">
        <ele>60</ele>
        <time>2018-04-21T17:17:01Z</time>
      </trkpt>
      <trkpt lat="46.7566" lon="-1.71199">
        <ele>60</ele>
        <time>2018-04-21T17:18:01Z</time>
      </trkpt>
      <trkpt lat="46.75661" lon="-1.7118">
        <ele>60</ele>
        <time>2018-04-21T17:19:01Z</time>
      </trkpt>
      <trkpt lat="46.75662" lon="-1.71157">
        <ele>60</ele>
        <time>2018-04-21T17:20:01Z</time>
      </trkpt>
      <trkpt lat="46.75662" lon="-1.71132">
        <ele>60</ele>
        <time>2018-04-21T17:21:01Z</time>
      </trkpt>
      <trkpt lat="46.75662" lon="-1.71111">
        <ele>59</ele>
        <time>2018-04-21T17:22:01Z</time>
      </trkpt>
      <trkpt lat="46.75662" lon="-1.71091">
        <ele>59</ele>
        <time>2018-04-21T17:23:01Z</time>
      </trkpt>
      <trkpt lat="46.75662" lon="-1.71047">
        <ele>59</ele>
        <time>2018-04-21T17:24:01Z</time>
      </trkpt>
      <trkpt lat="46.75661" lon="-1.71002">
        <ele>59</ele>
        <time>2018-04-21T17:25:01Z</time>
      </trkpt>
      <trkpt lat="46.7566" lon="-1.7096">
        <ele>60</ele>
        <time>2018-04-21T17:26:01Z</time>
      </trkpt>
      <trkpt lat="46.7566" lon="-1.70953">
        <ele>60</ele>
        <time>2018-04-21T17:27:01Z</time>
      </trkpt>
      <trkpt lat="46.75657" lon="-1.70877">
        <ele>61</ele>
        <time>2018-04-21T17:28:01Z</time>
      </trkpt>
      <trkpt lat="46.75655" lon="-1.70823">
        <ele>62</ele>
        <time>2018-04-21T17:29:01Z</time>
      </trkpt>
      <trkpt lat="46.75655" lon="-1.70806">
        <ele>62</ele>
        <time>2018-04-21T17:30:01Z</time>
      </trkpt>
      <trkpt lat="46.75654" lon="-1.7079">
        <ele>61</ele>
        <time>2018-04-21T17:31:01Z</time>
      </trkpt>
      <trkpt lat="46.75654" lon="-1.70772">
        <ele>61</ele>
        <time>2018-04-21T17:32:01Z</time>
      </trkpt>
      <trkpt lat="46.75654" lon="-1.70751">
        <ele>61</ele>
        <time>2018-04-21T17:33:01Z</time>
      </trkpt>
      <trkpt lat="46.75655" lon="-1.70726">
        <ele>60</ele>
        <time>2018-04-21T17:34:01Z</time>
      </trkpt>
      <trkpt lat="46.75656" lon="-1.70671">
        <ele>59</ele>
        <time>2018-04-21T17:35:01Z</time>
      </trkpt>
      <trkpt lat="46.7566" lon="-1.70572">
        <ele>59</ele>
        <time>2018-04-21T17:36:01Z</time>
      </trkpt>
      <trkpt lat="46.75662" lon="-1.70498">
        <ele>60</ele>
        <time>2018-04-21T17:37:01Z</time>
      </trkpt>
      <trkpt lat="46.75666" lon="-1.70422">
        <ele>61</ele>
        <time>2018-04-21T17:38:01Z</time>
      </trkpt>
      <trkpt lat="46.7567" lon="-1.70352">
        <ele>61</ele>
        <time>2018-04-21T17:39:01Z</time>
      </trkpt>
      <trkpt lat="46.75672" lon="-1.70323">
        <ele>61</ele>
        <time>2018-04-21T17:40:01Z</time>
      </trkpt>
      <trkpt lat="46.75673" lon="-1.70304">
        <ele>61</ele>
        <time>2018-04-21T17:41:01Z</time>
      </trkpt>
      <trkpt lat="46.75673" lon="-1.70286">
        <ele>61</ele>
        <time>2018-04-21T17:42:01Z</time>
      </trkpt>
      <trkpt lat="46.75673" lon="-1.70266">
        <ele>61</ele>
        <time>2018-04-21T17:43:01Z</time>
      </trkpt>
      <trkpt lat="46.75672" lon="-1.70246">
        <ele>61</ele>
        <time>2018-04-21T17:44:01Z</time>
      </trkpt>
      <trkpt lat="46.75671" lon="-1.70227">
        <ele>61</ele>
        <time>2018-04-21T17:45:01Z</time>
      </trkpt>
      <trkpt lat="46.7567" lon="-1.70205">
        <ele>61</ele>
        <time>2018-04-21T17:46:01Z</time>
      </trkpt>
      <trkpt lat="46.75666" lon="-1.70153">
        <ele>62</ele>
        <time>2018-04-21T17:47:01Z</time>
      </trkpt>
      <trkpt lat="46.7566" lon="-1.70095">
        <ele>61</ele>
        <time>2018-04-21T17:48:01Z</time>
      </trkpt>
      <trkpt lat="46.75656" lon="-1.70046">
        <ele>61</ele>
        <time>2018-04-21T17:49:01Z</time>
      </trkpt>
      <trkpt lat="46.75654" lon="-1.70015">
        <ele>62</ele>
        <time>2018-04-21T17:50:01Z</time>
      </trkpt>
      <trkpt lat="46.75653" lon="-1.70008">
        <ele>62</ele>
        <time>2018-04-21T17:51:01Z</time>
      </trkpt>
      <trkpt lat="46.75651" lon="-1.69993">
        <ele>62</ele>
        <time>2018-04-21T17:52:01Z</time>
      </trkpt>
      <trkpt lat="46.75648" lon="-1.69979">
        <ele>61</ele>
        <time>2018-04-21T17:53:01Z</time>
      </trkpt>
      <trkpt lat="46.75645" lon="-1.69967">
        <ele>61</ele>
        <time>2018-04-21T17:54:01Z</time>
      </trkpt>
      <trkpt lat="46.75641" lon="-1.69956">
        <ele>61</ele>
        <time>2018-04-21T17:55:01Z</time>
      </trkpt>
      <trkpt lat="46.75632" lon="-1.69934">
        <ele>61</ele>
        <time>2018-04-21T17:56:01Z</time>
      </trkpt>
      <trkpt lat="46.75627" lon="-1.6992">
        <ele>61</ele>
        <time>2018-04-21T17:57:01Z</time>
      </trkpt>
      <trkpt lat="46.75622" lon="-1.69903">
        <ele>60</ele>
        <time>2018-04-21T17:58:01Z</time>
      </trkpt>
      <trkpt lat="46.75618" lon="-1.69878">
        <ele>60</ele>
        <time>2018-04-21T17:59:01Z</time>
      </trkpt>
      <trkpt lat="46.75611" lon="-1.69841">
        <ele>59</ele>
        <time>2018-04-21T18:00:01Z</time>
      </trkpt>
      <trkpt lat="46.75607" lon="-1.69819">
        <ele>59</ele>
        <time>2018-04-21T18:01:01Z</time>
      </trkpt>
      <trkpt lat="46.75602" lon="-1.69782">
        <ele>59</ele>
        <time>2018-04-21T18:02:01Z</time>
      </trkpt>
      <trkpt lat="46.75596" lon="-1.69746">
        <ele>59</ele>
        <time>2018-04-21T18:03:01Z</time>
      </trkpt>
      <trkpt lat="46.75596" lon="-1.69742">
        <ele>59</ele>
        <time>2018-04-21T18:04:01Z</time>
      </trkpt>
      <trkpt lat="46.7559" lon="-1.69707">
        <ele>59</ele>
        <time>2018-04-21T18:05:01Z</time>
      </trkpt>
      <trkpt lat="46.75579" lon="-1.69642">
        <ele>58</ele>
        <time>2018-04-21T18:06:01Z</time>
      </trkpt>
      <trkpt lat="46.75575" lon="-1.69614">
        <ele>58</ele>
        <time>2018-04-21T18:07:01Z</time>
      </trkpt>
      <trkpt lat="46.75572" lon="-1.69595">
        <ele>58</ele>
        <time>2018-04-21T18:08:01Z</time>
      </trkpt>
      <trkpt lat="46.75568" lon="-1.69577">
        <ele>58</ele>
        <time>2018-04-21T18:09:01Z</time>
      </trkpt>
      <trkpt lat="46.75565" lon="-1.69562">
        <ele>58</ele>
        <time>2018-04-21T18:10:01Z</time>
      </trkpt>
      <trkpt lat="46.7556" lon="-1.69542">
        <ele>57</ele>
        <time>2018-04-21T18:11:01Z</time>
      </trkpt>
      <trkpt lat="46.75556" lon="-1.69526">
        <ele>57</ele>
        <time>2018-04-21T18:12:01Z</time>
      </trkpt>
      <trkpt lat="46.75552" lon="-1.69509">
        <ele>57</ele>
        <time>2018-04-21T18:13:01Z</time>
      </trkpt>
      <trkpt lat="46.75542" lon="-1.69475">
        <ele>56</ele>
        <time>2018-04-21T18:14:01Z</time>
      </trkpt>
      <trkpt lat="46.75542" lon="-1.69475">
        <ele>56</ele>
        <time>2018-04-21T18:15:01Z</time>
      </trkpt>
      <trkpt lat="46.75544" lon="-1.69469">
        <ele>56</ele>
        <time>2018-04-21T18:16:01Z</time>
      </trkpt>
      <trkpt lat="46.75546" lon="-1.69464">
        <ele>56</ele>
        <time>2018-04-21T18:17:01Z</time>
      </trkpt>
      <trkpt lat="46.75548" lon="-1.69452">
        <ele>56</ele>
        <time>2018-04-21T18:18:01Z</time>
      </trkpt>
      <trkpt lat="46.75554" lon="-1.69422">
        <ele>55</ele>
        <time>2018-04-21T18:19:01Z</time>
      </trkpt>
      <trkpt lat="46.75565" lon="-1.69371">
        <ele>55</ele>
        <time>2018-04-21T18:20:01Z</time>
      </trkpt>
      <trkpt lat="46.75579" lon="-1.69309">
        <ele>54</ele>
        <time>2018-04-21T18:21:01Z</time>
      </trkpt>
      <trkpt lat="46.75602" lon="-1.69206">
        <ele>51</ele>
        <time>2018-04-21T18:22:01Z</time>
      </trkpt>
      <trkpt lat="46.75606" lon="-1.69184">
        <ele>51</ele>
        <time>2018-04-21T18:23:01Z</time>
      </trkpt>
      <trkpt lat="46.75609" lon="-1.6916">
        <ele>51</ele>
        <time>2018-04-21T18:24:01Z</time>
      </trkpt>
      <trkpt lat="46.75611" lon="-1.69143">
        <ele>51</ele>
        <time>2018-04-21T18:25:01Z</time>
      </trkpt>
      <trkpt lat="46.75612" lon="-1.69125">
        <ele>50</ele>
        <time>2018-04-21T18:26:01Z</time>
      </trkpt>
      <trkpt lat="46.75612" lon="-1.69102">
        <ele>50</ele>
        <time>2018-04-21T18:27:01Z</time>
      </trkpt>
      <trkpt lat="46.75613" lon="-1.6907">
        <ele>50</ele>
        <time>2018-04-21T18:28:01Z</time>
      </trkpt>
      <trkpt lat="46.75613" lon="-1.69035">
        <ele>50</ele>
        <time>2018-04-21T18:29:01Z</time>
      </trkpt>
      <trkpt lat="46.75613" lon="-1.69008">
        <ele>49</ele>
        <time>2018-04-21T18:30:01Z</time>
      </trkpt>
      <trkpt lat="46.75613" lon="-1.68991">
        <ele>49</ele>
        <time>2018-04-21T18:31:01Z</time>
      </trkpt>
      <trkpt lat="46.75614" lon="-1.68975">
        <ele>48</ele>
        <time>2018-04-21T18:32:01Z</time>
      </trkpt>
      <trkpt lat="46.75616" lon="-1.68954">
        <ele>48</ele>
        <time>2018-04-21T18:33:01Z</time>
      </trkpt>
      <trkpt lat="46.75618" lon="-1.68942">
        <ele>47</ele>
        <time>2018-04-21T18:34:01Z</time>
      </trkpt>
      <trkpt lat="46.75622" lon="-1.68925">
        <ele>47</ele>
        <time>2018-04-21T18:35:01Z</time>
      </trkpt>
      <trkpt lat="46.75628" lon="-1.68907">
        <ele>46</ele>
        <time>2018-04-21T18:36:01Z</time>
      </trkpt>
      <trkpt lat="46.7564" lon="-1.68878">
        <ele>45</ele>
        <time>2018-04-21T18:37:01Z</time>
      </trkpt>
      <trkpt lat="46.7565" lon="-1.68856">
        <ele>45</ele>
        <time>2018-04-21T18:38:01Z</time>
      </trkpt>
      <trkpt lat="46.75661" lon="-1.6884">
        <ele>44</ele>
        <time>2018-04-21T18:39:01Z</time>
      </trkpt>
      <trkpt lat="46.75668" lon="-1.6883">
        <ele>44</ele>
        <time>2018-04-21T18:40:01Z</time>
      </trkpt>
      <trkpt lat="46.75676" lon="-1.68817">
        <ele>43</ele>
        <time>2018-04-21T18:41:01Z</time>
      </trkpt>
      <trkpt lat="46.7568" lon="-1.6881">
        <ele>43</ele>
        <time>2018-04-21T18:42:01Z</time>
      </trkpt>
      <trkpt lat="46.75687" lon="-1.68797">
        <ele>42</ele>
        <time>2018-04-21T18:43:01Z</time>
      </trkpt>
      <trkpt lat="46.75695" lon="-1.68783">
        <ele>42</ele>
        <time>2018-04-21T18:44:01Z</time>
      </trkpt>
      <trkpt lat="46.757" lon="-1.68775">
        <ele>41</ele>
        <time>2018-04-21T18:45:01Z</time>
      </trkpt>
      <trkpt lat="46.75705" lon="-1.68761">
        <ele>41</ele>
        <time>2018-04-21T18:46:01Z</time>
      </trkpt>
      <trkpt lat="46.75708" lon="-1.68745">
        <ele>40</ele>
        <time>2018-04-21T18:47:01Z</time>
      </trkpt>
      <trkpt lat="46.75711" lon="-1.68733">
        <ele>40</ele>
        <time>2018-04-21T18:48:01Z</time>
      </trkpt>
      <trkpt lat="46.75715" lon="-1.68708">
        <ele>40</ele>
        <time>2018-04-21T18:49:01Z</time>
      </trkpt>
      <trkpt lat="46.75717" lon="-1.68689">
        <ele>39</ele>
        <time>2018-04-21T18:50:01Z</time>
      </trkpt>
      <trkpt lat="46.75719" lon="-1.68654">
        <ele>38</ele>
        <time>2018-04-21T18:51:01Z</time>
      </trkpt>
      <trkpt lat="46.75721" lon="-1.68606">
        <ele>36</ele>
        <time>2018-04-21T18:52:01Z</time>
      </trkpt>
      <trkpt lat="46.75725" lon="-1.68545">
        <ele>34</ele>
        <time>2018-04-21T18:53:01Z</time>
      </trkpt>
      <trkpt lat="46.75725" lon="-1.68539">
        <ele>34</ele>
        <time>2018-04-21T18:54:01Z</time>
      </trkpt>
      <trkpt lat="46.75728" lon="-1.68484">
        <ele>33</ele>
        <time>2018-04-21T18:55:01Z</time>
      </trkpt>
      <trkpt lat="46.75728" lon="-1.68473">
        <ele>33</ele>
        <time>2018-04-21T18:56:01Z</time>
      </trkpt>
      <trkpt lat="46.75732" lon="-1.68412">
        <ele>32</ele>
        <time>2018-04-21T18:57:01Z</time>
      </trkpt>
      <trkpt lat="46.75735" lon="-1.68345">
        <ele>31</ele>
        <time>2018-04-21T18:58:01Z</time>
      </trkpt>
      <trkpt lat="46.75735" lon="-1.68332">
        <ele>30</ele>
        <time>2018-04-21T18:59:01Z</time>
      </trkpt>
      <trkpt lat="46.75734" lon="-1.68323">
        <ele>30</ele>
        <time>2018-04-21T19:00:01Z</time>
      </trkpt>
      <trkpt lat="46.75731" lon="-1.68314">
        <ele>30</ele>
        <time>2018-04-21T19:01:01Z</time>
      </trkpt>
      <trkpt lat="46.75727" lon="-1.68306">
        <ele>30</ele>
        <time>2018-04-21T19:02:01Z</time>
      </trkpt>
      <trkpt lat="46.75727" lon="-1.68306">
        <ele>30</ele>
        <time>2018-04-21T19:03:01Z</time>
      </trkpt>
      <trkpt lat="46.75741" lon="-1.68289">
        <ele>29</ele>
        <time>2018-04-21T19:04:01Z</time>
      </trkpt>
      <trkpt lat="46.75759" lon="-1.68268">
        <ele>29</ele>
        <time>2018-04-21T19:05:01Z</time>
      </trkpt>
      <trkpt lat="46.75772" lon="-1.68252">
        <ele>28</ele>
        <time>2018-04-21T19:06:01Z</time>
      </trkpt>
      <trkpt lat="46.75777" lon="-1.68247">
        <ele>28</ele>
        <time>2018-04-21T19:07:01Z</time>
      </trkpt>
      <trkpt lat="46.75799" lon="-1.68221">
        <ele>28</ele>
        <time>2018-04-21T19:08:01Z</time>
      </trkpt>
      <trkpt lat="46.75829" lon="-1.68185">
        <ele>27</ele>
        <time>2018-04-21T19:09:01Z</time>
      </trkpt>
      <trkpt lat="46.75854" lon="-1.68156">
        <ele>27</ele>
        <time>2018-04-21T19:10:01Z</time>
      </trkpt>
      <trkpt lat="46.75872" lon="-1.68133">
        <ele>27</ele>
        <time>2018-04-21T19:11:01Z</time>
      </trkpt>
      <trkpt lat="46.759" lon="-1.681">
        <ele>26</ele>
        <time>2018-04-21T19:12:01Z</time>
      </trkpt>
      <trkpt lat="46.75923" lon="-1.68075">
        <ele>25</ele>
        <time>2018-04-21T19:13:01Z</time>
      </trkpt>
      <trkpt lat="46.75931" lon="-1.68069">
        <ele>25</ele>
        <time>2018-04-21T19:14:01Z</time>
      </trkpt>
      <trkpt lat="46.75945" lon="-1.68062">
        <ele>24</ele>
        <time>2018-04-21T19:15:01Z</time>
      </trkpt>
      <trkpt lat="46.75959" lon="-1.68052">
        <ele>24</ele>
        <time>2018-04-21T19:16:01Z</time>
      </trkpt>
      <trkpt lat="46.75967" lon="-1.68047">
        <ele>24</ele>
        <time>2018-04-21T19:17:01Z</time>
      </trkpt>
      <trkpt lat="46.75983" lon="-1.68035">
        <ele>24</ele>
        <time>2018-04-21T19:18:01Z</time>
      </trkpt>
      <trkpt lat="46.75998" lon="-1.68023">
        <ele>24</ele>
        <time>2018-04-21T19:19:01Z</time>
      </trkpt>
      <trkpt lat="46.76009" lon="-1.68009">
        <ele>24</ele>
        <time>2018-04-21T19:20:01Z</time>
      </trkpt>
      <trkpt lat="46.76024" lon="-1.67986">
        <ele>23</ele>
        <time>2018-04-21T19:21:01Z</time>
      </trkpt>
      <trkpt lat="46.7604" lon="-1.67954">
        <ele>21</ele>
        <time>2018-04-21T19:22:01Z</time>
      </trkpt>
      <trkpt lat="46.76055" lon="-1.67926">
        <ele>19</ele>
        <time>2018-04-21T19:23:01Z</time>
      </trkpt>
      <trkpt lat="46.76069" lon="-1.67896">
        <ele>18</ele>
        <time>2018-04-21T19:24:01Z</time>
      </trkpt>
      <trkpt lat="46.76072" lon="-1.6789">
        <ele>18</ele>
        <time>2018-04-21T19:25:01Z</time>
      </trkpt>
      <trkpt lat="46.76234" lon="-1.67539">
        <ele>15</ele>
        <time>2018-04-21T19:26:01Z</time>
      </trkpt>
      <trkpt lat="46.76246" lon="-1.67516">
        <ele>14</ele>
        <time>2018-04-21T19:27:01Z</time>
      </trkpt>
      <trkpt lat="46.76256" lon="-1.67498">
        <ele>14</ele>
        <time>2018-04-21T19:28:01Z</time>
      </trkpt>
      <trkpt lat="46.76285" lon="-1.67453">
        <ele>13</ele>
        <time>2018-04-21T19:29:01Z</time>
      </trkpt>
      <trkpt lat="46.763" lon="-1.6743">
        <ele>13</ele>
        <time>2018-04-21T19:30:01Z</time>
      </trkpt>
      <trkpt lat="46.76317" lon="-1.67408">
        <ele>13</ele>
        <time>2018-04-21T19:31:01Z</time>
      </trkpt>
      <trkpt lat="46.76329" lon="-1.67392">
        <ele>13</ele>
        <time>2018-04-21T19:32:01Z</time>
      </trkpt>
      <trkpt lat="46.76353" lon="-1.67363">
        <ele>13</ele>
        <time>2018-04-21T19:33:01Z</time>
      </trkpt>
      <trkpt lat="46.76363" lon="-1.67353">
        <ele>13</ele>
        <time>2018-04-21T19:34:01Z</time>
      </trkpt>
      <trkpt lat="46.76391" lon="-1.67324">
        <ele>12</ele>
        <time>2018-04-21T19:35:01Z</time>
      </trkpt>
      <trkpt lat="46.76413" lon="-1.67305">
        <ele>12</ele>
        <time>2018-04-21T19:36:01Z</time>
      </trkpt>
      <trkpt lat="46.76423" lon="-1.67296">
        <ele>12</ele>
        <time>2018-04-21T19:37:01Z</time>
      </trkpt>
      <trkpt lat="46.76434" lon="-1.67288">
        <ele>13</ele>
        <time>2018-04-21T19:38:01Z</time>
      </trkpt>
      <trkpt lat="46.76441" lon="-1.67283">
        <ele>13</ele>
        <time>2018-04-21T19:39:01Z</time>
      </trkpt>
      <trkpt lat="46.76458" lon="-1.67273">
        <ele>13</ele>
        <time>2018-04-21T19:40:01Z</time>
      </trkpt>
      <trkpt lat="46.76481" lon="-1.67259">
        <ele>13</ele>
        <time>2018-04-21T19:41:01Z</time>
      </trkpt>
      <trkpt lat="46.76509" lon="-1.67245">
        <ele>13</ele>
        <time>2018-04-21T19:42:01Z</time>
      </trkpt>
      <trkpt lat="46.76538" lon="-1.67231">
        <ele>13</ele>
        <time>2018-04-21T19:43:01Z</time>
      </trkpt>
      <trkpt lat="46.76544" lon="-1.67228">
        <ele>13</ele>
        <time>2018-04-21T19:44:01Z</time>
      </trkpt>
      <trkpt lat="46.76568" lon="-1.67217">
        <ele>13</ele>
        <time>2018-04-21T19:45:01Z</time>
      </trkpt>
      <trkpt lat="46.76608" lon="-1.672">
        <ele>14</ele>
        <time>2018-04-21T19:46:01Z</time>
      </trkpt>
      <trkpt lat="46.76637" lon="-1.67186">
        <ele>14</ele>
        <time>2018-04-21T19:47:01Z</time>
      </trkpt>
      <trkpt lat="46.76666" lon="-1.67172">
        <ele>15</ele>
        <time>2018-04-21T19:48:01Z</time>
      </trkpt>
      <trkpt lat="46.7671" lon="-1.67153">
        <ele>15</ele>
        <time>2018-04-21T19:49:01Z</time>
      </trkpt>
      <trkpt lat="46.76718" lon="-1.67149">
        <ele>15</ele>
        <time>2018-04-21T19:50:01Z</time>
      </trkpt>
      <trkpt lat="46.76726" lon="-1.67146">
        <ele>15</ele>
        <time>2018-04-21T19:51:01Z</time>
      </trkpt>
      <trkpt lat="46.76729" lon="-1.67144">
        <ele>15</ele>
        <time>2018-04-21T19:52:01Z</time>
      </trkpt>
      <trkpt lat="46.76735" lon="-1.67141">
        <ele>15</ele>
        <time>2018-04-21T19:53:01Z</time>
      </trkpt>
      <trkpt lat="46.76774" lon="-1.67123">
        <ele>17</ele>
        <time>2018-04-21T19:54:01Z</time>
      </trkpt>
      <trkpt lat="46.76804" lon="-1.67108">
        <ele>19</ele>
        <time>2018-04-21T19:55:01Z</time>
      </trkpt>
      <trkpt lat="46.76838" lon="-1.67094">
        <ele>20</ele>
        <time>2018-04-21T19:56:01Z</time>
      </trkpt>
      <trkpt lat="46.76862" lon="-1.67082">
        <ele>22</ele>
        <time>2018-04-21T19:57:01Z</time>
      </trkpt>
      <trkpt lat="46.76893" lon="-1.67068">
        <ele>24</ele>
        <time>2018-04-21T19:58:01Z</time>
      </trkpt>
      <trkpt lat="46.76912" lon="-1.6706">
        <ele>25</ele>
        <time>2018-04-21T19:59:01Z</time>
      </trkpt>
      <trkpt lat="46.76923" lon="-1.67057">
        <ele>25</ele>
        <time>2018-04-21T20:00:01Z</time>
      </trkpt>
      <trkpt lat="46.76931" lon="-1.67057">
        <ele>26</ele>
        <time>2018-04-21T20:01:01Z</time>
      </trkpt>
      <trkpt lat="46.76945" lon="-1.67057">
        <ele>27</ele>
        <time>2018-04-21T20:02:01Z</time>
      </trkpt>
      <trkpt lat="46.76954" lon="-1.67059">
        <ele>27</ele>
        <time>2018-04-21T20:03:01Z</time>
      </trkpt>
      <trkpt lat="46.76969" lon="-1.67064">
        <ele>28</ele>
        <time>2018-04-21T20:04:01Z</time>
      </trkpt>
      <trkpt lat="46.76976" lon="-1.67066">
        <ele>28</ele>
        <time>2018-04-21T20:05:01Z</time>
      </trkpt>
      <trkpt lat="46.76992" lon="-1.67072">
        <ele>29</ele>
        <time>2018-04-21T20:06:01Z</time>
      </trkpt>
      <trkpt lat="46.77039" lon="-1.67089">
        <ele>30</ele>
        <time>2018-04-21T20:07:01Z</time>
      </trkpt>
      <trkpt lat="46.7705" lon="-1.67093">
        <ele>31</ele>
        <time>2018-04-21T20:08:01Z</time>
      </trkpt>
      <trkpt lat="46.77063" lon="-1.67101">
        <ele>31</ele>
        <time>2018-04-21T20:09:01Z</time>
      </trkpt>
      <trkpt lat="46.77074" lon="-1.67105">
        <ele>32</ele>
        <time>2018-04-21T20:10:01Z</time>
      </trkpt>
      <trkpt lat="46.77118" lon="-1.67121">
        <ele>32</ele>
        <time>2018-04-21T20:11:01Z</time>
      </trkpt>
      <trkpt lat="46.77121" lon="-1.67122">
        <ele>32</ele>
        <time>2018-04-21T20:12:01Z</time>
      </trkpt>
      <trkpt lat="46.77132" lon="-1.67123">
        <ele>32</ele>
        <time>2018-04-21T20:13:01Z</time>
      </trkpt>
      <trkpt lat="46.7714" lon="-1.67123">
        <ele>32</ele>
        <time>2018-04-21T20:14:01Z</time>
      </trkpt>
      <trkpt lat="46.77145" lon="-1.67123">
        <ele>32</ele>
        <time>2018-04-21T20:15:01Z</time>
      </trkpt>
      <trkpt lat="46.77154" lon="-1.67121">
        <ele>32</ele>
        <time>2018-04-21T20:16:01Z</time>
      </trkpt>
      <trkpt lat="46.77156" lon="-1.67119">
        <ele>32</ele>
        <time>2018-04-21T20:17:01Z</time>
      </trkpt>
      <trkpt lat="46.77157" lon="-1.67118">
        <ele>33</ele>
        <time>2018-04-21T20:18:01Z</time>
      </trkpt>
      <trkpt lat="46.77159" lon="-1.67116">
        <ele>33</ele>
        <time>2018-04-21T20:19:01Z</time>
      </trkpt>
      <trkpt lat="46.7716" lon="-1.67115">
        <ele>33</ele>
        <time>2018-04-21T20:20:01Z</time>
      </trkpt>
      <trkpt lat="46.77162" lon="-1.67113">
        <ele>33</ele>
        <time>2018-04-21T20:21:01Z</time>
      </trkpt>
      <trkpt lat="46.77164" lon="-1.67112">
        <ele>33</ele>
        <time>2018-04-21T20:22:01Z</time>
      </trkpt>
      <trkpt lat="46.77165" lon="-1.67112">
        <ele>33</ele>
        <time>2018-04-21T20:23:01Z</time>
      </trkpt>
      <trkpt lat="46.77167" lon="-1.67111">
        <ele>33</ele>
        <time>2018-04-21T20:24:01Z</time>
      </trkpt>
      <trkpt lat="46.77169" lon="-1.67111">
        <ele>33</ele>
        <time>2018-04-21T20:25:01Z</time>
      </trkpt>
      <trkpt lat="46.77171" lon="-1.67111">
        <ele>33</ele>
        <time>2018-04-21T20:26:01Z</time>
      </trkpt>
      <trkpt lat="46.77173" lon="-1.67111">
        <ele>32</ele>
        <time>2018-04-21T20:27:01Z</time>
      </trkpt>
      <trkpt lat="46.77175" lon="-1.67112">
        <ele>32</ele>
        <time>2018-04-21T20:28:01Z</time>
      </trkpt>
      <trkpt lat="46.77176" lon="-1.67112">
        <ele>32</ele>
        <time>2018-04-21T20:29:01Z</time>
      </trkpt>
      <trkpt lat="46.77178" lon="-1.67113">
        <ele>32</ele>
        <time>2018-04-21T20:30:01Z</time>
      </trkpt>
      <trkpt lat="46.77181" lon="-1.67116">
        <ele>32</ele>
        <time>2018-04-21T20:31:01Z</time>
      </trkpt>
      <trkpt lat="46.77189" lon="-1.6711">
        <ele>32</ele>
        <time>2018-04-21T20:32:01Z</time>
      </trkpt>
      <trkpt lat="46.77197" lon="-1.67104">
        <ele>32</ele>
        <time>2018-04-21T20:33:01Z</time>
      </trkpt>
      <trkpt lat="46.77205" lon="-1.67102">
        <ele>32</ele>
        <time>2018-04-21T20:34:01Z</time>
      </trkpt>
      <trkpt lat="46.77216" lon="-1.6709">
        <ele>31</ele>
        <time>2018-04-21T20:35:01Z</time>
      </trkpt>
      <trkpt lat="46.77233" lon="-1.67071">
        <ele>30</ele>
        <time>2018-04-21T20:36:01Z</time>
      </trkpt>
      <trkpt lat="46.77236" lon="-1.67067">
        <ele>30</ele>
        <time>2018-04-21T20:37:01Z</time>
      </trkpt>
      <trkpt lat="46.77242" lon="-1.67061">
        <ele>30</ele>
        <time>2018-04-21T20:38:01Z</time>
      </trkpt>
      <trkpt lat="46.77245" lon="-1.67058">
        <ele>30</ele>
        <time>2018-04-21T20:39:01Z</time>
      </trkpt>
      <trkpt lat="46.77251" lon="-1.67051">
        <ele>29</ele>
        <time>2018-04-21T20:40:01Z</time>
      </trkpt>
      <trkpt lat="46.7726" lon="-1.67041">
        <ele>29</ele>
        <time>2018-04-21T20:41:01Z</time>
      </trkpt>
      <trkpt lat="46.7727" lon="-1.6703">
        <ele>29</ele>
        <time>2018-04-21T20:42:01Z</time>
      </trkpt>
      <trkpt lat="46.77279" lon="-1.6702">
        <ele>29</ele>
        <time>2018-04-21T20:43:01Z</time>
      </trkpt>
      <trkpt lat="46.77288" lon="-1.6701">
        <ele>29</ele>
        <time>2018-04-21T20:44:01Z</time>
      </trkpt>
      <trkpt lat="46.77295" lon="-1.67002">
        <ele>29</ele>
        <time>2018-04-21T20:45:01Z</time>
      </trkpt>
      <trkpt lat="46.77297" lon="-1.67">
        <ele>29</ele>
        <time>2018-04-21T20:46:01Z</time>
      </trkpt>
      <trkpt lat="46.77302" lon="-1.66996">
        <ele>28</ele>
        <time>2018-04-21T20:47:01Z</time>
      </trkpt>
      <trkpt lat="46.77322" lon="-1.66972">
        <ele>28</ele>
        <time>2018-04-21T20:48:01Z</time>
      </trkpt>
      <trkpt lat="46.7733" lon="-1.66961">
        <ele>28</ele>
        <time>2018-04-21T20:49:01Z</time>
      </trkpt>
      <trkpt lat="46.77337" lon="-1.6695">
        <ele>27</ele>
        <time>2018-04-21T20:50:01Z</time>
      </trkpt>
      <trkpt lat="46.77343" lon="-1.66939">
        <ele>27</ele>
        <time>2018-04-21T20:51:01Z</time>
      </trkpt>
      <trkpt lat="46.7735" lon="-1.66928">
        <ele>27</ele>
        <time>2018-04-21T20:52:01Z</time>
      </trkpt>
      <trkpt lat="46.77356" lon="-1.66916">
        <ele>27</ele>
        <time>2018-04-21T20:53:01Z</time>
      </trkpt>
      <trkpt lat="46.77362" lon="-1.66904">
        <ele>27</ele>
        <time>2018-04-21T20:54:01Z</time>
      </trkpt>
      <trkpt lat="46.77367" lon="-1.66893">
        <ele>27</ele>
        <time>2018-04-21T20:55:01Z</time>
      </trkpt>
      <trkpt lat="46.77372" lon="-1.66881">
        <ele>27</ele>
        <time>2018-04-21T20:56:01Z</time>
      </trkpt>
      <trkpt lat="46.77376" lon="-1.66869">
        <ele>26</ele>
        <time>2018-04-21T20:57:01Z</time>
      </trkpt>
      <trkpt lat="46.7738" lon="-1.66856">
        <ele>26</ele>
        <time>2018-04-21T20:58:01Z</time>
      </trkpt>
      <trkpt lat="46.77385" lon="-1.66842">
        <ele>26</ele>
        <time>2018-04-21T20:59:01Z</time>
      </trkpt>
      <trkpt lat="46.77389" lon="-1.66827">
        <ele>26</ele>
        <time>2018-04-21T21:00:01Z</time>
      </trkpt>
      <trkpt lat="46.77392" lon="-1.66812">
        <ele>25</ele>
        <time>2018-04-21T21:01:01Z</time>
      </trkpt>
      <trkpt lat="46.77395" lon="-1.66802">
        <ele>25</ele>
        <time>2018-04-21T21:02:01Z</time>
      </trkpt>
      <trkpt lat="46.77397" lon="-1.66794">
        <ele>25</ele>
        <time>2018-04-21T21:03:01Z</time>
      </trkpt>
      <trkpt lat="46.77399" lon="-1.66786">
        <ele>25</ele>
        <time>2018-04-21T21:04:01Z</time>
      </trkpt>
      <trkpt lat="46.77403" lon="-1.6677">
        <ele>24</ele>
        <time>2018-04-21T21:05:01Z</time>
      </trkpt>
      <trkpt lat="46.7741" lon="-1.66746">
        <ele>24</ele>
        <time>2018-04-21T21:06:01Z</time>
      </trkpt>
      <trkpt lat="46.77412" lon="-1.66734">
        <ele>25</ele>
        <time>2018-04-21T21:07:01Z</time>
      </trkpt>
      <trkpt lat="46.77415" lon="-1.66714">
        <ele>25</ele>
        <time>2018-04-21T21:08:01Z</time>
      </trkpt>
      <trkpt lat="46.77418" lon="-1.6668">
        <ele>25</ele>
        <time>2018-04-21T21:09:01Z</time>
      </trkpt>
      <trkpt lat="46.77419" lon="-1.66643">
        <ele>24</ele>
        <time>2018-04-21T21:10:01Z</time>
      </trkpt>
      <trkpt lat="46.77422" lon="-1.66602">
        <ele>23</ele>
        <time>2018-04-21T21:11:01Z</time>
      </trkpt>
      <trkpt lat="46.77422" lon="-1.66598">
        <ele>23</ele>
        <time>2018-04-21T21:12:01Z</time>
      </trkpt>
      <trkpt lat="46.77426" lon="-1.66556">
        <ele>21</ele>
        <time>2018-04-21T21:13:01Z</time>
      </trkpt>
      <trkpt lat="46.77429" lon="-1.66511">
        <ele>20</ele>
        <time>2018-04-21T21:14:01Z</time>
      </trkpt>
      <trkpt lat="46.7743" lon="-1.66493">
        <ele>19</ele>
        <time>2018-04-21T21:15:01Z</time>
      </trkpt>
      <trkpt lat="46.77432" lon="-1.66478">
        <ele>18</ele>
        <time>2018-04-21T21:16:01Z</time>
      </trkpt>
      <trkpt lat="46.77435" lon="-1.66437">
        <ele>16</ele>
        <time>2018-04-21T21:17:01Z</time>
      </trkpt>
      <trkpt lat="46.77439" lon="-1.66385">
        <ele>15</ele>
        <time>2018-04-21T21:18:01Z</time>
      </trkpt>
      <trkpt lat="46.77442" lon="-1.66348">
        <ele>15</ele>
        <time>2018-04-21T21:19:01Z</time>
      </trkpt>
      <trkpt lat="46.77444" lon="-1.6632">
        <ele>15</ele>
        <time>2018-04-21T21:20:01Z</time>
      </trkpt>
      <trkpt lat="46.77444" lon="-1.66317">
        <ele>15</ele>
        <time>2018-04-21T21:21:01Z</time>
      </trkpt>
      <trkpt lat="46.77446" lon="-1.66289">
        <ele>16</ele>
        <time>2018-04-21T21:22:01Z</time>
      </trkpt>
      <trkpt lat="46.77446" lon="-1.66288">
        <ele>16</ele>
        <time>2018-04-21T21:23:01Z</time>
      </trkpt>
      <trkpt lat="46.77446" lon="-1.66283">
        <ele>16</ele>
        <time>2018-04-21T21:24:01Z</time>
      </trkpt>
      <trkpt lat="46.77446" lon="-1.6628">
        <ele>16</ele>
        <time>2018-04-21T21:25:01Z</time>
      </trkpt>
      <trkpt lat="46.77447" lon="-1.66278">
        <ele>16</ele>
        <time>2018-04-21T21:26:01Z</time>
      </trkpt>
      <trkpt lat="46.77448" lon="-1.66253">
        <ele>17</ele>
        <time>2018-04-21T21:27:01Z</time>
      </trkpt>
      <trkpt lat="46.77449" lon="-1.66245">
        <ele>17</ele>
        <time>2018-04-21T21:28:01Z</time>
      </trkpt>
      <trkpt lat="46.7745" lon="-1.66226">
        <ele>17</ele>
        <time>2018-04-21T21:29:01Z</time>
      </trkpt>
      <trkpt lat="46.77452" lon="-1.66207">
        <ele>18</ele>
        <time>2018-04-21T21:30:01Z</time>
      </trkpt>
      <trkpt lat="46.77454" lon="-1.6619">
        <ele>18</ele>
        <time>2018-04-21T21:31:01Z</time>
      </trkpt>
      <trkpt lat="46.77457" lon="-1.66178">
        <ele>18</ele>
        <time>2018-04-21T21:32:01Z</time>
      </trkpt>
      <trkpt lat="46.77459" lon="-1.66172">
        <ele>18</ele>
        <time>2018-04-21T21:33:01Z</time>
      </trkpt>
      <trkpt lat="46.77463" lon="-1.66159">
        <ele>19</ele>
        <time>2018-04-21T21:34:01Z</time>
      </trkpt>
      <trkpt lat="46.77469" lon="-1.66142">
        <ele>19</ele>
        <time>2018-04-21T21:35:01Z</time>
      </trkpt>
      <trkpt lat="46.7748" lon="-1.66124">
        <ele>20</ele>
        <time>2018-04-21T21:36:01Z</time>
      </trkpt>
      <trkpt lat="46.77486" lon="-1.66112">
        <ele>20</ele>
        <time>2018-04-21T21:37:01Z</time>
      </trkpt>
      <trkpt lat="46.77507" lon="-1.66087">
        <ele>21</ele>
        <time>2018-04-21T21:38:01Z</time>
      </trkpt>
      <trkpt lat="46.77532" lon="-1.66056">
        <ele>21</ele>
        <time>2018-04-21T21:39:01Z</time>
      </trkpt>
      <trkpt lat="46.77533" lon="-1.66055">
        <ele>21</ele>
        <time>2018-04-21T21:40:01Z</time>
      </trkpt>
      <trkpt lat="46.77562" lon="-1.66019">
        <ele>21</ele>
        <time>2018-04-21T21:41:01Z</time>
      </trkpt>
      <trkpt lat="46.77563" lon="-1.66018">
        <ele>21</ele>
        <time>2018-04-21T21:42:01Z</time>
      </trkpt>
      <trkpt lat="46.77591" lon="-1.6599">
        <ele>21</ele>
        <time>2018-04-21T21:43:01Z</time>
      </trkpt>
      <trkpt lat="46.77606" lon="-1.65972">
        <ele>22</ele>
        <time>2018-04-21T21:44:01Z</time>
      </trkpt>
      <trkpt lat="46.77616" lon="-1.65958">
        <ele>23</ele>
        <time>2018-04-21T21:45:01Z</time>
      </trkpt>
      <trkpt lat="46.77629" lon="-1.65941">
        <ele>23</ele>
        <time>2018-04-21T21:46:01Z</time>
      </trkpt>
      <trkpt lat="46.77651" lon="-1.6591">
        <ele>24</ele>
        <time>2018-04-21T21:47:01Z</time>
      </trkpt>
      <trkpt lat="46.77676" lon="-1.65869">
        <ele>24</ele>
        <time>2018-04-21T21:48:01Z</time>
      </trkpt>
      <trkpt lat="46.77705" lon="-1.65823">
        <ele>24</ele>
        <time>2018-04-21T21:49:01Z</time>
      </trkpt>
      <trkpt lat="46.77727" lon="-1.65788">
        <ele>24</ele>
        <time>2018-04-21T21:50:01Z</time>
      </trkpt>
      <trkpt lat="46.77755" lon="-1.65746">
        <ele>24</ele>
        <time>2018-04-21T21:51:01Z</time>
      </trkpt>
      <trkpt lat="46.77777" lon="-1.65712">
        <ele>24</ele>
        <time>2018-04-21T21:52:01Z</time>
      </trkpt>
      <trkpt lat="46.77794" lon="-1.65683">
        <ele>24</ele>
        <time>2018-04-21T21:53:01Z</time>
      </trkpt>
      <trkpt lat="46.77808" lon="-1.65661">
        <ele>25</ele>
        <time>2018-04-21T21:54:01Z</time>
      </trkpt>
      <trkpt lat="46.77816" lon="-1.65648">
        <ele>25</ele>
        <time>2018-04-21T21:55:01Z</time>
      </trkpt>
      <trkpt lat="46.77823" lon="-1.65641">
        <ele>25</ele>
        <time>2018-04-21T21:56:01Z</time>
      </trkpt>
      <trkpt lat="46.7783" lon="-1.65632">
        <ele>25</ele>
        <time>2018-04-21T21:57:01Z</time>
      </trkpt>
      <trkpt lat="46.77834" lon="-1.65627">
        <ele>25</ele>
        <time>2018-04-21T21:58:01Z</time>
      </trkpt>
      <trkpt lat="46.77836" lon="-1.65616">
        <ele>26</ele>
        <time>2018-04-21T21:59:01Z</time>
      </trkpt>
      <trkpt lat="46.77837" lon="-1.65612">
        <ele>26</ele>
        <time>2018-04-21T22:00:01Z</time>
      </trkpt>
      <trkpt lat="46.77838" lon="-1.65608">
        <ele>26</ele>
        <time>2018-04-21T22:01:01Z</time>
      </trkpt>
      <trkpt lat="46.7784" lon="-1.65604">
        <ele>26</ele>
        <time>2018-04-21T22:02:01Z</time>
      </trkpt>
      <trkpt lat="46.77863" lon="-1.65543">
        <ele>27</ele>
        <time>2018-04-21T22:03:01Z</time>
      </trkpt>
      <trkpt lat="46.77909" lon="-1.65419">
        <ele>26</ele>
        <time>2018-04-21T22:04:01Z</time>
      </trkpt>
      <trkpt lat="46.77931" lon="-1.6536">
        <ele>26</ele>
        <time>2018-04-21T22:05:01Z</time>
      </trkpt>
      <trkpt lat="46.77945" lon="-1.65323">
        <ele>26</ele>
        <time>2018-04-21T22:06:01Z</time>
      </trkpt>
      <trkpt lat="46.77956" lon="-1.65291">
        <ele>25</ele>
        <time>2018-04-21T22:07:01Z</time>
      </trkpt>
      <trkpt lat="46.7797" lon="-1.6525">
        <ele>25</ele>
        <time>2018-04-21T22:08:01Z</time>
      </trkpt>
      <trkpt lat="46.77985" lon="-1.65207">
        <ele>25</ele>
        <time>2018-04-21T22:09:01Z</time>
      </trkpt>
      <trkpt lat="46.78005" lon="-1.65155">
        <ele>26</ele>
        <time>2018-04-21T22:10:01Z</time>
      </trkpt>
      <trkpt lat="46.7801" lon="-1.65141">
        <ele>26</ele>
        <time>2018-04-21T22:11:01Z</time>
      </trkpt>
      <trkpt lat="46.78014" lon="-1.65132">
        <ele>26</ele>
        <time>2018-04-21T22:12:01Z</time>
      </trkpt>
      <trkpt lat="46.78027" lon="-1.65099">
        <ele>26</ele>
        <time>2018-04-21T22:13:01Z</time>
      </trkpt>
      <trkpt lat="46.78041" lon="-1.65064">
        <ele>26</ele>
        <time>2018-04-21T22:14:01Z</time>
      </trkpt>
      <trkpt lat="46.78054" lon="-1.65035">
        <ele>26</ele>
        <time>2018-04-21T22:15:01Z</time>
      </trkpt>
      <trkpt lat="46.78066" lon="-1.65008">
        <ele>27</ele>
        <time>2018-04-21T22:16:01Z</time>
      </trkpt>
      <trkpt lat="46.78082" lon="-1.64973">
        <ele>27</ele>
        <time>2018-04-21T22:17:01Z</time>
      </trkpt>
      <trkpt lat="46.78102" lon="-1.64927">
        <ele>27</ele>
        <time>2018-04-21T22:18:01Z</time>
      </trkpt>
      <trkpt lat="46.78124" lon="-1.64882">
        <ele>27</ele>
        <time>2018-04-21T22:19:01Z</time>
      </trkpt>
      <trkpt lat="46.7815" lon="-1.64832">
        <ele>26</ele>
        <time>2018-04-21T22:20:01Z</time>
      </trkpt>
      <trkpt lat="46.78175" lon="-1.64781">
        <ele>27</ele>
        <time>2018-04-21T22:21:01Z</time>
      </trkpt>
      <trkpt lat="46.78196" lon="-1.64736">
        <ele>29</ele>
        <time>2018-04-21T22:22:01Z</time>
      </trkpt>
      <trkpt lat="46.78214" lon="-1.64697">
        <ele>30</ele>
        <time>2018-04-21T22:23:01Z</time>
      </trkpt>
      <trkpt lat="46.78239" lon="-1.64643">
        <ele>31</ele>
        <time>2018-04-21T22:24:01Z</time>
      </trkpt>
      <trkpt lat="46.7826" lon="-1.64603">
        <ele>32</ele>
        <time>2018-04-21T22:25:01Z</time>
      </trkpt>
      <trkpt lat="46.7828" lon="-1.64567">
        <ele>31</ele>
        <time>2018-04-21T22:26:01Z</time>
      </trkpt>
      <trkpt lat="46.78291" lon="-1.64545">
        <ele>31</ele>
        <time>2018-04-21T22:27:01Z</time>
      </trkpt>
      <trkpt lat="46.78301" lon="-1.64524">
        <ele>31</ele>
        <time>2018-04-21T22:28:01Z</time>
      </trkpt>
      <trkpt lat="46.78307" lon="-1.64511">
        <ele>31</ele>
        <time>2018-04-21T22:29:01Z</time>
      </trkpt>
      <trkpt lat="46.78313" lon="-1.64498">
        <ele>31</ele>
        <time>2018-04-21T22:30:01Z</time>
      </trkpt>
      <trkpt lat="46.78319" lon="-1.64485">
        <ele>31</ele>
        <time>2018-04-21T22:31:01Z</time>
      </trkpt>
      <trkpt lat="46.78324" lon="-1.64472">
        <ele>31</ele>
        <time>2018-04-21T22:32:01Z</time>
      </trkpt>
      <trkpt lat="46.7833" lon="-1.64458">
        <ele>31</ele>
        <time>2018-04-21T22:33:01Z</time>
      </trkpt>
      <trkpt lat="46.78339" lon="-1.64434">
        <ele>32</ele>
        <time>2018-04-21T22:34:01Z</time>
      </trkpt>
      <trkpt lat="46.7836" lon="-1.64383">
        <ele>32</ele>
        <time>2018-04-21T22:35:01Z</time>
      </trkpt>
      <trkpt lat="46.78375" lon="-1.64346">
        <ele>32</ele>
        <time>2018-04-21T22:36:01Z</time>
      </trkpt>
      <trkpt lat="46.78385" lon="-1.64317">
        <ele>32</ele>
        <time>2018-04-21T22:37:01Z</time>
      </trkpt>
      <trkpt lat="46.78394" lon="-1.64296">
        <ele>32</ele>
        <time>2018-04-21T22:38:01Z</time>
      </trkpt>
      <trkpt lat="46.78402" lon="-1.64276">
        <ele>32</ele>
        <time>2018-04-21T22:39:01Z</time>
      </trkpt>
      <trkpt lat="46.78405" lon="-1.64266">
        <ele>33</ele>
        <time>2018-04-21T22:40:01Z</time>
      </trkpt>
      <trkpt lat="46.78428" lon="-1.64197">
        <ele>32</ele>
        <time>2018-04-21T22:41:01Z</time>
      </trkpt>
      <trkpt lat="46.7845" lon="-1.64128">
        <ele>31</ele>
        <time>2018-04-21T22:42:01Z</time>
      </trkpt>
      <trkpt lat="46.78455" lon="-1.6411">
        <ele>31</ele>
        <time>2018-04-21T22:43:01Z</time>
      </trkpt>
      <trkpt lat="46.78465" lon="-1.64079">
        <ele>30</ele>
        <time>2018-04-21T22:44:01Z</time>
      </trkpt>
      <trkpt lat="46.78484" lon="-1.64019">
        <ele>31</ele>
        <time>2018-04-21T22:45:01Z</time>
      </trkpt>
      <trkpt lat="46.78494" lon="-1.6399">
        <ele>31</ele>
        <time>2018-04-21T22:46:01Z</time>
      </trkpt>
      <trkpt lat="46.78499" lon="-1.63973">
        <ele>31</ele>
        <time>2018-04-21T22:47:01Z</time>
      </trkpt>
      <trkpt lat="46.78503" lon="-1.63962">
        <ele>31</ele>
        <time>2018-04-21T22:48:01Z</time>
      </trkpt>
      <trkpt lat="46.78506" lon="-1.6395">
        <ele>31</ele>
        <time>2018-04-21T22:49:01Z</time>
      </trkpt>
      <trkpt lat="46.78509" lon="-1.63938">
        <ele>31</ele>
        <time>2018-04-21T22:50:01Z</time>
      </trkpt>
      <trkpt lat="46.7851" lon="-1.63928">
        <ele>31</ele>
        <time>2018-04-21T22:51:01Z</time>
      </trkpt>
      <trkpt lat="46.78512" lon="-1.63916">
        <ele>31</ele>
        <time>2018-04-21T22:52:01Z</time>
      </trkpt>
      <trkpt lat="46.78515" lon="-1.63883">
        <ele>31</ele>
        <time>2018-04-21T22:53:01Z</time>
      </trkpt>
      <trkpt lat="46.78517" lon="-1.63863">
        <ele>30</ele>
        <time>2018-04-21T22:54:01Z</time>
      </trkpt>
      <trkpt lat="46.78517" lon="-1.63852">
        <ele>30</ele>
        <time>2018-04-21T22:55:01Z</time>
      </trkpt>
      <trkpt lat="46.78517" lon="-1.63835">
        <ele>30</ele>
        <time>2018-04-21T22:56:01Z</time>
      </trkpt>
      <trkpt lat="46.78517" lon="-1.63822">
        <ele>30</ele>
        <time>2018-04-21T22:57:01Z</time>
      </trkpt>
      <trkpt lat="46.78517" lon="-1.63809">
        <ele>30</ele>
        <time>2018-04-21T22:58:01Z</time>
      </trkpt>
      <trkpt lat="46.78515" lon="-1.63794">
        <ele>30</ele>
        <time>2018-04-21T22:59:01Z</time>
      </trkpt>
      <trkpt lat="46.78513" lon="-1.63778">
        <ele>30</ele>
        <time>2018-04-21T23:00:01Z</time>
      </trkpt>
      <trkpt lat="46.78507" lon="-1.63742">
        <ele>30</ele>
        <time>2018-04-21T23:01:01Z</time>
      </trkpt>
      <trkpt lat="46.78503" lon="-1.63719">
        <ele>30</ele>
        <time>2018-04-21T23:02:01Z</time>
      </trkpt>
      <trkpt lat="46.78503" lon="-1.63718">
        <ele>30</ele>
        <time>2018-04-21T23:03:01Z</time>
      </trkpt>
      <trkpt lat="46.78502" lon="-1.63704">
        <ele>31</ele>
        <time>2018-04-21T23:04:01Z</time>
      </trkpt>
      <trkpt lat="46.78502" lon="-1.63688">
        <ele>31</ele>
        <time>2018-04-21T23:05:01Z</time>
      </trkpt>
      <trkpt lat="46.78502" lon="-1.63675">
        <ele>31</ele>
        <time>2018-04-21T23:06:01Z</time>
      </trkpt>
      <trkpt lat="46.78503" lon="-1.63659">
        <ele>31</ele>
        <time>2018-04-21T23:07:01Z</time>
      </trkpt>
      <trkpt lat="46.78507" lon="-1.63623">
        <ele>32</ele>
        <time>2018-04-21T23:08:01Z</time>
      </trkpt>
      <trkpt lat="46.7851" lon="-1.63597">
        <ele>33</ele>
        <time>2018-04-21T23:09:01Z</time>
      </trkpt>
      <trkpt lat="46.7851" lon="-1.63581">
        <ele>33</ele>
        <time>2018-04-21T23:10:01Z</time>
      </trkpt>
      <trkpt lat="46.78511" lon="-1.6357">
        <ele>33</ele>
        <time>2018-04-21T23:11:01Z</time>
      </trkpt>
      <trkpt lat="46.7851" lon="-1.63558">
        <ele>33</ele>
        <time>2018-04-21T23:12:01Z</time>
      </trkpt>
      <trkpt lat="46.7851" lon="-1.63552">
        <ele>33</ele>
        <time>2018-04-21T23:13:01Z</time>
      </trkpt>
      <trkpt lat="46.78507" lon="-1.63528">
        <ele>33</ele>
        <time>2018-04-21T23:14:01Z</time>
      </trkpt>
      <trkpt lat="46.78504" lon="-1.63511">
        <ele>33</ele>
        <time>2018-04-21T23:15:01Z</time>
      </trkpt>
      <trkpt lat="46.78499" lon="-1.63492">
        <ele>33</ele>
        <time>2018-04-21T23:16:01Z</time>
      </trkpt>
      <trkpt lat="46.78494" lon="-1.63476">
        <ele>33</ele>
        <time>2018-04-21T23:17:01Z</time>
      </trkpt>
      <trkpt lat="46.78483" lon="-1.63441">
        <ele>33</ele>
        <time>2018-04-21T23:18:01Z</time>
      </trkpt>
      <trkpt lat="46.78477" lon="-1.63418">
        <ele>32</ele>
        <time>2018-04-21T23:19:01Z</time>
      </trkpt>
      <trkpt lat="46.78473" lon="-1.63399">
        <ele>32</ele>
        <time>2018-04-21T23:20:01Z</time>
      </trkpt>
      <trkpt lat="46.78469" lon="-1.63374">
        <ele>33</ele>
        <time>2018-04-21T23:21:01Z</time>
      </trkpt>
      <trkpt lat="46.78464" lon="-1.6333">
        <ele>33</ele>
        <time>2018-04-21T23:22:01Z</time>
      </trkpt>
      <trkpt lat="46.78459" lon="-1.63287">
        <ele>33</ele>
        <time>2018-04-21T23:23:01Z</time>
      </trkpt>
      <trkpt lat="46.78458" lon="-1.63252">
        <ele>32</ele>
        <time>2018-04-21T23:24:01Z</time>
      </trkpt>
      <trkpt lat="46.78456" lon="-1.63203">
        <ele>33</ele>
        <time>2018-04-21T23:25:01Z</time>
      </trkpt>
      <trkpt lat="46.78455" lon="-1.63166">
        <ele>33</ele>
        <time>2018-04-21T23:26:01Z</time>
      </trkpt>
      <trkpt lat="46.78455" lon="-1.63106">
        <ele>36</ele>
        <time>2018-04-21T23:27:01Z</time>
      </trkpt>
      <trkpt lat="46.78454" lon="-1.63085">
        <ele>36</ele>
        <time>2018-04-21T23:28:01Z</time>
      </trkpt>
      <trkpt lat="46.78453" lon="-1.63072">
        <ele>37</ele>
        <time>2018-04-21T23:29:01Z</time>
      </trkpt>
      <trkpt lat="46.78452" lon="-1.63066">
        <ele>37</ele>
        <time>2018-04-21T23:30:01Z</time>
      </trkpt>
      <trkpt lat="46.78443" lon="-1.63041">
        <ele>38</ele>
        <time>2018-04-21T23:31:01Z</time>
      </trkpt>
      <trkpt lat="46.78423" lon="-1.62999">
        <ele>40</ele>
        <time>2018-04-21T23:32:01Z</time>
      </trkpt>
      <trkpt lat="46.78391" lon="-1.62932">
        <ele>42</ele>
        <time>2018-04-21T23:33:01Z</time>
      </trkpt>
      <trkpt lat="46.7838" lon="-1.62906">
        <ele>43</ele>
        <time>2018-04-21T23:34:01Z</time>
      </trkpt>
      <trkpt lat="46.78379" lon="-1.62902">
        <ele>43</ele>
        <time>2018-04-21T23:35:01Z</time>
      </trkpt>
      <trkpt lat="46.78372" lon="-1.6288">
        <ele>43</ele>
        <time>2018-04-21T23:36:01Z</time>
      </trkpt>
      <trkpt lat="46.78365" lon="-1.62859">
        <ele>44</ele>
        <time>2018-04-21T23:37:01Z</time>
      </trkpt>
      <trkpt lat="46.7835" lon="-1.62802">
        <ele>46</ele>
        <time>2018-04-21T23:38:01Z</time>
      </trkpt>
      <trkpt lat="46.78344" lon="-1.62776">
        <ele>47</ele>
        <time>2018-04-21T23:39:01Z</time>
      </trkpt>
      <trkpt lat="46.78338" lon="-1.6274">
        <ele>48</ele>
        <time>2018-04-21T23:40:01Z</time>
      </trkpt>
      <trkpt lat="46.78332" lon="-1.62695">
        <ele>49</ele>
        <time>2018-04-21T23:41:01Z</time>
      </trkpt>
      <trkpt lat="46.7833" lon="-1.62675">
        <ele>49</ele>
        <time>2018-04-21T23:42:01Z</time>
      </trkpt>
      <trkpt lat="46.78329" lon="-1.62656">
        <ele>48</ele>
        <time>2018-04-21T23:43:01Z</time>
      </trkpt>
      <trkpt lat="46.78329" lon="-1.6264">
        <ele>47</ele>
        <time>2018-04-21T23:44:01Z</time>
      </trkpt>
      <trkpt lat="46.7833" lon="-1.62593">
        <ele>45</ele>
        <time>2018-04-21T23:45:01Z</time>
      </trkpt>
      <trkpt lat="46.78332" lon="-1.62494">
        <ele>44</ele>
        <time>2018-04-21T23:46:01Z</time>
      </trkpt>
      <trkpt lat="46.78333" lon="-1.62429">
        <ele>45</ele>
        <time>2018-04-21T23:47:01Z</time>
      </trkpt>
      <trkpt lat="46.78333" lon="-1.62415">
        <ele>45</ele>
        <time>2018-04-21T23:48:01Z</time>
      </trkpt>
      <trkpt lat="46.78333" lon="-1.62392">
        <ele>45</ele>
        <time>2018-04-21T23:49:01Z</time>
      </trkpt>
      <trkpt lat="46.78333" lon="-1.62376">
        <ele>45</ele>
        <time>2018-04-21T23:50:01Z</time>
      </trkpt>
      <trkpt lat="46.78334" lon="-1.62363">
        <ele>46</ele>
        <time>2018-04-21T23:51:01Z</time>
      </trkpt>
      <trkpt lat="46.78336" lon="-1.62349">
        <ele>46</ele>
        <time>2018-04-21T23:52:01Z</time>
      </trkpt>
      <trkpt lat="46.78339" lon="-1.62341">
        <ele>46</ele>
        <time>2018-04-21T23:53:01Z</time>
      </trkpt>
      <trkpt lat="46.78345" lon="-1.62326">
        <ele>46</ele>
        <time>2018-04-21T23:54:01Z</time>
      </trkpt>
      <trkpt lat="46.7835" lon="-1.62314">
        <ele>47</ele>
        <time>2018-04-21T23:55:01Z</time>
      </trkpt>
      <trkpt lat="46.78357" lon="-1.62306">
        <ele>47</ele>
        <time>2018-04-21T23:56:01Z</time>
      </trkpt>
      <trkpt lat="46.78367" lon="-1.62297">
        <ele>47</ele>
        <time>2018-04-21T23:57:01Z</time>
      </trkpt>
      <trkpt lat="46.78377" lon="-1.62291">
        <ele>47</ele>
        <time>2018-04-21T23:58:01Z</time>
      </trkpt>
      <trkpt lat="46.78389" lon="-1.62281">
        <ele>48</ele>
        <time>2018-04-21T23:59:01Z</time>
      </trkpt>
      <trkpt lat="46.78389" lon="-1.62281">
        <ele>48</ele>
        <time>2018-04-22T00:00:01Z</time>
      </trkpt>
      <trkpt lat="46.7839" lon="-1.62283">
        <ele>48</ele>
        <time>2018-04-22T00:01:01Z</time>
      </trkpt>
      <trkpt lat="46.78391" lon="-1.62285">
        <ele>48</ele>
        <time>2018-04-22T00:02:01Z</time>
      </trkpt>
      <trkpt lat="46.78392" lon="-1.62285">
        <ele>48</ele>
        <time>2018-04-22T00:03:01Z</time>
      </trkpt>
      <trkpt lat="46.78393" lon="-1.62286">
        <ele>48</ele>
        <time>2018-04-22T00:04:01Z</time>
      </trkpt>
      <trkpt lat="46.78395" lon="-1.62286">
        <ele>48</ele>
        <time>2018-04-22T00:05:01Z</time>
      </trkpt>
      <trkpt lat="46.78401" lon="-1.62287">
        <ele>48</ele>
        <time>2018-04-22T00:06:01Z</time>
      </trkpt>
      <trkpt lat="46.78417" lon="-1.62287">
        <ele>48</ele>
        <time>2018-04-22T00:07:01Z</time>
      </trkpt>
      <trkpt lat="46.78444" lon="-1.62289">
        <ele>49</ele>
        <time>2018-04-22T00:08:01Z</time>
      </trkpt>
      <trkpt lat="46.78477" lon="-1.62293">
        <ele>49</ele>
        <time>2018-04-22T00:09:01Z</time>
      </trkpt>
      <trkpt lat="46.78508" lon="-1.62298">
        <ele>49</ele>
        <time>2018-04-22T00:10:01Z</time>
      </trkpt>
      <trkpt lat="46.78559" lon="-1.62304">
        <ele>47</ele>
        <time>2018-04-22T00:11:01Z</time>
      </trkpt>
      <trkpt lat="46.78613" lon="-1.6231">
        <ele>46</ele>
        <time>2018-04-22T00:12:01Z</time>
      </trkpt>
      <trkpt lat="46.78613" lon="-1.6231">
        <ele>46</ele>
        <time>2018-04-22T00:13:01Z</time>
      </trkpt>
      <trkpt lat="46.78614" lon="-1.62311">
        <ele>46</ele>
        <time>2018-04-22T00:14:01Z</time>
      </trkpt>
      <trkpt lat="46.78651" lon="-1.62315">
        <ele>46</ele>
        <time>2018-04-22T00:15:01Z</time>
      </trkpt>
      <trkpt lat="46.7868" lon="-1.62319">
        <ele>45</ele>
        <time>2018-04-22T00:16:01Z</time>
      </trkpt>
      <trkpt lat="46.78694" lon="-1.6232">
        <ele>45</ele>
        <time>2018-04-22T00:17:01Z</time>
      </trkpt>
      <trkpt lat="46.78712" lon="-1.62322">
        <ele>45</ele>
        <time>2018-04-22T00:18:01Z</time>
      </trkpt>
      <trkpt lat="46.78736" lon="-1.62325">
        <ele>45</ele>
        <time>2018-04-22T00:19:01Z</time>
      </trkpt>
      <trkpt lat="46.78793" lon="-1.62333">
        <ele>46</ele>
        <time>2018-04-22T00:20:01Z</time>
      </trkpt>
      <trkpt lat="46.78797" lon="-1.62333">
        <ele>46</ele>
        <time>2018-04-22T00:21:01Z</time>
      </trkpt>
      <trkpt lat="46.78836" lon="-1.62337">
        <ele>46</ele>
        <time>2018-04-22T00:22:01Z</time>
      </trkpt>
      <trkpt lat="46.78854" lon="-1.6234">
        <ele>47</ele>
        <time>2018-04-22T00:23:01Z</time>
      </trkpt>
      <trkpt lat="46.78866" lon="-1.62342">
        <ele>47</ele>
        <time>2018-04-22T00:24:01Z</time>
      </trkpt>
      <trkpt lat="46.78906" lon="-1.62347">
        <ele>48</ele>
        <time>2018-04-22T00:25:01Z</time>
      </trkpt>
      <trkpt lat="46.78932" lon="-1.62351">
        <ele>48</ele>
        <time>2018-04-22T00:26:01Z</time>
      </trkpt>
      <trkpt lat="46.78953" lon="-1.62355">
        <ele>47</ele>
        <time>2018-04-22T00:27:01Z</time>
      </trkpt>
      <trkpt lat="46.78981" lon="-1.62359">
        <ele>47</ele>
        <time>2018-04-22T00:28:01Z</time>
      </trkpt>
      <trkpt lat="46.79099" lon="-1.62372">
        <ele>43</ele>
        <time>2018-04-22T00:29:01Z</time>
      </trkpt>
      <trkpt lat="46.79115" lon="-1.62375">
        <ele>43</ele>
        <time>2018-04-22T00:30:01Z</time>
      </trkpt>
      <trkpt lat="46.79135" lon="-1.62376">
        <ele>42</ele>
        <time>2018-04-22T00:31:01Z</time>
      </trkpt>
      <trkpt lat="46.79161" lon="-1.62381">
        <ele>41</ele>
        <time>2018-04-22T00:32:01Z</time>
      </trkpt>
      <trkpt lat="46.79178" lon="-1.62384">
        <ele>41</ele>
        <time>2018-04-22T00:33:01Z</time>
      </trkpt>
      <trkpt lat="46.79235" lon="-1.62388">
        <ele>41</ele>
        <time>2018-04-22T00:34:01Z</time>
      </trkpt>
      <trkpt lat="46.79252" lon="-1.6239">
        <ele>41</ele>
        <time>2018-04-22T00:35:01Z</time>
      </trkpt>
      <trkpt lat="46.79269" lon="-1.62392">
        <ele>41</ele>
        <time>2018-04-22T00:36:01Z</time>
      </trkpt>
      <trkpt lat="46.79287" lon="-1.62394">
        <ele>40</ele>
        <time>2018-04-22T00:37:01Z</time>
      </trkpt>
      <trkpt lat="46.79338" lon="-1.62401">
        <ele>39</ele>
        <time>2018-04-22T00:38:01Z</time>
      </trkpt>
      <trkpt lat="46.79373" lon="-1.62405">
        <ele>39</ele>
        <time>2018-04-22T00:39:01Z</time>
      </trkpt>
      <trkpt lat="46.79398" lon="-1.62409">
        <ele>38</ele>
        <time>2018-04-22T00:40:01Z</time>
      </trkpt>
      <trkpt lat="46.79427" lon="-1.62413">
        <ele>38</ele>
        <time>2018-04-22T00:41:01Z</time>
      </trkpt>
      <trkpt lat="46.79435" lon="-1.62414">
        <ele>38</ele>
        <time>2018-04-22T00:42:01Z</time>
      </trkpt>
      <trkpt lat="46.79451" lon="-1.62417">
        <ele>38</ele>
        <time>2018-04-22T00:43:01Z</time>
      </trkpt>
      <trkpt lat="46.795" lon="-1.62421">
        <ele>38</ele>
        <time>2018-04-22T00:44:01Z</time>
      </trkpt>
      <trkpt lat="46.79567" lon="-1.6243">
        <ele>38</ele>
        <time>2018-04-22T00:45:01Z</time>
      </trkpt>
      <trkpt lat="46.79621" lon="-1.62437">
        <ele>39</ele>
        <time>2018-04-22T00:46:01Z</time>
      </trkpt>
      <trkpt lat="46.79683" lon="-1.62444">
        <ele>39</ele>
        <time>2018-04-22T00:47:01Z</time>
      </trkpt>
      <trkpt lat="46.79742" lon="-1.62451">
        <ele>38</ele>
        <time>2018-04-22T00:48:01Z</time>
      </trkpt>
      <trkpt lat="46.79792" lon="-1.62458">
        <ele>37</ele>
        <time>2018-04-22T00:49:01Z</time>
      </trkpt>
      <trkpt lat="46.79836" lon="-1.62462">
        <ele>35</ele>
        <time>2018-04-22T00:50:01Z</time>
      </trkpt>
      <trkpt lat="46.79883" lon="-1.62468">
        <ele>33</ele>
        <time>2018-04-22T00:51:01Z</time>
      </trkpt>
      <trkpt lat="46.79908" lon="-1.6247">
        <ele>31</ele>
        <time>2018-04-22T00:52:01Z</time>
      </trkpt>
      <trkpt lat="46.79946" lon="-1.62474">
        <ele>30</ele>
        <time>2018-04-22T00:53:01Z</time>
      </trkpt>
      <trkpt lat="46.79968" lon="-1.62475">
        <ele>29</ele>
        <time>2018-04-22T00:54:01Z</time>
      </trkpt>
      <trkpt lat="46.80009" lon="-1.62468">
        <ele>27</ele>
        <time>2018-04-22T00:55:01Z</time>
      </trkpt>
      <trkpt lat="46.8004" lon="-1.62459">
        <ele>27</ele>
        <time>2018-04-22T00:56:01Z</time>
      </trkpt>
      <trkpt lat="46.80133" lon="-1.6243">
        <ele>26</ele>
        <time>2018-04-22T00:57:01Z</time>
      </trkpt>
      <trkpt lat="46.80166" lon="-1.62418">
        <ele>26</ele>
        <time>2018-04-22T00:58:01Z</time>
      </trkpt>
      <trkpt lat="46.80192" lon="-1.62409">
        <ele>26</ele>
        <time>2018-04-22T00:59:01Z</time>
      </trkpt>
      <trkpt lat="46.802" lon="-1.62407">
        <ele>26</ele>
        <time>2018-04-22T01:00:01Z</time>
      </trkpt>
      <trkpt lat="46.80213" lon="-1.62405">
        <ele>26</ele>
        <time>2018-04-22T01:01:01Z</time>
      </trkpt>
      <trkpt lat="46.80224" lon="-1.62406">
        <ele>26</ele>
        <time>2018-04-22T01:02:01Z</time>
      </trkpt>
      <trkpt lat="46.80231" lon="-1.62409">
        <ele>26</ele>
        <time>2018-04-22T01:03:01Z</time>
      </trkpt>
      <trkpt lat="46.80238" lon="-1.62416">
        <ele>26</ele>
        <time>2018-04-22T01:04:01Z</time>
      </trkpt>
      <trkpt lat="46.80244" lon="-1.62424">
        <ele>26</ele>
        <time>2018-04-22T01:05:01Z</time>
      </trkpt>
      <trkpt lat="46.80251" lon="-1.62432">
        <ele>26</ele>
        <time>2018-04-22T01:06:01Z</time>
      </trkpt>
      <trkpt lat="46.80258" lon="-1.62437">
        <ele>26</ele>
        <time>2018-04-22T01:07:01Z</time>
      </trkpt>
      <trkpt lat="46.80271" lon="-1.62441">
        <ele>26</ele>
        <time>2018-04-22T01:08:01Z</time>
      </trkpt>
      <trkpt lat="46.80289" lon="-1.62444">
        <ele>25</ele>
        <time>2018-04-22T01:09:01Z</time>
      </trkpt>
      <trkpt lat="46.80309" lon="-1.62446">
        <ele>25</ele>
        <time>2018-04-22T01:10:01Z</time>
      </trkpt>
      <trkpt lat="46.80315" lon="-1.62447">
        <ele>25</ele>
        <time>2018-04-22T01:11:01Z</time>
      </trkpt>
      <trkpt lat="46.80315" lon="-1.62447">
        <ele>25</ele>
        <time>2018-04-22T01:12:01Z</time>
      </trkpt>
      <trkpt lat="46.80309" lon="-1.62459">
        <ele>25</ele>
        <time>2018-04-22T01:13:01Z</time>
      </trkpt>
      <trkpt lat="46.80302" lon="-1.62478">
        <ele>26</ele>
        <time>2018-04-22T01:14:01Z</time>
      </trkpt>
      <trkpt lat="46.80298" lon="-1.62491">
        <ele>26</ele>
        <time>2018-04-22T01:15:01Z</time>
      </trkpt>
      <trkpt lat="46.80299" lon="-1.62499">
        <ele>26</ele>
        <time>2018-04-22T01:16:01Z</time>
      </trkpt>
      <trkpt lat="46.80305" lon="-1.62515">
        <ele>26</ele>
        <time>2018-04-22T01:17:01Z</time>
      </trkpt>
      <trkpt lat="46.80316" lon="-1.62543">
        <ele>27</ele>
        <time>2018-04-22T01:18:01Z</time>
      </trkpt>
      <trkpt lat="46.80327" lon="-1.62572">
        <ele>27</ele>
        <time>2018-04-22T01:19:01Z</time>
      </trkpt>
      <trkpt lat="46.80334" lon="-1.62591">
        <ele>27</ele>
        <time>2018-04-22T01:20:01Z</time>
      </trkpt>
      <trkpt lat="46.80348" lon="-1.62637">
        <ele>25</ele>
        <time>2018-04-22T01:21:01Z</time>
      </trkpt>
      <trkpt lat="46.80357" lon="-1.62668">
        <ele>24</ele>
        <time>2018-04-22T01:22:01Z</time>
      </trkpt>
      <trkpt lat="46.80368" lon="-1.62704">
        <ele>24</ele>
        <time>2018-04-22T01:23:01Z</time>
      </trkpt>
      <trkpt lat="46.80372" lon="-1.62718">
        <ele>24</ele>
        <time>2018-04-22T01:24:01Z</time>
      </trkpt>
      <trkpt lat="46.80382" lon="-1.62748">
        <ele>23</ele>
        <time>2018-04-22T01:25:01Z</time>
      </trkpt>
      <trkpt lat="46.80402" lon="-1.62814">
        <ele>23</ele>
        <time>2018-04-22T01:26:01Z</time>
      </trkpt>
      <trkpt lat="46.80417" lon="-1.62861">
        <ele>22</ele>
        <time>2018-04-22T01:27:01Z</time>
      </trkpt>
      <trkpt lat="46.80428" lon="-1.62897">
        <ele>21</ele>
        <time>2018-04-22T01:28:01Z</time>
      </trkpt>
      <trkpt lat="46.80429" lon="-1.62899">
        <ele>21</ele>
        <time>2018-04-22T01:29:01Z</time>
      </trkpt>
      <trkpt lat="46.80435" lon="-1.62917">
        <ele>21</ele>
        <time>2018-04-22T01:30:01Z</time>
      </trkpt>
      <trkpt lat="46.80457" lon="-1.62983">
        <ele>20</ele>
        <time>2018-04-22T01:31:01Z</time>
      </trkpt>
      <trkpt lat="46.80459" lon="-1.62988">
        <ele>20</ele>
        <time>2018-04-22T01:32:01Z</time>
      </trkpt>
      <trkpt lat="46.80461" lon="-1.62994">
        <ele>20</ele>
        <time>2018-04-22T01:33:01Z</time>
      </trkpt>
      <trkpt lat="46.80461" lon="-1.62995">
        <ele>20</ele>
        <time>2018-04-22T01:34:01Z</time>
      </trkpt>
      <trkpt lat="46.80465" lon="-1.63004">
        <ele>20</ele>
        <time>2018-04-22T01:35:01Z</time>
      </trkpt>
      <trkpt lat="46.80466" lon="-1.63007">
        <ele>20</ele>
        <time>2018-04-22T01:36:01Z</time>
      </trkpt>
      <trkpt lat="46.80483" lon="-1.63044">
        <ele>20</ele>
        <time>2018-04-22T01:37:01Z</time>
      </trkpt>
      <trkpt lat="46.80488" lon="-1.63056">
        <ele>20</ele>
        <time>2018-04-22T01:38:01Z</time>
      </trkpt>
      <trkpt lat="46.80496" lon="-1.6307">
        <ele>20</ele>
        <time>2018-04-22T01:39:01Z</time>
      </trkpt>
      <trkpt lat="46.80574" lon="-1.63196">
        <ele>21</ele>
        <time>2018-04-22T01:40:01Z</time>
      </trkpt>
      <trkpt lat="46.80582" lon="-1.63212">
        <ele>21</ele>
        <time>2018-04-22T01:41:01Z</time>
      </trkpt>
      <trkpt lat="46.80594" lon="-1.6324">
        <ele>22</ele>
        <time>2018-04-22T01:42:01Z</time>
      </trkpt>
      <trkpt lat="46.806" lon="-1.63258">
        <ele>22</ele>
        <time>2018-04-22T01:43:01Z</time>
      </trkpt>
      <trkpt lat="46.80602" lon="-1.63272">
        <ele>22</ele>
        <time>2018-04-22T01:44:01Z</time>
      </trkpt>
      <trkpt lat="46.80604" lon="-1.63296">
        <ele>22</ele>
        <time>2018-04-22T01:45:01Z</time>
      </trkpt>
      <trkpt lat="46.80606" lon="-1.63339">
        <ele>23</ele>
        <time>2018-04-22T01:46:01Z</time>
      </trkpt>
      <trkpt lat="46.80609" lon="-1.63397">
        <ele>24</ele>
        <time>2018-04-22T01:47:01Z</time>
      </trkpt>
      <trkpt lat="46.80609" lon="-1.63405">
        <ele>24</ele>
        <time>2018-04-22T01:48:01Z</time>
      </trkpt>
      <trkpt lat="46.80609" lon="-1.63409">
        <ele>24</ele>
        <time>2018-04-22T01:49:01Z</time>
      </trkpt>
      <trkpt lat="46.8061" lon="-1.63423">
        <ele>24</ele>
        <time>2018-04-22T01:50:01Z</time>
      </trkpt>
      <trkpt lat="46.8061" lon="-1.6343">
        <ele>24</ele>
        <time>2018-04-22T01:51:01Z</time>
      </trkpt>
      <trkpt lat="46.80614" lon="-1.63494">
        <ele>26</ele>
        <time>2018-04-22T01:52:01Z</time>
      </trkpt>
      <trkpt lat="46.80614" lon="-1.63494">
        <ele>26</ele>
        <time>2018-04-22T01:53:01Z</time>
      </trkpt>
      <trkpt lat="46.80601" lon="-1.63506">
        <ele>26</ele>
        <time>2018-04-22T01:54:01Z</time>
      </trkpt>
      <trkpt lat="46.8058" lon="-1.63526">
        <ele>26</ele>
        <time>2018-04-22T01:55:01Z</time>
      </trkpt>
      <trkpt lat="46.80561" lon="-1.63547">
        <ele>26</ele>
        <time>2018-04-22T01:56:01Z</time>
      </trkpt>
      <trkpt lat="46.80529" lon="-1.6359">
        <ele>26</ele>
        <time>2018-04-22T01:57:01Z</time>
      </trkpt>
      <trkpt lat="46.80505" lon="-1.63623">
        <ele>26</ele>
        <time>2018-04-22T01:58:01Z</time>
      </trkpt>
      <trkpt lat="46.8047" lon="-1.63668">
        <ele>25</ele>
        <time>2018-04-22T01:59:01Z</time>
      </trkpt>
      <trkpt lat="46.80435" lon="-1.63716">
        <ele>22</ele>
        <time>2018-04-22T02:00:01Z</time>
      </trkpt>
      <trkpt lat="46.80404" lon="-1.6376">
        <ele>20</ele>
        <time>2018-04-22T02:01:01Z</time>
      </trkpt>
      <trkpt lat="46.80385" lon="-1.63791">
        <ele>19</ele>
        <time>2018-04-22T02:02:01Z</time>
      </trkpt>
      <trkpt lat="46.8037" lon="-1.63822">
        <ele>18</ele>
        <time>2018-04-22T02:03:01Z</time>
      </trkpt>
      <trkpt lat="46.80345" lon="-1.6387">
        <ele>18</ele>
        <time>2018-04-22T02:04:01Z</time>
      </trkpt>
      <trkpt lat="46.80316" lon="-1.63927">
        <ele>18</ele>
        <time>2018-04-22T02:05:01Z</time>
      </trkpt>
      <trkpt lat="46.80296" lon="-1.63969">
        <ele>19</ele>
        <time>2018-04-22T02:06:01Z</time>
      </trkpt>
      <trkpt lat="46.80279" lon="-1.64022">
        <ele>20</ele>
        <time>2018-04-22T02:07:01Z</time>
      </trkpt>
      <trkpt lat="46.8026" lon="-1.64092">
        <ele>21</ele>
        <time>2018-04-22T02:08:01Z</time>
      </trkpt>
      <trkpt lat="46.80243" lon="-1.64151">
        <ele>23</ele>
        <time>2018-04-22T02:09:01Z</time>
      </trkpt>
      <trkpt lat="46.80234" lon="-1.64179">
        <ele>24</ele>
        <time>2018-04-22T02:10:01Z</time>
      </trkpt>
      <trkpt lat="46.80225" lon="-1.64204">
        <ele>24</ele>
        <time>2018-04-22T02:11:01Z</time>
      </trkpt>
      <trkpt lat="46.80209" lon="-1.64242">
        <ele>25</ele>
        <time>2018-04-22T02:12:01Z</time>
      </trkpt>
      <trkpt lat="46.80188" lon="-1.64287">
        <ele>24</ele>
        <time>2018-04-22T02:13:01Z</time>
      </trkpt>
      <trkpt lat="46.80164" lon="-1.6434">
        <ele>23</ele>
        <time>2018-04-22T02:14:01Z</time>
      </trkpt>
      <trkpt lat="46.8014" lon="-1.64392">
        <ele>23</ele>
        <time>2018-04-22T02:15:01Z</time>
      </trkpt>
      <trkpt lat="46.80097" lon="-1.64484">
        <ele>24</ele>
        <time>2018-04-22T02:16:01Z</time>
      </trkpt>
      <trkpt lat="46.80086" lon="-1.64508">
        <ele>25</ele>
        <time>2018-04-22T02:17:01Z</time>
      </trkpt>
      <trkpt lat="46.80065" lon="-1.64555">
        <ele>26</ele>
        <time>2018-04-22T02:18:01Z</time>
      </trkpt>
      <trkpt lat="46.80037" lon="-1.64615">
        <ele>28</ele>
        <time>2018-04-22T02:19:01Z</time>
      </trkpt>
      <trkpt lat="46.80012" lon="-1.64669">
        <ele>29</ele>
        <time>2018-04-22T02:20:01Z</time>
      </trkpt>
      <trkpt lat="46.79992" lon="-1.64709">
        <ele>28</ele>
        <time>2018-04-22T02:21:01Z</time>
      </trkpt>
      <trkpt lat="46.79978" lon="-1.64742">
        <ele>27</ele>
        <time>2018-04-22T02:22:01Z</time>
      </trkpt>
      <trkpt lat="46.79949" lon="-1.64804">
        <ele>25</ele>
        <time>2018-04-22T02:23:01Z</time>
      </trkpt>
      <trkpt lat="46.79917" lon="-1.64873">
        <ele>25</ele>
        <time>2018-04-22T02:24:01Z</time>
      </trkpt>
      <trkpt lat="46.79915" lon="-1.64877">
        <ele>25</ele>
        <time>2018-04-22T02:25:01Z</time>
      </trkpt>
      <trkpt lat="46.79899" lon="-1.64912">
        <ele>25</ele>
        <time>2018-04-22T02:26:01Z</time>
      </trkpt>
      <trkpt lat="46.79889" lon="-1.64937">
        <ele>25</ele>
        <time>2018-04-22T02:27:01Z</time>
      </trkpt>
      <trkpt lat="46.79863" lon="-1.64992">
        <ele>23</ele>
        <time>2018-04-22T02:28:01Z</time>
      </trkpt>
      <trkpt lat="46.79844" lon="-1.65033">
        <ele>21</ele>
        <time>2018-04-22T02:29:01Z</time>
      </trkpt>
      <trkpt lat="46.7983" lon="-1.65068">
        <ele>20</ele>
        <time>2018-04-22T02:30:01Z</time>
      </trkpt>
      <trkpt lat="46.7983" lon="-1.6507">
        <ele>20</ele>
        <time>2018-04-22T02:31:01Z</time>
      </trkpt>
      <trkpt lat="46.79822" lon="-1.65101">
        <ele>20</ele>
        <time>2018-04-22T02:32:01Z</time>
      </trkpt>
      <trkpt lat="46.7982" lon="-1.65118">
        <ele>20</ele>
        <time>2018-04-22T02:33:01Z</time>
      </trkpt>
      <trkpt lat="46.7982" lon="-1.65121">
        <ele>20</ele>
        <time>2018-04-22T02:34:01Z</time>
      </trkpt>
      <trkpt lat="46.7982" lon="-1.65124">
        <ele>20</ele>
        <time>2018-04-22T02:35:01Z</time>
      </trkpt>
      <trkpt lat="46.7982" lon="-1.65131">
        <ele>20</ele>
        <time>2018-04-22T02:36:01Z</time>
      </trkpt>
      <trkpt lat="46.7982" lon="-1.65174">
        <ele>21</ele>
        <time>2018-04-22T02:37:01Z</time>
      </trkpt>
      <trkpt lat="46.7982" lon="-1.65217">
        <ele>22</ele>
        <time>2018-04-22T02:38:01Z</time>
      </trkpt>
      <trkpt lat="46.79818" lon="-1.65253">
        <ele>22</ele>
        <time>2018-04-22T02:39:01Z</time>
      </trkpt>
      <trkpt lat="46.79813" lon="-1.65282">
        <ele>23</ele>
        <time>2018-04-22T02:40:01Z</time>
      </trkpt>
      <trkpt lat="46.79807" lon="-1.65313">
        <ele>23</ele>
        <time>2018-04-22T02:41:01Z</time>
      </trkpt>
      <trkpt lat="46.79799" lon="-1.65356">
        <ele>23</ele>
        <time>2018-04-22T02:42:01Z</time>
      </trkpt>
      <trkpt lat="46.79789" lon="-1.65403">
        <ele>22</ele>
        <time>2018-04-22T02:43:01Z</time>
      </trkpt>
      <trkpt lat="46.79784" lon="-1.65446">
        <ele>22</ele>
        <time>2018-04-22T02:44:01Z</time>
      </trkpt>
      <trkpt lat="46.79778" lon="-1.65495">
        <ele>23</ele>
        <time>2018-04-22T02:45:01Z</time>
      </trkpt>
      <trkpt lat="46.79773" lon="-1.65537">
        <ele>23</ele>
        <time>2018-04-22T02:46:01Z</time>
      </trkpt>
      <trkpt lat="46.79767" lon="-1.65599">
        <ele>24</ele>
        <time>2018-04-22T02:47:01Z</time>
      </trkpt>
      <trkpt lat="46.79757" lon="-1.65686">
        <ele>27</ele>
        <time>2018-04-22T02:48:01Z</time>
      </trkpt>
      <trkpt lat="46.79751" lon="-1.65751">
        <ele>30</ele>
        <time>2018-04-22T02:49:01Z</time>
      </trkpt>
      <trkpt lat="46.79743" lon="-1.65821">
        <ele>32</ele>
        <time>2018-04-22T02:50:01Z</time>
      </trkpt>
      <trkpt lat="46.7974" lon="-1.65848">
        <ele>33</ele>
        <time>2018-04-22T02:51:01Z</time>
      </trkpt>
      <trkpt lat="46.7974" lon="-1.65853">
        <ele>33</ele>
        <time>2018-04-22T02:52:01Z</time>
      </trkpt>
      <trkpt lat="46.7974" lon="-1.65876">
        <ele>34</ele>
        <time>2018-04-22T02:53:01Z</time>
      </trkpt>
      <trkpt lat="46.79744" lon="-1.65898">
        <ele>34</ele>
        <time>2018-04-22T02:54:01Z</time>
      </trkpt>
      <trkpt lat="46.79755" lon="-1.65937">
        <ele>35</ele>
        <time>2018-04-22T02:55:01Z</time>
      </trkpt>
      <trkpt lat="46.79762" lon="-1.65967">
        <ele>36</ele>
        <time>2018-04-22T02:56:01Z</time>
      </trkpt>
      <trkpt lat="46.79766" lon="-1.65981">
        <ele>36</ele>
        <time>2018-04-22T02:57:01Z</time>
      </trkpt>
      <trkpt lat="46.79775" lon="-1.66016">
        <ele>36</ele>
        <time>2018-04-22T02:58:01Z</time>
      </trkpt>
      <trkpt lat="46.79777" lon="-1.66044">
        <ele>37</ele>
        <time>2018-04-22T02:59:01Z</time>
      </trkpt>
      <trkpt lat="46.79778" lon="-1.66059">
        <ele>37</ele>
        <time>2018-04-22T03:00:01Z</time>
      </trkpt>
      <trkpt lat="46.79778" lon="-1.66072">
        <ele>37</ele>
        <time>2018-04-22T03:01:01Z</time>
      </trkpt>
      <trkpt lat="46.79778" lon="-1.66072">
        <ele>37</ele>
        <time>2018-04-22T03:02:01Z</time>
      </trkpt>
      <trkpt lat="46.79744" lon="-1.66085">
        <ele>37</ele>
        <time>2018-04-22T03:03:01Z</time>
      </trkpt>
      <trkpt lat="46.79735" lon="-1.66093">
        <ele>37</ele>
        <time>2018-04-22T03:04:01Z</time>
      </trkpt>
      <trkpt lat="46.79735" lon="-1.66093">
        <ele>37</ele>
        <time>2018-04-22T03:05:01Z</time>
      </trkpt>
      <trkpt lat="46.79737" lon="-1.66098">
        <ele>37</ele>
        <time>2018-04-22T03:06:01Z</time>
      </trkpt>
      <trkpt lat="46.79737" lon="-1.66102">
        <ele>37</ele>
        <time>2018-04-22T03:07:01Z</time>
      </trkpt>
      <trkpt lat="46.79736" lon="-1.66107">
        <ele>38</ele>
        <time>2018-04-22T03:08:01Z</time>
      </trkpt>
      <trkpt lat="46.79734" lon="-1.6611">
        <ele>38</ele>
        <time>2018-04-22T03:09:01Z</time>
      </trkpt>
      <trkpt lat="46.79731" lon="-1.66113">
        <ele>38</ele>
        <time>2018-04-22T03:10:01Z</time>
      </trkpt>
      <trkpt lat="46.79732" lon="-1.66133">
        <ele>38</ele>
        <time>2018-04-22T03:11:01Z</time>
      </trkpt>
      <trkpt lat="46.79734" lon="-1.66153">
        <ele>39</ele>
        <time>2018-04-22T03:12:01Z</time>
      </trkpt>
      <trkpt lat="46.79736" lon="-1.66178">
        <ele>39</ele>
        <time>2018-04-22T03:13:01Z</time>
      </trkpt>
      <trkpt lat="46.79739" lon="-1.66203">
        <ele>39</ele>
        <time>2018-04-22T03:14:01Z</time>
      </trkpt>
      <trkpt lat="46.79739" lon="-1.66208">
        <ele>40</ele>
        <time>2018-04-22T03:15:01Z</time>
      </trkpt>
      <trkpt lat="46.7974" lon="-1.66213">
        <ele>40</ele>
        <time>2018-04-22T03:16:01Z</time>
      </trkpt>
      <trkpt lat="46.79745" lon="-1.66238">
        <ele>40</ele>
        <time>2018-04-22T03:17:01Z</time>
      </trkpt>
      <trkpt lat="46.79747" lon="-1.66243">
        <ele>40</ele>
        <time>2018-04-22T03:18:01Z</time>
      </trkpt>
      <trkpt lat="46.7975" lon="-1.66258">
        <ele>40</ele>
        <time>2018-04-22T03:19:01Z</time>
      </trkpt>
      <trkpt lat="46.79752" lon="-1.66268">
        <ele>40</ele>
        <time>2018-04-22T03:20:01Z</time>
      </trkpt>
      <trkpt lat="46.79754" lon="-1.66276">
        <ele>41</ele>
        <time>2018-04-22T03:21:01Z</time>
      </trkpt>
      <trkpt lat="46.79754" lon="-1.66281">
        <ele>41</ele>
        <time>2018-04-22T03:22:01Z</time>
      </trkpt>
      <trkpt lat="46.79755" lon="-1.66291">
        <ele>41</ele>
        <time>2018-04-22T03:23:01Z</time>
      </trkpt>
      <trkpt lat="46.79756" lon="-1.66296">
        <ele>41</ele>
        <time>2018-04-22T03:24:01Z</time>
      </trkpt>
      <trkpt lat="46.79756" lon="-1.66299">
        <ele>41</ele>
        <time>2018-04-22T03:25:01Z</time>
      </trkpt>
      <trkpt lat="46.79756" lon="-1.66303">
        <ele>41</ele>
        <time>2018-04-22T03:26:01Z</time>
      </trkpt>
      <trkpt lat="46.79756" lon="-1.66307">
        <ele>41</ele>
        <time>2018-04-22T03:27:01Z</time>
      </trkpt>
      <trkpt lat="46.79756" lon="-1.66313">
        <ele>41</ele>
        <time>2018-04-22T03:28:01Z</time>
      </trkpt>
      <trkpt lat="46.79755" lon="-1.66338">
        <ele>42</ele>
        <time>2018-04-22T03:29:01Z</time>
      </trkpt>
      <trkpt lat="46.79755" lon="-1.66348">
        <ele>42</ele>
        <time>2018-04-22T03:30:01Z</time>
      </trkpt>
      <trkpt lat="46.79754" lon="-1.66359">
        <ele>42</ele>
        <time>2018-04-22T03:31:01Z</time>
      </trkpt>
      <trkpt lat="46.79753" lon="-1.66367">
        <ele>42</ele>
        <time>2018-04-22T03:32:01Z</time>
      </trkpt>
      <trkpt lat="46.79753" lon="-1.66371">
        <ele>42</ele>
        <time>2018-04-22T03:33:01Z</time>
      </trkpt>
      <trkpt lat="46.79752" lon="-1.66374">
        <ele>42</ele>
        <time>2018-04-22T03:34:01Z</time>
      </trkpt>
      <trkpt lat="46.79752" lon="-1.66377">
        <ele>42</ele>
        <time>2018-04-22T03:35:01Z</time>
      </trkpt>
      <trkpt lat="46.79751" lon="-1.66382">
        <ele>42</ele>
        <time>2018-04-22T03:36:01Z</time>
      </trkpt>
      <trkpt lat="46.79748" lon="-1.66394">
        <ele>42</ele>
        <time>2018-04-22T03:37:01Z</time>
      </trkpt>
      <trkpt lat="46.79745" lon="-1.66405">
        <ele>42</ele>
        <time>2018-04-22T03:38:01Z</time>
      </trkpt>
      <trkpt lat="46.79741" lon="-1.6642">
        <ele>42</ele>
        <time>2018-04-22T03:39:01Z</time>
      </trkpt>
      <trkpt lat="46.79739" lon="-1.66426">
        <ele>42</ele>
        <time>2018-04-22T03:40:01Z</time>
      </trkpt>
      <trkpt lat="46.79738" lon="-1.66429">
        <ele>42</ele>
        <time>2018-04-22T03:41:01Z</time>
      </trkpt>
      <trkpt lat="46.79737" lon="-1.66431">
        <ele>42</ele>
        <time>2018-04-22T03:42:01Z</time>
      </trkpt>
      <trkpt lat="46.79735" lon="-1.66435">
        <ele>42</ele>
        <time>2018-04-22T03:43:01Z</time>
      </trkpt>
      <trkpt lat="46.79734" lon="-1.66438">
        <ele>42</ele>
        <time>2018-04-22T03:44:01Z</time>
      </trkpt>
      <trkpt lat="46.79732" lon="-1.66441">
        <ele>42</ele>
        <time>2018-04-22T03:45:01Z</time>
      </trkpt>
      <trkpt lat="46.79718" lon="-1.66464">
        <ele>41</ele>
        <time>2018-04-22T03:46:01Z</time>
      </trkpt>
      <trkpt lat="46.79707" lon="-1.66481">
        <ele>41</ele>
        <time>2018-04-22T03:47:01Z</time>
      </trkpt>
      <trkpt lat="46.79699" lon="-1.66494">
        <ele>41</ele>
        <time>2018-04-22T03:48:01Z</time>
      </trkpt>
      <trkpt lat="46.79693" lon="-1.66505">
        <ele>41</ele>
        <time>2018-04-22T03:49:01Z</time>
      </trkpt>
      <trkpt lat="46.79692" lon="-1.66507">
        <ele>41</ele>
        <time>2018-04-22T03:50:01Z</time>
      </trkpt>
      <trkpt lat="46.79691" lon="-1.6651">
        <ele>41</ele>
        <time>2018-04-22T03:51:01Z</time>
      </trkpt>
      <trkpt lat="46.7969" lon="-1.66513">
        <ele>41</ele>
        <time>2018-04-22T03:52:01Z</time>
      </trkpt>
      <trkpt lat="46.79688" lon="-1.6652">
        <ele>41</ele>
        <time>2018-04-22T03:53:01Z</time>
      </trkpt>
      <trkpt lat="46.79687" lon="-1.66526">
        <ele>41</ele>
        <time>2018-04-22T03:54:01Z</time>
      </trkpt>
      <trkpt lat="46.79686" lon="-1.66531">
        <ele>41</ele>
        <time>2018-04-22T03:55:01Z</time>
      </trkpt>
      <trkpt lat="46.79679" lon="-1.66573">
        <ele>41</ele>
        <time>2018-04-22T03:56:01Z</time>
      </trkpt>
      <trkpt lat="46.79673" lon="-1.66608">
        <ele>41</ele>
        <time>2018-04-22T03:57:01Z</time>
      </trkpt>
      <trkpt lat="46.79669" lon="-1.66633">
        <ele>42</ele>
        <time>2018-04-22T03:58:01Z</time>
      </trkpt>
      <trkpt lat="46.79666" lon="-1.66653">
        <ele>43</ele>
        <time>2018-04-22T03:59:01Z</time>
      </trkpt>
      <trkpt lat="46.79666" lon="-1.66657">
        <ele>43</ele>
        <time>2018-04-22T04:00:01Z</time>
      </trkpt>
      <trkpt lat="46.79663" lon="-1.66671">
        <ele>43</ele>
        <time>2018-04-22T04:01:01Z</time>
      </trkpt>
      <trkpt lat="46.79662" lon="-1.66681">
        <ele>43</ele>
        <time>2018-04-22T04:02:01Z</time>
      </trkpt>
      <trkpt lat="46.79659" lon="-1.66691">
        <ele>43</ele>
        <time>2018-04-22T04:03:01Z</time>
      </trkpt>
      <trkpt lat="46.79657" lon="-1.66699">
        <ele>43</ele>
        <time>2018-04-22T04:04:01Z</time>
      </trkpt>
      <trkpt lat="46.79655" lon="-1.66706">
        <ele>43</ele>
        <time>2018-04-22T04:05:01Z</time>
      </trkpt>
      <trkpt lat="46.7965" lon="-1.66717">
        <ele>44</ele>
        <time>2018-04-22T04:06:01Z</time>
      </trkpt>
      <trkpt lat="46.7964" lon="-1.6674">
        <ele>44</ele>
        <time>2018-04-22T04:07:01Z</time>
      </trkpt>
      <trkpt lat="46.79612" lon="-1.66798">
        <ele>46</ele>
        <time>2018-04-22T04:08:01Z</time>
      </trkpt>
      <trkpt lat="46.79583" lon="-1.66865">
        <ele>48</ele>
        <time>2018-04-22T04:09:01Z</time>
      </trkpt>
      <trkpt lat="46.79575" lon="-1.66884">
        <ele>48</ele>
        <time>2018-04-22T04:10:01Z</time>
      </trkpt>
      <trkpt lat="46.79566" lon="-1.66906">
        <ele>48</ele>
        <time>2018-04-22T04:11:01Z</time>
      </trkpt>
      <trkpt lat="46.79552" lon="-1.66953">
        <ele>49</ele>
        <time>2018-04-22T04:12:01Z</time>
      </trkpt>
      <trkpt lat="46.79533" lon="-1.67027">
        <ele>50</ele>
        <time>2018-04-22T04:13:01Z</time>
      </trkpt>
      <trkpt lat="46.79515" lon="-1.67096">
        <ele>51</ele>
        <time>2018-04-22T04:14:01Z</time>
      </trkpt>
      <trkpt lat="46.79495" lon="-1.67175">
        <ele>52</ele>
        <time>2018-04-22T04:15:01Z</time>
      </trkpt>
      <trkpt lat="46.79466" lon="-1.67286">
        <ele>53</ele>
        <time>2018-04-22T04:16:01Z</time>
      </trkpt>
      <trkpt lat="46.79447" lon="-1.6736">
        <ele>52</ele>
        <time>2018-04-22T04:17:01Z</time>
      </trkpt>
      <trkpt lat="46.79438" lon="-1.67395">
        <ele>52</ele>
        <time>2018-04-22T04:18:01Z</time>
      </trkpt>
      <trkpt lat="46.79429" lon="-1.67429">
        <ele>51</ele>
        <time>2018-04-22T04:19:01Z</time>
      </trkpt>
      <trkpt lat="46.79425" lon="-1.67446">
        <ele>51</ele>
        <time>2018-04-22T04:20:01Z</time>
      </trkpt>
      <trkpt lat="46.79423" lon="-1.67455">
        <ele>51</ele>
        <time>2018-04-22T04:21:01Z</time>
      </trkpt>
      <trkpt lat="46.79421" lon="-1.67464">
        <ele>52</ele>
        <time>2018-04-22T04:22:01Z</time>
      </trkpt>
      <trkpt lat="46.79419" lon="-1.67476">
        <ele>52</ele>
        <time>2018-04-22T04:23:01Z</time>
      </trkpt>
      <trkpt lat="46.79418" lon="-1.67489">
        <ele>52</ele>
        <time>2018-04-22T04:24:01Z</time>
      </trkpt>
      <trkpt lat="46.79416" lon="-1.675">
        <ele>52</ele>
        <time>2018-04-22T04:25:01Z</time>
      </trkpt>
      <trkpt lat="46.79413" lon="-1.6753">
        <ele>52</ele>
        <time>2018-04-22T04:26:01Z</time>
      </trkpt>
      <trkpt lat="46.7941" lon="-1.67568">
        <ele>51</ele>
        <time>2018-04-22T04:27:01Z</time>
      </trkpt>
      <trkpt lat="46.79406" lon="-1.67617">
        <ele>50</ele>
        <time>2018-04-22T04:28:01Z</time>
      </trkpt>
      <trkpt lat="46.79401" lon="-1.67686">
        <ele>49</ele>
        <time>2018-04-22T04:29:01Z</time>
      </trkpt>
      <trkpt lat="46.79396" lon="-1.67743">
        <ele>49</ele>
        <time>2018-04-22T04:30:01Z</time>
      </trkpt>
      <trkpt lat="46.7939" lon="-1.67805">
        <ele>47</ele>
        <time>2018-04-22T04:31:01Z</time>
      </trkpt>
      <trkpt lat="46.79379" lon="-1.67933">
        <ele>46</ele>
        <time>2018-04-22T04:32:01Z</time>
      </trkpt>
      <trkpt lat="46.79374" lon="-1.68002">
        <ele>46</ele>
        <time>2018-04-22T04:33:01Z</time>
      </trkpt>
      <trkpt lat="46.79372" lon="-1.68026">
        <ele>46</ele>
        <time>2018-04-22T04:34:01Z</time>
      </trkpt>
      <trkpt lat="46.79368" lon="-1.68065">
        <ele>47</ele>
        <time>2018-04-22T04:35:01Z</time>
      </trkpt>
      <trkpt lat="46.79366" lon="-1.68087">
        <ele>47</ele>
        <time>2018-04-22T04:36:01Z</time>
      </trkpt>
      <trkpt lat="46.79362" lon="-1.6811">
        <ele>47</ele>
        <time>2018-04-22T04:37:01Z</time>
      </trkpt>
      <trkpt lat="46.79359" lon="-1.68131">
        <ele>46</ele>
        <time>2018-04-22T04:38:01Z</time>
      </trkpt>
      <trkpt lat="46.79354" lon="-1.68151">
        <ele>46</ele>
        <time>2018-04-22T04:39:01Z</time>
      </trkpt>
      <trkpt lat="46.79345" lon="-1.68197">
        <ele>45</ele>
        <time>2018-04-22T04:40:01Z</time>
      </trkpt>
      <trkpt lat="46.79333" lon="-1.68246">
        <ele>44</ele>
        <time>2018-04-22T04:41:01Z</time>
      </trkpt>
      <trkpt lat="46.79321" lon="-1.68293">
        <ele>44</ele>
        <time>2018-04-22T04:42:01Z</time>
      </trkpt>
      <trkpt lat="46.793" lon="-1.6837">
        <ele>44</ele>
        <time>2018-04-22T04:43:01Z</time>
      </trkpt>
      <trkpt lat="46.79284" lon="-1.68431">
        <ele>44</ele>
        <time>2018-04-22T04:44:01Z</time>
      </trkpt>
      <trkpt lat="46.79258" lon="-1.68524">
        <ele>46</ele>
        <time>2018-04-22T04:45:01Z</time>
      </trkpt>
      <trkpt lat="46.79258" lon="-1.68526">
        <ele>46</ele>
        <time>2018-04-22T04:46:01Z</time>
      </trkpt>
      <trkpt lat="46.79242" lon="-1.68587">
        <ele>46</ele>
        <time>2018-04-22T04:47:01Z</time>
      </trkpt>
      <trkpt lat="46.79222" lon="-1.68656">
        <ele>44</ele>
        <time>2018-04-22T04:48:01Z</time>
      </trkpt>
      <trkpt lat="46.79195" lon="-1.68751">
        <ele>44</ele>
        <time>2018-04-22T04:49:01Z</time>
      </trkpt>
      <trkpt lat="46.7917" lon="-1.68838">
        <ele>44</ele>
        <time>2018-04-22T04:50:01Z</time>
      </trkpt>
      <trkpt lat="46.79139" lon="-1.68949">
        <ele>45</ele>
        <time>2018-04-22T04:51:01Z</time>
      </trkpt>
      <trkpt lat="46.79125" lon="-1.68996">
        <ele>45</ele>
        <time>2018-04-22T04:52:01Z</time>
      </trkpt>
      <trkpt lat="46.79106" lon="-1.69064">
        <ele>45</ele>
        <time>2018-04-22T04:53:01Z</time>
      </trkpt>
      <trkpt lat="46.7909" lon="-1.69121">
        <ele>44</ele>
        <time>2018-04-22T04:54:01Z</time>
      </trkpt>
      <trkpt lat="46.79073" lon="-1.69182">
        <ele>44</ele>
        <time>2018-04-22T04:55:01Z</time>
      </trkpt>
      <trkpt lat="46.79051" lon="-1.69259">
        <ele>45</ele>
        <time>2018-04-22T04:56:01Z</time>
      </trkpt>
      <trkpt lat="46.79048" lon="-1.69268">
        <ele>45</ele>
        <time>2018-04-22T04:57:01Z</time>
      </trkpt>
      <trkpt lat="46.79033" lon="-1.69324">
        <ele>45</ele>
        <time>2018-04-22T04:58:01Z</time>
      </trkpt>
      <trkpt lat="46.7902" lon="-1.69366">
        <ele>45</ele>
        <time>2018-04-22T04:59:01Z</time>
      </trkpt>
      <trkpt lat="46.79013" lon="-1.69392">
        <ele>45</ele>
        <time>2018-04-22T05:00:01Z</time>
      </trkpt>
      <trkpt lat="46.79006" lon="-1.69421">
        <ele>45</ele>
        <time>2018-04-22T05:01:01Z</time>
      </trkpt>
      <trkpt lat="46.79003" lon="-1.69434">
        <ele>45</ele>
        <time>2018-04-22T05:02:01Z</time>
      </trkpt>
      <trkpt lat="46.79" lon="-1.69448">
        <ele>45</ele>
        <time>2018-04-22T05:03:01Z</time>
      </trkpt>
      <trkpt lat="46.79" lon="-1.6945">
        <ele>45</ele>
        <time>2018-04-22T05:04:01Z</time>
      </trkpt>
      <trkpt lat="46.78998" lon="-1.69461">
        <ele>46</ele>
        <time>2018-04-22T05:05:01Z</time>
      </trkpt>
      <trkpt lat="46.78996" lon="-1.69474">
        <ele>46</ele>
        <time>2018-04-22T05:06:01Z</time>
      </trkpt>
      <trkpt lat="46.78994" lon="-1.69486">
        <ele>46</ele>
        <time>2018-04-22T05:07:01Z</time>
      </trkpt>
      <trkpt lat="46.78992" lon="-1.69501">
        <ele>46</ele>
        <time>2018-04-22T05:08:01Z</time>
      </trkpt>
      <trkpt lat="46.78989" lon="-1.6952">
        <ele>46</ele>
        <time>2018-04-22T05:09:01Z</time>
      </trkpt>
      <trkpt lat="46.78983" lon="-1.69568">
        <ele>46</ele>
        <time>2018-04-22T05:10:01Z</time>
      </trkpt>
      <trkpt lat="46.78971" lon="-1.6968">
        <ele>47</ele>
        <time>2018-04-22T05:11:01Z</time>
      </trkpt>
      <trkpt lat="46.78963" lon="-1.69748">
        <ele>46</ele>
        <time>2018-04-22T05:12:01Z</time>
      </trkpt>
      <trkpt lat="46.78961" lon="-1.6977">
        <ele>46</ele>
        <time>2018-04-22T05:13:01Z</time>
      </trkpt>
      <trkpt lat="46.78954" lon="-1.69832">
        <ele>46</ele>
        <time>2018-04-22T05:14:01Z</time>
      </trkpt>
      <trkpt lat="46.78953" lon="-1.69842">
        <ele>47</ele>
        <time>2018-04-22T05:15:01Z</time>
      </trkpt>
      <trkpt lat="46.78949" lon="-1.69867">
        <ele>47</ele>
        <time>2018-04-22T05:16:01Z</time>
      </trkpt>
      <trkpt lat="46.78944" lon="-1.69893">
        <ele>48</ele>
        <time>2018-04-22T05:17:01Z</time>
      </trkpt>
      <trkpt lat="46.78939" lon="-1.69916">
        <ele>48</ele>
        <time>2018-04-22T05:18:01Z</time>
      </trkpt>
      <trkpt lat="46.78934" lon="-1.69938">
        <ele>48</ele>
        <time>2018-04-22T05:19:01Z</time>
      </trkpt>
      <trkpt lat="46.78925" lon="-1.69968">
        <ele>48</ele>
        <time>2018-04-22T05:20:01Z</time>
      </trkpt>
      <trkpt lat="46.78898" lon="-1.70064">
        <ele>48</ele>
        <time>2018-04-22T05:21:01Z</time>
      </trkpt>
      <trkpt lat="46.78887" lon="-1.70108">
        <ele>48</ele>
        <time>2018-04-22T05:22:01Z</time>
      </trkpt>
      <trkpt lat="46.78882" lon="-1.70135">
        <ele>48</ele>
        <time>2018-04-22T05:23:01Z</time>
      </trkpt>
      <trkpt lat="46.7888" lon="-1.70153">
        <ele>48</ele>
        <time>2018-04-22T05:24:01Z</time>
      </trkpt>
      <trkpt lat="46.7888" lon="-1.70155">
        <ele>48</ele>
        <time>2018-04-22T05:25:01Z</time>
      </trkpt>
      <trkpt lat="46.7888" lon="-1.70161">
        <ele>48</ele>
        <time>2018-04-22T05:26:01Z</time>
      </trkpt>
      <trkpt lat="46.7888" lon="-1.7017">
        <ele>48</ele>
        <time>2018-04-22T05:27:01Z</time>
      </trkpt>
      <trkpt lat="46.7888" lon="-1.70187">
        <ele>48</ele>
        <time>2018-04-22T05:28:01Z</time>
      </trkpt>
      <trkpt lat="46.78881" lon="-1.70216">
        <ele>48</ele>
        <time>2018-04-22T05:29:01Z</time>
      </trkpt>
      <trkpt lat="46.78881" lon="-1.70226">
        <ele>48</ele>
        <time>2018-04-22T05:30:01Z</time>
      </trkpt>
      <trkpt lat="46.78882" lon="-1.70231">
        <ele>48</ele>
        <time>2018-04-22T05:31:01Z</time>
      </trkpt>
      <trkpt lat="46.78882" lon="-1.7024">
        <ele>48</ele>
        <time>2018-04-22T05:32:01Z</time>
      </trkpt>
      <trkpt lat="46.78881" lon="-1.70248">
        <ele>48</ele>
        <time>2018-04-22T05:33:01Z</time>
      </trkpt>
      <trkpt lat="46.7888" lon="-1.70261">
        <ele>48</ele>
        <time>2018-04-22T05:34:01Z</time>
      </trkpt>
      <trkpt lat="46.78878" lon="-1.7027">
        <ele>48</ele>
        <time>2018-04-22T05:35:01Z</time>
      </trkpt>
      <trkpt lat="46.78878" lon="-1.70294">
        <ele>48</ele>
        <time>2018-04-22T05:36:01Z</time>
      </trkpt>
      <trkpt lat="46.78878" lon="-1.70294">
        <ele>48</ele>
        <time>2018-04-22T05:37:01Z</time>
      </trkpt>
      <trkpt lat="46.78885" lon="-1.70307">
        <ele>48</ele>
        <time>2018-04-22T05:38:01Z</time>
      </trkpt>
      <trkpt lat="46.78892" lon="-1.70319">
        <ele>48</ele>
        <time>2018-04-22T05:39:01Z</time>
      </trkpt>
      <trkpt lat="46.78898" lon="-1.7033">
        <ele>48</ele>
        <time>2018-04-22T05:40:01Z</time>
      </trkpt>
      <trkpt lat="46.78898" lon="-1.7033">
        <ele>48</ele>
        <time>2018-04-22T05:41:01Z</time>
      </trkpt>
      <trkpt lat="46.78892" lon="-1.70336">
        <ele>48</ele>
        <time>2018-04-22T05:42:01Z</time>
      </trkpt>
      <trkpt lat="46.78888" lon="-1.70346">
        <ele>48</ele>
        <time>2018-04-22T05:43:01Z</time>
      </trkpt>
      <trkpt lat="46.78887" lon="-1.70349">
        <ele>47</ele>
        <time>2018-04-22T05:44:01Z</time>
      </trkpt>
      <trkpt lat="46.78886" lon="-1.70352">
        <ele>47</ele>
        <time>2018-04-22T05:45:01Z</time>
      </trkpt>
      <trkpt lat="46.78885" lon="-1.70366">
        <ele>47</ele>
        <time>2018-04-22T05:46:01Z</time>
      </trkpt>
      <trkpt lat="46.78885" lon="-1.70371">
        <ele>47</ele>
        <time>2018-04-22T05:47:01Z</time>
      </trkpt>
      <trkpt lat="46.78885" lon="-1.7038">
        <ele>47</ele>
        <time>2018-04-22T05:48:01Z</time>
      </trkpt>
      <trkpt lat="46.78888" lon="-1.70446">
        <ele>46</ele>
        <time>2018-04-22T05:49:01Z</time>
      </trkpt>
      <trkpt lat="46.78889" lon="-1.70484">
        <ele>45</ele>
        <time>2018-04-22T05:50:01Z</time>
      </trkpt>
      <trkpt lat="46.78889" lon="-1.70503">
        <ele>44</ele>
        <time>2018-04-22T05:51:01Z</time>
      </trkpt>
      <trkpt lat="46.78888" lon="-1.70523">
        <ele>44</ele>
        <time>2018-04-22T05:52:01Z</time>
      </trkpt>
      <trkpt lat="46.78888" lon="-1.70539">
        <ele>44</ele>
        <time>2018-04-22T05:53:01Z</time>
      </trkpt>
      <trkpt lat="46.78885" lon="-1.7056">
        <ele>43</ele>
        <time>2018-04-22T05:54:01Z</time>
      </trkpt>
      <trkpt lat="46.78883" lon="-1.70579">
        <ele>43</ele>
        <time>2018-04-22T05:55:01Z</time>
      </trkpt>
      <trkpt lat="46.78881" lon="-1.70594">
        <ele>43</ele>
        <time>2018-04-22T05:56:01Z</time>
      </trkpt>
      <trkpt lat="46.78878" lon="-1.70608">
        <ele>43</ele>
        <time>2018-04-22T05:57:01Z</time>
      </trkpt>
      <trkpt lat="46.78876" lon="-1.70617">
        <ele>43</ele>
        <time>2018-04-22T05:58:01Z</time>
      </trkpt>
      <trkpt lat="46.78852" lon="-1.70705">
        <ele>43</ele>
        <time>2018-04-22T05:59:01Z</time>
      </trkpt>
      <trkpt lat="46.78837" lon="-1.70762">
        <ele>42</ele>
        <time>2018-04-22T06:00:01Z</time>
      </trkpt>
      <trkpt lat="46.78785" lon="-1.70972">
        <ele>41</ele>
        <time>2018-04-22T06:01:01Z</time>
      </trkpt>
      <trkpt lat="46.78729" lon="-1.7119">
        <ele>43</ele>
        <time>2018-04-22T06:02:01Z</time>
      </trkpt>
      <trkpt lat="46.78721" lon="-1.71229">
        <ele>44</ele>
        <time>2018-04-22T06:03:01Z</time>
      </trkpt>
      <trkpt lat="46.78714" lon="-1.71265">
        <ele>44</ele>
        <time>2018-04-22T06:04:01Z</time>
      </trkpt>
      <trkpt lat="46.78705" lon="-1.71332">
        <ele>45</ele>
        <time>2018-04-22T06:05:01Z</time>
      </trkpt>
      <trkpt lat="46.78702" lon="-1.71355">
        <ele>45</ele>
        <time>2018-04-22T06:06:01Z</time>
      </trkpt>
      <trkpt lat="46.78693" lon="-1.71413">
        <ele>46</ele>
        <time>2018-04-22T06:07:01Z</time>
      </trkpt>
      <trkpt lat="46.78686" lon="-1.71469">
        <ele>47</ele>
        <time>2018-04-22T06:08:01Z</time>
      </trkpt>
      <trkpt lat="46.78672" lon="-1.71568">
        <ele>48</ele>
        <time>2018-04-22T06:09:01Z</time>
      </trkpt>
      <trkpt lat="46.78665" lon="-1.71618">
        <ele>48</ele>
        <time>2018-04-22T06:10:01Z</time>
      </trkpt>
      <trkpt lat="46.78646" lon="-1.71762">
        <ele>47</ele>
        <time>2018-04-22T06:11:01Z</time>
      </trkpt>
      <trkpt lat="46.78631" lon="-1.71864">
        <ele>48</ele>
        <time>2018-04-22T06:12:01Z</time>
      </trkpt>
      <trkpt lat="46.78613" lon="-1.71983">
        <ele>49</ele>
        <time>2018-04-22T06:13:01Z</time>
      </trkpt>
      <trkpt lat="46.78608" lon="-1.7203">
        <ele>49</ele>
        <time>2018-04-22T06:14:01Z</time>
      </trkpt>
      <trkpt lat="46.78605" lon="-1.72056">
        <ele>49</ele>
        <time>2018-04-22T06:15:01Z</time>
      </trkpt>
      <trkpt lat="46.78603" lon="-1.72087">
        <ele>50</ele>
        <time>2018-04-22T06:16:01Z</time>
      </trkpt>
      <trkpt lat="46.78599" lon="-1.72138">
        <ele>49</ele>
        <time>2018-04-22T06:17:01Z</time>
      </trkpt>
      <trkpt lat="46.78597" lon="-1.72175">
        <ele>49</ele>
        <time>2018-04-22T06:18:01Z</time>
      </trkpt>
      <trkpt lat="46.78591" lon="-1.72291">
        <ele>49</ele>
        <time>2018-04-22T06:19:01Z</time>
      </trkpt>
      <trkpt lat="46.78586" lon="-1.72381">
        <ele>49</ele>
        <time>2018-04-22T06:20:01Z</time>
      </trkpt>
      <trkpt lat="46.7858" lon="-1.72481">
        <ele>49</ele>
        <time>2018-04-22T06:21:01Z</time>
      </trkpt>
      <trkpt lat="46.78576" lon="-1.72562">
        <ele>49</ele>
        <time>2018-04-22T06:22:01Z</time>
      </trkpt>
      <trkpt lat="46.78571" lon="-1.72641">
        <ele>49</ele>
        <time>2018-04-22T06:23:01Z</time>
      </trkpt>
      <trkpt lat="46.7857" lon="-1.72658">
        <ele>49</ele>
        <time>2018-04-22T06:24:01Z</time>
      </trkpt>
      <trkpt lat="46.78569" lon="-1.72677">
        <ele>49</ele>
        <time>2018-04-22T06:25:01Z</time>
      </trkpt>
      <trkpt lat="46.78569" lon="-1.7268">
        <ele>49</ele>
        <time>2018-04-22T06:26:01Z</time>
      </trkpt>
      <trkpt lat="46.78567" lon="-1.72701">
        <ele>49</ele>
        <time>2018-04-22T06:27:01Z</time>
      </trkpt>
      <trkpt lat="46.78566" lon="-1.72721">
        <ele>49</ele>
        <time>2018-04-22T06:28:01Z</time>
      </trkpt>
      <trkpt lat="46.78564" lon="-1.72735">
        <ele>49</ele>
        <time>2018-04-22T06:29:01Z</time>
      </trkpt>
      <trkpt lat="46.78563" lon="-1.72748">
        <ele>49</ele>
        <time>2018-04-22T06:30:01Z</time>
      </trkpt>
      <trkpt lat="46.78561" lon="-1.72761">
        <ele>49</ele>
        <time>2018-04-22T06:31:01Z</time>
      </trkpt>
      <trkpt lat="46.78559" lon="-1.72776">
        <ele>49</ele>
        <time>2018-04-22T06:32:01Z</time>
      </trkpt>
      <trkpt lat="46.78556" lon="-1.72797">
        <ele>49</ele>
        <time>2018-04-22T06:33:01Z</time>
      </trkpt>
      <trkpt lat="46.78551" lon="-1.72824">
        <ele>49</ele>
        <time>2018-04-22T06:34:01Z</time>
      </trkpt>
      <trkpt lat="46.78548" lon="-1.72842">
        <ele>49</ele>
        <time>2018-04-22T06:35:01Z</time>
      </trkpt>
      <trkpt lat="46.78545" lon="-1.72862">
        <ele>50</ele>
        <time>2018-04-22T06:36:01Z</time>
      </trkpt>
      <trkpt lat="46.78526" lon="-1.7299">
        <ele>51</ele>
        <time>2018-04-22T06:37:01Z</time>
      </trkpt>
      <trkpt lat="46.78509" lon="-1.73095">
        <ele>51</ele>
        <time>2018-04-22T06:38:01Z</time>
      </trkpt>
      <trkpt lat="46.78498" lon="-1.73169">
        <ele>51</ele>
        <time>2018-04-22T06:39:01Z</time>
      </trkpt>
      <trkpt lat="46.78488" lon="-1.73237">
        <ele>50</ele>
        <time>2018-04-22T06:40:01Z</time>
      </trkpt>
      <trkpt lat="46.78485" lon="-1.73259">
        <ele>50</ele>
        <time>2018-04-22T06:41:01Z</time>
      </trkpt>
      <trkpt lat="46.78484" lon="-1.73268">
        <ele>51</ele>
        <time>2018-04-22T06:42:01Z</time>
      </trkpt>
      <trkpt lat="46.78482" lon="-1.73279">
        <ele>51</ele>
        <time>2018-04-22T06:43:01Z</time>
      </trkpt>
      <trkpt lat="46.78482" lon="-1.73291">
        <ele>51</ele>
        <time>2018-04-22T06:44:01Z</time>
      </trkpt>
      <trkpt lat="46.78481" lon="-1.73304">
        <ele>51</ele>
        <time>2018-04-22T06:45:01Z</time>
      </trkpt>
      <trkpt lat="46.78479" lon="-1.73343">
        <ele>52</ele>
        <time>2018-04-22T06:46:01Z</time>
      </trkpt>
      <trkpt lat="46.78477" lon="-1.73414">
        <ele>52</ele>
        <time>2018-04-22T06:47:01Z</time>
      </trkpt>
      <trkpt lat="46.78476" lon="-1.73484">
        <ele>52</ele>
        <time>2018-04-22T06:48:01Z</time>
      </trkpt>
      <trkpt lat="46.78475" lon="-1.7354">
        <ele>52</ele>
        <time>2018-04-22T06:49:01Z</time>
      </trkpt>
      <trkpt lat="46.78475" lon="-1.73641">
        <ele>52</ele>
        <time>2018-04-22T06:50:01Z</time>
      </trkpt>
      <trkpt lat="46.78475" lon="-1.73703">
        <ele>52</ele>
        <time>2018-04-22T06:51:01Z</time>
      </trkpt>
      <trkpt lat="46.78474" lon="-1.73757">
        <ele>52</ele>
        <time>2018-04-22T06:52:01Z</time>
      </trkpt>
      <trkpt lat="46.78474" lon="-1.73793">
        <ele>52</ele>
        <time>2018-04-22T06:53:01Z</time>
      </trkpt>
      <trkpt lat="46.78475" lon="-1.73816">
        <ele>52</ele>
        <time>2018-04-22T06:54:01Z</time>
      </trkpt>
      <trkpt lat="46.78477" lon="-1.73831">
        <ele>52</ele>
        <time>2018-04-22T06:55:01Z</time>
      </trkpt>
      <trkpt lat="46.78481" lon="-1.73888">
        <ele>52</ele>
        <time>2018-04-22T06:56:01Z</time>
      </trkpt>
      <trkpt lat="46.78489" lon="-1.73967">
        <ele>51</ele>
        <time>2018-04-22T06:57:01Z</time>
      </trkpt>
      <trkpt lat="46.78504" lon="-1.74108">
        <ele>52</ele>
        <time>2018-04-22T06:58:01Z</time>
      </trkpt>
      <trkpt lat="46.78516" lon="-1.74225">
        <ele>52</ele>
        <time>2018-04-22T06:59:01Z</time>
      </trkpt>
      <trkpt lat="46.78528" lon="-1.74334">
        <ele>53</ele>
        <time>2018-04-22T07:00:01Z</time>
      </trkpt>
      <trkpt lat="46.78532" lon="-1.74373">
        <ele>53</ele>
        <time>2018-04-22T07:01:01Z</time>
      </trkpt>
      <trkpt lat="46.78547" lon="-1.74518">
        <ele>53</ele>
        <time>2018-04-22T07:02:01Z</time>
      </trkpt>
      <trkpt lat="46.78554" lon="-1.7458">
        <ele>51</ele>
        <time>2018-04-22T07:03:01Z</time>
      </trkpt>
      <trkpt lat="46.7856" lon="-1.74634">
        <ele>51</ele>
        <time>2018-04-22T07:04:01Z</time>
      </trkpt>
      <trkpt lat="46.78568" lon="-1.74709">
        <ele>51</ele>
        <time>2018-04-22T07:05:01Z</time>
      </trkpt>
      <trkpt lat="46.78574" lon="-1.7477">
        <ele>51</ele>
        <time>2018-04-22T07:06:01Z</time>
      </trkpt>
      <trkpt lat="46.78576" lon="-1.74794">
        <ele>51</ele>
        <time>2018-04-22T07:07:01Z</time>
      </trkpt>
      <trkpt lat="46.78577" lon="-1.74814">
        <ele>50</ele>
        <time>2018-04-22T07:08:01Z</time>
      </trkpt>
      <trkpt lat="46.78577" lon="-1.74832">
        <ele>50</ele>
        <time>2018-04-22T07:09:01Z</time>
      </trkpt>
      <trkpt lat="46.78578" lon="-1.74838">
        <ele>50</ele>
        <time>2018-04-22T07:10:01Z</time>
      </trkpt>
      <trkpt lat="46.78577" lon="-1.74847">
        <ele>50</ele>
        <time>2018-04-22T07:11:01Z</time>
      </trkpt>
      <trkpt lat="46.78577" lon="-1.74855">
        <ele>50</ele>
        <time>2018-04-22T07:12:01Z</time>
      </trkpt>
      <trkpt lat="46.78576" lon="-1.74865">
        <ele>50</ele>
        <time>2018-04-22T07:13:01Z</time>
      </trkpt>
      <trkpt lat="46.78575" lon="-1.74872">
        <ele>50</ele>
        <time>2018-04-22T07:14:01Z</time>
      </trkpt>
      <trkpt lat="46.78573" lon="-1.74882">
        <ele>50</ele>
        <time>2018-04-22T07:15:01Z</time>
      </trkpt>
      <trkpt lat="46.78566" lon="-1.74925">
        <ele>50</ele>
        <time>2018-04-22T07:16:01Z</time>
      </trkpt>
      <trkpt lat="46.7855" lon="-1.75001">
        <ele>49</ele>
        <time>2018-04-22T07:17:01Z</time>
      </trkpt>
      <trkpt lat="46.78547" lon="-1.7502">
        <ele>49</ele>
        <time>2018-04-22T07:18:01Z</time>
      </trkpt>
      <trkpt lat="46.78532" lon="-1.7509">
        <ele>49</ele>
        <time>2018-04-22T07:19:01Z</time>
      </trkpt>
      <trkpt lat="46.78528" lon="-1.75115">
        <ele>48</ele>
        <time>2018-04-22T07:20:01Z</time>
      </trkpt>
      <trkpt lat="46.78511" lon="-1.75198">
        <ele>48</ele>
        <time>2018-04-22T07:21:01Z</time>
      </trkpt>
      <trkpt lat="46.78505" lon="-1.7523">
        <ele>49</ele>
        <time>2018-04-22T07:22:01Z</time>
      </trkpt>
      <trkpt lat="46.7848" lon="-1.75352">
        <ele>49</ele>
        <time>2018-04-22T07:23:01Z</time>
      </trkpt>
      <trkpt lat="46.78473" lon="-1.75387">
        <ele>49</ele>
        <time>2018-04-22T07:24:01Z</time>
      </trkpt>
      <trkpt lat="46.78459" lon="-1.75455">
        <ele>48</ele>
        <time>2018-04-22T07:25:01Z</time>
      </trkpt>
      <trkpt lat="46.78448" lon="-1.75511">
        <ele>48</ele>
        <time>2018-04-22T07:26:01Z</time>
      </trkpt>
      <trkpt lat="46.7844" lon="-1.75543">
        <ele>47</ele>
        <time>2018-04-22T07:27:01Z</time>
      </trkpt>
      <trkpt lat="46.78435" lon="-1.7556">
        <ele>47</ele>
        <time>2018-04-22T07:28:01Z</time>
      </trkpt>
      <trkpt lat="46.78429" lon="-1.75576">
        <ele>46</ele>
        <time>2018-04-22T07:29:01Z</time>
      </trkpt>
      <trkpt lat="46.78416" lon="-1.75611">
        <ele>46</ele>
        <time>2018-04-22T07:30:01Z</time>
      </trkpt>
      <trkpt lat="46.78404" lon="-1.75639">
        <ele>45</ele>
        <time>2018-04-22T07:31:01Z</time>
      </trkpt>
      <trkpt lat="46.7839" lon="-1.75668">
        <ele>45</ele>
        <time>2018-04-22T07:32:01Z</time>
      </trkpt>
      <trkpt lat="46.78386" lon="-1.75677">
        <ele>45</ele>
        <time>2018-04-22T07:33:01Z</time>
      </trkpt>
      <trkpt lat="46.78375" lon="-1.757">
        <ele>46</ele>
        <time>2018-04-22T07:34:01Z</time>
      </trkpt>
      <trkpt lat="46.78364" lon="-1.75725">
        <ele>46</ele>
        <time>2018-04-22T07:35:01Z</time>
      </trkpt>
      <trkpt lat="46.78345" lon="-1.75763">
        <ele>47</ele>
        <time>2018-04-22T07:36:01Z</time>
      </trkpt>
      <trkpt lat="46.78322" lon="-1.75813">
        <ele>47</ele>
        <time>2018-04-22T07:37:01Z</time>
      </trkpt>
      <trkpt lat="46.78305" lon="-1.75849">
        <ele>46</ele>
        <time>2018-04-22T07:38:01Z</time>
      </trkpt>
      <trkpt lat="46.78287" lon="-1.75884">
        <ele>46</ele>
        <time>2018-04-22T07:39:01Z</time>
      </trkpt>
      <trkpt lat="46.78266" lon="-1.7593">
        <ele>45</ele>
        <time>2018-04-22T07:40:01Z</time>
      </trkpt>
      <trkpt lat="46.7825" lon="-1.75964">
        <ele>45</ele>
        <time>2018-04-22T07:41:01Z</time>
      </trkpt>
      <trkpt lat="46.78249" lon="-1.75965">
        <ele>45</ele>
        <time>2018-04-22T07:42:01Z</time>
      </trkpt>
      <trkpt lat="46.78239" lon="-1.75987">
        <ele>45</ele>
        <time>2018-04-22T07:43:01Z</time>
      </trkpt>
      <trkpt lat="46.78228" lon="-1.7601">
        <ele>45</ele>
        <time>2018-04-22T07:44:01Z</time>
      </trkpt>
      <trkpt lat="46.7821" lon="-1.76048">
        <ele>46</ele>
        <time>2018-04-22T07:45:01Z</time>
      </trkpt>
      <trkpt lat="46.782" lon="-1.76071">
        <ele>47</ele>
        <time>2018-04-22T07:46:01Z</time>
      </trkpt>
      <trkpt lat="46.78187" lon="-1.76098">
        <ele>47</ele>
        <time>2018-04-22T07:47:01Z</time>
      </trkpt>
      <trkpt lat="46.7816" lon="-1.76152">
        <ele>47</ele>
        <time>2018-04-22T07:48:01Z</time>
      </trkpt>
      <trkpt lat="46.78153" lon="-1.76167">
        <ele>47</ele>
        <time>2018-04-22T07:49:01Z</time>
      </trkpt>
      <trkpt lat="46.78144" lon="-1.76183">
        <ele>47</ele>
        <time>2018-04-22T07:50:01Z</time>
      </trkpt>
      <trkpt lat="46.78128" lon="-1.76204">
        <ele>47</ele>
        <time>2018-04-22T07:51:01Z</time>
      </trkpt>
      <trkpt lat="46.78109" lon="-1.76231">
        <ele>47</ele>
        <time>2018-04-22T07:52:01Z</time>
      </trkpt>
      <trkpt lat="46.7809" lon="-1.76255">
        <ele>47</ele>
        <time>2018-04-22T07:53:01Z</time>
      </trkpt>
      <trkpt lat="46.78078" lon="-1.76268">
        <ele>47</ele>
        <time>2018-04-22T07:54:01Z</time>
      </trkpt>
      <trkpt lat="46.78055" lon="-1.76297">
        <ele>48</ele>
        <time>2018-04-22T07:55:01Z</time>
      </trkpt>
      <trkpt lat="46.78027" lon="-1.76332">
        <ele>50</ele>
        <time>2018-04-22T07:56:01Z</time>
      </trkpt>
      <trkpt lat="46.78008" lon="-1.76355">
        <ele>50</ele>
        <time>2018-04-22T07:57:01Z</time>
      </trkpt>
      <trkpt lat="46.77988" lon="-1.7638">
        <ele>50</ele>
        <time>2018-04-22T07:58:01Z</time>
      </trkpt>
      <trkpt lat="46.77967" lon="-1.76407">
        <ele>50</ele>
        <time>2018-04-22T07:59:01Z</time>
      </trkpt>
      <trkpt lat="46.77951" lon="-1.76427">
        <ele>50</ele>
        <time>2018-04-22T08:00:01Z</time>
      </trkpt>
      <trkpt lat="46.77928" lon="-1.76455">
        <ele>50</ele>
        <time>2018-04-22T08:01:01Z</time>
      </trkpt>
      <trkpt lat="46.77913" lon="-1.76474">
        <ele>50</ele>
        <time>2018-04-22T08:02:01Z</time>
      </trkpt>
      <trkpt lat="46.77883" lon="-1.76512">
        <ele>51</ele>
        <time>2018-04-22T08:03:01Z</time>
      </trkpt>
      <trkpt lat="46.77854" lon="-1.76548">
        <ele>52</ele>
        <time>2018-04-22T08:04:01Z</time>
      </trkpt>
      <trkpt lat="46.77845" lon="-1.76559">
        <ele>52</ele>
        <time>2018-04-22T08:05:01Z</time>
      </trkpt>
      <trkpt lat="46.77826" lon="-1.76584">
        <ele>52</ele>
        <time>2018-04-22T08:06:01Z</time>
      </trkpt>
      <trkpt lat="46.77822" lon="-1.76589">
        <ele>52</ele>
        <time>2018-04-22T08:07:01Z</time>
      </trkpt>
      <trkpt lat="46.7779" lon="-1.76628">
        <ele>52</ele>
        <time>2018-04-22T08:08:01Z</time>
      </trkpt>
      <trkpt lat="46.77786" lon="-1.76634">
        <ele>52</ele>
        <time>2018-04-22T08:09:01Z</time>
      </trkpt>
      <trkpt lat="46.77743" lon="-1.76686">
        <ele>53</ele>
        <time>2018-04-22T08:10:01Z</time>
      </trkpt>
      <trkpt lat="46.7773" lon="-1.76703">
        <ele>52</ele>
        <time>2018-04-22T08:11:01Z</time>
      </trkpt>
      <trkpt lat="46.77721" lon="-1.76715">
        <ele>52</ele>
        <time>2018-04-22T08:12:01Z</time>
      </trkpt>
      <trkpt lat="46.77712" lon="-1.7673">
        <ele>52</ele>
        <time>2018-04-22T08:13:01Z</time>
      </trkpt>
      <trkpt lat="46.77712" lon="-1.7673">
        <ele>52</ele>
        <time>2018-04-22T08:14:01Z</time>
      </trkpt>
      <trkpt lat="46.77665" lon="-1.76719">
        <ele>53</ele>
        <time>2018-04-22T08:15:01Z</time>
      </trkpt>
      <trkpt lat="46.77665" lon="-1.76719">
        <ele>53</ele>
        <time>2018-04-22T08:16:01Z</time>
      </trkpt>
      <trkpt lat="46.77662" lon="-1.76729">
        <ele>53</ele>
        <time>2018-04-22T08:17:01Z</time>
      </trkpt>
      <trkpt lat="46.77659" lon="-1.76736">
        <ele>53</ele>
        <time>2018-04-22T08:18:01Z</time>
      </trkpt>
      <trkpt lat="46.77658" lon="-1.76739">
        <ele>53</ele>
        <time>2018-04-22T08:19:01Z</time>
      </trkpt>
      <trkpt lat="46.77656" lon="-1.76741">
        <ele>53</ele>
        <time>2018-04-22T08:20:01Z</time>
      </trkpt>
      <trkpt lat="46.77652" lon="-1.76746">
        <ele>53</ele>
        <time>2018-04-22T08:21:01Z</time>
      </trkpt>
      <trkpt lat="46.77646" lon="-1.76753">
        <ele>53</ele>
        <time>2018-04-22T08:22:01Z</time>
      </trkpt>
      <trkpt lat="46.77642" lon="-1.7676">
        <ele>53</ele>
        <time>2018-04-22T08:23:01Z</time>
      </trkpt>
      <trkpt lat="46.77617" lon="-1.76807">
        <ele>53</ele>
        <time>2018-04-22T08:24:01Z</time>
      </trkpt>
      <trkpt lat="46.77597" lon="-1.76842">
        <ele>53</ele>
        <time>2018-04-22T08:25:01Z</time>
      </trkpt>
      <trkpt lat="46.77592" lon="-1.76851">
        <ele>53</ele>
        <time>2018-04-22T08:26:01Z</time>
      </trkpt>
      <trkpt lat="46.77554" lon="-1.76921">
        <ele>53</ele>
        <time>2018-04-22T08:27:01Z</time>
      </trkpt>
      <trkpt lat="46.77511" lon="-1.77001">
        <ele>53</ele>
        <time>2018-04-22T08:28:01Z</time>
      </trkpt>
      <trkpt lat="46.77469" lon="-1.77081">
        <ele>52</ele>
        <time>2018-04-22T08:29:01Z</time>
      </trkpt>
      <trkpt lat="46.77427" lon="-1.77158">
        <ele>51</ele>
        <time>2018-04-22T08:30:01Z</time>
      </trkpt>
      <trkpt lat="46.77389" lon="-1.77229">
        <ele>51</ele>
        <time>2018-04-22T08:31:01Z</time>
      </trkpt>
      <trkpt lat="46.7736" lon="-1.77283">
        <ele>51</ele>
        <time>2018-04-22T08:32:01Z</time>
      </trkpt>
      <trkpt lat="46.77331" lon="-1.77337">
        <ele>50</ele>
        <time>2018-04-22T08:33:01Z</time>
      </trkpt>
      <trkpt lat="46.77301" lon="-1.77393">
        <ele>50</ele>
        <time>2018-04-22T08:34:01Z</time>
      </trkpt>
      <trkpt lat="46.77282" lon="-1.77428">
        <ele>50</ele>
        <time>2018-04-22T08:35:01Z</time>
      </trkpt>
      <trkpt lat="46.77263" lon="-1.77462">
        <ele>51</ele>
        <time>2018-04-22T08:36:01Z</time>
      </trkpt>
      <trkpt lat="46.77259" lon="-1.77471">
        <ele>51</ele>
        <time>2018-04-22T08:37:01Z</time>
      </trkpt>
      <trkpt lat="46.77255" lon="-1.7748">
        <ele>51</ele>
        <time>2018-04-22T08:38:01Z</time>
      </trkpt>
      <trkpt lat="46.7725" lon="-1.77491">
        <ele>51</ele>
        <time>2018-04-22T08:39:01Z</time>
      </trkpt>
      <trkpt lat="46.77246" lon="-1.77501">
        <ele>51</ele>
        <time>2018-04-22T08:40:01Z</time>
      </trkpt>
      <trkpt lat="46.77243" lon="-1.77511">
        <ele>51</ele>
        <time>2018-04-22T08:41:01Z</time>
      </trkpt>
      <trkpt lat="46.7724" lon="-1.77522">
        <ele>51</ele>
        <time>2018-04-22T08:42:01Z</time>
      </trkpt>
      <trkpt lat="46.77237" lon="-1.77534">
        <ele>52</ele>
        <time>2018-04-22T08:43:01Z</time>
      </trkpt>
      <trkpt lat="46.77233" lon="-1.77556">
        <ele>52</ele>
        <time>2018-04-22T08:44:01Z</time>
      </trkpt>
      <trkpt lat="46.77229" lon="-1.7758">
        <ele>52</ele>
        <time>2018-04-22T08:45:01Z</time>
      </trkpt>
      <trkpt lat="46.77225" lon="-1.77615">
        <ele>51</ele>
        <time>2018-04-22T08:46:01Z</time>
      </trkpt>
      <trkpt lat="46.77219" lon="-1.77662">
        <ele>50</ele>
        <time>2018-04-22T08:47:01Z</time>
      </trkpt>
      <trkpt lat="46.77218" lon="-1.77677">
        <ele>50</ele>
        <time>2018-04-22T08:48:01Z</time>
      </trkpt>
      <trkpt lat="46.77213" lon="-1.77717">
        <ele>51</ele>
        <time>2018-04-22T08:49:01Z</time>
      </trkpt>
      <trkpt lat="46.77213" lon="-1.7772">
        <ele>51</ele>
        <time>2018-04-22T08:50:01Z</time>
      </trkpt>
      <trkpt lat="46.77207" lon="-1.77775">
        <ele>51</ele>
        <time>2018-04-22T08:51:01Z</time>
      </trkpt>
      <trkpt lat="46.77204" lon="-1.77804">
        <ele>52</ele>
        <time>2018-04-22T08:52:01Z</time>
      </trkpt>
      <trkpt lat="46.772" lon="-1.77827">
        <ele>52</ele>
        <time>2018-04-22T08:53:01Z</time>
      </trkpt>
      <trkpt lat="46.77195" lon="-1.77866">
        <ele>52</ele>
        <time>2018-04-22T08:54:01Z</time>
      </trkpt>
      <trkpt lat="46.77189" lon="-1.779">
        <ele>52</ele>
        <time>2018-04-22T08:55:01Z</time>
      </trkpt>
      <trkpt lat="46.77184" lon="-1.77931">
        <ele>52</ele>
        <time>2018-04-22T08:56:01Z</time>
      </trkpt>
      <trkpt lat="46.77175" lon="-1.77979">
        <ele>52</ele>
        <time>2018-04-22T08:57:01Z</time>
      </trkpt>
      <trkpt lat="46.77163" lon="-1.78044">
        <ele>52</ele>
        <time>2018-04-22T08:58:01Z</time>
      </trkpt>
      <trkpt lat="46.77153" lon="-1.781">
        <ele>53</ele>
        <time>2018-04-22T08:59:01Z</time>
      </trkpt>
      <trkpt lat="46.77145" lon="-1.78146">
        <ele>52</ele>
        <time>2018-04-22T09:00:01Z</time>
      </trkpt>
      <trkpt lat="46.77139" lon="-1.7818">
        <ele>52</ele>
        <time>2018-04-22T09:01:01Z</time>
      </trkpt>
      <trkpt lat="46.77136" lon="-1.78202">
        <ele>52</ele>
        <time>2018-04-22T09:02:01Z</time>
      </trkpt>
      <trkpt lat="46.77132" lon="-1.78246">
        <ele>51</ele>
        <time>2018-04-22T09:03:01Z</time>
      </trkpt>
      <trkpt lat="46.77127" lon="-1.78292">
        <ele>52</ele>
        <time>2018-04-22T09:04:01Z</time>
      </trkpt>
      <trkpt lat="46.77121" lon="-1.78352">
        <ele>52</ele>
        <time>2018-04-22T09:05:01Z</time>
      </trkpt>
      <trkpt lat="46.77117" lon="-1.78396">
        <ele>53</ele>
        <time>2018-04-22T09:06:01Z</time>
      </trkpt>
      <trkpt lat="46.77115" lon="-1.7842">
        <ele>54</ele>
        <time>2018-04-22T09:07:01Z</time>
      </trkpt>
      <trkpt lat="46.77114" lon="-1.78433">
        <ele>54</ele>
        <time>2018-04-22T09:08:01Z</time>
      </trkpt>
      <trkpt lat="46.77111" lon="-1.78462">
        <ele>53</ele>
        <time>2018-04-22T09:09:01Z</time>
      </trkpt>
      <trkpt lat="46.77109" lon="-1.78483">
        <ele>53</ele>
        <time>2018-04-22T09:10:01Z</time>
      </trkpt>
      <trkpt lat="46.77106" lon="-1.785">
        <ele>53</ele>
        <time>2018-04-22T09:11:01Z</time>
      </trkpt>
      <trkpt lat="46.771" lon="-1.78527">
        <ele>53</ele>
        <time>2018-04-22T09:12:01Z</time>
      </trkpt>
      <trkpt lat="46.77093" lon="-1.78567">
        <ele>52</ele>
        <time>2018-04-22T09:13:01Z</time>
      </trkpt>
      <trkpt lat="46.77081" lon="-1.78624">
        <ele>52</ele>
        <time>2018-04-22T09:14:01Z</time>
      </trkpt>
      <trkpt lat="46.7707" lon="-1.78684">
        <ele>52</ele>
        <time>2018-04-22T09:15:01Z</time>
      </trkpt>
      <trkpt lat="46.77059" lon="-1.78738">
        <ele>52</ele>
        <time>2018-04-22T09:16:01Z</time>
      </trkpt>
      <trkpt lat="46.77043" lon="-1.7882">
        <ele>51</ele>
        <time>2018-04-22T09:17:01Z</time>
      </trkpt>
      <trkpt lat="46.77033" lon="-1.78869">
        <ele>51</ele>
        <time>2018-04-22T09:18:01Z</time>
      </trkpt>
      <trkpt lat="46.77026" lon="-1.78906">
        <ele>52</ele>
        <time>2018-04-22T09:19:01Z</time>
      </trkpt>
      <trkpt lat="46.77019" lon="-1.78939">
        <ele>52</ele>
        <time>2018-04-22T09:20:01Z</time>
      </trkpt>
      <trkpt lat="46.77009" lon="-1.78988">
        <ele>53</ele>
        <time>2018-04-22T09:21:01Z</time>
      </trkpt>
      <trkpt lat="46.77009" lon="-1.78991">
        <ele>53</ele>
        <time>2018-04-22T09:22:01Z</time>
      </trkpt>
      <trkpt lat="46.77002" lon="-1.79024">
        <ele>53</ele>
        <time>2018-04-22T09:23:01Z</time>
      </trkpt>
      <trkpt lat="46.76996" lon="-1.79055">
        <ele>52</ele>
        <time>2018-04-22T09:24:01Z</time>
      </trkpt>
      <trkpt lat="46.7699" lon="-1.79087">
        <ele>52</ele>
        <time>2018-04-22T09:25:01Z</time>
      </trkpt>
      <trkpt lat="46.76986" lon="-1.79106">
        <ele>52</ele>
        <time>2018-04-22T09:26:01Z</time>
      </trkpt>
      <trkpt lat="46.76981" lon="-1.79129">
        <ele>52</ele>
        <time>2018-04-22T09:27:01Z</time>
      </trkpt>
      <trkpt lat="46.76978" lon="-1.79146">
        <ele>52</ele>
        <time>2018-04-22T09:28:01Z</time>
      </trkpt>
      <trkpt lat="46.76972" lon="-1.79166">
        <ele>52</ele>
        <time>2018-04-22T09:29:01Z</time>
      </trkpt>
      <trkpt lat="46.76968" lon="-1.79183">
        <ele>52</ele>
        <time>2018-04-22T09:30:01Z</time>
      </trkpt>
      <trkpt lat="46.76965" lon="-1.79196">
        <ele>52</ele>
        <time>2018-04-22T09:31:01Z</time>
      </trkpt>
      <trkpt lat="46.76962" lon="-1.79204">
        <ele>52</ele>
        <time>2018-04-22T09:32:01Z</time>
      </trkpt>
      <trkpt lat="46.76946" lon="-1.79245">
        <ele>53</ele>
        <time>2018-04-22T09:33:01Z</time>
      </trkpt>
      <trkpt lat="46.7692" lon="-1.79305">
        <ele>52</ele>
        <time>2018-04-22T09:34:01Z</time>
      </trkpt>
      <trkpt lat="46.76896" lon="-1.79363">
        <ele>50</ele>
        <time>2018-04-22T09:35:01Z</time>
      </trkpt>
      <trkpt lat="46.7688" lon="-1.794">
        <ele>50</ele>
        <time>2018-04-22T09:36:01Z</time>
      </trkpt>
      <trkpt lat="46.76868" lon="-1.79427">
        <ele>49</ele>
        <time>2018-04-22T09:37:01Z</time>
      </trkpt>
      <trkpt lat="46.76857" lon="-1.79454">
        <ele>49</ele>
        <time>2018-04-22T09:38:01Z</time>
      </trkpt>
      <trkpt lat="46.76823" lon="-1.79529">
        <ele>49</ele>
        <time>2018-04-22T09:39:01Z</time>
      </trkpt>
      <trkpt lat="46.76818" lon="-1.79542">
        <ele>49</ele>
        <time>2018-04-22T09:40:01Z</time>
      </trkpt>
      <trkpt lat="46.76813" lon="-1.79556">
        <ele>48</ele>
        <time>2018-04-22T09:41:01Z</time>
      </trkpt>
      <trkpt lat="46.76809" lon="-1.79569">
        <ele>48</ele>
        <time>2018-04-22T09:42:01Z</time>
      </trkpt>
      <trkpt lat="46.76806" lon="-1.79583">
        <ele>48</ele>
        <time>2018-04-22T09:43:01Z</time>
      </trkpt>
      <trkpt lat="46.76803" lon="-1.79599">
        <ele>48</ele>
        <time>2018-04-22T09:44:01Z</time>
      </trkpt>
      <trkpt lat="46.76801" lon="-1.79619">
        <ele>48</ele>
        <time>2018-04-22T09:45:01Z</time>
      </trkpt>
      <trkpt lat="46.76796" lon="-1.79658">
        <ele>47</ele>
        <time>2018-04-22T09:46:01Z</time>
      </trkpt>
      <trkpt lat="46.7679" lon="-1.79712">
        <ele>47</ele>
        <time>2018-04-22T09:47:01Z</time>
      </trkpt>
      <trkpt lat="46.76784" lon="-1.79768">
        <ele>46</ele>
        <time>2018-04-22T09:48:01Z</time>
      </trkpt>
      <trkpt lat="46.76782" lon="-1.79789">
        <ele>46</ele>
        <time>2018-04-22T09:49:01Z</time>
      </trkpt>
      <trkpt lat="46.76772" lon="-1.79876">
        <ele>45</ele>
        <time>2018-04-22T09:50:01Z</time>
      </trkpt>
      <trkpt lat="46.76767" lon="-1.7992">
        <ele>44</ele>
        <time>2018-04-22T09:51:01Z</time>
      </trkpt>
      <trkpt lat="46.76766" lon="-1.79937">
        <ele>44</ele>
        <time>2018-04-22T09:52:01Z</time>
      </trkpt>
      <trkpt lat="46.76765" lon="-1.79951">
        <ele>45</ele>
        <time>2018-04-22T09:53:01Z</time>
      </trkpt>
      <trkpt lat="46.76764" lon="-1.79968">
        <ele>45</ele>
        <time>2018-04-22T09:54:01Z</time>
      </trkpt>
      <trkpt lat="46.76763" lon="-1.79983">
        <ele>45</ele>
        <time>2018-04-22T09:55:01Z</time>
      </trkpt>
      <trkpt lat="46.76763" lon="-1.80004">
        <ele>45</ele>
        <time>2018-04-22T09:56:01Z</time>
      </trkpt>
      <trkpt lat="46.76762" lon="-1.80082">
        <ele>46</ele>
        <time>2018-04-22T09:57:01Z</time>
      </trkpt>
      <trkpt lat="46.76762" lon="-1.80113">
        <ele>46</ele>
        <time>2018-04-22T09:58:01Z</time>
      </trkpt>
      <trkpt lat="46.7676" lon="-1.80199">
        <ele>46</ele>
        <time>2018-04-22T09:59:01Z</time>
      </trkpt>
      <trkpt lat="46.7676" lon="-1.80236">
        <ele>46</ele>
        <time>2018-04-22T10:00:01Z</time>
      </trkpt>
      <trkpt lat="46.76762" lon="-1.80251">
        <ele>46</ele>
        <time>2018-04-22T10:01:01Z</time>
      </trkpt>
      <trkpt lat="46.76763" lon="-1.80264">
        <ele>45</ele>
        <time>2018-04-22T10:02:01Z</time>
      </trkpt>
      <trkpt lat="46.76765" lon="-1.80274">
        <ele>45</ele>
        <time>2018-04-22T10:03:01Z</time>
      </trkpt>
      <trkpt lat="46.76769" lon="-1.80289">
        <ele>45</ele>
        <time>2018-04-22T10:04:01Z</time>
      </trkpt>
      <trkpt lat="46.76775" lon="-1.80307">
        <ele>44</ele>
        <time>2018-04-22T10:05:01Z</time>
      </trkpt>
      <trkpt lat="46.7678" lon="-1.80318">
        <ele>44</ele>
        <time>2018-04-22T10:06:01Z</time>
      </trkpt>
      <trkpt lat="46.76791" lon="-1.8034">
        <ele>44</ele>
        <time>2018-04-22T10:07:01Z</time>
      </trkpt>
      <trkpt lat="46.76809" lon="-1.80371">
        <ele>44</ele>
        <time>2018-04-22T10:08:01Z</time>
      </trkpt>
      <trkpt lat="46.76836" lon="-1.80414">
        <ele>45</ele>
        <time>2018-04-22T10:09:01Z</time>
      </trkpt>
      <trkpt lat="46.76846" lon="-1.80429">
        <ele>44</ele>
        <time>2018-04-22T10:10:01Z</time>
      </trkpt>
      <trkpt lat="46.76876" lon="-1.80476">
        <ele>43</ele>
        <time>2018-04-22T10:11:01Z</time>
      </trkpt>
      <trkpt lat="46.76895" lon="-1.80508">
        <ele>42</ele>
        <time>2018-04-22T10:12:01Z</time>
      </trkpt>
      <trkpt lat="46.76899" lon="-1.80517">
        <ele>42</ele>
        <time>2018-04-22T10:13:01Z</time>
      </trkpt>
      <trkpt lat="46.76903" lon="-1.80527">
        <ele>42</ele>
        <time>2018-04-22T10:14:01Z</time>
      </trkpt>
      <trkpt lat="46.76908" lon="-1.8054">
        <ele>41</ele>
        <time>2018-04-22T10:15:01Z</time>
      </trkpt>
      <trkpt lat="46.76912" lon="-1.80556">
        <ele>41</ele>
        <time>2018-04-22T10:16:01Z</time>
      </trkpt>
      <trkpt lat="46.76915" lon="-1.80568">
        <ele>40</ele>
        <time>2018-04-22T10:17:01Z</time>
      </trkpt>
      <trkpt lat="46.7692" lon="-1.80593">
        <ele>40</ele>
        <time>2018-04-22T10:18:01Z</time>
      </trkpt>
      <trkpt lat="46.76925" lon="-1.80619">
        <ele>40</ele>
        <time>2018-04-22T10:19:01Z</time>
      </trkpt>
      <trkpt lat="46.76928" lon="-1.80639">
        <ele>41</ele>
        <time>2018-04-22T10:20:01Z</time>
      </trkpt>
      <trkpt lat="46.76939" lon="-1.80697">
        <ele>41</ele>
        <time>2018-04-22T10:21:01Z</time>
      </trkpt>
      <trkpt lat="46.76944" lon="-1.80723">
        <ele>42</ele>
        <time>2018-04-22T10:22:01Z</time>
      </trkpt>
      <trkpt lat="46.76948" lon="-1.80753">
        <ele>42</ele>
        <time>2018-04-22T10:23:01Z</time>
      </trkpt>
      <trkpt lat="46.7695" lon="-1.80771">
        <ele>42</ele>
        <time>2018-04-22T10:24:01Z</time>
      </trkpt>
      <trkpt lat="46.76951" lon="-1.8078">
        <ele>42</ele>
        <time>2018-04-22T10:25:01Z</time>
      </trkpt>
      <trkpt lat="46.76952" lon="-1.80797">
        <ele>42</ele>
        <time>2018-04-22T10:26:01Z</time>
      </trkpt>
      <trkpt lat="46.76952" lon="-1.80816">
        <ele>42</ele>
        <time>2018-04-22T10:27:01Z</time>
      </trkpt>
      <trkpt lat="46.76952" lon="-1.80838">
        <ele>42</ele>
        <time>2018-04-22T10:28:01Z</time>
      </trkpt>
      <trkpt lat="46.76952" lon="-1.80868">
        <ele>41</ele>
        <time>2018-04-22T10:29:01Z</time>
      </trkpt>
      <trkpt lat="46.7695" lon="-1.80898">
        <ele>41</ele>
        <time>2018-04-22T10:30:01Z</time>
      </trkpt>
      <trkpt lat="46.76949" lon="-1.80917">
        <ele>41</ele>
        <time>2018-04-22T10:31:01Z</time>
      </trkpt>
      <trkpt lat="46.76947" lon="-1.80957">
        <ele>41</ele>
        <time>2018-04-22T10:32:01Z</time>
      </trkpt>
      <trkpt lat="46.76944" lon="-1.81016">
        <ele>42</ele>
        <time>2018-04-22T10:33:01Z</time>
      </trkpt>
      <trkpt lat="46.76941" lon="-1.81066">
        <ele>42</ele>
        <time>2018-04-22T10:34:01Z</time>
      </trkpt>
      <trkpt lat="46.76939" lon="-1.81095">
        <ele>42</ele>
        <time>2018-04-22T10:35:01Z</time>
      </trkpt>
      <trkpt lat="46.76938" lon="-1.81121">
        <ele>43</ele>
        <time>2018-04-22T10:36:01Z</time>
      </trkpt>
      <trkpt lat="46.76936" lon="-1.81139">
        <ele>43</ele>
        <time>2018-04-22T10:37:01Z</time>
      </trkpt>
      <trkpt lat="46.76933" lon="-1.81162">
        <ele>43</ele>
        <time>2018-04-22T10:38:01Z</time>
      </trkpt>
      <trkpt lat="46.76932" lon="-1.81175">
        <ele>43</ele>
        <time>2018-04-22T10:39:01Z</time>
      </trkpt>
      <trkpt lat="46.76928" lon="-1.81204">
        <ele>43</ele>
        <time>2018-04-22T10:40:01Z</time>
      </trkpt>
      <trkpt lat="46.76924" lon="-1.81233">
        <ele>42</ele>
        <time>2018-04-22T10:41:01Z</time>
      </trkpt>
      <trkpt lat="46.76917" lon="-1.81283">
        <ele>41</ele>
        <time>2018-04-22T10:42:01Z</time>
      </trkpt>
      <trkpt lat="46.76908" lon="-1.8134">
        <ele>40</ele>
        <time>2018-04-22T10:43:01Z</time>
      </trkpt>
      <trkpt lat="46.76899" lon="-1.81398">
        <ele>39</ele>
        <time>2018-04-22T10:44:01Z</time>
      </trkpt>
      <trkpt lat="46.76894" lon="-1.81436">
        <ele>38</ele>
        <time>2018-04-22T10:45:01Z</time>
      </trkpt>
      <trkpt lat="46.76887" lon="-1.81484">
        <ele>38</ele>
        <time>2018-04-22T10:46:01Z</time>
      </trkpt>
      <trkpt lat="46.76881" lon="-1.81521">
        <ele>38</ele>
        <time>2018-04-22T10:47:01Z</time>
      </trkpt>
      <trkpt lat="46.76873" lon="-1.81549">
        <ele>37</ele>
        <time>2018-04-22T10:48:01Z</time>
      </trkpt>
      <trkpt lat="46.76864" lon="-1.81578">
        <ele>36</ele>
        <time>2018-04-22T10:49:01Z</time>
      </trkpt>
      <trkpt lat="46.76854" lon="-1.816">
        <ele>35</ele>
        <time>2018-04-22T10:50:01Z</time>
      </trkpt>
      <trkpt lat="46.76846" lon="-1.81617">
        <ele>35</ele>
        <time>2018-04-22T10:51:01Z</time>
      </trkpt>
      <trkpt lat="46.76837" lon="-1.81636">
        <ele>34</ele>
        <time>2018-04-22T10:52:01Z</time>
      </trkpt>
      <trkpt lat="46.76826" lon="-1.81652">
        <ele>34</ele>
        <time>2018-04-22T10:53:01Z</time>
      </trkpt>
      <trkpt lat="46.76805" lon="-1.81679">
        <ele>33</ele>
        <time>2018-04-22T10:54:01Z</time>
      </trkpt>
      <trkpt lat="46.76768" lon="-1.81726">
        <ele>30</ele>
        <time>2018-04-22T10:55:01Z</time>
      </trkpt>
      <trkpt lat="46.7673" lon="-1.81773">
        <ele>28</ele>
        <time>2018-04-22T10:56:01Z</time>
      </trkpt>
      <trkpt lat="46.76685" lon="-1.8183">
        <ele>25</ele>
        <time>2018-04-22T10:57:01Z</time>
      </trkpt>
      <trkpt lat="46.76638" lon="-1.8189">
        <ele>22</ele>
        <time>2018-04-22T10:58:01Z</time>
      </trkpt>
      <trkpt lat="46.76596" lon="-1.81943">
        <ele>19</ele>
        <time>2018-04-22T10:59:01Z</time>
      </trkpt>
      <trkpt lat="46.76572" lon="-1.81972">
        <ele>18</ele>
        <time>2018-04-22T11:00:01Z</time>
      </trkpt>
      <trkpt lat="46.76563" lon="-1.81987">
        <ele>17</ele>
        <time>2018-04-22T11:01:01Z</time>
      </trkpt>
      <trkpt lat="46.76557" lon="-1.81999">
        <ele>17</ele>
        <time>2018-04-22T11:02:01Z</time>
      </trkpt>
      <trkpt lat="46.76553" lon="-1.8201">
        <ele>17</ele>
        <time>2018-04-22T11:03:01Z</time>
      </trkpt>
      <trkpt lat="46.76549" lon="-1.82023">
        <ele>17</ele>
        <time>2018-04-22T11:04:01Z</time>
      </trkpt>
      <trkpt lat="46.76545" lon="-1.82037">
        <ele>17</ele>
        <time>2018-04-22T11:05:01Z</time>
      </trkpt>
      <trkpt lat="46.76543" lon="-1.82051">
        <ele>18</ele>
        <time>2018-04-22T11:06:01Z</time>
      </trkpt>
      <trkpt lat="46.76541" lon="-1.82067">
        <ele>18</ele>
        <time>2018-04-22T11:07:01Z</time>
      </trkpt>
      <trkpt lat="46.76541" lon="-1.82087">
        <ele>18</ele>
        <time>2018-04-22T11:08:01Z</time>
      </trkpt>
      <trkpt lat="46.76544" lon="-1.82133">
        <ele>18</ele>
        <time>2018-04-22T11:09:01Z</time>
      </trkpt>
      <trkpt lat="46.76546" lon="-1.82166">
        <ele>18</ele>
        <time>2018-04-22T11:10:01Z</time>
      </trkpt>
      <trkpt lat="46.76551" lon="-1.82255">
        <ele>17</ele>
        <time>2018-04-22T11:11:01Z</time>
      </trkpt>
      <trkpt lat="46.76553" lon="-1.82282">
        <ele>17</ele>
        <time>2018-04-22T11:12:01Z</time>
      </trkpt>
      <trkpt lat="46.76555" lon="-1.82311">
        <ele>17</ele>
        <time>2018-04-22T11:13:01Z</time>
      </trkpt>
      <trkpt lat="46.76556" lon="-1.82325">
        <ele>17</ele>
        <time>2018-04-22T11:14:01Z</time>
      </trkpt>
      <trkpt lat="46.76558" lon="-1.82338">
        <ele>17</ele>
        <time>2018-04-22T11:15:01Z</time>
      </trkpt>
      <trkpt lat="46.76561" lon="-1.82349">
        <ele>17</ele>
        <time>2018-04-22T11:16:01Z</time>
      </trkpt>
      <trkpt lat="46.76561" lon="-1.8235">
        <ele>17</ele>
        <time>2018-04-22T11:17:01Z</time>
      </trkpt>
      <trkpt lat="46.76565" lon="-1.82358">
        <ele>17</ele>
        <time>2018-04-22T11:18:01Z</time>
      </trkpt>
      <trkpt lat="46.7657" lon="-1.82369">
        <ele>17</ele>
        <time>2018-04-22T11:19:01Z</time>
      </trkpt>
      <trkpt lat="46.76579" lon="-1.82388">
        <ele>17</ele>
        <time>2018-04-22T11:20:01Z</time>
      </trkpt>
      <trkpt lat="46.76596" lon="-1.82418">
        <ele>17</ele>
        <time>2018-04-22T11:21:01Z</time>
      </trkpt>
      <trkpt lat="46.76621" lon="-1.82458">
        <ele>17</ele>
        <time>2018-04-22T11:22:01Z</time>
      </trkpt>
      <trkpt lat="46.76638" lon="-1.82487">
        <ele>17</ele>
        <time>2018-04-22T11:23:01Z</time>
      </trkpt>
      <trkpt lat="46.76645" lon="-1.82502">
        <ele>16</ele>
        <time>2018-04-22T11:24:01Z</time>
      </trkpt>
      <trkpt lat="46.76652" lon="-1.82516">
        <ele>17</ele>
        <time>2018-04-22T11:25:01Z</time>
      </trkpt>
      <trkpt lat="46.76656" lon="-1.8253">
        <ele>17</ele>
        <time>2018-04-22T11:26:01Z</time>
      </trkpt>
      <trkpt lat="46.76661" lon="-1.82545">
        <ele>17</ele>
        <time>2018-04-22T11:27:01Z</time>
      </trkpt>
      <trkpt lat="46.76666" lon="-1.82566">
        <ele>17</ele>
        <time>2018-04-22T11:28:01Z</time>
      </trkpt>
      <trkpt lat="46.76669" lon="-1.82585">
        <ele>17</ele>
        <time>2018-04-22T11:29:01Z</time>
      </trkpt>
      <trkpt lat="46.76673" lon="-1.82609">
        <ele>17</ele>
        <time>2018-04-22T11:30:01Z</time>
      </trkpt>
      <trkpt lat="46.76679" lon="-1.82648">
        <ele>17</ele>
        <time>2018-04-22T11:31:01Z</time>
      </trkpt>
      <trkpt lat="46.76683" lon="-1.82666">
        <ele>17</ele>
        <time>2018-04-22T11:32:01Z</time>
      </trkpt>
      <trkpt lat="46.76688" lon="-1.82689">
        <ele>17</ele>
        <time>2018-04-22T11:33:01Z</time>
      </trkpt>
      <trkpt lat="46.76692" lon="-1.82703">
        <ele>17</ele>
        <time>2018-04-22T11:34:01Z</time>
      </trkpt>
      <trkpt lat="46.76694" lon="-1.82713">
        <ele>17</ele>
        <time>2018-04-22T11:35:01Z</time>
      </trkpt>
      <trkpt lat="46.76699" lon="-1.82724">
        <ele>17</ele>
        <time>2018-04-22T11:36:01Z</time>
      </trkpt>
      <trkpt lat="46.76704" lon="-1.82738">
        <ele>17</ele>
        <time>2018-04-22T11:37:01Z</time>
      </trkpt>
      <trkpt lat="46.76714" lon="-1.8276">
        <ele>18</ele>
        <time>2018-04-22T11:38:01Z</time>
      </trkpt>
      <trkpt lat="46.76727" lon="-1.8279">
        <ele>18</ele>
        <time>2018-04-22T11:39:01Z</time>
      </trkpt>
      <trkpt lat="46.76741" lon="-1.82822">
        <ele>19</ele>
        <time>2018-04-22T11:40:01Z</time>
      </trkpt>
      <trkpt lat="46.76751" lon="-1.82845">
        <ele>19</ele>
        <time>2018-04-22T11:41:01Z</time>
      </trkpt>
      <trkpt lat="46.76758" lon="-1.82858">
        <ele>19</ele>
        <time>2018-04-22T11:42:01Z</time>
      </trkpt>
      <trkpt lat="46.76763" lon="-1.82868">
        <ele>19</ele>
        <time>2018-04-22T11:43:01Z</time>
      </trkpt>
      <trkpt lat="46.76769" lon="-1.82877">
        <ele>19</ele>
        <time>2018-04-22T11:44:01Z</time>
      </trkpt>
      <trkpt lat="46.76776" lon="-1.82887">
        <ele>18</ele>
        <time>2018-04-22T11:45:01Z</time>
      </trkpt>
      <trkpt lat="46.76784" lon="-1.82898">
        <ele>18</ele>
        <time>2018-04-22T11:46:01Z</time>
      </trkpt>
      <trkpt lat="46.76791" lon="-1.82906">
        <ele>18</ele>
        <time>2018-04-22T11:47:01Z</time>
      </trkpt>
      <trkpt lat="46.76799" lon="-1.82915">
        <ele>18</ele>
        <time>2018-04-22T11:48:01Z</time>
      </trkpt>
      <trkpt lat="46.76807" lon="-1.82924">
        <ele>18</ele>
        <time>2018-04-22T11:49:01Z</time>
      </trkpt>
      <trkpt lat="46.76814" lon="-1.82932">
        <ele>18</ele>
        <time>2018-04-22T11:50:01Z</time>
      </trkpt>
      <trkpt lat="46.76821" lon="-1.82937">
        <ele>18</ele>
        <time>2018-04-22T11:51:01Z</time>
      </trkpt>
      <trkpt lat="46.76824" lon="-1.8294">
        <ele>18</ele>
        <time>2018-04-22T11:52:01Z</time>
      </trkpt>
      <trkpt lat="46.76831" lon="-1.82946">
        <ele>18</ele>
        <time>2018-04-22T11:53:01Z</time>
      </trkpt>
      <trkpt lat="46.76856" lon="-1.82965">
        <ele>19</ele>
        <time>2018-04-22T11:54:01Z</time>
      </trkpt>
      <trkpt lat="46.7688" lon="-1.82984">
        <ele>20</ele>
        <time>2018-04-22T11:55:01Z</time>
      </trkpt>
      <trkpt lat="46.7688" lon="-1.82984">
        <ele>20</ele>
        <time>2018-04-22T11:56:01Z</time>
      </trkpt>
      <trkpt lat="46.76867" lon="-1.83007">
        <ele>19</ele>
        <time>2018-04-22T11:57:01Z</time>
      </trkpt>
      <trkpt lat="46.76857" lon="-1.83027">
        <ele>18</ele>
        <time>2018-04-22T11:58:01Z</time>
      </trkpt>
      <trkpt lat="46.76846" lon="-1.83047">
        <ele>18</ele>
        <time>2018-04-22T11:59:01Z</time>
      </trkpt>
      <trkpt lat="46.76838" lon="-1.83065">
        <ele>17</ele>
        <time>2018-04-22T12:00:01Z</time>
      </trkpt>
      <trkpt lat="46.76831" lon="-1.83082">
        <ele>17</ele>
        <time>2018-04-22T12:01:01Z</time>
      </trkpt>
      <trkpt lat="46.76824" lon="-1.83101">
        <ele>17</ele>
        <time>2018-04-22T12:02:01Z</time>
      </trkpt>
      <trkpt lat="46.76818" lon="-1.83118">
        <ele>18</ele>
        <time>2018-04-22T12:03:01Z</time>
      </trkpt>
      <trkpt lat="46.76813" lon="-1.83135">
        <ele>18</ele>
        <time>2018-04-22T12:04:01Z</time>
      </trkpt>
      <trkpt lat="46.76802" lon="-1.83166">
        <ele>19</ele>
        <time>2018-04-22T12:05:01Z</time>
      </trkpt>
      <trkpt lat="46.76797" lon="-1.83181">
        <ele>19</ele>
        <time>2018-04-22T12:06:01Z</time>
      </trkpt>
      <trkpt lat="46.76792" lon="-1.83201">
        <ele>19</ele>
        <time>2018-04-22T12:07:01Z</time>
      </trkpt>
      <trkpt lat="46.76787" lon="-1.83216">
        <ele>19</ele>
        <time>2018-04-22T12:08:01Z</time>
      </trkpt>
      <trkpt lat="46.76784" lon="-1.83221">
        <ele>19</ele>
        <time>2018-04-22T12:09:01Z</time>
      </trkpt>
      <trkpt lat="46.76777" lon="-1.83239">
        <ele>19</ele>
        <time>2018-04-22T12:10:01Z</time>
      </trkpt>
      <trkpt lat="46.76766" lon="-1.8326">
        <ele>19</ele>
        <time>2018-04-22T12:11:01Z</time>
      </trkpt>
      <trkpt lat="46.76761" lon="-1.83269">
        <ele>19</ele>
        <time>2018-04-22T12:12:01Z</time>
      </trkpt>
      <trkpt lat="46.76753" lon="-1.83287">
        <ele>19</ele>
        <time>2018-04-22T12:13:01Z</time>
      </trkpt>
      <trkpt lat="46.76738" lon="-1.83315">
        <ele>19</ele>
        <time>2018-04-22T12:14:01Z</time>
      </trkpt>
      <trkpt lat="46.76723" lon="-1.83342">
        <ele>19</ele>
        <time>2018-04-22T12:15:01Z</time>
      </trkpt>
      <trkpt lat="46.76715" lon="-1.83354">
        <ele>19</ele>
        <time>2018-04-22T12:16:01Z</time>
      </trkpt>
      <trkpt lat="46.76707" lon="-1.83368">
        <ele>19</ele>
        <time>2018-04-22T12:17:01Z</time>
      </trkpt>
      <trkpt lat="46.76704" lon="-1.83374">
        <ele>19</ele>
        <time>2018-04-22T12:18:01Z</time>
      </trkpt>
      <trkpt lat="46.76697" lon="-1.83383">
        <ele>19</ele>
        <time>2018-04-22T12:19:01Z</time>
      </trkpt>
      <trkpt lat="46.76689" lon="-1.83393">
        <ele>19</ele>
        <time>2018-04-22T12:20:01Z</time>
      </trkpt>
      <trkpt lat="46.76677" lon="-1.8341">
        <ele>19</ele>
        <time>2018-04-22T12:21:01Z</time>
      </trkpt>
      <trkpt lat="46.7667" lon="-1.83418">
        <ele>19</ele>
        <time>2018-04-22T12:22:01Z</time>
      </trkpt>
      <trkpt lat="46.76662" lon="-1.83427">
        <ele>19</ele>
        <time>2018-04-22T12:23:01Z</time>
      </trkpt>
      <trkpt lat="46.76653" lon="-1.83436">
        <ele>19</ele>
        <time>2018-04-22T12:24:01Z</time>
      </trkpt>
      <trkpt lat="46.76644" lon="-1.83445">
        <ele>19</ele>
        <time>2018-04-22T12:25:01Z</time>
      </trkpt>
      <trkpt lat="46.76636" lon="-1.83452">
        <ele>18</ele>
        <time>2018-04-22T12:26:01Z</time>
      </trkpt>
      <trkpt lat="46.76625" lon="-1.83462">
        <ele>18</ele>
        <time>2018-04-22T12:27:01Z</time>
      </trkpt>
      <trkpt lat="46.76611" lon="-1.83473">
        <ele>18</ele>
        <time>2018-04-22T12:28:01Z</time>
      </trkpt>
      <trkpt lat="46.76595" lon="-1.83484">
        <ele>17</ele>
        <time>2018-04-22T12:29:01Z</time>
      </trkpt>
      <trkpt lat="46.76564" lon="-1.83504">
        <ele>17</ele>
        <time>2018-04-22T12:30:01Z</time>
      </trkpt>
      <trkpt lat="46.76521" lon="-1.8353">
        <ele>16</ele>
        <time>2018-04-22T12:31:01Z</time>
      </trkpt>
      <trkpt lat="46.76482" lon="-1.83552">
        <ele>16</ele>
        <time>2018-04-22T12:32:01Z</time>
      </trkpt>
      <trkpt lat="46.76475" lon="-1.83556">
        <ele>17</ele>
        <time>2018-04-22T12:33:01Z</time>
      </trkpt>
      <trkpt lat="46.76458" lon="-1.83565">
        <ele>17</ele>
        <time>2018-04-22T12:34:01Z</time>
      </trkpt>
      <trkpt lat="46.7645" lon="-1.8357">
        <ele>17</ele>
        <time>2018-04-22T12:35:01Z</time>
      </trkpt>
      <trkpt lat="46.76438" lon="-1.83577">
        <ele>18</ele>
        <time>2018-04-22T12:36:01Z</time>
      </trkpt>
      <trkpt lat="46.7642" lon="-1.83588">
        <ele>18</ele>
        <time>2018-04-22T12:37:01Z</time>
      </trkpt>
      <trkpt lat="46.76395" lon="-1.83603">
        <ele>18</ele>
        <time>2018-04-22T12:38:01Z</time>
      </trkpt>
      <trkpt lat="46.7638" lon="-1.83613">
        <ele>18</ele>
        <time>2018-04-22T12:39:01Z</time>
      </trkpt>
      <trkpt lat="46.76366" lon="-1.83622">
        <ele>18</ele>
        <time>2018-04-22T12:40:01Z</time>
      </trkpt>
      <trkpt lat="46.76356" lon="-1.8363">
        <ele>18</ele>
        <time>2018-04-22T12:41:01Z</time>
      </trkpt>
      <trkpt lat="46.76348" lon="-1.83636">
        <ele>19</ele>
        <time>2018-04-22T12:42:01Z</time>
      </trkpt>
      <trkpt lat="46.76338" lon="-1.83644">
        <ele>19</ele>
        <time>2018-04-22T12:43:01Z</time>
      </trkpt>
      <trkpt lat="46.76327" lon="-1.83652">
        <ele>19</ele>
        <time>2018-04-22T12:44:01Z</time>
      </trkpt>
      <trkpt lat="46.76316" lon="-1.83658">
        <ele>19</ele>
        <time>2018-04-22T12:45:01Z</time>
      </trkpt>
      <trkpt lat="46.76305" lon="-1.83662">
        <ele>19</ele>
        <time>2018-04-22T12:46:01Z</time>
      </trkpt>
      <trkpt lat="46.76292" lon="-1.83667">
        <ele>19</ele>
        <time>2018-04-22T12:47:01Z</time>
      </trkpt>
      <trkpt lat="46.76279" lon="-1.8367">
        <ele>19</ele>
        <time>2018-04-22T12:48:01Z</time>
      </trkpt>
      <trkpt lat="46.7627" lon="-1.83671">
        <ele>19</ele>
        <time>2018-04-22T12:49:01Z</time>
      </trkpt>
      <trkpt lat="46.76263" lon="-1.83671">
        <ele>19</ele>
        <time>2018-04-22T12:50:01Z</time>
      </trkpt>
      <trkpt lat="46.7626" lon="-1.83671">
        <ele>19</ele>
        <time>2018-04-22T12:51:01Z</time>
      </trkpt>
      <trkpt lat="46.76251" lon="-1.83668">
        <ele>19</ele>
        <time>2018-04-22T12:52:01Z</time>
      </trkpt>
      <trkpt lat="46.76247" lon="-1.83667">
        <ele>19</ele>
        <time>2018-04-22T12:53:01Z</time>
      </trkpt>
      <trkpt lat="46.7624" lon="-1.83666">
        <ele>19</ele>
        <time>2018-04-22T12:54:01Z</time>
      </trkpt>
      <trkpt lat="46.76234" lon="-1.83668">
        <ele>19</ele>
        <time>2018-04-22T12:55:01Z</time>
      </trkpt>
      <trkpt lat="46.76226" lon="-1.83672">
        <ele>19</ele>
        <time>2018-04-22T12:56:01Z</time>
      </trkpt>
      <trkpt lat="46.76218" lon="-1.83677">
        <ele>19</ele>
        <time>2018-04-22T12:57:01Z</time>
      </trkpt>
      <trkpt lat="46.76212" lon="-1.83682">
        <ele>19</ele>
        <time>2018-04-22T12:58:01Z</time>
      </trkpt>
      <trkpt lat="46.7621" lon="-1.83684">
        <ele>19</ele>
        <time>2018-04-22T12:59:01Z</time>
      </trkpt>
      <trkpt lat="46.76207" lon="-1.83687">
        <ele>19</ele>
        <time>2018-04-22T13:00:01Z</time>
      </trkpt>
      <trkpt lat="46.762" lon="-1.83696">
        <ele>19</ele>
        <time>2018-04-22T13:01:01Z</time>
      </trkpt>
      <trkpt lat="46.76195" lon="-1.83703">
        <ele>19</ele>
        <time>2018-04-22T13:02:01Z</time>
      </trkpt>
      <trkpt lat="46.76191" lon="-1.8371">
        <ele>19</ele>
        <time>2018-04-22T13:03:01Z</time>
      </trkpt>
      <trkpt lat="46.76186" lon="-1.83718">
        <ele>19</ele>
        <time>2018-04-22T13:04:01Z</time>
      </trkpt>
      <trkpt lat="46.76182" lon="-1.83724">
        <ele>20</ele>
        <time>2018-04-22T13:05:01Z</time>
      </trkpt>
      <trkpt lat="46.76176" lon="-1.8373">
        <ele>20</ele>
        <time>2018-04-22T13:06:01Z</time>
      </trkpt>
      <trkpt lat="46.76168" lon="-1.83736">
        <ele>20</ele>
        <time>2018-04-22T13:07:01Z</time>
      </trkpt>
      <trkpt lat="46.76147" lon="-1.8375">
        <ele>20</ele>
        <time>2018-04-22T13:08:01Z</time>
      </trkpt>
      <trkpt lat="46.76139" lon="-1.83755">
        <ele>20</ele>
        <time>2018-04-22T13:09:01Z</time>
      </trkpt>
      <trkpt lat="46.76134" lon="-1.8376">
        <ele>20</ele>
        <time>2018-04-22T13:10:01Z</time>
      </trkpt>
      <trkpt lat="46.76129" lon="-1.83765">
        <ele>20</ele>
        <time>2018-04-22T13:11:01Z</time>
      </trkpt>
      <trkpt lat="46.76125" lon="-1.8377">
        <ele>20</ele>
        <time>2018-04-22T13:12:01Z</time>
      </trkpt>
      <trkpt lat="46.76119" lon="-1.8378">
        <ele>20</ele>
        <time>2018-04-22T13:13:01Z</time>
      </trkpt>
      <trkpt lat="46.761" lon="-1.83814">
        <ele>21</ele>
        <time>2018-04-22T13:14:01Z</time>
      </trkpt>
      <trkpt lat="46.76084" lon="-1.83843">
        <ele>21</ele>
        <time>2018-04-22T13:15:01Z</time>
      </trkpt>
      <trkpt lat="46.76075" lon="-1.8386">
        <ele>21</ele>
        <time>2018-04-22T13:16:01Z</time>
      </trkpt>
      <trkpt lat="46.76056" lon="-1.83892">
        <ele>21</ele>
        <time>2018-04-22T13:17:01Z</time>
      </trkpt>
      <trkpt lat="46.76054" lon="-1.83896">
        <ele>21</ele>
        <time>2018-04-22T13:18:01Z</time>
      </trkpt>
      <trkpt lat="46.76052" lon="-1.83903">
        <ele>21</ele>
        <time>2018-04-22T13:19:01Z</time>
      </trkpt>
      <trkpt lat="46.76049" lon="-1.83922">
        <ele>21</ele>
        <time>2018-04-22T13:20:01Z</time>
      </trkpt>
      <trkpt lat="46.76049" lon="-1.83928">
        <ele>21</ele>
        <time>2018-04-22T13:21:01Z</time>
      </trkpt>
      <trkpt lat="46.76047" lon="-1.83948">
        <ele>21</ele>
        <time>2018-04-22T13:22:01Z</time>
      </trkpt>
      <trkpt lat="46.76046" lon="-1.83973">
        <ele>21</ele>
        <time>2018-04-22T13:23:01Z</time>
      </trkpt>
      <trkpt lat="46.76046" lon="-1.83993">
        <ele>21</ele>
        <time>2018-04-22T13:24:01Z</time>
      </trkpt>
      <trkpt lat="46.76047" lon="-1.84017">
        <ele>21</ele>
        <time>2018-04-22T13:25:01Z</time>
      </trkpt>
      <trkpt lat="46.76048" lon="-1.84041">
        <ele>21</ele>
        <time>2018-04-22T13:26:01Z</time>
      </trkpt>
      <trkpt lat="46.76049" lon="-1.84068">
        <ele>21</ele>
        <time>2018-04-22T13:27:01Z</time>
      </trkpt>
      <trkpt lat="46.76049" lon="-1.84081">
        <ele>21</ele>
        <time>2018-04-22T13:28:01Z</time>
      </trkpt>
      <trkpt lat="46.76052" lon="-1.84108">
        <ele>21</ele>
        <time>2018-04-22T13:29:01Z</time>
      </trkpt>
      <trkpt lat="46.76058" lon="-1.84162">
        <ele>22</ele>
        <time>2018-04-22T13:30:01Z</time>
      </trkpt>
      <trkpt lat="46.76061" lon="-1.84195">
        <ele>22</ele>
        <time>2018-04-22T13:31:01Z</time>
      </trkpt>
      <trkpt lat="46.76064" lon="-1.84217">
        <ele>22</ele>
        <time>2018-04-22T13:32:01Z</time>
      </trkpt>
      <trkpt lat="46.76065" lon="-1.84236">
        <ele>22</ele>
        <time>2018-04-22T13:33:01Z</time>
      </trkpt>
      <trkpt lat="46.76066" lon="-1.84253">
        <ele>22</ele>
        <time>2018-04-22T13:34:01Z</time>
      </trkpt>
      <trkpt lat="46.76067" lon="-1.84269">
        <ele>21</ele>
        <time>2018-04-22T13:35:01Z</time>
      </trkpt>
      <trkpt lat="46.76068" lon="-1.84286">
        <ele>21</ele>
        <time>2018-04-22T13:36:01Z</time>
      </trkpt>
      <trkpt lat="46.76069" lon="-1.84301">
        <ele>21</ele>
        <time>2018-04-22T13:37:01Z</time>
      </trkpt>
      <trkpt lat="46.7607" lon="-1.84322">
        <ele>21</ele>
        <time>2018-04-22T13:38:01Z</time>
      </trkpt>
      <trkpt lat="46.76073" lon="-1.84343">
        <ele>21</ele>
        <time>2018-04-22T13:39:01Z</time>
      </trkpt>
      <trkpt lat="46.76075" lon="-1.84368">
        <ele>21</ele>
        <time>2018-04-22T13:40:01Z</time>
      </trkpt>
      <trkpt lat="46.76075" lon="-1.84382">
        <ele>21</ele>
        <time>2018-04-22T13:41:01Z</time>
      </trkpt>
      <trkpt lat="46.76075" lon="-1.84402">
        <ele>21</ele>
        <time>2018-04-22T13:42:01Z</time>
      </trkpt>
      <trkpt lat="46.76075" lon="-1.8442">
        <ele>21</ele>
        <time>2018-04-22T13:43:01Z</time>
      </trkpt>
      <trkpt lat="46.76075" lon="-1.84426">
        <ele>21</ele>
        <time>2018-04-22T13:44:01Z</time>
      </trkpt>
      <trkpt lat="46.76074" lon="-1.84436">
        <ele>21</ele>
        <time>2018-04-22T13:45:01Z</time>
      </trkpt>
      <trkpt lat="46.76072" lon="-1.84459">
        <ele>21</ele>
        <time>2018-04-22T13:46:01Z</time>
      </trkpt>
      <trkpt lat="46.7607" lon="-1.84493">
        <ele>20</ele>
        <time>2018-04-22T13:47:01Z</time>
      </trkpt>
      <trkpt lat="46.76068" lon="-1.84511">
        <ele>20</ele>
        <time>2018-04-22T13:48:01Z</time>
      </trkpt>
      <trkpt lat="46.76067" lon="-1.84521">
        <ele>20</ele>
        <time>2018-04-22T13:49:01Z</time>
      </trkpt>
      <trkpt lat="46.76061" lon="-1.84565">
        <ele>21</ele>
        <time>2018-04-22T13:50:01Z</time>
      </trkpt>
      <trkpt lat="46.76054" lon="-1.84612">
        <ele>21</ele>
        <time>2018-04-22T13:51:01Z</time>
      </trkpt>
      <trkpt lat="46.76052" lon="-1.84626">
        <ele>21</ele>
        <time>2018-04-22T13:52:01Z</time>
      </trkpt>
      <trkpt lat="46.7605" lon="-1.84633">
        <ele>21</ele>
        <time>2018-04-22T13:53:01Z</time>
      </trkpt>
      <trkpt lat="46.76049" lon="-1.84639">
        <ele>21</ele>
        <time>2018-04-22T13:54:01Z</time>
      </trkpt>
      <trkpt lat="46.76047" lon="-1.84646">
        <ele>21</ele>
        <time>2018-04-22T13:55:01Z</time>
      </trkpt>
      <trkpt lat="46.76044" lon="-1.84658">
        <ele>21</ele>
        <time>2018-04-22T13:56:01Z</time>
      </trkpt>
      <trkpt lat="46.7604" lon="-1.84672">
        <ele>20</ele>
        <time>2018-04-22T13:57:01Z</time>
      </trkpt>
      <trkpt lat="46.76038" lon="-1.84676">
        <ele>20</ele>
        <time>2018-04-22T13:58:01Z</time>
      </trkpt>
      <trkpt lat="46.76036" lon="-1.84683">
        <ele>20</ele>
        <time>2018-04-22T13:59:01Z</time>
      </trkpt>
      <trkpt lat="46.76033" lon="-1.8469">
        <ele>20</ele>
        <time>2018-04-22T14:00:01Z</time>
      </trkpt>
      <trkpt lat="46.76032" lon="-1.84693">
        <ele>20</ele>
        <time>2018-04-22T14:01:01Z</time>
      </trkpt>
      <trkpt lat="46.76031" lon="-1.84695">
        <ele>20</ele>
        <time>2018-04-22T14:02:01Z</time>
      </trkpt>
      <trkpt lat="46.76029" lon="-1.847">
        <ele>20</ele>
        <time>2018-04-22T14:03:01Z</time>
      </trkpt>
      <trkpt lat="46.76022" lon="-1.84712">
        <ele>20</ele>
        <time>2018-04-22T14:04:01Z</time>
      </trkpt>
      <trkpt lat="46.76021" lon="-1.84714">
        <ele>20</ele>
        <time>2018-04-22T14:05:01Z</time>
      </trkpt>
      <trkpt lat="46.76013" lon="-1.84726">
        <ele>20</ele>
        <time>2018-04-22T14:06:01Z</time>
      </trkpt>
      <trkpt lat="46.76011" lon="-1.8473">
        <ele>20</ele>
        <time>2018-04-22T14:07:01Z</time>
      </trkpt>
      <trkpt lat="46.75993" lon="-1.84756">
        <ele>20</ele>
        <time>2018-04-22T14:08:01Z</time>
      </trkpt>
      <trkpt lat="46.75982" lon="-1.84772">
        <ele>20</ele>
        <time>2018-04-22T14:09:01Z</time>
      </trkpt>
      <trkpt lat="46.75963" lon="-1.84797">
        <ele>20</ele>
        <time>2018-04-22T14:10:01Z</time>
      </trkpt>
      <trkpt lat="46.75935" lon="-1.84837">
        <ele>21</ele>
        <time>2018-04-22T14:11:01Z</time>
      </trkpt>
      <trkpt lat="46.75929" lon="-1.84845">
        <ele>21</ele>
        <time>2018-04-22T14:12:01Z</time>
      </trkpt>
      <trkpt lat="46.75914" lon="-1.84864">
        <ele>21</ele>
        <time>2018-04-22T14:13:01Z</time>
      </trkpt>
      <trkpt lat="46.75905" lon="-1.84877">
        <ele>21</ele>
        <time>2018-04-22T14:14:01Z</time>
      </trkpt>
      <trkpt lat="46.75899" lon="-1.84886">
        <ele>21</ele>
        <time>2018-04-22T14:15:01Z</time>
      </trkpt>
      <trkpt lat="46.75898" lon="-1.84887">
        <ele>21</ele>
        <time>2018-04-22T14:16:01Z</time>
      </trkpt>
      <trkpt lat="46.75891" lon="-1.84898">
        <ele>21</ele>
        <time>2018-04-22T14:17:01Z</time>
      </trkpt>
      <trkpt lat="46.75881" lon="-1.84913">
        <ele>21</ele>
        <time>2018-04-22T14:18:01Z</time>
      </trkpt>
      <trkpt lat="46.75872" lon="-1.84931">
        <ele>20</ele>
        <time>2018-04-22T14:19:01Z</time>
      </trkpt>
      <trkpt lat="46.75863" lon="-1.84948">
        <ele>20</ele>
        <time>2018-04-22T14:20:01Z</time>
      </trkpt>
      <trkpt lat="46.75851" lon="-1.84975">
        <ele>21</ele>
        <time>2018-04-22T14:21:01Z</time>
      </trkpt>
      <trkpt lat="46.75834" lon="-1.85013">
        <ele>21</ele>
        <time>2018-04-22T14:22:01Z</time>
      </trkpt>
      <trkpt lat="46.75832" lon="-1.85018">
        <ele>21</ele>
        <time>2018-04-22T14:23:01Z</time>
      </trkpt>
      <trkpt lat="46.75832" lon="-1.85019">
        <ele>21</ele>
        <time>2018-04-22T14:24:01Z</time>
      </trkpt>
      <trkpt lat="46.75811" lon="-1.85067">
        <ele>22</ele>
        <time>2018-04-22T14:25:01Z</time>
      </trkpt>
      <trkpt lat="46.75796" lon="-1.85103">
        <ele>21</ele>
        <time>2018-04-22T14:26:01Z</time>
      </trkpt>
      <trkpt lat="46.75767" lon="-1.8517">
        <ele>21</ele>
        <time>2018-04-22T14:27:01Z</time>
      </trkpt>
      <trkpt lat="46.7575" lon="-1.85209">
        <ele>21</ele>
        <time>2018-04-22T14:28:01Z</time>
      </trkpt>
      <trkpt lat="46.75734" lon="-1.85247">
        <ele>21</ele>
        <time>2018-04-22T14:29:01Z</time>
      </trkpt>
      <trkpt lat="46.75722" lon="-1.85275">
        <ele>21</ele>
        <time>2018-04-22T14:30:01Z</time>
      </trkpt>
      <trkpt lat="46.75711" lon="-1.85301">
        <ele>22</ele>
        <time>2018-04-22T14:31:01Z</time>
      </trkpt>
      <trkpt lat="46.75691" lon="-1.85347">
        <ele>21</ele>
        <time>2018-04-22T14:32:01Z</time>
      </trkpt>
      <trkpt lat="46.75654" lon="-1.85434">
        <ele>19</ele>
        <time>2018-04-22T14:33:01Z</time>
      </trkpt>
      <trkpt lat="46.75636" lon="-1.85478">
        <ele>20</ele>
        <time>2018-04-22T14:34:01Z</time>
      </trkpt>
      <trkpt lat="46.75624" lon="-1.85508">
        <ele>20</ele>
        <time>2018-04-22T14:35:01Z</time>
      </trkpt>
      <trkpt lat="46.75616" lon="-1.85529">
        <ele>20</ele>
        <time>2018-04-22T14:36:01Z</time>
      </trkpt>
      <trkpt lat="46.75615" lon="-1.85532">
        <ele>20</ele>
        <time>2018-04-22T14:37:01Z</time>
      </trkpt>
      <trkpt lat="46.75606" lon="-1.85556">
        <ele>21</ele>
        <time>2018-04-22T14:38:01Z</time>
      </trkpt>
      <trkpt lat="46.756" lon="-1.85575">
        <ele>21</ele>
        <time>2018-04-22T14:39:01Z</time>
      </trkpt>
      <trkpt lat="46.75594" lon="-1.85592">
        <ele>21</ele>
        <time>2018-04-22T14:40:01Z</time>
      </trkpt>
      <trkpt lat="46.75588" lon="-1.8561">
        <ele>21</ele>
        <time>2018-04-22T14:41:01Z</time>
      </trkpt>
      <trkpt lat="46.75581" lon="-1.85631">
        <ele>20</ele>
        <time>2018-04-22T14:42:01Z</time>
      </trkpt>
      <trkpt lat="46.75574" lon="-1.85653">
        <ele>20</ele>
        <time>2018-04-22T14:43:01Z</time>
      </trkpt>
      <trkpt lat="46.75568" lon="-1.85675">
        <ele>20</ele>
        <time>2018-04-22T14:44:01Z</time>
      </trkpt>
      <trkpt lat="46.75558" lon="-1.85712">
        <ele>19</ele>
        <time>2018-04-22T14:45:01Z</time>
      </trkpt>
      <trkpt lat="46.75545" lon="-1.85759">
        <ele>19</ele>
        <time>2018-04-22T14:46:01Z</time>
      </trkpt>
      <trkpt lat="46.75537" lon="-1.85788">
        <ele>19</ele>
        <time>2018-04-22T14:47:01Z</time>
      </trkpt>
      <trkpt lat="46.75534" lon="-1.858">
        <ele>20</ele>
        <time>2018-04-22T14:48:01Z</time>
      </trkpt>
      <trkpt lat="46.75531" lon="-1.85811">
        <ele>20</ele>
        <time>2018-04-22T14:49:01Z</time>
      </trkpt>
      <trkpt lat="46.75523" lon="-1.85839">
        <ele>20</ele>
        <time>2018-04-22T14:50:01Z</time>
      </trkpt>
      <trkpt lat="46.7552" lon="-1.85851">
        <ele>20</ele>
        <time>2018-04-22T14:51:01Z</time>
      </trkpt>
      <trkpt lat="46.75512" lon="-1.85881">
        <ele>19</ele>
        <time>2018-04-22T14:52:01Z</time>
      </trkpt>
      <trkpt lat="46.75506" lon="-1.85905">
        <ele>18</ele>
        <time>2018-04-22T14:53:01Z</time>
      </trkpt>
      <trkpt lat="46.75499" lon="-1.8593">
        <ele>18</ele>
        <time>2018-04-22T14:54:01Z</time>
      </trkpt>
      <trkpt lat="46.75495" lon="-1.8595">
        <ele>18</ele>
        <time>2018-04-22T14:55:01Z</time>
      </trkpt>
      <trkpt lat="46.75493" lon="-1.85957">
        <ele>18</ele>
        <time>2018-04-22T14:56:01Z</time>
      </trkpt>
      <trkpt lat="46.7549" lon="-1.85969">
        <ele>18</ele>
        <time>2018-04-22T14:57:01Z</time>
      </trkpt>
      <trkpt lat="46.75486" lon="-1.85986">
        <ele>18</ele>
        <time>2018-04-22T14:58:01Z</time>
      </trkpt>
      <trkpt lat="46.75482" lon="-1.86004">
        <ele>17</ele>
        <time>2018-04-22T14:59:01Z</time>
      </trkpt>
      <trkpt lat="46.75474" lon="-1.86059">
        <ele>17</ele>
        <time>2018-04-22T15:00:01Z</time>
      </trkpt>
      <trkpt lat="46.75464" lon="-1.8613">
        <ele>17</ele>
        <time>2018-04-22T15:01:01Z</time>
      </trkpt>
      <trkpt lat="46.75456" lon="-1.86188">
        <ele>17</ele>
        <time>2018-04-22T15:02:01Z</time>
      </trkpt>
      <trkpt lat="46.75452" lon="-1.86221">
        <ele>17</ele>
        <time>2018-04-22T15:03:01Z</time>
      </trkpt>
      <trkpt lat="46.75452" lon="-1.86222">
        <ele>17</ele>
        <time>2018-04-22T15:04:01Z</time>
      </trkpt>
      <trkpt lat="46.75452" lon="-1.8623">
        <ele>17</ele>
        <time>2018-04-22T15:05:01Z</time>
      </trkpt>
      <trkpt lat="46.75446" lon="-1.86272">
        <ele>17</ele>
        <time>2018-04-22T15:06:01Z</time>
      </trkpt>
      <trkpt lat="46.75443" lon="-1.8629">
        <ele>17</ele>
        <time>2018-04-22T15:07:01Z</time>
      </trkpt>
      <trkpt lat="46.75441" lon="-1.86306">
        <ele>17</ele>
        <time>2018-04-22T15:08:01Z</time>
      </trkpt>
      <trkpt lat="46.75438" lon="-1.86321">
        <ele>17</ele>
        <time>2018-04-22T15:09:01Z</time>
      </trkpt>
      <trkpt lat="46.75436" lon="-1.86334">
        <ele>17</ele>
        <time>2018-04-22T15:10:01Z</time>
      </trkpt>
      <trkpt lat="46.75432" lon="-1.86348">
        <ele>17</ele>
        <time>2018-04-22T15:11:01Z</time>
      </trkpt>
      <trkpt lat="46.75429" lon="-1.8636">
        <ele>17</ele>
        <time>2018-04-22T15:12:01Z</time>
      </trkpt>
      <trkpt lat="46.75424" lon="-1.86374">
        <ele>17</ele>
        <time>2018-04-22T15:13:01Z</time>
      </trkpt>
      <trkpt lat="46.75417" lon="-1.86395">
        <ele>16</ele>
        <time>2018-04-22T15:14:01Z</time>
      </trkpt>
      <trkpt lat="46.75407" lon="-1.86422">
        <ele>16</ele>
        <time>2018-04-22T15:15:01Z</time>
      </trkpt>
      <trkpt lat="46.75396" lon="-1.86449">
        <ele>17</ele>
        <time>2018-04-22T15:16:01Z</time>
      </trkpt>
      <trkpt lat="46.75386" lon="-1.86469">
        <ele>18</ele>
        <time>2018-04-22T15:17:01Z</time>
      </trkpt>
      <trkpt lat="46.75372" lon="-1.86496">
        <ele>18</ele>
        <time>2018-04-22T15:18:01Z</time>
      </trkpt>
      <trkpt lat="46.7536" lon="-1.86518">
        <ele>18</ele>
        <time>2018-04-22T15:19:01Z</time>
      </trkpt>
      <trkpt lat="46.75345" lon="-1.86543">
        <ele>18</ele>
        <time>2018-04-22T15:20:01Z</time>
      </trkpt>
      <trkpt lat="46.75335" lon="-1.8656">
        <ele>18</ele>
        <time>2018-04-22T15:21:01Z</time>
      </trkpt>
      <trkpt lat="46.75333" lon="-1.86564">
        <ele>18</ele>
        <time>2018-04-22T15:22:01Z</time>
      </trkpt>
      <trkpt lat="46.75327" lon="-1.86575">
        <ele>18</ele>
        <time>2018-04-22T15:23:01Z</time>
      </trkpt>
      <trkpt lat="46.75321" lon="-1.86586">
        <ele>18</ele>
        <time>2018-04-22T15:24:01Z</time>
      </trkpt>
      <trkpt lat="46.75316" lon="-1.86596">
        <ele>18</ele>
        <time>2018-04-22T15:25:01Z</time>
      </trkpt>
      <trkpt lat="46.7531" lon="-1.86608">
        <ele>18</ele>
        <time>2018-04-22T15:26:01Z</time>
      </trkpt>
      <trkpt lat="46.75308" lon="-1.86612">
        <ele>18</ele>
        <time>2018-04-22T15:27:01Z</time>
      </trkpt>
      <trkpt lat="46.753" lon="-1.86632">
        <ele>18</ele>
        <time>2018-04-22T15:28:01Z</time>
      </trkpt>
      <trkpt lat="46.75292" lon="-1.8665">
        <ele>18</ele>
        <time>2018-04-22T15:29:01Z</time>
      </trkpt>
      <trkpt lat="46.7528" lon="-1.86682">
        <ele>18</ele>
        <time>2018-04-22T15:30:01Z</time>
      </trkpt>
      <trkpt lat="46.75264" lon="-1.86722">
        <ele>17</ele>
        <time>2018-04-22T15:31:01Z</time>
      </trkpt>
      <trkpt lat="46.75252" lon="-1.86754">
        <ele>17</ele>
        <time>2018-04-22T15:32:01Z</time>
      </trkpt>
      <trkpt lat="46.75246" lon="-1.86771">
        <ele>17</ele>
        <time>2018-04-22T15:33:01Z</time>
      </trkpt>
      <trkpt lat="46.75236" lon="-1.868">
        <ele>17</ele>
        <time>2018-04-22T15:34:01Z</time>
      </trkpt>
      <trkpt lat="46.75233" lon="-1.86808">
        <ele>18</ele>
        <time>2018-04-22T15:35:01Z</time>
      </trkpt>
      <trkpt lat="46.75225" lon="-1.86832">
        <ele>18</ele>
        <time>2018-04-22T15:36:01Z</time>
      </trkpt>
      <trkpt lat="46.75217" lon="-1.86859">
        <ele>18</ele>
        <time>2018-04-22T15:37:01Z</time>
      </trkpt>
      <trkpt lat="46.75204" lon="-1.86904">
        <ele>18</ele>
        <time>2018-04-22T15:38:01Z</time>
      </trkpt>
      <trkpt lat="46.75193" lon="-1.86941">
        <ele>17</ele>
        <time>2018-04-22T15:39:01Z</time>
      </trkpt>
      <trkpt lat="46.75185" lon="-1.8697">
        <ele>17</ele>
        <time>2018-04-22T15:40:01Z</time>
      </trkpt>
      <trkpt lat="46.75182" lon="-1.86979">
        <ele>17</ele>
        <time>2018-04-22T15:41:01Z</time>
      </trkpt>
      <trkpt lat="46.75181" lon="-1.86987">
        <ele>17</ele>
        <time>2018-04-22T15:42:01Z</time>
      </trkpt>
      <trkpt lat="46.75179" lon="-1.86994">
        <ele>17</ele>
        <time>2018-04-22T15:43:01Z</time>
      </trkpt>
      <trkpt lat="46.75177" lon="-1.87">
        <ele>17</ele>
        <time>2018-04-22T15:44:01Z</time>
      </trkpt>
      <trkpt lat="46.75174" lon="-1.87016">
        <ele>17</ele>
        <time>2018-04-22T15:45:01Z</time>
      </trkpt>
      <trkpt lat="46.75174" lon="-1.87016">
        <ele>17</ele>
        <time>2018-04-22T15:46:01Z</time>
      </trkpt>
      <trkpt lat="46.75179" lon="-1.87024">
        <ele>17</ele>
        <time>2018-04-22T15:47:01Z</time>
      </trkpt>
      <trkpt lat="46.75179" lon="-1.87025">
        <ele>17</ele>
        <time>2018-04-22T15:48:01Z</time>
      </trkpt>
      <trkpt lat="46.7518" lon="-1.8703">
        <ele>17</ele>
        <time>2018-04-22T15:49:01Z</time>
      </trkpt>
      <trkpt lat="46.7518" lon="-1.87035">
        <ele>17</ele>
        <time>2018-04-22T15:50:01Z</time>
      </trkpt>
      <trkpt lat="46.7518" lon="-1.87041">
        <ele>17</ele>
        <time>2018-04-22T15:51:01Z</time>
      </trkpt>
      <trkpt lat="46.75178" lon="-1.87046">
        <ele>17</ele>
        <time>2018-04-22T15:52:01Z</time>
      </trkpt>
      <trkpt lat="46.75177" lon="-1.87048">
        <ele>17</ele>
        <time>2018-04-22T15:53:01Z</time>
      </trkpt>
      <trkpt lat="46.75176" lon="-1.87052">
        <ele>17</ele>
        <time>2018-04-22T15:54:01Z</time>
      </trkpt>
      <trkpt lat="46.75174" lon="-1.87056">
        <ele>17</ele>
        <time>2018-04-22T15:55:01Z</time>
      </trkpt>
      <trkpt lat="46.75171" lon="-1.87059">
        <ele>17</ele>
        <time>2018-04-22T15:56:01Z</time>
      </trkpt>
      <trkpt lat="46.75168" lon="-1.87062">
        <ele>17</ele>
        <time>2018-04-22T15:57:01Z</time>
      </trkpt>
      <trkpt lat="46.75166" lon="-1.87066">
        <ele>17</ele>
        <time>2018-04-22T15:58:01Z</time>
      </trkpt>
      <trkpt lat="46.75165" lon="-1.87068">
        <ele>17</ele>
        <time>2018-04-22T15:59:01Z</time>
      </trkpt>
      <trkpt lat="46.75162" lon="-1.87074">
        <ele>17</ele>
        <time>2018-04-22T16:00:01Z</time>
      </trkpt>
      <trkpt lat="46.75157" lon="-1.87087">
        <ele>17</ele>
        <time>2018-04-22T16:01:01Z</time>
      </trkpt>
      <trkpt lat="46.75155" lon="-1.87094">
        <ele>17</ele>
        <time>2018-04-22T16:02:01Z</time>
      </trkpt>
      <trkpt lat="46.75153" lon="-1.87102">
        <ele>17</ele>
        <time>2018-04-22T16:03:01Z</time>
      </trkpt>
      <trkpt lat="46.75151" lon="-1.87113">
        <ele>17</ele>
        <time>2018-04-22T16:04:01Z</time>
      </trkpt>
      <trkpt lat="46.75149" lon="-1.87124">
        <ele>17</ele>
        <time>2018-04-22T16:05:01Z</time>
      </trkpt>
      <trkpt lat="46.75148" lon="-1.87134">
        <ele>17</ele>
        <time>2018-04-22T16:06:01Z</time>
      </trkpt>
      <trkpt lat="46.75145" lon="-1.87146">
        <ele>17</ele>
        <time>2018-04-22T16:07:01Z</time>
      </trkpt>
      <trkpt lat="46.75144" lon="-1.87153">
        <ele>17</ele>
        <time>2018-04-22T16:08:01Z</time>
      </trkpt>
      <trkpt lat="46.75142" lon="-1.87159">
        <ele>17</ele>
        <time>2018-04-22T16:09:01Z</time>
      </trkpt>
      <trkpt lat="46.75138" lon="-1.8718">
        <ele>16</ele>
        <time>2018-04-22T16:10:01Z</time>
      </trkpt>
      <trkpt lat="46.75136" lon="-1.87195">
        <ele>16</ele>
        <time>2018-04-22T16:11:01Z</time>
      </trkpt>
      <trkpt lat="46.75134" lon="-1.87212">
        <ele>16</ele>
        <time>2018-04-22T16:12:01Z</time>
      </trkpt>
      <trkpt lat="46.75133" lon="-1.87222">
        <ele>15</ele>
        <time>2018-04-22T16:13:01Z</time>
      </trkpt>
      <trkpt lat="46.75132" lon="-1.87241">
        <ele>15</ele>
        <time>2018-04-22T16:14:01Z</time>
      </trkpt>
      <trkpt lat="46.75131" lon="-1.87259">
        <ele>15</ele>
        <time>2018-04-22T16:15:01Z</time>
      </trkpt>
      <trkpt lat="46.75132" lon="-1.87281">
        <ele>14</ele>
        <time>2018-04-22T16:16:01Z</time>
      </trkpt>
      <trkpt lat="46.75132" lon="-1.87295">
        <ele>14</ele>
        <time>2018-04-22T16:17:01Z</time>
      </trkpt>
      <trkpt lat="46.75135" lon="-1.87327">
        <ele>13</ele>
        <time>2018-04-22T16:18:01Z</time>
      </trkpt>
      <trkpt lat="46.7514" lon="-1.87388">
        <ele>13</ele>
        <time>2018-04-22T16:19:01Z</time>
      </trkpt>
      <trkpt lat="46.75144" lon="-1.8744">
        <ele>13</ele>
        <time>2018-04-22T16:20:01Z</time>
      </trkpt>
      <trkpt lat="46.75146" lon="-1.8748">
        <ele>13</ele>
        <time>2018-04-22T16:21:01Z</time>
      </trkpt>
      <trkpt lat="46.75148" lon="-1.87517">
        <ele>13</ele>
        <time>2018-04-22T16:22:01Z</time>
      </trkpt>
      <trkpt lat="46.75149" lon="-1.87548">
        <ele>13</ele>
        <time>2018-04-22T16:23:01Z</time>
      </trkpt>
      <trkpt lat="46.75149" lon="-1.87581">
        <ele>12</ele>
        <time>2018-04-22T16:24:01Z</time>
      </trkpt>
      <trkpt lat="46.7515" lon="-1.87615">
        <ele>12</ele>
        <time>2018-04-22T16:25:01Z</time>
      </trkpt>
      <trkpt lat="46.7515" lon="-1.87634">
        <ele>12</ele>
        <time>2018-04-22T16:26:01Z</time>
      </trkpt>
      <trkpt lat="46.75149" lon="-1.87652">
        <ele>12</ele>
        <time>2018-04-22T16:27:01Z</time>
      </trkpt>
      <trkpt lat="46.75149" lon="-1.8768">
        <ele>11</ele>
        <time>2018-04-22T16:28:01Z</time>
      </trkpt>
      <trkpt lat="46.75147" lon="-1.87715">
        <ele>11</ele>
        <time>2018-04-22T16:29:01Z</time>
      </trkpt>
      <trkpt lat="46.75145" lon="-1.87742">
        <ele>11</ele>
        <time>2018-04-22T16:30:01Z</time>
      </trkpt>
      <trkpt lat="46.75144" lon="-1.87765">
        <ele>11</ele>
        <time>2018-04-22T16:31:01Z</time>
      </trkpt>
      <trkpt lat="46.75142" lon="-1.87797">
        <ele>11</ele>
        <time>2018-04-22T16:32:01Z</time>
      </trkpt>
      <trkpt lat="46.7514" lon="-1.87824">
        <ele>11</ele>
        <time>2018-04-22T16:33:01Z</time>
      </trkpt>
      <trkpt lat="46.75138" lon="-1.87851">
        <ele>11</ele>
        <time>2018-04-22T16:34:01Z</time>
      </trkpt>
      <trkpt lat="46.75136" lon="-1.87871">
        <ele>11</ele>
        <time>2018-04-22T16:35:01Z</time>
      </trkpt>
      <trkpt lat="46.75134" lon="-1.87889">
        <ele>12</ele>
        <time>2018-04-22T16:36:01Z</time>
      </trkpt>
      <trkpt lat="46.75131" lon="-1.87908">
        <ele>12</ele>
        <time>2018-04-22T16:37:01Z</time>
      </trkpt>
      <trkpt lat="46.75129" lon="-1.87925">
        <ele>12</ele>
        <time>2018-04-22T16:38:01Z</time>
      </trkpt>
      <trkpt lat="46.75126" lon="-1.87941">
        <ele>12</ele>
        <time>2018-04-22T16:39:01Z</time>
      </trkpt>
      <trkpt lat="46.75123" lon="-1.87957">
        <ele>11</ele>
        <time>2018-04-22T16:40:01Z</time>
      </trkpt>
      <trkpt lat="46.75118" lon="-1.87973">
        <ele>11</ele>
        <time>2018-04-22T16:41:01Z</time>
      </trkpt>
      <trkpt lat="46.75114" lon="-1.87984">
        <ele>11</ele>
        <time>2018-04-22T16:42:01Z</time>
      </trkpt>
      <trkpt lat="46.75111" lon="-1.87992">
        <ele>10</ele>
        <time>2018-04-22T16:43:01Z</time>
      </trkpt>
      <trkpt lat="46.75106" lon="-1.88003">
        <ele>10</ele>
        <time>2018-04-22T16:44:01Z</time>
      </trkpt>
      <trkpt lat="46.75098" lon="-1.88016">
        <ele>10</ele>
        <time>2018-04-22T16:45:01Z</time>
      </trkpt>
      <trkpt lat="46.75083" lon="-1.88037">
        <ele>9</ele>
        <time>2018-04-22T16:46:01Z</time>
      </trkpt>
      <trkpt lat="46.75058" lon="-1.8807">
        <ele>9</ele>
        <time>2018-04-22T16:47:01Z</time>
      </trkpt>
      <trkpt lat="46.75039" lon="-1.88095">
        <ele>9</ele>
        <time>2018-04-22T16:48:01Z</time>
      </trkpt>
      <trkpt lat="46.75026" lon="-1.8811">
        <ele>9</ele>
        <time>2018-04-22T16:49:01Z</time>
      </trkpt>
      <trkpt lat="46.75019" lon="-1.88119">
        <ele>9</ele>
        <time>2018-04-22T16:50:01Z</time>
      </trkpt>
      <trkpt lat="46.7499" lon="-1.88159">
        <ele>9</ele>
        <time>2018-04-22T16:51:01Z</time>
      </trkpt>
      <trkpt lat="46.74976" lon="-1.88179">
        <ele>10</ele>
        <time>2018-04-22T16:52:01Z</time>
      </trkpt>
      <trkpt lat="46.74967" lon="-1.88193">
        <ele>10</ele>
        <time>2018-04-22T16:53:01Z</time>
      </trkpt>
      <trkpt lat="46.7496" lon="-1.88208">
        <ele>11</ele>
        <time>2018-04-22T16:54:01Z</time>
      </trkpt>
      <trkpt lat="46.74954" lon="-1.88221">
        <ele>11</ele>
        <time>2018-04-22T16:55:01Z</time>
      </trkpt>
      <trkpt lat="46.74948" lon="-1.88233">
        <ele>12</ele>
        <time>2018-04-22T16:56:01Z</time>
      </trkpt>
      <trkpt lat="46.74943" lon="-1.88246">
        <ele>12</ele>
        <time>2018-04-22T16:57:01Z</time>
      </trkpt>
      <trkpt lat="46.74938" lon="-1.88258">
        <ele>13</ele>
        <time>2018-04-22T16:58:01Z</time>
      </trkpt>
      <trkpt lat="46.74934" lon="-1.88272">
        <ele>13</ele>
        <time>2018-04-22T16:59:01Z</time>
      </trkpt>
      <trkpt lat="46.74925" lon="-1.883">
        <ele>13</ele>
        <time>2018-04-22T17:00:01Z</time>
      </trkpt>
      <trkpt lat="46.74914" lon="-1.88342">
        <ele>13</ele>
        <time>2018-04-22T17:01:01Z</time>
      </trkpt>
      <trkpt lat="46.74896" lon="-1.88406">
        <ele>11</ele>
        <time>2018-04-22T17:02:01Z</time>
      </trkpt>
      <trkpt lat="46.74883" lon="-1.88454">
        <ele>11</ele>
        <time>2018-04-22T17:03:01Z</time>
      </trkpt>
      <trkpt lat="46.74881" lon="-1.88465">
        <ele>12</ele>
        <time>2018-04-22T17:04:01Z</time>
      </trkpt>
      <trkpt lat="46.7486" lon="-1.88545">
        <ele>12</ele>
        <time>2018-04-22T17:05:01Z</time>
      </trkpt>
      <trkpt lat="46.74856" lon="-1.88561">
        <ele>12</ele>
        <time>2018-04-22T17:06:01Z</time>
      </trkpt>
      <trkpt lat="46.74853" lon="-1.88575">
        <ele>11</ele>
        <time>2018-04-22T17:07:01Z</time>
      </trkpt>
      <trkpt lat="46.7485" lon="-1.88595">
        <ele>11</ele>
        <time>2018-04-22T17:08:01Z</time>
      </trkpt>
      <trkpt lat="46.74846" lon="-1.88622">
        <ele>12</ele>
        <time>2018-04-22T17:09:01Z</time>
      </trkpt>
      <trkpt lat="46.74839" lon="-1.88686">
        <ele>12</ele>
        <time>2018-04-22T17:10:01Z</time>
      </trkpt>
      <trkpt lat="46.74834" lon="-1.88748">
        <ele>12</ele>
        <time>2018-04-22T17:11:01Z</time>
      </trkpt>
      <trkpt lat="46.74832" lon="-1.8877">
        <ele>12</ele>
        <time>2018-04-22T17:12:01Z</time>
      </trkpt>
      <trkpt lat="46.7483" lon="-1.8879">
        <ele>12</ele>
        <time>2018-04-22T17:13:01Z</time>
      </trkpt>
      <trkpt lat="46.74829" lon="-1.88817">
        <ele>12</ele>
        <time>2018-04-22T17:14:01Z</time>
      </trkpt>
      <trkpt lat="46.74827" lon="-1.88854">
        <ele>12</ele>
        <time>2018-04-22T17:15:01Z</time>
      </trkpt>
      <trkpt lat="46.74826" lon="-1.88892">
        <ele>12</ele>
        <time>2018-04-22T17:16:01Z</time>
      </trkpt>
      <trkpt lat="46.74826" lon="-1.88934">
        <ele>12</ele>
        <time>2018-04-22T17:17:01Z</time>
      </trkpt>
      <trkpt lat="46.74825" lon="-1.88973">
        <ele>11</ele>
        <time>2018-04-22T17:18:01Z</time>
      </trkpt>
      <trkpt lat="46.74824" lon="-1.89008">
        <ele>11</ele>
        <time>2018-04-22T17:19:01Z</time>
      </trkpt>
      <trkpt lat="46.74824" lon="-1.89025">
        <ele>11</ele>
        <time>2018-04-22T17:20:01Z</time>
      </trkpt>
      <trkpt lat="46.74824" lon="-1.8904">
        <ele>11</ele>
        <time>2018-04-22T17:21:01Z</time>
      </trkpt>
      <trkpt lat="46.74825" lon="-1.89055">
        <ele>11</ele>
        <time>2018-04-22T17:22:01Z</time>
      </trkpt>
      <trkpt lat="46.74825" lon="-1.89073">
        <ele>11</ele>
        <time>2018-04-22T17:23:01Z</time>
      </trkpt>
      <trkpt lat="46.74826" lon="-1.89092">
        <ele>11</ele>
        <time>2018-04-22T17:24:01Z</time>
      </trkpt>
      <trkpt lat="46.74828" lon="-1.8912">
        <ele>11</ele>
        <time>2018-04-22T17:25:01Z</time>
      </trkpt>
      <trkpt lat="46.74831" lon="-1.89174">
        <ele>11</ele>
        <time>2018-04-22T17:26:01Z</time>
      </trkpt>
      <trkpt lat="46.74834" lon="-1.89221">
        <ele>10</ele>
        <time>2018-04-22T17:27:01Z</time>
      </trkpt>
      <trkpt lat="46.74838" lon="-1.89279">
        <ele>9</ele>
        <time>2018-04-22T17:28:01Z</time>
      </trkpt>
      <trkpt lat="46.7484" lon="-1.89315">
        <ele>8</ele>
        <time>2018-04-22T17:29:01Z</time>
      </trkpt>
      <trkpt lat="46.74841" lon="-1.89332">
        <ele>8</ele>
        <time>2018-04-22T17:30:01Z</time>
      </trkpt>
      <trkpt lat="46.74842" lon="-1.89349">
        <ele>8</ele>
        <time>2018-04-22T17:31:01Z</time>
      </trkpt>
      <trkpt lat="46.74842" lon="-1.89365">
        <ele>8</ele>
        <time>2018-04-22T17:32:01Z</time>
      </trkpt>
      <trkpt lat="46.74842" lon="-1.89372">
        <ele>8</ele>
        <time>2018-04-22T17:33:01Z</time>
      </trkpt>
      <trkpt lat="46.74842" lon="-1.89383">
        <ele>8</ele>
        <time>2018-04-22T17:34:01Z</time>
      </trkpt>
      <trkpt lat="46.74843" lon="-1.89411">
        <ele>8</ele>
        <time>2018-04-22T17:35:01Z</time>
      </trkpt>
      <trkpt lat="46.74843" lon="-1.89423">
        <ele>8</ele>
        <time>2018-04-22T17:36:01Z</time>
      </trkpt>
      <trkpt lat="46.74843" lon="-1.89447">
        <ele>8</ele>
        <time>2018-04-22T17:37:01Z</time>
      </trkpt>
      <trkpt lat="46.74843" lon="-1.89466">
        <ele>8</ele>
        <time>2018-04-22T17:38:01Z</time>
      </trkpt>
      <trkpt lat="46.74843" lon="-1.895">
        <ele>8</ele>
        <time>2018-04-22T17:39:01Z</time>
      </trkpt>
      <trkpt lat="46.74843" lon="-1.89509">
        <ele>8</ele>
        <time>2018-04-22T17:40:01Z</time>
      </trkpt>
      <trkpt lat="46.74842" lon="-1.8955">
        <ele>8</ele>
        <time>2018-04-22T17:41:01Z</time>
      </trkpt>
      <trkpt lat="46.74842" lon="-1.89571">
        <ele>8</ele>
        <time>2018-04-22T17:42:01Z</time>
      </trkpt>
      <trkpt lat="46.74842" lon="-1.89606">
        <ele>8</ele>
        <time>2018-04-22T17:43:01Z</time>
      </trkpt>
      <trkpt lat="46.74842" lon="-1.89634">
        <ele>9</ele>
        <time>2018-04-22T17:44:01Z</time>
      </trkpt>
      <trkpt lat="46.74843" lon="-1.89647">
        <ele>9</ele>
        <time>2018-04-22T17:45:01Z</time>
      </trkpt>
      <trkpt lat="46.74843" lon="-1.89675">
        <ele>9</ele>
        <time>2018-04-22T17:46:01Z</time>
      </trkpt>
      <trkpt lat="46.74843" lon="-1.89689">
        <ele>8</ele>
        <time>2018-04-22T17:47:01Z</time>
      </trkpt>
      <trkpt lat="46.74843" lon="-1.8971">
        <ele>8</ele>
        <time>2018-04-22T17:48:01Z</time>
      </trkpt>
      <trkpt lat="46.74843" lon="-1.89717">
        <ele>8</ele>
        <time>2018-04-22T17:49:01Z</time>
      </trkpt>
      <trkpt lat="46.74843" lon="-1.89721">
        <ele>8</ele>
        <time>2018-04-22T17:50:01Z</time>
      </trkpt>
      <trkpt lat="46.74844" lon="-1.89745">
        <ele>7</ele>
        <time>2018-04-22T17:51:01Z</time>
      </trkpt>
      <trkpt lat="46.74845" lon="-1.89778">
        <ele>7</ele>
        <time>2018-04-22T17:52:01Z</time>
      </trkpt>
      <trkpt lat="46.74847" lon="-1.89793">
        <ele>7</ele>
        <time>2018-04-22T17:53:01Z</time>
      </trkpt>
      <trkpt lat="46.74848" lon="-1.89801">
        <ele>7</ele>
        <time>2018-04-22T17:54:01Z</time>
      </trkpt>
      <trkpt lat="46.74849" lon="-1.89817">
        <ele>7</ele>
        <time>2018-04-22T17:55:01Z</time>
      </trkpt>
      <trkpt lat="46.74853" lon="-1.89855">
        <ele>6</ele>
        <time>2018-04-22T17:56:01Z</time>
      </trkpt>
      <trkpt lat="46.74855" lon="-1.8987">
        <ele>6</ele>
        <time>2018-04-22T17:57:01Z</time>
      </trkpt>
      <trkpt lat="46.74855" lon="-1.89885">
        <ele>6</ele>
        <time>2018-04-22T17:58:01Z</time>
      </trkpt>
      <trkpt lat="46.74855" lon="-1.89896">
        <ele>6</ele>
        <time>2018-04-22T17:59:01Z</time>
      </trkpt>
      <trkpt lat="46.74855" lon="-1.89909">
        <ele>6</ele>
        <time>2018-04-22T18:00:01Z</time>
      </trkpt>
      <trkpt lat="46.74854" lon="-1.89922">
        <ele>6</ele>
        <time>2018-04-22T18:01:01Z</time>
      </trkpt>
      <trkpt lat="46.74852" lon="-1.89944">
        <ele>6</ele>
        <time>2018-04-22T18:02:01Z</time>
      </trkpt>
      <trkpt lat="46.7485" lon="-1.89954">
        <ele>6</ele>
        <time>2018-04-22T18:03:01Z</time>
      </trkpt>
      <trkpt lat="46.74852" lon="-1.90014">
        <ele>6</ele>
        <time>2018-04-22T18:04:01Z</time>
      </trkpt>
      <trkpt lat="46.74856" lon="-1.90129">
        <ele>6</ele>
        <time>2018-04-22T18:05:01Z</time>
      </trkpt>
      <trkpt lat="46.74857" lon="-1.90159">
        <ele>6</ele>
        <time>2018-04-22T18:06:01Z</time>
      </trkpt>
      <trkpt lat="46.74857" lon="-1.9018">
        <ele>6</ele>
        <time>2018-04-22T18:07:01Z</time>
      </trkpt>
      <trkpt lat="46.74857" lon="-1.90183">
        <ele>6</ele>
        <time>2018-04-22T18:08:01Z</time>
      </trkpt>
      <trkpt lat="46.74857" lon="-1.90195">
        <ele>6</ele>
        <time>2018-04-22T18:09:01Z</time>
      </trkpt>
      <trkpt lat="46.74856" lon="-1.90215">
        <ele>6</ele>
        <time>2018-04-22T18:10:01Z</time>
      </trkpt>
      <trkpt lat="46.74855" lon="-1.90226">
        <ele>6</ele>
        <time>2018-04-22T18:11:01Z</time>
      </trkpt>
      <trkpt lat="46.74855" lon="-1.90247">
        <ele>6</ele>
        <time>2018-04-22T18:12:01Z</time>
      </trkpt>
      <trkpt lat="46.74853" lon="-1.90266">
        <ele>6</ele>
        <time>2018-04-22T18:13:01Z</time>
      </trkpt>
      <trkpt lat="46.74853" lon="-1.90275">
        <ele>6</ele>
        <time>2018-04-22T18:14:01Z</time>
      </trkpt>
      <trkpt lat="46.74852" lon="-1.90282">
        <ele>5</ele>
        <time>2018-04-22T18:15:01Z</time>
      </trkpt>
      <trkpt lat="46.74851" lon="-1.90299">
        <ele>5</ele>
        <time>2018-04-22T18:16:01Z</time>
      </trkpt>
      <trkpt lat="46.74849" lon="-1.90315">
        <ele>5</ele>
        <time>2018-04-22T18:17:01Z</time>
      </trkpt>
      <trkpt lat="46.74846" lon="-1.90329">
        <ele>5</ele>
        <time>2018-04-22T18:18:01Z</time>
      </trkpt>
      <trkpt lat="46.74846" lon="-1.90335">
        <ele>5</ele>
        <time>2018-04-22T18:19:01Z</time>
      </trkpt>
      <trkpt lat="46.74845" lon="-1.90343">
        <ele>5</ele>
        <time>2018-04-22T18:20:01Z</time>
      </trkpt>
      <trkpt lat="46.74841" lon="-1.90365">
        <ele>5</ele>
        <time>2018-04-22T18:21:01Z</time>
      </trkpt>
      <trkpt lat="46.74837" lon="-1.90377">
        <ele>4</ele>
        <time>2018-04-22T18:22:01Z</time>
      </trkpt>
      <trkpt lat="46.74833" lon="-1.90388">
        <ele>4</ele>
        <time>2018-04-22T18:23:01Z</time>
      </trkpt>
      <trkpt lat="46.74833" lon="-1.90389">
        <ele>4</ele>
        <time>2018-04-22T18:24:01Z</time>
      </trkpt>
      <trkpt lat="46.74832" lon="-1.90391">
        <ele>4</ele>
        <time>2018-04-22T18:25:01Z</time>
      </trkpt>
      <trkpt lat="46.74829" lon="-1.90398">
        <ele>4</ele>
        <time>2018-04-22T18:26:01Z</time>
      </trkpt>
      <trkpt lat="46.74821" lon="-1.90411">
        <ele>4</ele>
        <time>2018-04-22T18:27:01Z</time>
      </trkpt>
      <trkpt lat="46.74812" lon="-1.90415">
        <ele>4</ele>
        <time>2018-04-22T18:28:01Z</time>
      </trkpt>
      <trkpt lat="46.74758" lon="-1.90455">
        <ele>4</ele>
        <time>2018-04-22T18:29:01Z</time>
      </trkpt>
      <trkpt lat="46.7473" lon="-1.90477">
        <ele>4</ele>
        <time>2018-04-22T18:30:01Z</time>
      </trkpt>
      <trkpt lat="46.74727" lon="-1.90479">
        <ele>4</ele>
        <time>2018-04-22T18:31:01Z</time>
      </trkpt>
      <trkpt lat="46.74672" lon="-1.90525">
        <ele>3</ele>
        <time>2018-04-22T18:32:01Z</time>
      </trkpt>
      <trkpt lat="46.74618" lon="-1.90573">
        <ele>2</ele>
        <time>2018-04-22T18:33:01Z</time>
      </trkpt>
      <trkpt lat="46.74612" lon="-1.90578">
        <ele>2</ele>
        <time>2018-04-22T18:34:01Z</time>
      </trkpt>
      <trkpt lat="46.74603" lon="-1.90586">
        <ele>2</ele>
        <time>2018-04-22T18:35:01Z</time>
      </trkpt>
      <trkpt lat="46.74591" lon="-1.90595">
        <ele>2</ele>
        <time>2018-04-22T18:36:01Z</time>
      </trkpt>
      <trkpt lat="46.74573" lon="-1.9061">
        <ele>3</ele>
        <time>2018-04-22T18:37:01Z</time>
      </trkpt>
      <trkpt lat="46.74567" lon="-1.90615">
        <ele>3</ele>
        <time>2018-04-22T18:38:01Z</time>
      </trkpt>
      <trkpt lat="46.74552" lon="-1.90625">
        <ele>3</ele>
        <time>2018-04-22T18:39:01Z</time>
      </trkpt>
      <trkpt lat="46.74549" lon="-1.90627">
        <ele>3</ele>
        <time>2018-04-22T18:40:01Z</time>
      </trkpt>
      <trkpt lat="46.7454" lon="-1.90638">
        <ele>4</ele>
        <time>2018-04-22T18:41:01Z</time>
      </trkpt>
      <trkpt lat="46.74534" lon="-1.90643">
        <ele>4</ele>
        <time>2018-04-22T18:42:01Z</time>
      </trkpt>
      <trkpt lat="46.7453" lon="-1.90647">
        <ele>4</ele>
        <time>2018-04-22T18:43:01Z</time>
      </trkpt>
      <trkpt lat="46.74529" lon="-1.90651">
        <ele>4</ele>
        <time>2018-04-22T18:44:01Z</time>
      </trkpt>
      <trkpt lat="46.74529" lon="-1.90653">
        <ele>4</ele>
        <time>2018-04-22T18:45:01Z</time>
      </trkpt>
      <trkpt lat="46.74528" lon="-1.90656">
        <ele>4</ele>
        <time>2018-04-22T18:46:01Z</time>
      </trkpt>
      <trkpt lat="46.74534" lon="-1.90664">
        <ele>4</ele>
        <time>2018-04-22T18:47:01Z</time>
      </trkpt>
      <trkpt lat="46.74545" lon="-1.90687">
        <ele>4</ele>
        <time>2018-04-22T18:48:01Z</time>
      </trkpt>
      <trkpt lat="46.74551" lon="-1.907">
        <ele>4</ele>
        <time>2018-04-22T18:49:01Z</time>
      </trkpt>
      <trkpt lat="46.74557" lon="-1.90713">
        <ele>4</ele>
        <time>2018-04-22T18:50:01Z</time>
      </trkpt>
      <trkpt lat="46.74562" lon="-1.90725">
        <ele>4</ele>
        <time>2018-04-22T18:51:01Z</time>
      </trkpt>
      <trkpt lat="46.74564" lon="-1.90734">
        <ele>4</ele>
        <time>2018-04-22T18:52:01Z</time>
      </trkpt>
      <trkpt lat="46.74565" lon="-1.90746">
        <ele>4</ele>
        <time>2018-04-22T18:53:01Z</time>
      </trkpt>
      <trkpt lat="46.74566" lon="-1.90756">
        <ele>4</ele>
        <time>2018-04-22T18:54:01Z</time>
      </trkpt>
      <trkpt lat="46.74569" lon="-1.9079">
        <ele>4</ele>
        <time>2018-04-22T18:55:01Z</time>
      </trkpt>
      <trkpt lat="46.74572" lon="-1.90814">
        <ele>4</ele>
        <time>2018-04-22T18:56:01Z</time>
      </trkpt>
      <trkpt lat="46.74573" lon="-1.90827">
        <ele>4</ele>
        <time>2018-04-22T18:57:01Z</time>
      </trkpt>
      <trkpt lat="46.74573" lon="-1.90854">
        <ele>4</ele>
        <time>2018-04-22T18:58:01Z</time>
      </trkpt>
      <trkpt lat="46.74573" lon="-1.90866">
        <ele>4</ele>
        <time>2018-04-22T18:59:01Z</time>
      </trkpt>
      <trkpt lat="46.74573" lon="-1.90872">
        <ele>4</ele>
        <time>2018-04-22T19:00:01Z</time>
      </trkpt>
      <trkpt lat="46.74581" lon="-1.90912">
        <ele>3</ele>
        <time>2018-04-22T19:01:01Z</time>
      </trkpt>
      <trkpt lat="46.74591" lon="-1.9094">
        <ele>3</ele>
        <time>2018-04-22T19:02:01Z</time>
      </trkpt>
      <trkpt lat="46.74594" lon="-1.90947">
        <ele>3</ele>
        <time>2018-04-22T19:03:01Z</time>
      </trkpt>
      <trkpt lat="46.74599" lon="-1.9096">
        <ele>3</ele>
        <time>2018-04-22T19:04:01Z</time>
      </trkpt>
      <trkpt lat="46.74602" lon="-1.9097">
        <ele>3</ele>
        <time>2018-04-22T19:05:01Z</time>
      </trkpt>
      <trkpt lat="46.74603" lon="-1.9098">
        <ele>3</ele>
        <time>2018-04-22T19:06:01Z</time>
      </trkpt>
      <trkpt lat="46.74603" lon="-1.9099">
        <ele>3</ele>
        <time>2018-04-22T19:07:01Z</time>
      </trkpt>
      <trkpt lat="46.74602" lon="-1.91001">
        <ele>3</ele>
        <time>2018-04-22T19:08:01Z</time>
      </trkpt>
      <trkpt lat="46.746" lon="-1.91009">
        <ele>3</ele>
        <time>2018-04-22T19:09:01Z</time>
      </trkpt>
      <trkpt lat="46.74598" lon="-1.91015">
        <ele>3</ele>
        <time>2018-04-22T19:10:01Z</time>
      </trkpt>
      <trkpt lat="46.74597" lon="-1.91017">
        <ele>3</ele>
        <time>2018-04-22T19:11:01Z</time>
      </trkpt>
      <trkpt lat="46.74596" lon="-1.91019">
        <ele>3</ele>
        <time>2018-04-22T19:12:01Z</time>
      </trkpt>
      <trkpt lat="46.74591" lon="-1.91026">
        <ele>3</ele>
        <time>2018-04-22T19:13:01Z</time>
      </trkpt>
      <trkpt lat="46.74593" lon="-1.91029">
        <ele>3</ele>
        <time>2018-04-22T19:14:01Z</time>
      </trkpt>
      <trkpt lat="46.74594" lon="-1.91033">
        <ele>3</ele>
        <time>2018-04-22T19:15:01Z</time>
      </trkpt>
      <trkpt lat="46.74594" lon="-1.91036">
        <ele>2</ele>
        <time>2018-04-22T19:16:01Z</time>
      </trkpt>
      <trkpt lat="46.74593" lon="-1.91039">
        <ele>2</ele>
        <time>2018-04-22T19:17:01Z</time>
      </trkpt>
      <trkpt lat="46.74592" lon="-1.91043">
        <ele>2</ele>
        <time>2018-04-22T19:18:01Z</time>
      </trkpt>
      <trkpt lat="46.74589" lon="-1.91044">
        <ele>2</ele>
        <time>2018-04-22T19:19:01Z</time>
      </trkpt>
      <trkpt lat="46.74586" lon="-1.91045">
        <ele>2</ele>
        <time>2018-04-22T19:20:01Z</time>
      </trkpt>
      <trkpt lat="46.74584" lon="-1.91045">
        <ele>2</ele>
        <time>2018-04-22T19:21:01Z</time>
      </trkpt>
      <trkpt lat="46.74576" lon="-1.9106">
        <ele>2</ele>
        <time>2018-04-22T19:22:01Z</time>
      </trkpt>
      <trkpt lat="46.74573" lon="-1.91066">
        <ele>2</ele>
        <time>2018-04-22T19:23:01Z</time>
      </trkpt>
      <trkpt lat="46.74569" lon="-1.91072">
        <ele>2</ele>
        <time>2018-04-22T19:24:01Z</time>
      </trkpt>
      <trkpt lat="46.74563" lon="-1.91079">
        <ele>3</ele>
        <time>2018-04-22T19:25:01Z</time>
      </trkpt>
      <trkpt lat="46.74534" lon="-1.91117">
        <ele>3</ele>
        <time>2018-04-22T19:26:01Z</time>
      </trkpt>
      <trkpt lat="46.74477" lon="-1.91184">
        <ele>4</ele>
        <time>2018-04-22T19:27:01Z</time>
      </trkpt>
      <trkpt lat="46.74469" lon="-1.91194">
        <ele>4</ele>
        <time>2018-04-22T19:28:01Z</time>
      </trkpt>
      <trkpt lat="46.74418" lon="-1.91257">
        <ele>3</ele>
        <time>2018-04-22T19:29:01Z</time>
      </trkpt>
      <trkpt lat="46.74388" lon="-1.91293">
        <ele>3</ele>
        <time>2018-04-22T19:30:01Z</time>
      </trkpt>
      <trkpt lat="46.74385" lon="-1.91297">
        <ele>3</ele>
        <time>2018-04-22T19:31:01Z</time>
      </trkpt>
      <trkpt lat="46.74375" lon="-1.91309">
        <ele>3</ele>
        <time>2018-04-22T19:32:01Z</time>
      </trkpt>
      <trkpt lat="46.74367" lon="-1.91321">
        <ele>4</ele>
        <time>2018-04-22T19:33:01Z</time>
      </trkpt>
      <trkpt lat="46.74358" lon="-1.91334">
        <ele>4</ele>
        <time>2018-04-22T19:34:01Z</time>
      </trkpt>
      <trkpt lat="46.74351" lon="-1.91346">
        <ele>4</ele>
        <time>2018-04-22T19:35:01Z</time>
      </trkpt>
      <trkpt lat="46.74344" lon="-1.9136">
        <ele>4</ele>
        <time>2018-04-22T19:36:01Z</time>
      </trkpt>
      <trkpt lat="46.74333" lon="-1.91384">
        <ele>4</ele>
        <time>2018-04-22T19:37:01Z</time>
      </trkpt>
      <trkpt lat="46.74324" lon="-1.91402">
        <ele>4</ele>
        <time>2018-04-22T19:38:01Z</time>
      </trkpt>
      <trkpt lat="46.74317" lon="-1.91418">
        <ele>4</ele>
        <time>2018-04-22T19:39:01Z</time>
      </trkpt>
      <trkpt lat="46.74311" lon="-1.91431">
        <ele>4</ele>
        <time>2018-04-22T19:40:01Z</time>
      </trkpt>
      <trkpt lat="46.74311" lon="-1.91431">
        <ele>4</ele>
        <time>2018-04-22T19:41:01Z</time>
      </trkpt>
      <trkpt lat="46.74297" lon="-1.91431">
        <ele>4</ele>
        <time>2018-04-22T19:42:01Z</time>
      </trkpt>
      <trkpt lat="46.74294" lon="-1.91432">
        <ele>4</ele>
        <time>2018-04-22T19:43:01Z</time>
      </trkpt>
      <trkpt lat="46.74292" lon="-1.91432">
        <ele>4</ele>
        <time>2018-04-22T19:44:01Z</time>
      </trkpt>
      <trkpt lat="46.74283" lon="-1.91443">
        <ele>4</ele>
        <time>2018-04-22T19:45:01Z</time>
      </trkpt>
      <trkpt lat="46.74245" lon="-1.91482">
        <ele>5</ele>
        <time>2018-04-22T19:46:01Z</time>
      </trkpt>
      <trkpt lat="46.74235" lon="-1.91492">
        <ele>5</ele>
        <time>2018-04-22T19:47:01Z</time>
      </trkpt>
      <trkpt lat="46.74192" lon="-1.91535">
        <ele>5</ele>
        <time>2018-04-22T19:48:01Z</time>
      </trkpt>
      <trkpt lat="46.74174" lon="-1.91553">
        <ele>5</ele>
        <time>2018-04-22T19:49:01Z</time>
      </trkpt>
      <trkpt lat="46.74172" lon="-1.91555">
        <ele>5</ele>
        <time>2018-04-22T19:50:01Z</time>
      </trkpt>
      <trkpt lat="46.74156" lon="-1.9157">
        <ele>5</ele>
        <time>2018-04-22T19:51:01Z</time>
      </trkpt>
      <trkpt lat="46.74143" lon="-1.91582">
        <ele>5</ele>
        <time>2018-04-22T19:52:01Z</time>
      </trkpt>
      <trkpt lat="46.74117" lon="-1.91604">
        <ele>5</ele>
        <time>2018-04-22T19:53:01Z</time>
      </trkpt>
      <trkpt lat="46.74089" lon="-1.91626">
        <ele>5</ele>
        <time>2018-04-22T19:54:01Z</time>
      </trkpt>
      <trkpt lat="46.74036" lon="-1.91667">
        <ele>6</ele>
        <time>2018-04-22T19:55:01Z</time>
      </trkpt>
      <trkpt lat="46.73994" lon="-1.91701">
        <ele>5</ele>
        <time>2018-04-22T19:56:01Z</time>
      </trkpt>
      <trkpt lat="46.73966" lon="-1.91725">
        <ele>5</ele>
        <time>2018-04-22T19:57:01Z</time>
      </trkpt>
      <trkpt lat="46.73966" lon="-1.91725">
        <ele>5</ele>
        <time>2018-04-22T19:58:01Z</time>
      </trkpt>
      <trkpt lat="46.73954" lon="-1.91736">
        <ele>5</ele>
        <time>2018-04-22T19:59:01Z</time>
      </trkpt>
      <trkpt lat="46.73946" lon="-1.91744">
        <ele>4</ele>
        <time>2018-04-22T20:00:01Z</time>
      </trkpt>
      <trkpt lat="46.73929" lon="-1.91762">
        <ele>4</ele>
        <time>2018-04-22T20:01:01Z</time>
      </trkpt>
      <trkpt lat="46.73918" lon="-1.91773">
        <ele>4</ele>
        <time>2018-04-22T20:02:01Z</time>
      </trkpt>
      <trkpt lat="46.73863" lon="-1.91828">
        <ele>4</ele>
        <time>2018-04-22T20:03:01Z</time>
      </trkpt>
      <trkpt lat="46.73813" lon="-1.91873">
        <ele>5</ele>
        <time>2018-04-22T20:04:01Z</time>
      </trkpt>
      <trkpt lat="46.738" lon="-1.91886">
        <ele>5</ele>
        <time>2018-04-22T20:05:01Z</time>
      </trkpt>
      <trkpt lat="46.73793" lon="-1.91895">
        <ele>5</ele>
        <time>2018-04-22T20:06:01Z</time>
      </trkpt>
      <trkpt lat="46.73787" lon="-1.91904">
        <ele>5</ele>
        <time>2018-04-22T20:07:01Z</time>
      </trkpt>
      <trkpt lat="46.73787" lon="-1.91904">
        <ele>5</ele>
        <time>2018-04-22T20:08:01Z</time>
      </trkpt>
      <trkpt lat="46.73784" lon="-1.91895">
        <ele>5</ele>
        <time>2018-04-22T20:09:01Z</time>
      </trkpt>
      <trkpt lat="46.73782" lon="-1.91884">
        <ele>5</ele>
        <time>2018-04-22T20:10:01Z</time>
      </trkpt>
      <trkpt lat="46.73781" lon="-1.91872">
        <ele>5</ele>
        <time>2018-04-22T20:11:01Z</time>
      </trkpt>
      <trkpt lat="46.73781" lon="-1.91858">
        <ele>5</ele>
        <time>2018-04-22T20:12:01Z</time>
      </trkpt>
      <trkpt lat="46.73781" lon="-1.91846">
        <ele>5</ele>
        <time>2018-04-22T20:13:01Z</time>
      </trkpt>
      <trkpt lat="46.73781" lon="-1.91794">
        <ele>5</ele>
        <time>2018-04-22T20:14:01Z</time>
      </trkpt>
      <trkpt lat="46.7378" lon="-1.91777">
        <ele>5</ele>
        <time>2018-04-22T20:15:01Z</time>
      </trkpt>
      <trkpt lat="46.73779" lon="-1.91762">
        <ele>5</ele>
        <time>2018-04-22T20:16:01Z</time>
      </trkpt>
      <trkpt lat="46.73777" lon="-1.9175">
        <ele>5</ele>
        <time>2018-04-22T20:17:01Z</time>
      </trkpt>
      <trkpt lat="46.73775" lon="-1.9174">
        <ele>5</ele>
        <time>2018-04-22T20:18:01Z</time>
      </trkpt>
      <trkpt lat="46.73771" lon="-1.91727">
        <ele>5</ele>
        <time>2018-04-22T20:19:01Z</time>
      </trkpt>
      <trkpt lat="46.73767" lon="-1.91714">
        <ele>5</ele>
        <time>2018-04-22T20:20:01Z</time>
      </trkpt>
      <trkpt lat="46.73761" lon="-1.91698">
        <ele>5</ele>
        <time>2018-04-22T20:21:01Z</time>
      </trkpt>
      <trkpt lat="46.73752" lon="-1.91678">
        <ele>5</ele>
        <time>2018-04-22T20:22:01Z</time>
      </trkpt>
      <trkpt lat="46.73728" lon="-1.91632">
        <ele>7</ele>
        <time>2018-04-22T20:23:01Z</time>
      </trkpt>
      <trkpt lat="46.73685" lon="-1.91548">
        <ele>6</ele>
        <time>2018-04-22T20:24:01Z</time>
      </trkpt>
      <trkpt lat="46.73651" lon="-1.91488">
        <ele>5</ele>
        <time>2018-04-22T20:25:01Z</time>
      </trkpt>
      <trkpt lat="46.73615" lon="-1.91424">
        <ele>6</ele>
        <time>2018-04-22T20:26:01Z</time>
      </trkpt>
      <trkpt lat="46.73578" lon="-1.91364">
        <ele>7</ele>
        <time>2018-04-22T20:27:01Z</time>
      </trkpt>
      <trkpt lat="46.73569" lon="-1.91351">
        <ele>7</ele>
        <time>2018-04-22T20:28:01Z</time>
      </trkpt>
      <trkpt lat="46.73558" lon="-1.91337">
        <ele>8</ele>
        <time>2018-04-22T20:29:01Z</time>
      </trkpt>
      <trkpt lat="46.73546" lon="-1.91323">
        <ele>8</ele>
        <time>2018-04-22T20:30:01Z</time>
      </trkpt>
      <trkpt lat="46.73522" lon="-1.91298">
        <ele>8</ele>
        <time>2018-04-22T20:31:01Z</time>
      </trkpt>
      <trkpt lat="46.73481" lon="-1.91256">
        <ele>9</ele>
        <time>2018-04-22T20:32:01Z</time>
      </trkpt>
      <trkpt lat="46.73456" lon="-1.91235">
        <ele>10</ele>
        <time>2018-04-22T20:33:01Z</time>
      </trkpt>
      <trkpt lat="46.73456" lon="-1.91235">
        <ele>10</ele>
        <time>2018-04-22T20:34:01Z</time>
      </trkpt>
      <trkpt lat="46.73442" lon="-1.91257">
        <ele>11</ele>
        <time>2018-04-22T20:35:01Z</time>
      </trkpt>
      <trkpt lat="46.73421" lon="-1.91295">
        <ele>11</ele>
        <time>2018-04-22T20:36:01Z</time>
      </trkpt>
      <trkpt lat="46.73392" lon="-1.91347">
        <ele>11</ele>
        <time>2018-04-22T20:37:01Z</time>
      </trkpt>
      <trkpt lat="46.73368" lon="-1.91384">
        <ele>12</ele>
        <time>2018-04-22T20:38:01Z</time>
      </trkpt>
      <trkpt lat="46.7336" lon="-1.91399">
        <ele>12</ele>
        <time>2018-04-22T20:39:01Z</time>
      </trkpt>
      <trkpt lat="46.73357" lon="-1.91405">
        <ele>13</ele>
        <time>2018-04-22T20:40:01Z</time>
      </trkpt>
      <trkpt lat="46.73355" lon="-1.91413">
        <ele>13</ele>
        <time>2018-04-22T20:41:01Z</time>
      </trkpt>
      <trkpt lat="46.73349" lon="-1.91432">
        <ele>13</ele>
        <time>2018-04-22T20:42:01Z</time>
      </trkpt>
      <trkpt lat="46.73344" lon="-1.91455">
        <ele>13</ele>
        <time>2018-04-22T20:43:01Z</time>
      </trkpt>
      <trkpt lat="46.7334" lon="-1.91469">
        <ele>13</ele>
        <time>2018-04-22T20:44:01Z</time>
      </trkpt>
      <trkpt lat="46.73339" lon="-1.91474">
        <ele>14</ele>
        <time>2018-04-22T20:45:01Z</time>
      </trkpt>
      <trkpt lat="46.73337" lon="-1.9148">
        <ele>14</ele>
        <time>2018-04-22T20:46:01Z</time>
      </trkpt>
      <trkpt lat="46.73335" lon="-1.91484">
        <ele>14</ele>
        <time>2018-04-22T20:47:01Z</time>
      </trkpt>
      <trkpt lat="46.73331" lon="-1.9149">
        <ele>14</ele>
        <time>2018-04-22T20:48:01Z</time>
      </trkpt>
      <trkpt lat="46.73331" lon="-1.9149">
        <ele>14</ele>
        <time>2018-04-22T20:49:01Z</time>
      </trkpt>
      <trkpt lat="46.73327" lon="-1.91472">
        <ele>14</ele>
        <time>2018-04-22T20:50:01Z</time>
      </trkpt>
      <trkpt lat="46.73321" lon="-1.91454">
        <ele>14</ele>
        <time>2018-04-22T20:51:01Z</time>
      </trkpt>
      <trkpt lat="46.73312" lon="-1.91432">
        <ele>13</ele>
        <time>2018-04-22T20:52:01Z</time>
      </trkpt>
      <trkpt lat="46.73304" lon="-1.91414">
        <ele>13</ele>
        <time>2018-04-22T20:53:01Z</time>
      </trkpt>
      <trkpt lat="46.73298" lon="-1.91401">
        <ele>13</ele>
        <time>2018-04-22T20:54:01Z</time>
      </trkpt>
      <trkpt lat="46.7328" lon="-1.91361">
        <ele>13</ele>
        <time>2018-04-22T20:55:01Z</time>
      </trkpt>
      <trkpt lat="46.73264" lon="-1.91328">
        <ele>13</ele>
        <time>2018-04-22T20:56:01Z</time>
      </trkpt>
      <trkpt lat="46.7325" lon="-1.91296">
        <ele>12</ele>
        <time>2018-04-22T20:57:01Z</time>
      </trkpt>
      <trkpt lat="46.73239" lon="-1.91274">
        <ele>10</ele>
        <time>2018-04-22T20:58:01Z</time>
      </trkpt>
      <trkpt lat="46.73227" lon="-1.91249">
        <ele>9</ele>
        <time>2018-04-22T20:59:01Z</time>
      </trkpt>
      <trkpt lat="46.73223" lon="-1.91238">
        <ele>9</ele>
        <time>2018-04-22T21:00:01Z</time>
      </trkpt>
      <trkpt lat="46.73208" lon="-1.91204">
        <ele>8</ele>
        <time>2018-04-22T21:01:01Z</time>
      </trkpt>
      <trkpt lat="46.73197" lon="-1.91182">
        <ele>8</ele>
        <time>2018-04-22T21:02:01Z</time>
      </trkpt>
      <trkpt lat="46.73184" lon="-1.91155">
        <ele>7</ele>
        <time>2018-04-22T21:03:01Z</time>
      </trkpt>
      <trkpt lat="46.73174" lon="-1.91134">
        <ele>6</ele>
        <time>2018-04-22T21:04:01Z</time>
      </trkpt>
      <trkpt lat="46.73169" lon="-1.91126">
        <ele>5</ele>
        <time>2018-04-22T21:05:01Z</time>
      </trkpt>
      <trkpt lat="46.73163" lon="-1.91117">
        <ele>5</ele>
        <time>2018-04-22T21:06:01Z</time>
      </trkpt>
      <trkpt lat="46.73151" lon="-1.91102">
        <ele>4</ele>
        <time>2018-04-22T21:07:01Z</time>
      </trkpt>
      <trkpt lat="46.73148" lon="-1.91095">
        <ele>4</ele>
        <time>2018-04-22T21:08:01Z</time>
      </trkpt>
      <trkpt lat="46.73137" lon="-1.91077">
        <ele>4</ele>
        <time>2018-04-22T21:09:01Z</time>
      </trkpt>
      <trkpt lat="46.7313" lon="-1.91067">
        <ele>4</ele>
        <time>2018-04-22T21:10:01Z</time>
      </trkpt>
      <trkpt lat="46.73098" lon="-1.91017">
        <ele>2</ele>
        <time>2018-04-22T21:11:01Z</time>
      </trkpt>
      <trkpt lat="46.73057" lon="-1.90954">
        <ele>1</ele>
        <time>2018-04-22T21:12:01Z</time>
      </trkpt>
      <trkpt lat="46.73019" lon="-1.90898">
        <ele>2.8</ele>
        <time>2018-04-22T21:13:01Z</time>
      </trkpt>
      <trkpt lat="46.72986" lon="-1.90845">
        <ele>1</ele>
        <time>2018-04-22T21:14:01Z</time>
      </trkpt>
      <trkpt lat="46.72951" lon="-1.90792">
        <ele>3.2</ele>
        <time>2018-04-22T21:15:01Z</time>
      </trkpt>
      <trkpt lat="46.72909" lon="-1.90728">
        <ele>2.6</ele>
        <time>2018-04-22T21:16:01Z</time>
      </trkpt>
      <trkpt lat="46.7288" lon="-1.90681">
        <ele>1</ele>
        <time>2018-04-22T21:17:01Z</time>
      </trkpt>
      <trkpt lat="46.72851" lon="-1.9064">
        <ele>3</ele>
        <time>2018-04-22T21:18:01Z</time>
      </trkpt>
      <trkpt lat="46.72831" lon="-1.90608">
        <ele>2.9</ele>
        <time>2018-04-22T21:19:01Z</time>
      </trkpt>
      <trkpt lat="46.72812" lon="-1.9058">
        <ele>3.4</ele>
        <time>2018-04-22T21:20:01Z</time>
      </trkpt>
      <trkpt lat="46.72794" lon="-1.90558">
        <ele>2.5</ele>
        <time>2018-04-22T21:21:01Z</time>
      </trkpt>
      <trkpt lat="46.72781" lon="-1.90543">
        <ele>1</ele>
        <time>2018-04-22T21:22:01Z</time>
      </trkpt>
      <trkpt lat="46.7276" lon="-1.90525">
        <ele>3.2</ele>
        <time>2018-04-22T21:23:01Z</time>
      </trkpt>
      <trkpt lat="46.72749" lon="-1.90513">
        <ele>3</ele>
        <time>2018-04-22T21:24:01Z</time>
      </trkpt>
      <trkpt lat="46.72728" lon="-1.90494">
        <ele>3.2</ele>
        <time>2018-04-22T21:25:01Z</time>
      </trkpt>
      <trkpt lat="46.72728" lon="-1.90494">
        <ele>3.2</ele>
        <time>2018-04-22T21:26:01Z</time>
      </trkpt>
      <trkpt lat="46.7272" lon="-1.90488">
        <ele>3.1</ele>
        <time>2018-04-22T21:27:01Z</time>
      </trkpt>
      <trkpt lat="46.72712" lon="-1.9048">
        <ele>2.3</ele>
        <time>2018-04-22T21:28:01Z</time>
      </trkpt>
      <trkpt lat="46.72704" lon="-1.90472">
        <ele>1.4</ele>
        <time>2018-04-22T21:29:01Z</time>
      </trkpt>
      <trkpt lat="46.72699" lon="-1.90466">
        <ele>1.7</ele>
        <time>2018-04-22T21:30:01Z</time>
      </trkpt>
      <trkpt lat="46.72693" lon="-1.90461">
        <ele>2.3</ele>
        <time>2018-04-22T21:31:01Z</time>
      </trkpt>
      <trkpt lat="46.72682" lon="-1.90451">
        <ele>3.5</ele>
        <time>2018-04-22T21:32:01Z</time>
      </trkpt>
      <trkpt lat="46.72671" lon="-1.9044">
        <ele>3.8</ele>
        <time>2018-04-22T21:33:01Z</time>
      </trkpt>
      <trkpt lat="46.72643" lon="-1.90413">
        <ele>3.7</ele>
        <time>2018-04-22T21:34:01Z</time>
      </trkpt>
      <trkpt lat="46.72603" lon="-1.90372">
        <ele>3.5</ele>
        <time>2018-04-22T21:35:01Z</time>
      </trkpt>
      <trkpt lat="46.72573" lon="-1.90343">
        <ele>1</ele>
        <time>2018-04-22T21:36:01Z</time>
      </trkpt>
      <trkpt lat="46.7254" lon="-1.90311">
        <ele>1</ele>
        <time>2018-04-22T21:37:01Z</time>
      </trkpt>
      <trkpt lat="46.72506" lon="-1.90278">
        <ele>2</ele>
        <time>2018-04-22T21:38:01Z</time>
      </trkpt>
      <trkpt lat="46.72485" lon="-1.90257">
        <ele>2</ele>
        <time>2018-04-22T21:39:01Z</time>
      </trkpt>
      <trkpt lat="46.72468" lon="-1.90239">
        <ele>2</ele>
        <time>2018-04-22T21:40:01Z</time>
      </trkpt>
      <trkpt lat="46.72458" lon="-1.90226">
        <ele>2</ele>
        <time>2018-04-22T21:41:01Z</time>
      </trkpt>
      <trkpt lat="46.7245" lon="-1.90213">
        <ele>2</ele>
        <time>2018-04-22T21:42:01Z</time>
      </trkpt>
      <trkpt lat="46.7244" lon="-1.9019">
        <ele>2</ele>
        <time>2018-04-22T21:43:01Z</time>
      </trkpt>
      <trkpt lat="46.7243" lon="-1.90169">
        <ele>2</ele>
        <time>2018-04-22T21:44:01Z</time>
      </trkpt>
      <trkpt lat="46.72412" lon="-1.90128">
        <ele>2</ele>
        <time>2018-04-22T21:45:01Z</time>
      </trkpt>
      <trkpt lat="46.72403" lon="-1.90108">
        <ele>3</ele>
        <time>2018-04-22T21:46:01Z</time>
      </trkpt>
      <trkpt lat="46.72388" lon="-1.90076">
        <ele>3</ele>
        <time>2018-04-22T21:47:01Z</time>
      </trkpt>
      <trkpt lat="46.72372" lon="-1.90041">
        <ele>4</ele>
        <time>2018-04-22T21:48:01Z</time>
      </trkpt>
      <trkpt lat="46.72358" lon="-1.90013">
        <ele>5</ele>
        <time>2018-04-22T21:49:01Z</time>
      </trkpt>
      <trkpt lat="46.72348" lon="-1.89995">
        <ele>5</ele>
        <time>2018-04-22T21:50:01Z</time>
      </trkpt>
      <trkpt lat="46.72336" lon="-1.89977">
        <ele>6</ele>
        <time>2018-04-22T21:51:01Z</time>
      </trkpt>
      <trkpt lat="46.72329" lon="-1.89969">
        <ele>6</ele>
        <time>2018-04-22T21:52:01Z</time>
      </trkpt>
      <trkpt lat="46.72323" lon="-1.8996">
        <ele>6</ele>
        <time>2018-04-22T21:53:01Z</time>
      </trkpt>
      <trkpt lat="46.72315" lon="-1.89944">
        <ele>6</ele>
        <time>2018-04-22T21:54:01Z</time>
      </trkpt>
      <trkpt lat="46.72307" lon="-1.89925">
        <ele>6</ele>
        <time>2018-04-22T21:55:01Z</time>
      </trkpt>
      <trkpt lat="46.723" lon="-1.89904">
        <ele>6</ele>
        <time>2018-04-22T21:56:01Z</time>
      </trkpt>
      <trkpt lat="46.72292" lon="-1.8988">
        <ele>6</ele>
        <time>2018-04-22T21:57:01Z</time>
      </trkpt>
      <trkpt lat="46.72283" lon="-1.89855">
        <ele>6</ele>
        <time>2018-04-22T21:58:01Z</time>
      </trkpt>
      <trkpt lat="46.72271" lon="-1.89821">
        <ele>6</ele>
        <time>2018-04-22T21:59:01Z</time>
      </trkpt>
      <trkpt lat="46.72261" lon="-1.89791">
        <ele>7</ele>
        <time>2018-04-22T22:00:01Z</time>
      </trkpt>
      <trkpt lat="46.72253" lon="-1.8977">
        <ele>7</ele>
        <time>2018-04-22T22:01:01Z</time>
      </trkpt>
      <trkpt lat="46.72253" lon="-1.8977">
        <ele>7</ele>
        <time>2018-04-22T22:02:01Z</time>
      </trkpt>
      <trkpt lat="46.72225" lon="-1.89792">
        <ele>7</ele>
        <time>2018-04-22T22:03:01Z</time>
      </trkpt>
      <trkpt lat="46.72203" lon="-1.89809">
        <ele>8</ele>
        <time>2018-04-22T22:04:01Z</time>
      </trkpt>
      <trkpt lat="46.72178" lon="-1.8983">
        <ele>9</ele>
        <time>2018-04-22T22:05:01Z</time>
      </trkpt>
      <trkpt lat="46.72143" lon="-1.89859">
        <ele>9</ele>
        <time>2018-04-22T22:06:01Z</time>
      </trkpt>
      <trkpt lat="46.72119" lon="-1.89878">
        <ele>8</ele>
        <time>2018-04-22T22:07:01Z</time>
      </trkpt>
      <trkpt lat="46.72084" lon="-1.89908">
        <ele>7</ele>
        <time>2018-04-22T22:08:01Z</time>
      </trkpt>
      <trkpt lat="46.72056" lon="-1.8993">
        <ele>7</ele>
        <time>2018-04-22T22:09:01Z</time>
      </trkpt>
      <trkpt lat="46.72042" lon="-1.89942">
        <ele>7</ele>
        <time>2018-04-22T22:10:01Z</time>
      </trkpt>
      <trkpt lat="46.72037" lon="-1.89948">
        <ele>7</ele>
        <time>2018-04-22T22:11:01Z</time>
      </trkpt>
      <trkpt lat="46.72029" lon="-1.8996">
        <ele>7</ele>
        <time>2018-04-22T22:12:01Z</time>
      </trkpt>
      <trkpt lat="46.7202" lon="-1.89975">
        <ele>7</ele>
        <time>2018-04-22T22:13:01Z</time>
      </trkpt>
      <trkpt lat="46.72013" lon="-1.89987">
        <ele>6</ele>
        <time>2018-04-22T22:14:01Z</time>
      </trkpt>
      <trkpt lat="46.72002" lon="-1.90007">
        <ele>6</ele>
        <time>2018-04-22T22:15:01Z</time>
      </trkpt>
      <trkpt lat="46.7199" lon="-1.90031">
        <ele>6</ele>
        <time>2018-04-22T22:16:01Z</time>
      </trkpt>
      <trkpt lat="46.71979" lon="-1.9005">
        <ele>6</ele>
        <time>2018-04-22T22:17:01Z</time>
      </trkpt>
      <trkpt lat="46.71973" lon="-1.90062">
        <ele>6</ele>
        <time>2018-04-22T22:18:01Z</time>
      </trkpt>
      <trkpt lat="46.71968" lon="-1.9008">
        <ele>6</ele>
        <time>2018-04-22T22:19:01Z</time>
      </trkpt>
      <trkpt lat="46.71965" lon="-1.90106">
        <ele>6</ele>
        <time>2018-04-22T22:20:01Z</time>
      </trkpt>
      <trkpt lat="46.71962" lon="-1.90125">
        <ele>6</ele>
        <time>2018-04-22T22:21:01Z</time>
      </trkpt>
      <trkpt lat="46.71959" lon="-1.90153">
        <ele>6</ele>
        <time>2018-04-22T22:22:01Z</time>
      </trkpt>
      <trkpt lat="46.71958" lon="-1.90176">
        <ele>6</ele>
        <time>2018-04-22T22:23:01Z</time>
      </trkpt>
      <trkpt lat="46.71956" lon="-1.90191">
        <ele>6</ele>
        <time>2018-04-22T22:24:01Z</time>
      </trkpt>
      <trkpt lat="46.71953" lon="-1.90201">
        <ele>6</ele>
        <time>2018-04-22T22:25:01Z</time>
      </trkpt>
      <trkpt lat="46.71953" lon="-1.90203">
        <ele>6</ele>
        <time>2018-04-22T22:26:01Z</time>
      </trkpt>
      <trkpt lat="46.71949" lon="-1.90211">
        <ele>6</ele>
        <time>2018-04-22T22:27:01Z</time>
      </trkpt>
      <trkpt lat="46.71946" lon="-1.90218">
        <ele>6</ele>
        <time>2018-04-22T22:28:01Z</time>
      </trkpt>
      <trkpt lat="46.71941" lon="-1.90227">
        <ele>6</ele>
        <time>2018-04-22T22:29:01Z</time>
      </trkpt>
      <trkpt lat="46.71934" lon="-1.90235">
        <ele>6</ele>
        <time>2018-04-22T22:30:01Z</time>
      </trkpt>
      <trkpt lat="46.71927" lon="-1.9024">
        <ele>6</ele>
        <time>2018-04-22T22:31:01Z</time>
      </trkpt>
      <trkpt lat="46.71914" lon="-1.90248">
        <ele>6</ele>
        <time>2018-04-22T22:32:01Z</time>
      </trkpt>
      <trkpt lat="46.719" lon="-1.90254">
        <ele>7</ele>
        <time>2018-04-22T22:33:01Z</time>
      </trkpt>
      <trkpt lat="46.71896" lon="-1.90256">
        <ele>7</ele>
        <time>2018-04-22T22:34:01Z</time>
      </trkpt>
      <trkpt lat="46.7189" lon="-1.9026">
        <ele>7</ele>
        <time>2018-04-22T22:35:01Z</time>
      </trkpt>
      <trkpt lat="46.71886" lon="-1.90263">
        <ele>7</ele>
        <time>2018-04-22T22:36:01Z</time>
      </trkpt>
      <trkpt lat="46.71883" lon="-1.90267">
        <ele>7</ele>
        <time>2018-04-22T22:37:01Z</time>
      </trkpt>
      <trkpt lat="46.71879" lon="-1.90274">
        <ele>7</ele>
        <time>2018-04-22T22:38:01Z</time>
      </trkpt>
      <trkpt lat="46.71876" lon="-1.90283">
        <ele>7</ele>
        <time>2018-04-22T22:39:01Z</time>
      </trkpt>
      <trkpt lat="46.71872" lon="-1.90301">
        <ele>6</ele>
        <time>2018-04-22T22:40:01Z</time>
      </trkpt>
      <trkpt lat="46.71869" lon="-1.90308">
        <ele>6</ele>
        <time>2018-04-22T22:41:01Z</time>
      </trkpt>
      <trkpt lat="46.71865" lon="-1.90316">
        <ele>6</ele>
        <time>2018-04-22T22:42:01Z</time>
      </trkpt>
      <trkpt lat="46.71839" lon="-1.90349">
        <ele>6</ele>
        <time>2018-04-22T22:43:01Z</time>
      </trkpt>
      <trkpt lat="46.7179" lon="-1.90406">
        <ele>6</ele>
        <time>2018-04-22T22:44:01Z</time>
      </trkpt>
      <trkpt lat="46.71783" lon="-1.90415">
        <ele>6</ele>
        <time>2018-04-22T22:45:01Z</time>
      </trkpt>
      <trkpt lat="46.71764" lon="-1.90437">
        <ele>7</ele>
        <time>2018-04-22T22:46:01Z</time>
      </trkpt>
      <trkpt lat="46.71729" lon="-1.90479">
        <ele>7</ele>
        <time>2018-04-22T22:47:01Z</time>
      </trkpt>
      <trkpt lat="46.71702" lon="-1.90512">
        <ele>8</ele>
        <time>2018-04-22T22:48:01Z</time>
      </trkpt>
      <trkpt lat="46.71687" lon="-1.9053">
        <ele>8</ele>
        <time>2018-04-22T22:49:01Z</time>
      </trkpt>
      <trkpt lat="46.71673" lon="-1.90547">
        <ele>8</ele>
        <time>2018-04-22T22:50:01Z</time>
      </trkpt>
      <trkpt lat="46.71651" lon="-1.90574">
        <ele>9</ele>
        <time>2018-04-22T22:51:01Z</time>
      </trkpt>
      <trkpt lat="46.71615" lon="-1.90615">
        <ele>9</ele>
        <time>2018-04-22T22:52:01Z</time>
      </trkpt>
      <trkpt lat="46.71615" lon="-1.90616">
        <ele>9</ele>
        <time>2018-04-22T22:53:01Z</time>
      </trkpt>
      <trkpt lat="46.7161" lon="-1.90622">
        <ele>9</ele>
        <time>2018-04-22T22:54:01Z</time>
      </trkpt>
      <trkpt lat="46.71589" lon="-1.90649">
        <ele>9</ele>
        <time>2018-04-22T22:55:01Z</time>
      </trkpt>
      <trkpt lat="46.71557" lon="-1.90688">
        <ele>10</ele>
        <time>2018-04-22T22:56:01Z</time>
      </trkpt>
      <trkpt lat="46.71554" lon="-1.90691">
        <ele>10</ele>
        <time>2018-04-22T22:57:01Z</time>
      </trkpt>
      <trkpt lat="46.71544" lon="-1.90706">
        <ele>10</ele>
        <time>2018-04-22T22:58:01Z</time>
      </trkpt>
      <trkpt lat="46.71545" lon="-1.90706">
        <ele>10</ele>
        <time>2018-04-22T22:59:01Z</time>
      </trkpt>
      <trkpt lat="46.71545" lon="-1.90707">
        <ele>10</ele>
        <time>2018-04-22T23:00:01Z</time>
      </trkpt>
      <trkpt lat="46.71545" lon="-1.90708">
        <ele>10</ele>
        <time>2018-04-22T23:01:01Z</time>
      </trkpt>
      <trkpt lat="46.71546" lon="-1.90708">
        <ele>10</ele>
        <time>2018-04-22T23:02:01Z</time>
      </trkpt>
      <trkpt lat="46.71546" lon="-1.90709">
        <ele>10</ele>
        <time>2018-04-22T23:03:01Z</time>
      </trkpt>
      <trkpt lat="46.71546" lon="-1.9071">
        <ele>10</ele>
        <time>2018-04-22T23:04:01Z</time>
      </trkpt>
      <trkpt lat="46.71546" lon="-1.90711">
        <ele>10</ele>
        <time>2018-04-22T23:05:01Z</time>
      </trkpt>
      <trkpt lat="46.71546" lon="-1.90712">
        <ele>10</ele>
        <time>2018-04-22T23:06:01Z</time>
      </trkpt>
      <trkpt lat="46.71546" lon="-1.90713">
        <ele>10</ele>
        <time>2018-04-22T23:07:01Z</time>
      </trkpt>
      <trkpt lat="46.71546" lon="-1.90714">
        <ele>10</ele>
        <time>2018-04-22T23:08:01Z</time>
      </trkpt>
      <trkpt lat="46.71546" lon="-1.90715">
        <ele>10</ele>
        <time>2018-04-22T23:09:01Z</time>
      </trkpt>
      <trkpt lat="46.71546" lon="-1.90716">
        <ele>10</ele>
        <time>2018-04-22T23:10:01Z</time>
      </trkpt>
      <trkpt lat="46.71546" lon="-1.90717">
        <ele>10</ele>
        <time>2018-04-22T23:11:01Z</time>
      </trkpt>
      <trkpt lat="46.71545" lon="-1.90717">
        <ele>10</ele>
        <time>2018-04-22T23:12:01Z</time>
      </trkpt>
      <trkpt lat="46.71545" lon="-1.90718">
        <ele>10</ele>
        <time>2018-04-22T23:13:01Z</time>
      </trkpt>
      <trkpt lat="46.71545" lon="-1.90719">
        <ele>10</ele>
        <time>2018-04-22T23:14:01Z</time>
      </trkpt>
      <trkpt lat="46.71544" lon="-1.90719">
        <ele>10</ele>
        <time>2018-04-22T23:15:01Z</time>
      </trkpt>
      <trkpt lat="46.71544" lon="-1.9072">
        <ele>10</ele>
        <time>2018-04-22T23:16:01Z</time>
      </trkpt>
      <trkpt lat="46.71543" lon="-1.9072">
        <ele>10</ele>
        <time>2018-04-22T23:17:01Z</time>
      </trkpt>
      <trkpt lat="46.71542" lon="-1.9072">
        <ele>10</ele>
        <time>2018-04-22T23:18:01Z</time>
      </trkpt>
      <trkpt lat="46.71541" lon="-1.9072">
        <ele>10</ele>
        <time>2018-04-22T23:19:01Z</time>
      </trkpt>
      <trkpt lat="46.71541" lon="-1.90721">
        <ele>10</ele>
        <time>2018-04-22T23:20:01Z</time>
      </trkpt>
      <trkpt lat="46.71541" lon="-1.9072">
        <ele>10</ele>
        <time>2018-04-22T23:21:01Z</time>
      </trkpt>
      <trkpt lat="46.7154" lon="-1.9072">
        <ele>10</ele>
        <time>2018-04-22T23:22:01Z</time>
      </trkpt>
      <trkpt lat="46.71539" lon="-1.9072">
        <ele>10</ele>
        <time>2018-04-22T23:23:01Z</time>
      </trkpt>
      <trkpt lat="46.71538" lon="-1.9072">
        <ele>10</ele>
        <time>2018-04-22T23:24:01Z</time>
      </trkpt>
      <trkpt lat="46.71538" lon="-1.90719">
        <ele>10</ele>
        <time>2018-04-22T23:25:01Z</time>
      </trkpt>
      <trkpt lat="46.71537" lon="-1.90719">
        <ele>10</ele>
        <time>2018-04-22T23:26:01Z</time>
      </trkpt>
      <trkpt lat="46.71537" lon="-1.90718">
        <ele>10</ele>
        <time>2018-04-22T23:27:01Z</time>
      </trkpt>
      <trkpt lat="46.71537" lon="-1.90717">
        <ele>10</ele>
        <time>2018-04-22T23:28:01Z</time>
      </trkpt>
      <trkpt lat="46.71504" lon="-1.90753">
        <ele>11</ele>
        <time>2018-04-22T23:29:01Z</time>
      </trkpt>
      <trkpt lat="46.71468" lon="-1.90796">
        <ele>11</ele>
        <time>2018-04-22T23:30:01Z</time>
      </trkpt>
      <trkpt lat="46.71449" lon="-1.90818">
        <ele>12</ele>
        <time>2018-04-22T23:31:01Z</time>
      </trkpt>
      <trkpt lat="46.71439" lon="-1.9083">
        <ele>12</ele>
        <time>2018-04-22T23:32:01Z</time>
      </trkpt>
      <trkpt lat="46.71414" lon="-1.90862">
        <ele>13</ele>
        <time>2018-04-22T23:33:01Z</time>
      </trkpt>
      <trkpt lat="46.71394" lon="-1.90886">
        <ele>13</ele>
        <time>2018-04-22T23:34:01Z</time>
      </trkpt>
      <trkpt lat="46.71377" lon="-1.90906">
        <ele>13</ele>
        <time>2018-04-22T23:35:01Z</time>
      </trkpt>
      <trkpt lat="46.71372" lon="-1.90912">
        <ele>13</ele>
        <time>2018-04-22T23:36:01Z</time>
      </trkpt>
      <trkpt lat="46.71354" lon="-1.90933">
        <ele>12</ele>
        <time>2018-04-22T23:37:01Z</time>
      </trkpt>
      <trkpt lat="46.71332" lon="-1.90962">
        <ele>12</ele>
        <time>2018-04-22T23:38:01Z</time>
      </trkpt>
      <trkpt lat="46.7131" lon="-1.90988">
        <ele>12</ele>
        <time>2018-04-22T23:39:01Z</time>
      </trkpt>
      <trkpt lat="46.713" lon="-1.91004">
        <ele>12</ele>
        <time>2018-04-22T23:40:01Z</time>
      </trkpt>
      <trkpt lat="46.71289" lon="-1.9102">
        <ele>12</ele>
        <time>2018-04-22T23:41:01Z</time>
      </trkpt>
      <trkpt lat="46.71277" lon="-1.9104">
        <ele>12</ele>
        <time>2018-04-22T23:42:01Z</time>
      </trkpt>
      <trkpt lat="46.71264" lon="-1.91064">
        <ele>12</ele>
        <time>2018-04-22T23:43:01Z</time>
      </trkpt>
      <trkpt lat="46.71255" lon="-1.91084">
        <ele>12</ele>
        <time>2018-04-22T23:44:01Z</time>
      </trkpt>
      <trkpt lat="46.71244" lon="-1.91108">
        <ele>12</ele>
        <time>2018-04-22T23:45:01Z</time>
      </trkpt>
      <trkpt lat="46.71231" lon="-1.91139">
        <ele>11</ele>
        <time>2018-04-22T23:46:01Z</time>
      </trkpt>
      <trkpt lat="46.71227" lon="-1.91147">
        <ele>11</ele>
        <time>2018-04-22T23:47:01Z</time>
      </trkpt>
      <trkpt lat="46.71216" lon="-1.91174">
        <ele>11</ele>
        <time>2018-04-22T23:48:01Z</time>
      </trkpt>
      <trkpt lat="46.712" lon="-1.9121">
        <ele>11</ele>
        <time>2018-04-22T23:49:01Z</time>
      </trkpt>
      <trkpt lat="46.71185" lon="-1.91246">
        <ele>11</ele>
        <time>2018-04-22T23:50:01Z</time>
      </trkpt>
      <trkpt lat="46.71175" lon="-1.91271">
        <ele>11</ele>
        <time>2018-04-22T23:51:01Z</time>
      </trkpt>
      <trkpt lat="46.71164" lon="-1.91298">
        <ele>11</ele>
        <time>2018-04-22T23:52:01Z</time>
      </trkpt>
      <trkpt lat="46.71152" lon="-1.91328">
        <ele>12</ele>
        <time>2018-04-22T23:53:01Z</time>
      </trkpt>
      <trkpt lat="46.7115" lon="-1.91334">
        <ele>12</ele>
        <time>2018-04-22T23:54:01Z</time>
      </trkpt>
      <trkpt lat="46.71148" lon="-1.91339">
        <ele>12</ele>
        <time>2018-04-22T23:55:01Z</time>
      </trkpt>
      <trkpt lat="46.71136" lon="-1.91372">
        <ele>12</ele>
        <time>2018-04-22T23:56:01Z</time>
      </trkpt>
      <trkpt lat="46.71122" lon="-1.91407">
        <ele>13</ele>
        <time>2018-04-22T23:57:01Z</time>
      </trkpt>
      <trkpt lat="46.71113" lon="-1.91429">
        <ele>14</ele>
        <time>2018-04-22T23:58:01Z</time>
      </trkpt>
      <trkpt lat="46.71106" lon="-1.91442">
        <ele>14</ele>
        <time>2018-04-22T23:59:01Z</time>
      </trkpt>
      <trkpt lat="46.71103" lon="-1.91449">
        <ele>14</ele>
        <time>2018-04-23T00:00:01Z</time>
      </trkpt>
      <trkpt lat="46.71102" lon="-1.91452">
        <ele>14</ele>
        <time>2018-04-23T00:01:01Z</time>
      </trkpt>
      <trkpt lat="46.71099" lon="-1.91459">
        <ele>14</ele>
        <time>2018-04-23T00:02:01Z</time>
      </trkpt>
      <trkpt lat="46.71097" lon="-1.91462">
        <ele>15</ele>
        <time>2018-04-23T00:03:01Z</time>
      </trkpt>
      <trkpt lat="46.71096" lon="-1.91463">
        <ele>15</ele>
        <time>2018-04-23T00:04:01Z</time>
      </trkpt>
      <trkpt lat="46.71095" lon="-1.91465">
        <ele>15</ele>
        <time>2018-04-23T00:05:01Z</time>
      </trkpt>
      <trkpt lat="46.71085" lon="-1.91481">
        <ele>15</ele>
        <time>2018-04-23T00:06:01Z</time>
      </trkpt>
      <trkpt lat="46.7107" lon="-1.91503">
        <ele>15</ele>
        <time>2018-04-23T00:07:01Z</time>
      </trkpt>
      <trkpt lat="46.71064" lon="-1.91509">
        <ele>15</ele>
        <time>2018-04-23T00:08:01Z</time>
      </trkpt>
      <trkpt lat="46.71054" lon="-1.91523">
        <ele>16</ele>
        <time>2018-04-23T00:09:01Z</time>
      </trkpt>
      <trkpt lat="46.71042" lon="-1.91539">
        <ele>16</ele>
        <time>2018-04-23T00:10:01Z</time>
      </trkpt>
      <trkpt lat="46.71022" lon="-1.91567">
        <ele>16</ele>
        <time>2018-04-23T00:11:01Z</time>
      </trkpt>
      <trkpt lat="46.7102" lon="-1.9157">
        <ele>17</ele>
        <time>2018-04-23T00:12:01Z</time>
      </trkpt>
      <trkpt lat="46.71018" lon="-1.91572">
        <ele>17</ele>
        <time>2018-04-23T00:13:01Z</time>
      </trkpt>
      <trkpt lat="46.70999" lon="-1.91598">
        <ele>17</ele>
        <time>2018-04-23T00:14:01Z</time>
      </trkpt>
      <trkpt lat="46.70971" lon="-1.91634">
        <ele>17</ele>
        <time>2018-04-23T00:15:01Z</time>
      </trkpt>
      <trkpt lat="46.70954" lon="-1.91659">
        <ele>18</ele>
        <time>2018-04-23T00:16:01Z</time>
      </trkpt>
      <trkpt lat="46.70951" lon="-1.91664">
        <ele>18</ele>
        <time>2018-04-23T00:17:01Z</time>
      </trkpt>
      <trkpt lat="46.70946" lon="-1.91669">
        <ele>18</ele>
        <time>2018-04-23T00:18:01Z</time>
      </trkpt>
      <trkpt lat="46.70932" lon="-1.91688">
        <ele>18</ele>
        <time>2018-04-23T00:19:01Z</time>
      </trkpt>
      <trkpt lat="46.70913" lon="-1.91714">
        <ele>18</ele>
        <time>2018-04-23T00:20:01Z</time>
      </trkpt>
      <trkpt lat="46.70894" lon="-1.91739">
        <ele>18</ele>
        <time>2018-04-23T00:21:01Z</time>
      </trkpt>
      <trkpt lat="46.70883" lon="-1.91753">
        <ele>18</ele>
        <time>2018-04-23T00:22:01Z</time>
      </trkpt>
      <trkpt lat="46.7087" lon="-1.91769">
        <ele>19</ele>
        <time>2018-04-23T00:23:01Z</time>
      </trkpt>
      <trkpt lat="46.7087" lon="-1.9177">
        <ele>19</ele>
        <time>2018-04-23T00:24:01Z</time>
      </trkpt>
      <trkpt lat="46.7087" lon="-1.91771">
        <ele>19</ele>
        <time>2018-04-23T00:25:01Z</time>
      </trkpt>
      <trkpt lat="46.70871" lon="-1.91771">
        <ele>19</ele>
        <time>2018-04-23T00:26:01Z</time>
      </trkpt>
      <trkpt lat="46.70871" lon="-1.91772">
        <ele>19</ele>
        <time>2018-04-23T00:27:01Z</time>
      </trkpt>
      <trkpt lat="46.70871" lon="-1.91773">
        <ele>19</ele>
        <time>2018-04-23T00:28:01Z</time>
      </trkpt>
      <trkpt lat="46.70871" lon="-1.91774">
        <ele>19</ele>
        <time>2018-04-23T00:29:01Z</time>
      </trkpt>
      <trkpt lat="46.70871" lon="-1.91775">
        <ele>19</ele>
        <time>2018-04-23T00:30:01Z</time>
      </trkpt>
      <trkpt lat="46.70871" lon="-1.91776">
        <ele>19</ele>
        <time>2018-04-23T00:31:01Z</time>
      </trkpt>
      <trkpt lat="46.70871" lon="-1.91777">
        <ele>19</ele>
        <time>2018-04-23T00:32:01Z</time>
      </trkpt>
      <trkpt lat="46.70871" lon="-1.91778">
        <ele>19</ele>
        <time>2018-04-23T00:33:01Z</time>
      </trkpt>
      <trkpt lat="46.70871" lon="-1.91779">
        <ele>19</ele>
        <time>2018-04-23T00:34:01Z</time>
      </trkpt>
      <trkpt lat="46.7087" lon="-1.91779">
        <ele>19</ele>
        <time>2018-04-23T00:35:01Z</time>
      </trkpt>
      <trkpt lat="46.7087" lon="-1.9178">
        <ele>19</ele>
        <time>2018-04-23T00:36:01Z</time>
      </trkpt>
      <trkpt lat="46.7087" lon="-1.91781">
        <ele>19</ele>
        <time>2018-04-23T00:37:01Z</time>
      </trkpt>
      <trkpt lat="46.7087" lon="-1.91782">
        <ele>19</ele>
        <time>2018-04-23T00:38:01Z</time>
      </trkpt>
      <trkpt lat="46.70869" lon="-1.91782">
        <ele>19</ele>
        <time>2018-04-23T00:39:01Z</time>
      </trkpt>
      <trkpt lat="46.70869" lon="-1.91783">
        <ele>19</ele>
        <time>2018-04-23T00:40:01Z</time>
      </trkpt>
      <trkpt lat="46.70868" lon="-1.91784">
        <ele>19</ele>
        <time>2018-04-23T00:41:01Z</time>
      </trkpt>
      <trkpt lat="46.70868" lon="-1.91785">
        <ele>19</ele>
        <time>2018-04-23T00:42:01Z</time>
      </trkpt>
      <trkpt lat="46.70867" lon="-1.91785">
        <ele>19</ele>
        <time>2018-04-23T00:43:01Z</time>
      </trkpt>
      <trkpt lat="46.70866" lon="-1.91786">
        <ele>19</ele>
        <time>2018-04-23T00:44:01Z</time>
      </trkpt>
      <trkpt lat="46.70865" lon="-1.91786">
        <ele>19</ele>
        <time>2018-04-23T00:45:01Z</time>
      </trkpt>
      <trkpt lat="46.70864" lon="-1.91786">
        <ele>19</ele>
        <time>2018-04-23T00:46:01Z</time>
      </trkpt>
      <trkpt lat="46.70864" lon="-1.91787">
        <ele>19</ele>
        <time>2018-04-23T00:47:01Z</time>
      </trkpt>
      <trkpt lat="46.70863" lon="-1.91787">
        <ele>19</ele>
        <time>2018-04-23T00:48:01Z</time>
      </trkpt>
      <trkpt lat="46.70862" lon="-1.91787">
        <ele>19</ele>
        <time>2018-04-23T00:49:01Z</time>
      </trkpt>
      <trkpt lat="46.70861" lon="-1.91787">
        <ele>19</ele>
        <time>2018-04-23T00:50:01Z</time>
      </trkpt>
      <trkpt lat="46.70861" lon="-1.91786">
        <ele>19</ele>
        <time>2018-04-23T00:51:01Z</time>
      </trkpt>
      <trkpt lat="46.7086" lon="-1.91786">
        <ele>19</ele>
        <time>2018-04-23T00:52:01Z</time>
      </trkpt>
      <trkpt lat="46.70859" lon="-1.91786">
        <ele>19</ele>
        <time>2018-04-23T00:53:01Z</time>
      </trkpt>
      <trkpt lat="46.70859" lon="-1.91785">
        <ele>19</ele>
        <time>2018-04-23T00:54:01Z</time>
      </trkpt>
      <trkpt lat="46.70858" lon="-1.91785">
        <ele>19</ele>
        <time>2018-04-23T00:55:01Z</time>
      </trkpt>
      <trkpt lat="46.70858" lon="-1.91784">
        <ele>19</ele>
        <time>2018-04-23T00:56:01Z</time>
      </trkpt>
      <trkpt lat="46.70836" lon="-1.9181">
        <ele>20</ele>
        <time>2018-04-23T00:57:01Z</time>
      </trkpt>
      <trkpt lat="46.70799" lon="-1.91849">
        <ele>20</ele>
        <time>2018-04-23T00:58:01Z</time>
      </trkpt>
      <trkpt lat="46.70793" lon="-1.91854">
        <ele>20</ele>
        <time>2018-04-23T00:59:01Z</time>
      </trkpt>
      <trkpt lat="46.70789" lon="-1.91861">
        <ele>19</ele>
        <time>2018-04-23T01:00:01Z</time>
      </trkpt>
      <trkpt lat="46.70758" lon="-1.91893">
        <ele>19</ele>
        <time>2018-04-23T01:01:01Z</time>
      </trkpt>
      <trkpt lat="46.7073" lon="-1.91923">
        <ele>18</ele>
        <time>2018-04-23T01:02:01Z</time>
      </trkpt>
      <trkpt lat="46.70726" lon="-1.91928">
        <ele>19</ele>
        <time>2018-04-23T01:03:01Z</time>
      </trkpt>
      <trkpt lat="46.70721" lon="-1.9193">
        <ele>19</ele>
        <time>2018-04-23T01:04:01Z</time>
      </trkpt>
      <trkpt lat="46.70684" lon="-1.91967">
        <ele>19</ele>
        <time>2018-04-23T01:05:01Z</time>
      </trkpt>
      <trkpt lat="46.70677" lon="-1.91974">
        <ele>19</ele>
        <time>2018-04-23T01:06:01Z</time>
      </trkpt>
      <trkpt lat="46.70671" lon="-1.91985">
        <ele>19</ele>
        <time>2018-04-23T01:07:01Z</time>
      </trkpt>
      <trkpt lat="46.70655" lon="-1.92006">
        <ele>19</ele>
        <time>2018-04-23T01:08:01Z</time>
      </trkpt>
      <trkpt lat="46.70655" lon="-1.92006">
        <ele>19</ele>
        <time>2018-04-23T01:09:01Z</time>
      </trkpt>
      <trkpt lat="46.70655" lon="-1.92007">
        <ele>19</ele>
        <time>2018-04-23T01:10:01Z</time>
      </trkpt>
      <trkpt lat="46.70655" lon="-1.92008">
        <ele>19</ele>
        <time>2018-04-23T01:11:01Z</time>
      </trkpt>
      <trkpt lat="46.70655" lon="-1.92009">
        <ele>19</ele>
        <time>2018-04-23T01:12:01Z</time>
      </trkpt>
      <trkpt lat="46.70655" lon="-1.9201">
        <ele>19</ele>
        <time>2018-04-23T01:13:01Z</time>
      </trkpt>
      <trkpt lat="46.70655" lon="-1.92011">
        <ele>19</ele>
        <time>2018-04-23T01:14:01Z</time>
      </trkpt>
      <trkpt lat="46.70655" lon="-1.92012">
        <ele>19</ele>
        <time>2018-04-23T01:15:01Z</time>
      </trkpt>
      <trkpt lat="46.70655" lon="-1.92013">
        <ele>19</ele>
        <time>2018-04-23T01:16:01Z</time>
      </trkpt>
      <trkpt lat="46.70655" lon="-1.92014">
        <ele>19</ele>
        <time>2018-04-23T01:17:01Z</time>
      </trkpt>
      <trkpt lat="46.70655" lon="-1.92015">
        <ele>19</ele>
        <time>2018-04-23T01:18:01Z</time>
      </trkpt>
      <trkpt lat="46.70654" lon="-1.92015">
        <ele>19</ele>
        <time>2018-04-23T01:19:01Z</time>
      </trkpt>
      <trkpt lat="46.70654" lon="-1.92016">
        <ele>19</ele>
        <time>2018-04-23T01:20:01Z</time>
      </trkpt>
      <trkpt lat="46.70654" lon="-1.92017">
        <ele>19</ele>
        <time>2018-04-23T01:21:01Z</time>
      </trkpt>
      <trkpt lat="46.70654" lon="-1.92018">
        <ele>19</ele>
        <time>2018-04-23T01:22:01Z</time>
      </trkpt>
      <trkpt lat="46.70653" lon="-1.92019">
        <ele>19</ele>
        <time>2018-04-23T01:23:01Z</time>
      </trkpt>
      <trkpt lat="46.70653" lon="-1.9202">
        <ele>19</ele>
        <time>2018-04-23T01:24:01Z</time>
      </trkpt>
      <trkpt lat="46.70652" lon="-1.92021">
        <ele>19</ele>
        <time>2018-04-23T01:25:01Z</time>
      </trkpt>
      <trkpt lat="46.70652" lon="-1.92022">
        <ele>19</ele>
        <time>2018-04-23T01:26:01Z</time>
      </trkpt>
      <trkpt lat="46.70651" lon="-1.92022">
        <ele>19</ele>
        <time>2018-04-23T01:27:01Z</time>
      </trkpt>
      <trkpt lat="46.70651" lon="-1.92023">
        <ele>19</ele>
        <time>2018-04-23T01:28:01Z</time>
      </trkpt>
      <trkpt lat="46.7065" lon="-1.92023">
        <ele>19</ele>
        <time>2018-04-23T01:29:01Z</time>
      </trkpt>
      <trkpt lat="46.70649" lon="-1.92024">
        <ele>19</ele>
        <time>2018-04-23T01:30:01Z</time>
      </trkpt>
      <trkpt lat="46.70644" lon="-1.92039">
        <ele>19</ele>
        <time>2018-04-23T01:31:01Z</time>
      </trkpt>
      <trkpt lat="46.70642" lon="-1.9205">
        <ele>19</ele>
        <time>2018-04-23T01:32:01Z</time>
      </trkpt>
      <trkpt lat="46.70642" lon="-1.92056">
        <ele>19</ele>
        <time>2018-04-23T01:33:01Z</time>
      </trkpt>
      <trkpt lat="46.7064" lon="-1.92095">
        <ele>20</ele>
        <time>2018-04-23T01:34:01Z</time>
      </trkpt>
      <trkpt lat="46.7064" lon="-1.92109">
        <ele>20</ele>
        <time>2018-04-23T01:35:01Z</time>
      </trkpt>
      <trkpt lat="46.70639" lon="-1.92134">
        <ele>19</ele>
        <time>2018-04-23T01:36:01Z</time>
      </trkpt>
      <trkpt lat="46.70637" lon="-1.92186">
        <ele>19</ele>
        <time>2018-04-23T01:37:01Z</time>
      </trkpt>
      <trkpt lat="46.70634" lon="-1.92221">
        <ele>19</ele>
        <time>2018-04-23T01:38:01Z</time>
      </trkpt>
      <trkpt lat="46.70628" lon="-1.92248">
        <ele>20</ele>
        <time>2018-04-23T01:39:01Z</time>
      </trkpt>
      <trkpt lat="46.70619" lon="-1.92271">
        <ele>19</ele>
        <time>2018-04-23T01:40:01Z</time>
      </trkpt>
      <trkpt lat="46.7061" lon="-1.92289">
        <ele>19</ele>
        <time>2018-04-23T01:41:01Z</time>
      </trkpt>
      <trkpt lat="46.70602" lon="-1.92304">
        <ele>18</ele>
        <time>2018-04-23T01:42:01Z</time>
      </trkpt>
      <trkpt lat="46.70586" lon="-1.92327">
        <ele>18</ele>
        <time>2018-04-23T01:43:01Z</time>
      </trkpt>
      <trkpt lat="46.70582" lon="-1.92333">
        <ele>18</ele>
        <time>2018-04-23T01:44:01Z</time>
      </trkpt>
      <trkpt lat="46.70571" lon="-1.92356">
        <ele>17</ele>
        <time>2018-04-23T01:45:01Z</time>
      </trkpt>
      <trkpt lat="46.70562" lon="-1.92377">
        <ele>17</ele>
        <time>2018-04-23T01:46:01Z</time>
      </trkpt>
      <trkpt lat="46.70559" lon="-1.92387">
        <ele>16</ele>
        <time>2018-04-23T01:47:01Z</time>
      </trkpt>
      <trkpt lat="46.70555" lon="-1.92398">
        <ele>16</ele>
        <time>2018-04-23T01:48:01Z</time>
      </trkpt>
      <trkpt lat="46.70552" lon="-1.92414">
        <ele>16</ele>
        <time>2018-04-23T01:49:01Z</time>
      </trkpt>
      <trkpt lat="46.70546" lon="-1.92441">
        <ele>15</ele>
        <time>2018-04-23T01:50:01Z</time>
      </trkpt>
      <trkpt lat="46.70541" lon="-1.92464">
        <ele>15</ele>
        <time>2018-04-23T01:51:01Z</time>
      </trkpt>
      <trkpt lat="46.7054" lon="-1.92472">
        <ele>15</ele>
        <time>2018-04-23T01:52:01Z</time>
      </trkpt>
      <trkpt lat="46.70535" lon="-1.92496">
        <ele>14</ele>
        <time>2018-04-23T01:53:01Z</time>
      </trkpt>
      <trkpt lat="46.70534" lon="-1.925">
        <ele>14</ele>
        <time>2018-04-23T01:54:01Z</time>
      </trkpt>
      <trkpt lat="46.70533" lon="-1.92502">
        <ele>14</ele>
        <time>2018-04-23T01:55:01Z</time>
      </trkpt>
      <trkpt lat="46.70527" lon="-1.92538">
        <ele>13</ele>
        <time>2018-04-23T01:56:01Z</time>
      </trkpt>
      <trkpt lat="46.70523" lon="-1.92561">
        <ele>12</ele>
        <time>2018-04-23T01:57:01Z</time>
      </trkpt>
      <trkpt lat="46.70524" lon="-1.92565">
        <ele>12</ele>
        <time>2018-04-23T01:58:01Z</time>
      </trkpt>
      <trkpt lat="46.70525" lon="-1.92575">
        <ele>12</ele>
        <time>2018-04-23T01:59:01Z</time>
      </trkpt>
      <trkpt lat="46.70525" lon="-1.92582">
        <ele>12</ele>
        <time>2018-04-23T02:00:01Z</time>
      </trkpt>
      <trkpt lat="46.70525" lon="-1.92582">
        <ele>12</ele>
        <time>2018-04-23T02:01:01Z</time>
      </trkpt>
      <trkpt lat="46.70529" lon="-1.92587">
        <ele>12</ele>
        <time>2018-04-23T02:02:01Z</time>
      </trkpt>
      <trkpt lat="46.7053" lon="-1.92592">
        <ele>12</ele>
        <time>2018-04-23T02:03:01Z</time>
      </trkpt>
      <trkpt lat="46.70531" lon="-1.92598">
        <ele>12</ele>
        <time>2018-04-23T02:04:01Z</time>
      </trkpt>
      <trkpt lat="46.7053" lon="-1.92602">
        <ele>12</ele>
        <time>2018-04-23T02:05:01Z</time>
      </trkpt>
      <trkpt lat="46.70528" lon="-1.92606">
        <ele>12</ele>
        <time>2018-04-23T02:06:01Z</time>
      </trkpt>
      <trkpt lat="46.70527" lon="-1.92607">
        <ele>12</ele>
        <time>2018-04-23T02:07:01Z</time>
      </trkpt>
      <trkpt lat="46.70525" lon="-1.92609">
        <ele>12</ele>
        <time>2018-04-23T02:08:01Z</time>
      </trkpt>
      <trkpt lat="46.70523" lon="-1.92609">
        <ele>11</ele>
        <time>2018-04-23T02:09:01Z</time>
      </trkpt>
      <trkpt lat="46.70512" lon="-1.92624">
        <ele>11</ele>
        <time>2018-04-23T02:10:01Z</time>
      </trkpt>
      <trkpt lat="46.70507" lon="-1.92632">
        <ele>11</ele>
        <time>2018-04-23T02:11:01Z</time>
      </trkpt>
      <trkpt lat="46.70504" lon="-1.92634">
        <ele>11</ele>
        <time>2018-04-23T02:12:01Z</time>
      </trkpt>
      <trkpt lat="46.70499" lon="-1.9265">
        <ele>11</ele>
        <time>2018-04-23T02:13:01Z</time>
      </trkpt>
      <trkpt lat="46.70496" lon="-1.9267">
        <ele>11</ele>
        <time>2018-04-23T02:14:01Z</time>
      </trkpt>
      <trkpt lat="46.70489" lon="-1.92701">
        <ele>10</ele>
        <time>2018-04-23T02:15:01Z</time>
      </trkpt>
      <trkpt lat="46.70484" lon="-1.9273">
        <ele>9</ele>
        <time>2018-04-23T02:16:01Z</time>
      </trkpt>
      <trkpt lat="46.70482" lon="-1.92747">
        <ele>8</ele>
        <time>2018-04-23T02:17:01Z</time>
      </trkpt>
      <trkpt lat="46.70478" lon="-1.92796">
        <ele>8</ele>
        <time>2018-04-23T02:18:01Z</time>
      </trkpt>
      <trkpt lat="46.70475" lon="-1.92841">
        <ele>8</ele>
        <time>2018-04-23T02:19:01Z</time>
      </trkpt>
      <trkpt lat="46.70472" lon="-1.92898">
        <ele>8</ele>
        <time>2018-04-23T02:20:01Z</time>
      </trkpt>
      <trkpt lat="46.70468" lon="-1.92952">
        <ele>7</ele>
        <time>2018-04-23T02:21:01Z</time>
      </trkpt>
      <trkpt lat="46.70465" lon="-1.93009">
        <ele>6</ele>
        <time>2018-04-23T02:22:01Z</time>
      </trkpt>
      <trkpt lat="46.70462" lon="-1.93045">
        <ele>6</ele>
        <time>2018-04-23T02:23:01Z</time>
      </trkpt>
      <trkpt lat="46.70458" lon="-1.93108">
        <ele>5</ele>
        <time>2018-04-23T02:24:01Z</time>
      </trkpt>
      <trkpt lat="46.70455" lon="-1.93156">
        <ele>5</ele>
        <time>2018-04-23T02:25:01Z</time>
      </trkpt>
      <trkpt lat="46.70452" lon="-1.93209">
        <ele>4</ele>
        <time>2018-04-23T02:26:01Z</time>
      </trkpt>
      <trkpt lat="46.70449" lon="-1.93254">
        <ele>3</ele>
        <time>2018-04-23T02:27:01Z</time>
      </trkpt>
      <trkpt lat="46.70449" lon="-1.93267">
        <ele>3</ele>
        <time>2018-04-23T02:28:01Z</time>
      </trkpt>
      <trkpt lat="46.70449" lon="-1.93267">
        <ele>3</ele>
        <time>2018-04-23T02:29:01Z</time>
      </trkpt>
      <trkpt lat="46.70439" lon="-1.93265">
        <ele>3</ele>
        <time>2018-04-23T02:30:01Z</time>
      </trkpt>
      <trkpt lat="46.70429" lon="-1.93262">
        <ele>3</ele>
        <time>2018-04-23T02:31:01Z</time>
      </trkpt>
      <trkpt lat="46.70419" lon="-1.93258">
        <ele>3</ele>
        <time>2018-04-23T02:32:01Z</time>
      </trkpt>
      <trkpt lat="46.70401" lon="-1.9325">
        <ele>3</ele>
        <time>2018-04-23T02:33:01Z</time>
      </trkpt>
      <trkpt lat="46.70401" lon="-1.9325">
        <ele>3</ele>
        <time>2018-04-23T02:34:01Z</time>
      </trkpt>
      <trkpt lat="46.70398" lon="-1.93249">
        <ele>3</ele>
        <time>2018-04-23T02:35:01Z</time>
      </trkpt>
      <trkpt lat="46.70362" lon="-1.9324">
        <ele>2</ele>
        <time>2018-04-23T02:36:01Z</time>
      </trkpt>
      <trkpt lat="46.70328" lon="-1.93232">
        <ele>2</ele>
        <time>2018-04-23T02:37:01Z</time>
      </trkpt>
      <trkpt lat="46.70304" lon="-1.9323">
        <ele>2</ele>
        <time>2018-04-23T02:38:01Z</time>
      </trkpt>
      <trkpt lat="46.70304" lon="-1.9323">
        <ele>2</ele>
        <time>2018-04-23T02:39:01Z</time>
      </trkpt>
      <trkpt lat="46.70295" lon="-1.93245">
        <ele>2</ele>
        <time>2018-04-23T02:40:01Z</time>
      </trkpt>
      <trkpt lat="46.70288" lon="-1.93253">
        <ele>2</ele>
        <time>2018-04-23T02:41:01Z</time>
      </trkpt>
      <trkpt lat="46.7028" lon="-1.9326">
        <ele>2</ele>
        <time>2018-04-23T02:42:01Z</time>
      </trkpt>
      <trkpt lat="46.70276" lon="-1.93263">
        <ele>2</ele>
        <time>2018-04-23T02:43:01Z</time>
      </trkpt>
      <trkpt lat="46.70263" lon="-1.93271">
        <ele>2</ele>
        <time>2018-04-23T02:44:01Z</time>
      </trkpt>
      <trkpt lat="46.70251" lon="-1.9328">
        <ele>2</ele>
        <time>2018-04-23T02:45:01Z</time>
      </trkpt>
      <trkpt lat="46.70239" lon="-1.93295">
        <ele>2</ele>
        <time>2018-04-23T02:46:01Z</time>
      </trkpt>
      <trkpt lat="46.70224" lon="-1.9332">
        <ele>1</ele>
        <time>2018-04-23T02:47:01Z</time>
      </trkpt>
      <trkpt lat="46.70216" lon="-1.93332">
        <ele>1</ele>
        <time>2018-04-23T02:48:01Z</time>
      </trkpt>
      <trkpt lat="46.70211" lon="-1.9334">
        <ele>1</ele>
        <time>2018-04-23T02:49:01Z</time>
      </trkpt>
      <trkpt lat="46.70205" lon="-1.93347">
        <ele>1</ele>
        <time>2018-04-23T02:50:01Z</time>
      </trkpt>
      <trkpt lat="46.70194" lon="-1.93356">
        <ele>1</ele>
        <time>2018-04-23T02:51:01Z</time>
      </trkpt>
      <trkpt lat="46.70181" lon="-1.93366">
        <ele>2</ele>
        <time>2018-04-23T02:52:01Z</time>
      </trkpt>
      <trkpt lat="46.70173" lon="-1.93372">
        <ele>1</ele>
        <time>2018-04-23T02:53:01Z</time>
      </trkpt>
      <trkpt lat="46.7017" lon="-1.93374">
        <ele>1</ele>
        <time>2018-04-23T02:54:01Z</time>
      </trkpt>
      <trkpt lat="46.70166" lon="-1.9338">
        <ele>1</ele>
        <time>2018-04-23T02:55:01Z</time>
      </trkpt>
      <trkpt lat="46.70161" lon="-1.93382">
        <ele>1</ele>
        <time>2018-04-23T02:56:01Z</time>
      </trkpt>
      <trkpt lat="46.70152" lon="-1.93386">
        <ele>1</ele>
        <time>2018-04-23T02:57:01Z</time>
      </trkpt>
      <trkpt lat="46.70141" lon="-1.93391">
        <ele>1</ele>
        <time>2018-04-23T02:58:01Z</time>
      </trkpt>
      <trkpt lat="46.70141" lon="-1.93391">
        <ele>1</ele>
        <time>2018-04-23T02:59:01Z</time>
      </trkpt>
      <trkpt lat="46.70141" lon="-1.93393">
        <ele>1</ele>
        <time>2018-04-23T03:00:01Z</time>
      </trkpt>
      <trkpt lat="46.70141" lon="-1.93394">
        <ele>1</ele>
        <time>2018-04-23T03:01:01Z</time>
      </trkpt>
      <trkpt lat="46.70141" lon="-1.93395">
        <ele>1</ele>
        <time>2018-04-23T03:02:01Z</time>
      </trkpt>
      <trkpt lat="46.7014" lon="-1.93396">
        <ele>1</ele>
        <time>2018-04-23T03:03:01Z</time>
      </trkpt>
      <trkpt lat="46.7014" lon="-1.93397">
        <ele>1</ele>
        <time>2018-04-23T03:04:01Z</time>
      </trkpt>
      <trkpt lat="46.7014" lon="-1.93398">
        <ele>1</ele>
        <time>2018-04-23T03:05:01Z</time>
      </trkpt>
      <trkpt lat="46.70139" lon="-1.93399">
        <ele>1</ele>
        <time>2018-04-23T03:06:01Z</time>
      </trkpt>
      <trkpt lat="46.70139" lon="-1.93401">
        <ele>1</ele>
        <time>2018-04-23T03:07:01Z</time>
      </trkpt>
      <trkpt lat="46.70138" lon="-1.93402">
        <ele>1</ele>
        <time>2018-04-23T03:08:01Z</time>
      </trkpt>
      <trkpt lat="46.70138" lon="-1.93403">
        <ele>1</ele>
        <time>2018-04-23T03:09:01Z</time>
      </trkpt>
      <trkpt lat="46.70137" lon="-1.93403">
        <ele>1</ele>
        <time>2018-04-23T03:10:01Z</time>
      </trkpt>
      <trkpt lat="46.70136" lon="-1.93404">
        <ele>1</ele>
        <time>2018-04-23T03:11:01Z</time>
      </trkpt>
      <trkpt lat="46.70136" lon="-1.93405">
        <ele>1</ele>
        <time>2018-04-23T03:12:01Z</time>
      </trkpt>
      <trkpt lat="46.70135" lon="-1.93406">
        <ele>1</ele>
        <time>2018-04-23T03:13:01Z</time>
      </trkpt>
      <trkpt lat="46.70134" lon="-1.93406">
        <ele>1</ele>
        <time>2018-04-23T03:14:01Z</time>
      </trkpt>
      <trkpt lat="46.70133" lon="-1.93407">
        <ele>1</ele>
        <time>2018-04-23T03:15:01Z</time>
      </trkpt>
      <trkpt lat="46.70132" lon="-1.93408">
        <ele>1</ele>
        <time>2018-04-23T03:16:01Z</time>
      </trkpt>
      <trkpt lat="46.70131" lon="-1.93408">
        <ele>1</ele>
        <time>2018-04-23T03:17:01Z</time>
      </trkpt>
      <trkpt lat="46.7013" lon="-1.93409">
        <ele>1</ele>
        <time>2018-04-23T03:18:01Z</time>
      </trkpt>
      <trkpt lat="46.70129" lon="-1.93409">
        <ele>1</ele>
        <time>2018-04-23T03:19:01Z</time>
      </trkpt>
      <trkpt lat="46.70128" lon="-1.93409">
        <ele>1</ele>
        <time>2018-04-23T03:20:01Z</time>
      </trkpt>
      <trkpt lat="46.70127" lon="-1.93409">
        <ele>1</ele>
        <time>2018-04-23T03:21:01Z</time>
      </trkpt>
      <trkpt lat="46.70126" lon="-1.93409">
        <ele>1</ele>
        <time>2018-04-23T03:22:01Z</time>
      </trkpt>
      <trkpt lat="46.70125" lon="-1.93409">
        <ele>1</ele>
        <time>2018-04-23T03:23:01Z</time>
      </trkpt>
      <trkpt lat="46.70124" lon="-1.93408">
        <ele>2</ele>
        <time>2018-04-23T03:24:01Z</time>
      </trkpt>
      <trkpt lat="46.70123" lon="-1.93408">
        <ele>2</ele>
        <time>2018-04-23T03:25:01Z</time>
      </trkpt>
      <trkpt lat="46.70122" lon="-1.93407">
        <ele>2</ele>
        <time>2018-04-23T03:26:01Z</time>
      </trkpt>
      <trkpt lat="46.70121" lon="-1.93407">
        <ele>2</ele>
        <time>2018-04-23T03:27:01Z</time>
      </trkpt>
      <trkpt lat="46.7012" lon="-1.93406">
        <ele>2</ele>
        <time>2018-04-23T03:28:01Z</time>
      </trkpt>
      <trkpt lat="46.7012" lon="-1.93405">
        <ele>2</ele>
        <time>2018-04-23T03:29:01Z</time>
      </trkpt>
      <trkpt lat="46.70119" lon="-1.93405">
        <ele>2</ele>
        <time>2018-04-23T03:30:01Z</time>
      </trkpt>
      <trkpt lat="46.70107" lon="-1.93404">
        <ele>2</ele>
        <time>2018-04-23T03:31:01Z</time>
      </trkpt>
      <trkpt lat="46.701" lon="-1.93405">
        <ele>2</ele>
        <time>2018-04-23T03:32:01Z</time>
      </trkpt>
      <trkpt lat="46.70092" lon="-1.93406">
        <ele>2</ele>
        <time>2018-04-23T03:33:01Z</time>
      </trkpt>
      <trkpt lat="46.70088" lon="-1.93406">
        <ele>2</ele>
        <time>2018-04-23T03:34:01Z</time>
      </trkpt>
      <trkpt lat="46.70085" lon="-1.93405">
        <ele>2</ele>
        <time>2018-04-23T03:35:01Z</time>
      </trkpt>
      <trkpt lat="46.70083" lon="-1.93405">
        <ele>2</ele>
        <time>2018-04-23T03:36:01Z</time>
      </trkpt>
      <trkpt lat="46.70062" lon="-1.93405">
        <ele>2</ele>
        <time>2018-04-23T03:37:01Z</time>
      </trkpt>
      <trkpt lat="46.70062" lon="-1.93406">
        <ele>2</ele>
        <time>2018-04-23T03:38:01Z</time>
      </trkpt>
      <trkpt lat="46.70062" lon="-1.93407">
        <ele>2</ele>
        <time>2018-04-23T03:39:01Z</time>
      </trkpt>
      <trkpt lat="46.70062" lon="-1.93408">
        <ele>2</ele>
        <time>2018-04-23T03:40:01Z</time>
      </trkpt>
      <trkpt lat="46.70062" lon="-1.93409">
        <ele>2</ele>
        <time>2018-04-23T03:41:01Z</time>
      </trkpt>
      <trkpt lat="46.70062" lon="-1.9341">
        <ele>2</ele>
        <time>2018-04-23T03:42:01Z</time>
      </trkpt>
      <trkpt lat="46.70061" lon="-1.9341">
        <ele>2</ele>
        <time>2018-04-23T03:43:01Z</time>
      </trkpt>
      <trkpt lat="46.70061" lon="-1.93411">
        <ele>2</ele>
        <time>2018-04-23T03:44:01Z</time>
      </trkpt>
      <trkpt lat="46.7006" lon="-1.93411">
        <ele>2</ele>
        <time>2018-04-23T03:45:01Z</time>
      </trkpt>
      <trkpt lat="46.7006" lon="-1.93412">
        <ele>2</ele>
        <time>2018-04-23T03:46:01Z</time>
      </trkpt>
      <trkpt lat="46.70059" lon="-1.93412">
        <ele>2</ele>
        <time>2018-04-23T03:47:01Z</time>
      </trkpt>
      <trkpt lat="46.70059" lon="-1.93413">
        <ele>2</ele>
        <time>2018-04-23T03:48:01Z</time>
      </trkpt>
      <trkpt lat="46.70058" lon="-1.93413">
        <ele>2</ele>
        <time>2018-04-23T03:49:01Z</time>
      </trkpt>
      <trkpt lat="46.70057" lon="-1.93413">
        <ele>2</ele>
        <time>2018-04-23T03:50:01Z</time>
      </trkpt>
      <trkpt lat="46.70056" lon="-1.93413">
        <ele>2</ele>
        <time>2018-04-23T03:51:01Z</time>
      </trkpt>
      <trkpt lat="46.70055" lon="-1.93413">
        <ele>2</ele>
        <time>2018-04-23T03:52:01Z</time>
      </trkpt>
      <trkpt lat="46.70055" lon="-1.93412">
        <ele>2</ele>
        <time>2018-04-23T03:53:01Z</time>
      </trkpt>
      <trkpt lat="46.70054" lon="-1.93412">
        <ele>2</ele>
        <time>2018-04-23T03:54:01Z</time>
      </trkpt>
      <trkpt lat="46.70054" lon="-1.93411">
        <ele>2</ele>
        <time>2018-04-23T03:55:01Z</time>
      </trkpt>
      <trkpt lat="46.70053" lon="-1.93411">
        <ele>2</ele>
        <time>2018-04-23T03:56:01Z</time>
      </trkpt>
      <trkpt lat="46.70053" lon="-1.9341">
        <ele>2</ele>
        <time>2018-04-23T03:57:01Z</time>
      </trkpt>
      <trkpt lat="46.70053" lon="-1.93409">
        <ele>2</ele>
        <time>2018-04-23T03:58:01Z</time>
      </trkpt>
      <trkpt lat="46.70052" lon="-1.93409">
        <ele>2</ele>
        <time>2018-04-23T03:59:01Z</time>
      </trkpt>
      <trkpt lat="46.70052" lon="-1.93408">
        <ele>2</ele>
        <time>2018-04-23T04:00:01Z</time>
      </trkpt>
      <trkpt lat="46.70052" lon="-1.93407">
        <ele>2</ele>
        <time>2018-04-23T04:01:01Z</time>
      </trkpt>
      <trkpt lat="46.70052" lon="-1.93406">
        <ele>2</ele>
        <time>2018-04-23T04:02:01Z</time>
      </trkpt>
      <trkpt lat="46.70052" lon="-1.93405">
        <ele>2</ele>
        <time>2018-04-23T04:03:01Z</time>
      </trkpt>
      <trkpt lat="46.70046" lon="-1.93402">
        <ele>2</ele>
        <time>2018-04-23T04:04:01Z</time>
      </trkpt>
      <trkpt lat="46.70043" lon="-1.93401">
        <ele>2</ele>
        <time>2018-04-23T04:05:01Z</time>
      </trkpt>
      <trkpt lat="46.70041" lon="-1.934">
        <ele>2</ele>
        <time>2018-04-23T04:06:01Z</time>
      </trkpt>
      <trkpt lat="46.70038" lon="-1.93398">
        <ele>2</ele>
        <time>2018-04-23T04:07:01Z</time>
      </trkpt>
      <trkpt lat="46.70036" lon="-1.93397">
        <ele>2</ele>
        <time>2018-04-23T04:08:01Z</time>
      </trkpt>
      <trkpt lat="46.70033" lon="-1.93394">
        <ele>2</ele>
        <time>2018-04-23T04:09:01Z</time>
      </trkpt>
      <trkpt lat="46.7003" lon="-1.93391">
        <ele>3</ele>
        <time>2018-04-23T04:10:01Z</time>
      </trkpt>
      <trkpt lat="46.70028" lon="-1.93388">
        <ele>3</ele>
        <time>2018-04-23T04:11:01Z</time>
      </trkpt>
      <trkpt lat="46.70025" lon="-1.93386">
        <ele>3</ele>
        <time>2018-04-23T04:12:01Z</time>
      </trkpt>
      <trkpt lat="46.70023" lon="-1.93384">
        <ele>3</ele>
        <time>2018-04-23T04:13:01Z</time>
      </trkpt>
      <trkpt lat="46.7002" lon="-1.93382">
        <ele>3</ele>
        <time>2018-04-23T04:14:01Z</time>
      </trkpt>
      <trkpt lat="46.70015" lon="-1.9338">
        <ele>3</ele>
        <time>2018-04-23T04:15:01Z</time>
      </trkpt>
      <trkpt lat="46.70009" lon="-1.93377">
        <ele>3</ele>
        <time>2018-04-23T04:16:01Z</time>
      </trkpt>
    </trkseg>
  </trk>
</gpx>